<?xml version="1.0" encoding="utf-8"?>
<gpx xmlns:xsi="http://www.w3.org/2001/XMLSchema-instance" xmlns:xsd="http://www.w3.org/2001/XMLSchema" version="1.1" creator="Shapelink.com" xmlns="http://www.topografix.com/GPX/1/1" xmlns:gpxtpx="http://www.garmin.com/xmlschemas/TrackPointExtension/v1">
  <metadata>
    <name>Promenad 3.02 km, 2026-05-07</name>
    <desc></desc>
    <author><name>Ingegerd Persson</name></author> 
    <time>1970-01-01T01:00:00Z</time>
  </metadata>
  <trk>
    <name>Promenad 3.02 km, 2026-05-07</name>
    <trkseg>
      <trkpt lat="56.43914" lon="12.72706833">
        <ele>0</ele>
        <time>1970-01-01T01:00:00Z</time>
        <extensions><gpxtpx:TrackPointExtension><gpxtpx:hr>85</gpxtpx:hr></gpxtpx:TrackPointExtension></extensions>
      </trkpt>
      <trkpt lat="56.43917167" lon="12.72710333">
        <ele>0</ele>
        <time>1970-01-01T01:00:00Z</time>
      </trkpt>
      <trkpt lat="56.43917333" lon="12.72709">
        <ele>0</ele>
        <time>1970-01-01T01:00:00Z</time>
      </trkpt>
      <trkpt lat="56.43916667" lon="12.72708333">
        <ele>0</ele>
        <time>1970-01-01T01:00:00Z</time>
      </trkpt>
      <trkpt lat="56.43917" lon="12.727075">
        <ele>0</ele>
        <time>1970-01-01T01:00:00Z</time>
      </trkpt>
      <trkpt lat="56.43918167" lon="12.72705833">
        <ele>0</ele>
        <time>1970-01-01T01:00:00Z</time>
      </trkpt>
      <trkpt lat="56.4392" lon="12.72704667">
        <ele>0</ele>
        <time>1970-01-01T01:00:00Z</time>
      </trkpt>
      <trkpt lat="56.43921667" lon="12.727025">
        <ele>0</ele>
        <time>1970-01-01T01:00:00Z</time>
      </trkpt>
      <trkpt lat="56.439235" lon="12.72700667">
        <ele>0</ele>
        <time>1970-01-01T01:00:00Z</time>
      </trkpt>
      <trkpt lat="56.43924667" lon="12.72699">
        <ele>0</ele>
        <time>1970-01-01T01:00:00Z</time>
      </trkpt>
      <trkpt lat="56.439255" lon="12.726975">
        <ele>0</ele>
        <time>1970-01-01T01:00:00Z</time>
      </trkpt>
      <trkpt lat="56.439265" lon="12.72695167">
        <ele>0</ele>
        <time>1970-01-01T01:00:00Z</time>
      </trkpt>
      <trkpt lat="56.43927667" lon="12.72693">
        <ele>0</ele>
        <time>1970-01-01T01:00:00Z</time>
      </trkpt>
      <trkpt lat="56.43928667" lon="12.72690667">
        <ele>0</ele>
        <time>1970-01-01T01:00:00Z</time>
      </trkpt>
      <trkpt lat="56.43929667" lon="12.72688333">
        <ele>0</ele>
        <time>1970-01-01T01:00:00Z</time>
      </trkpt>
      <trkpt lat="56.43931" lon="12.72686167">
        <ele>0</ele>
        <time>1970-01-01T01:00:00Z</time>
      </trkpt>
      <trkpt lat="56.43932667" lon="12.72684">
        <ele>0</ele>
        <time>1970-01-01T01:00:00Z</time>
      </trkpt>
      <trkpt lat="56.43934333" lon="12.72682167">
        <ele>0</ele>
        <time>1970-01-01T01:00:00Z</time>
      </trkpt>
      <trkpt lat="56.43935667" lon="12.726805">
        <ele>0</ele>
        <time>1970-01-01T01:00:00Z</time>
      </trkpt>
      <trkpt lat="56.43937333" lon="12.72678667">
        <ele>0</ele>
        <time>1970-01-01T01:00:00Z</time>
      </trkpt>
      <trkpt lat="56.43938833" lon="12.72677">
        <ele>0</ele>
        <time>1970-01-01T01:00:00Z</time>
      </trkpt>
      <trkpt lat="56.43940167" lon="12.72675">
        <ele>0</ele>
        <time>1970-01-01T01:00:00Z</time>
      </trkpt>
      <trkpt lat="56.43940167" lon="12.72675">
        <ele>0</ele>
        <time>1970-01-01T01:00:00Z</time>
      </trkpt>
      <trkpt lat="56.43943833" lon="12.72672">
        <ele>0</ele>
        <time>1970-01-01T01:00:00Z</time>
      </trkpt>
      <trkpt lat="56.43943833" lon="12.72672">
        <ele>0</ele>
        <time>1970-01-01T01:00:00Z</time>
      </trkpt>
      <trkpt lat="56.439475" lon="12.72670167">
        <ele>0</ele>
        <time>1970-01-01T01:00:00Z</time>
      </trkpt>
      <trkpt lat="56.43948833" lon="12.72669">
        <ele>0</ele>
        <time>1970-01-01T01:00:00Z</time>
      </trkpt>
      <trkpt lat="56.43950167" lon="12.72667833">
        <ele>0</ele>
        <time>1970-01-01T01:00:00Z</time>
      </trkpt>
      <trkpt lat="56.439515" lon="12.72666167">
        <ele>0</ele>
        <time>1970-01-01T01:00:00Z</time>
      </trkpt>
      <trkpt lat="56.439515" lon="12.72666167">
        <ele>0</ele>
        <time>1970-01-01T01:00:00Z</time>
      </trkpt>
      <trkpt lat="56.43953833" lon="12.72663">
        <ele>0</ele>
        <time>1970-01-01T01:00:00Z</time>
      </trkpt>
      <trkpt lat="56.43953833" lon="12.72663">
        <ele>0</ele>
        <time>1970-01-01T01:00:00Z</time>
      </trkpt>
      <trkpt lat="56.43955167" lon="12.72661833">
        <ele>0</ele>
        <time>1970-01-01T01:00:00Z</time>
      </trkpt>
      <trkpt lat="56.43956333" lon="12.72660667">
        <ele>0</ele>
        <time>1970-01-01T01:00:00Z</time>
      </trkpt>
      <trkpt lat="56.439575" lon="12.72659333">
        <ele>0</ele>
        <time>1970-01-01T01:00:00Z</time>
      </trkpt>
      <trkpt lat="56.43958667" lon="12.72658167">
        <ele>0</ele>
        <time>1970-01-01T01:00:00Z</time>
      </trkpt>
      <trkpt lat="56.4396" lon="12.72657667">
        <ele>0</ele>
        <time>1970-01-01T01:00:00Z</time>
      </trkpt>
      <trkpt lat="56.439615" lon="12.72656833">
        <ele>0</ele>
        <time>1970-01-01T01:00:00Z</time>
      </trkpt>
      <trkpt lat="56.43962833" lon="12.72655667">
        <ele>0</ele>
        <time>1970-01-01T01:00:00Z</time>
      </trkpt>
      <trkpt lat="56.43964333" lon="12.72653667">
        <ele>0</ele>
        <time>1970-01-01T01:00:00Z</time>
      </trkpt>
      <trkpt lat="56.43965667" lon="12.72652">
        <ele>0</ele>
        <time>1970-01-01T01:00:00Z</time>
      </trkpt>
      <trkpt lat="56.43967167" lon="12.72650333">
        <ele>0</ele>
        <time>1970-01-01T01:00:00Z</time>
      </trkpt>
      <trkpt lat="56.439685" lon="12.72649">
        <ele>0</ele>
        <time>1970-01-01T01:00:00Z</time>
      </trkpt>
      <trkpt lat="56.43969833" lon="12.72647667">
        <ele>0</ele>
        <time>1970-01-01T01:00:00Z</time>
      </trkpt>
      <trkpt lat="56.43970833" lon="12.72646333">
        <ele>0</ele>
        <time>1970-01-01T01:00:00Z</time>
      </trkpt>
      <trkpt lat="56.43972167" lon="12.72645167">
        <ele>0</ele>
        <time>1970-01-01T01:00:00Z</time>
      </trkpt>
      <trkpt lat="56.43973333" lon="12.72643667">
        <ele>0</ele>
        <time>1970-01-01T01:00:00Z</time>
      </trkpt>
      <trkpt lat="56.43974333" lon="12.72641667">
        <ele>0</ele>
        <time>1970-01-01T01:00:00Z</time>
      </trkpt>
      <trkpt lat="56.43975333" lon="12.72640333">
        <ele>0</ele>
        <time>1970-01-01T01:00:00Z</time>
      </trkpt>
      <trkpt lat="56.43976333" lon="12.72639167">
        <ele>0</ele>
        <time>1970-01-01T01:00:00Z</time>
      </trkpt>
      <trkpt lat="56.43979167" lon="12.72637333">
        <ele>0</ele>
        <time>1970-01-01T01:00:00Z</time>
      </trkpt>
      <trkpt lat="56.43979167" lon="12.72637333">
        <ele>0</ele>
        <time>1970-01-01T01:00:00Z</time>
      </trkpt>
      <trkpt lat="56.43980667" lon="12.72636333">
        <ele>0</ele>
        <time>1970-01-01T01:00:00Z</time>
      </trkpt>
      <trkpt lat="56.43982333" lon="12.72635667">
        <ele>0</ele>
        <time>1970-01-01T01:00:00Z</time>
      </trkpt>
      <trkpt lat="56.43985" lon="12.726335">
        <ele>0</ele>
        <time>1970-01-01T01:00:00Z</time>
      </trkpt>
      <trkpt lat="56.43986333" lon="12.72632167">
        <ele>0</ele>
        <time>1970-01-01T01:00:00Z</time>
      </trkpt>
      <trkpt lat="56.43986333" lon="12.72632167">
        <ele>0</ele>
        <time>1970-01-01T01:00:00Z</time>
      </trkpt>
      <trkpt lat="56.43987667" lon="12.72631333">
        <ele>0</ele>
        <time>1970-01-01T01:00:00Z</time>
      </trkpt>
      <trkpt lat="56.43988833" lon="12.726295">
        <ele>0</ele>
        <time>1970-01-01T01:00:00Z</time>
      </trkpt>
      <trkpt lat="56.43990167" lon="12.72627833">
        <ele>0</ele>
        <time>1970-01-01T01:00:00Z</time>
      </trkpt>
      <trkpt lat="56.43992833" lon="12.726255">
        <ele>0</ele>
        <time>1970-01-01T01:00:00Z</time>
      </trkpt>
      <trkpt lat="56.43992833" lon="12.726255">
        <ele>0</ele>
        <time>1970-01-01T01:00:00Z</time>
      </trkpt>
      <trkpt lat="56.43994167" lon="12.72624833">
        <ele>0</ele>
        <time>1970-01-01T01:00:00Z</time>
      </trkpt>
      <trkpt lat="56.43995833" lon="12.72624167">
        <ele>0</ele>
        <time>1970-01-01T01:00:00Z</time>
      </trkpt>
      <trkpt lat="56.43999167" lon="12.72622667">
        <ele>0</ele>
        <time>1970-01-01T01:00:00Z</time>
      </trkpt>
      <trkpt lat="56.440005" lon="12.72622">
        <ele>0</ele>
        <time>1970-01-01T01:00:00Z</time>
      </trkpt>
      <trkpt lat="56.440005" lon="12.72622">
        <ele>0</ele>
        <time>1970-01-01T01:00:00Z</time>
      </trkpt>
      <trkpt lat="56.44001667" lon="12.72621">
        <ele>0</ele>
        <time>1970-01-01T01:00:00Z</time>
      </trkpt>
      <trkpt lat="56.44003167" lon="12.726205">
        <ele>0</ele>
        <time>1970-01-01T01:00:00Z</time>
      </trkpt>
      <trkpt lat="56.440045" lon="12.72619167">
        <ele>0</ele>
        <time>1970-01-01T01:00:00Z</time>
      </trkpt>
      <trkpt lat="56.440075" lon="12.72617667">
        <ele>0</ele>
        <time>1970-01-01T01:00:00Z</time>
      </trkpt>
      <trkpt lat="56.44008667" lon="12.72616">
        <ele>0</ele>
        <time>1970-01-01T01:00:00Z</time>
      </trkpt>
      <trkpt lat="56.44008667" lon="12.72616">
        <ele>0</ele>
        <time>1970-01-01T01:00:00Z</time>
      </trkpt>
      <trkpt lat="56.4401" lon="12.726145">
        <ele>0</ele>
        <time>1970-01-01T01:00:00Z</time>
      </trkpt>
      <trkpt lat="56.44011167" lon="12.726135">
        <ele>0</ele>
        <time>1970-01-01T01:00:00Z</time>
      </trkpt>
      <trkpt lat="56.440125" lon="12.726125">
        <ele>0</ele>
        <time>1970-01-01T01:00:00Z</time>
      </trkpt>
      <trkpt lat="56.44013833" lon="12.72611833">
        <ele>0</ele>
        <time>1970-01-01T01:00:00Z</time>
      </trkpt>
      <trkpt lat="56.44015167" lon="12.72610833">
        <ele>0</ele>
        <time>1970-01-01T01:00:00Z</time>
      </trkpt>
      <trkpt lat="56.44016333" lon="12.72610167">
        <ele>0</ele>
        <time>1970-01-01T01:00:00Z</time>
      </trkpt>
      <trkpt lat="56.44017667" lon="12.726095">
        <ele>0</ele>
        <time>1970-01-01T01:00:00Z</time>
      </trkpt>
      <trkpt lat="56.44019" lon="12.72608333">
        <ele>0</ele>
        <time>1970-01-01T01:00:00Z</time>
      </trkpt>
      <trkpt lat="56.440205" lon="12.72607">
        <ele>0</ele>
        <time>1970-01-01T01:00:00Z</time>
        <extensions><gpxtpx:TrackPointExtension><gpxtpx:hr>82</gpxtpx:hr></gpxtpx:TrackPointExtension></extensions>
      </trkpt>
      <trkpt lat="56.44021667" lon="12.726055">
        <ele>0</ele>
        <time>1970-01-01T01:00:00Z</time>
        <extensions><gpxtpx:TrackPointExtension><gpxtpx:hr>82</gpxtpx:hr></gpxtpx:TrackPointExtension></extensions>
      </trkpt>
      <trkpt lat="56.44023167" lon="12.72604833">
        <ele>0</ele>
        <time>1970-01-01T01:00:00Z</time>
        <extensions><gpxtpx:TrackPointExtension><gpxtpx:hr>82</gpxtpx:hr></gpxtpx:TrackPointExtension></extensions>
      </trkpt>
      <trkpt lat="56.440245" lon="12.72604667">
        <ele>0</ele>
        <time>1970-01-01T01:00:00Z</time>
        <extensions><gpxtpx:TrackPointExtension><gpxtpx:hr>82</gpxtpx:hr></gpxtpx:TrackPointExtension></extensions>
      </trkpt>
      <trkpt lat="56.44026" lon="12.72604167">
        <ele>0</ele>
        <time>1970-01-01T01:00:00Z</time>
        <extensions><gpxtpx:TrackPointExtension><gpxtpx:hr>82</gpxtpx:hr></gpxtpx:TrackPointExtension></extensions>
      </trkpt>
      <trkpt lat="56.44027167" lon="12.72603667">
        <ele>0</ele>
        <time>1970-01-01T01:00:00Z</time>
        <extensions><gpxtpx:TrackPointExtension><gpxtpx:hr>82</gpxtpx:hr></gpxtpx:TrackPointExtension></extensions>
      </trkpt>
      <trkpt lat="56.440285" lon="12.72602167">
        <ele>0</ele>
        <time>1970-01-01T01:00:00Z</time>
        <extensions><gpxtpx:TrackPointExtension><gpxtpx:hr>82</gpxtpx:hr></gpxtpx:TrackPointExtension></extensions>
      </trkpt>
      <trkpt lat="56.440295" lon="12.72600833">
        <ele>0</ele>
        <time>1970-01-01T01:00:00Z</time>
        <extensions><gpxtpx:TrackPointExtension><gpxtpx:hr>82</gpxtpx:hr></gpxtpx:TrackPointExtension></extensions>
      </trkpt>
      <trkpt lat="56.44030833" lon="12.726">
        <ele>0</ele>
        <time>1970-01-01T01:00:00Z</time>
        <extensions><gpxtpx:TrackPointExtension><gpxtpx:hr>82</gpxtpx:hr></gpxtpx:TrackPointExtension></extensions>
      </trkpt>
      <trkpt lat="56.44032167" lon="12.72598833">
        <ele>0</ele>
        <time>1970-01-01T01:00:00Z</time>
        <extensions><gpxtpx:TrackPointExtension><gpxtpx:hr>82</gpxtpx:hr></gpxtpx:TrackPointExtension></extensions>
      </trkpt>
      <trkpt lat="56.440335" lon="12.72597333">
        <ele>0</ele>
        <time>1970-01-01T01:00:00Z</time>
      </trkpt>
      <trkpt lat="56.44035" lon="12.72596">
        <ele>0</ele>
        <time>1970-01-01T01:00:00Z</time>
      </trkpt>
      <trkpt lat="56.44036667" lon="12.72594833">
        <ele>0</ele>
        <time>1970-01-01T01:00:00Z</time>
      </trkpt>
      <trkpt lat="56.44038167" lon="12.72593167">
        <ele>0</ele>
        <time>1970-01-01T01:00:00Z</time>
      </trkpt>
      <trkpt lat="56.44039333" lon="12.72591667">
        <ele>0</ele>
        <time>1970-01-01T01:00:00Z</time>
      </trkpt>
      <trkpt lat="56.44040667" lon="12.72591">
        <ele>0</ele>
        <time>1970-01-01T01:00:00Z</time>
      </trkpt>
      <trkpt lat="56.44042167" lon="12.72590333">
        <ele>0</ele>
        <time>1970-01-01T01:00:00Z</time>
      </trkpt>
      <trkpt lat="56.44043667" lon="12.72589667">
        <ele>0</ele>
        <time>1970-01-01T01:00:00Z</time>
      </trkpt>
      <trkpt lat="56.44045" lon="12.72589167">
        <ele>0</ele>
        <time>1970-01-01T01:00:00Z</time>
      </trkpt>
      <trkpt lat="56.44046" lon="12.72587833">
        <ele>0</ele>
        <time>1970-01-01T01:00:00Z</time>
      </trkpt>
      <trkpt lat="56.44046833" lon="12.725865">
        <ele>0</ele>
        <time>1970-01-01T01:00:00Z</time>
      </trkpt>
      <trkpt lat="56.44048" lon="12.72585667">
        <ele>0</ele>
        <time>1970-01-01T01:00:00Z</time>
      </trkpt>
      <trkpt lat="56.44049167" lon="12.72584667">
        <ele>0</ele>
        <time>1970-01-01T01:00:00Z</time>
      </trkpt>
      <trkpt lat="56.44050333" lon="12.725835">
        <ele>0</ele>
        <time>1970-01-01T01:00:00Z</time>
      </trkpt>
      <trkpt lat="56.44051667" lon="12.72581833">
        <ele>0</ele>
        <time>1970-01-01T01:00:00Z</time>
      </trkpt>
      <trkpt lat="56.44053167" lon="12.72580167">
        <ele>0</ele>
        <time>1970-01-01T01:00:00Z</time>
      </trkpt>
      <trkpt lat="56.44054333" lon="12.72578667">
        <ele>0</ele>
        <time>1970-01-01T01:00:00Z</time>
      </trkpt>
      <trkpt lat="56.44055667" lon="12.72577333">
        <ele>0</ele>
        <time>1970-01-01T01:00:00Z</time>
      </trkpt>
      <trkpt lat="56.44057" lon="12.72576167">
        <ele>0</ele>
        <time>1970-01-01T01:00:00Z</time>
      </trkpt>
      <trkpt lat="56.44058167" lon="12.725745">
        <ele>0</ele>
        <time>1970-01-01T01:00:00Z</time>
      </trkpt>
      <trkpt lat="56.44059333" lon="12.72573333">
        <ele>0</ele>
        <time>1970-01-01T01:00:00Z</time>
      </trkpt>
      <trkpt lat="56.44060667" lon="12.725715">
        <ele>0</ele>
        <time>1970-01-01T01:00:00Z</time>
      </trkpt>
      <trkpt lat="56.44062" lon="12.7257">
        <ele>0</ele>
        <time>1970-01-01T01:00:00Z</time>
      </trkpt>
      <trkpt lat="56.44063333" lon="12.72568667">
        <ele>0</ele>
        <time>1970-01-01T01:00:00Z</time>
      </trkpt>
      <trkpt lat="56.44064833" lon="12.72568167">
        <ele>0</ele>
        <time>1970-01-01T01:00:00Z</time>
      </trkpt>
      <trkpt lat="56.44065667" lon="12.72567167">
        <ele>0</ele>
        <time>1970-01-01T01:00:00Z</time>
      </trkpt>
      <trkpt lat="56.440665" lon="12.72565667">
        <ele>0</ele>
        <time>1970-01-01T01:00:00Z</time>
      </trkpt>
      <trkpt lat="56.44068167" lon="12.725615">
        <ele>0</ele>
        <time>1970-01-01T01:00:00Z</time>
      </trkpt>
      <trkpt lat="56.44068167" lon="12.725615">
        <ele>0</ele>
        <time>1970-01-01T01:00:00Z</time>
      </trkpt>
      <trkpt lat="56.44069333" lon="12.72558833">
        <ele>0</ele>
        <time>1970-01-01T01:00:00Z</time>
      </trkpt>
      <trkpt lat="56.44070333" lon="12.725565">
        <ele>0</ele>
        <time>1970-01-01T01:00:00Z</time>
      </trkpt>
      <trkpt lat="56.44071167" lon="12.72553333">
        <ele>0</ele>
        <time>1970-01-01T01:00:00Z</time>
      </trkpt>
      <trkpt lat="56.44072167" lon="12.725515">
        <ele>0</ele>
        <time>1970-01-01T01:00:00Z</time>
      </trkpt>
      <trkpt lat="56.44073333" lon="12.7255">
        <ele>0</ele>
        <time>1970-01-01T01:00:00Z</time>
      </trkpt>
      <trkpt lat="56.44074667" lon="12.72548333">
        <ele>0</ele>
        <time>1970-01-01T01:00:00Z</time>
      </trkpt>
      <trkpt lat="56.44075833" lon="12.72546667">
        <ele>0</ele>
        <time>1970-01-01T01:00:00Z</time>
      </trkpt>
      <trkpt lat="56.44076667" lon="12.72545667">
        <ele>0</ele>
        <time>1970-01-01T01:00:00Z</time>
      </trkpt>
      <trkpt lat="56.440775" lon="12.72544333">
        <ele>0</ele>
        <time>1970-01-01T01:00:00Z</time>
      </trkpt>
      <trkpt lat="56.44078333" lon="12.72543">
        <ele>0</ele>
        <time>1970-01-01T01:00:00Z</time>
      </trkpt>
      <trkpt lat="56.44079" lon="12.72541">
        <ele>0</ele>
        <time>1970-01-01T01:00:00Z</time>
      </trkpt>
      <trkpt lat="56.4408" lon="12.725395">
        <ele>0</ele>
        <time>1970-01-01T01:00:00Z</time>
      </trkpt>
      <trkpt lat="56.44081" lon="12.72538167">
        <ele>0</ele>
        <time>1970-01-01T01:00:00Z</time>
      </trkpt>
      <trkpt lat="56.44082" lon="12.72536">
        <ele>0</ele>
        <time>1970-01-01T01:00:00Z</time>
      </trkpt>
      <trkpt lat="56.44083" lon="12.72533">
        <ele>0</ele>
        <time>1970-01-01T01:00:00Z</time>
      </trkpt>
      <trkpt lat="56.44084167" lon="12.72530333">
        <ele>0</ele>
        <time>1970-01-01T01:00:00Z</time>
      </trkpt>
      <trkpt lat="56.44085333" lon="12.72527833">
        <ele>0</ele>
        <time>1970-01-01T01:00:00Z</time>
        <extensions><gpxtpx:TrackPointExtension><gpxtpx:hr>82</gpxtpx:hr></gpxtpx:TrackPointExtension></extensions>
      </trkpt>
      <trkpt lat="56.440865" lon="12.72525833">
        <ele>0</ele>
        <time>1970-01-01T01:00:00Z</time>
        <extensions><gpxtpx:TrackPointExtension><gpxtpx:hr>82</gpxtpx:hr></gpxtpx:TrackPointExtension></extensions>
      </trkpt>
      <trkpt lat="56.440875" lon="12.72523833">
        <ele>0</ele>
        <time>1970-01-01T01:00:00Z</time>
        <extensions><gpxtpx:TrackPointExtension><gpxtpx:hr>82</gpxtpx:hr></gpxtpx:TrackPointExtension></extensions>
      </trkpt>
      <trkpt lat="56.440885" lon="12.72522">
        <ele>0</ele>
        <time>1970-01-01T01:00:00Z</time>
        <extensions><gpxtpx:TrackPointExtension><gpxtpx:hr>82</gpxtpx:hr></gpxtpx:TrackPointExtension></extensions>
      </trkpt>
      <trkpt lat="56.44089833" lon="12.72520667">
        <ele>0</ele>
        <time>1970-01-01T01:00:00Z</time>
        <extensions><gpxtpx:TrackPointExtension><gpxtpx:hr>82</gpxtpx:hr></gpxtpx:TrackPointExtension></extensions>
      </trkpt>
      <trkpt lat="56.44091" lon="12.725195">
        <ele>0</ele>
        <time>1970-01-01T01:00:00Z</time>
        <extensions><gpxtpx:TrackPointExtension><gpxtpx:hr>82</gpxtpx:hr></gpxtpx:TrackPointExtension></extensions>
      </trkpt>
      <trkpt lat="56.44092333" lon="12.72518">
        <ele>0</ele>
        <time>1970-01-01T01:00:00Z</time>
        <extensions><gpxtpx:TrackPointExtension><gpxtpx:hr>82</gpxtpx:hr></gpxtpx:TrackPointExtension></extensions>
      </trkpt>
      <trkpt lat="56.44093667" lon="12.72516667">
        <ele>0</ele>
        <time>1970-01-01T01:00:00Z</time>
        <extensions><gpxtpx:TrackPointExtension><gpxtpx:hr>82</gpxtpx:hr></gpxtpx:TrackPointExtension></extensions>
      </trkpt>
      <trkpt lat="56.44094833" lon="12.72515333">
        <ele>0</ele>
        <time>1970-01-01T01:00:00Z</time>
        <extensions><gpxtpx:TrackPointExtension><gpxtpx:hr>83</gpxtpx:hr></gpxtpx:TrackPointExtension></extensions>
      </trkpt>
      <trkpt lat="56.44095833" lon="12.72513833">
        <ele>0</ele>
        <time>1970-01-01T01:00:00Z</time>
        <extensions><gpxtpx:TrackPointExtension><gpxtpx:hr>83</gpxtpx:hr></gpxtpx:TrackPointExtension></extensions>
      </trkpt>
      <trkpt lat="56.44096833" lon="12.72512">
        <ele>0</ele>
        <time>1970-01-01T01:00:00Z</time>
        <extensions><gpxtpx:TrackPointExtension><gpxtpx:hr>83</gpxtpx:hr></gpxtpx:TrackPointExtension></extensions>
      </trkpt>
      <trkpt lat="56.44098" lon="12.725105">
        <ele>0</ele>
        <time>1970-01-01T01:00:00Z</time>
        <extensions><gpxtpx:TrackPointExtension><gpxtpx:hr>84</gpxtpx:hr></gpxtpx:TrackPointExtension></extensions>
      </trkpt>
      <trkpt lat="56.44099167" lon="12.72509">
        <ele>0</ele>
        <time>1970-01-01T01:00:00Z</time>
        <extensions><gpxtpx:TrackPointExtension><gpxtpx:hr>84</gpxtpx:hr></gpxtpx:TrackPointExtension></extensions>
      </trkpt>
      <trkpt lat="56.44100333" lon="12.725075">
        <ele>0</ele>
        <time>1970-01-01T01:00:00Z</time>
        <extensions><gpxtpx:TrackPointExtension><gpxtpx:hr>84</gpxtpx:hr></gpxtpx:TrackPointExtension></extensions>
      </trkpt>
      <trkpt lat="56.44101333" lon="12.725055">
        <ele>0</ele>
        <time>1970-01-01T01:00:00Z</time>
        <extensions><gpxtpx:TrackPointExtension><gpxtpx:hr>85</gpxtpx:hr></gpxtpx:TrackPointExtension></extensions>
      </trkpt>
      <trkpt lat="56.44102333" lon="12.725035">
        <ele>0</ele>
        <time>1970-01-01T01:00:00Z</time>
        <extensions><gpxtpx:TrackPointExtension><gpxtpx:hr>85</gpxtpx:hr></gpxtpx:TrackPointExtension></extensions>
      </trkpt>
      <trkpt lat="56.44103333" lon="12.72501667">
        <ele>0</ele>
        <time>1970-01-01T01:00:00Z</time>
        <extensions><gpxtpx:TrackPointExtension><gpxtpx:hr>85</gpxtpx:hr></gpxtpx:TrackPointExtension></extensions>
      </trkpt>
      <trkpt lat="56.441045" lon="12.72499833">
        <ele>0</ele>
        <time>1970-01-01T01:00:00Z</time>
        <extensions><gpxtpx:TrackPointExtension><gpxtpx:hr>85</gpxtpx:hr></gpxtpx:TrackPointExtension></extensions>
      </trkpt>
      <trkpt lat="56.44105833" lon="12.72498167">
        <ele>0</ele>
        <time>1970-01-01T01:00:00Z</time>
        <extensions><gpxtpx:TrackPointExtension><gpxtpx:hr>85</gpxtpx:hr></gpxtpx:TrackPointExtension></extensions>
      </trkpt>
      <trkpt lat="56.44107167" lon="12.72496167">
        <ele>0</ele>
        <time>1970-01-01T01:00:00Z</time>
        <extensions><gpxtpx:TrackPointExtension><gpxtpx:hr>85</gpxtpx:hr></gpxtpx:TrackPointExtension></extensions>
      </trkpt>
      <trkpt lat="56.441085" lon="12.72494833">
        <ele>0</ele>
        <time>1970-01-01T01:00:00Z</time>
        <extensions><gpxtpx:TrackPointExtension><gpxtpx:hr>85</gpxtpx:hr></gpxtpx:TrackPointExtension></extensions>
      </trkpt>
      <trkpt lat="56.44109667" lon="12.724935">
        <ele>0</ele>
        <time>1970-01-01T01:00:00Z</time>
        <extensions><gpxtpx:TrackPointExtension><gpxtpx:hr>85</gpxtpx:hr></gpxtpx:TrackPointExtension></extensions>
      </trkpt>
      <trkpt lat="56.44110833" lon="12.72491833">
        <ele>0</ele>
        <time>1970-01-01T01:00:00Z</time>
        <extensions><gpxtpx:TrackPointExtension><gpxtpx:hr>85</gpxtpx:hr></gpxtpx:TrackPointExtension></extensions>
      </trkpt>
      <trkpt lat="56.44112167" lon="12.72490333">
        <ele>0</ele>
        <time>1970-01-01T01:00:00Z</time>
        <extensions><gpxtpx:TrackPointExtension><gpxtpx:hr>85</gpxtpx:hr></gpxtpx:TrackPointExtension></extensions>
      </trkpt>
      <trkpt lat="56.44113333" lon="12.72488333">
        <ele>0</ele>
        <time>1970-01-01T01:00:00Z</time>
        <extensions><gpxtpx:TrackPointExtension><gpxtpx:hr>85</gpxtpx:hr></gpxtpx:TrackPointExtension></extensions>
      </trkpt>
      <trkpt lat="56.44114667" lon="12.72486667">
        <ele>0</ele>
        <time>1970-01-01T01:00:00Z</time>
        <extensions><gpxtpx:TrackPointExtension><gpxtpx:hr>85</gpxtpx:hr></gpxtpx:TrackPointExtension></extensions>
      </trkpt>
      <trkpt lat="56.44116" lon="12.72485">
        <ele>0</ele>
        <time>1970-01-01T01:00:00Z</time>
      </trkpt>
      <trkpt lat="56.44116833" lon="12.72483167">
        <ele>0</ele>
        <time>1970-01-01T01:00:00Z</time>
      </trkpt>
      <trkpt lat="56.44118" lon="12.72481667">
        <ele>0</ele>
        <time>1970-01-01T01:00:00Z</time>
      </trkpt>
      <trkpt lat="56.441195" lon="12.72480167">
        <ele>0</ele>
        <time>1970-01-01T01:00:00Z</time>
      </trkpt>
      <trkpt lat="56.44120667" lon="12.724785">
        <ele>0</ele>
        <time>1970-01-01T01:00:00Z</time>
        <extensions><gpxtpx:TrackPointExtension><gpxtpx:hr>86</gpxtpx:hr></gpxtpx:TrackPointExtension></extensions>
      </trkpt>
      <trkpt lat="56.44122" lon="12.72476667">
        <ele>0</ele>
        <time>1970-01-01T01:00:00Z</time>
        <extensions><gpxtpx:TrackPointExtension><gpxtpx:hr>87</gpxtpx:hr></gpxtpx:TrackPointExtension></extensions>
      </trkpt>
      <trkpt lat="56.44123333" lon="12.72475167">
        <ele>0</ele>
        <time>1970-01-01T01:00:00Z</time>
        <extensions><gpxtpx:TrackPointExtension><gpxtpx:hr>87</gpxtpx:hr></gpxtpx:TrackPointExtension></extensions>
      </trkpt>
      <trkpt lat="56.44124833" lon="12.72474">
        <ele>0</ele>
        <time>1970-01-01T01:00:00Z</time>
        <extensions><gpxtpx:TrackPointExtension><gpxtpx:hr>88</gpxtpx:hr></gpxtpx:TrackPointExtension></extensions>
      </trkpt>
      <trkpt lat="56.44126167" lon="12.72472333">
        <ele>0</ele>
        <time>1970-01-01T01:00:00Z</time>
        <extensions><gpxtpx:TrackPointExtension><gpxtpx:hr>90</gpxtpx:hr></gpxtpx:TrackPointExtension></extensions>
      </trkpt>
      <trkpt lat="56.441275" lon="12.72471">
        <ele>0</ele>
        <time>1970-01-01T01:00:00Z</time>
        <extensions><gpxtpx:TrackPointExtension><gpxtpx:hr>91</gpxtpx:hr></gpxtpx:TrackPointExtension></extensions>
      </trkpt>
      <trkpt lat="56.44129" lon="12.72470167">
        <ele>0</ele>
        <time>1970-01-01T01:00:00Z</time>
        <extensions><gpxtpx:TrackPointExtension><gpxtpx:hr>91</gpxtpx:hr></gpxtpx:TrackPointExtension></extensions>
      </trkpt>
      <trkpt lat="56.44130667" lon="12.724695">
        <ele>89.003</ele>
        <time>1970-01-01T01:00:00Z</time>
        <extensions><gpxtpx:TrackPointExtension><gpxtpx:hr>91</gpxtpx:hr></gpxtpx:TrackPointExtension></extensions>
      </trkpt>
      <trkpt lat="56.44131833" lon="12.724685">
        <ele>86.869</ele>
        <time>1970-01-01T01:00:00Z</time>
        <extensions><gpxtpx:TrackPointExtension><gpxtpx:hr>91</gpxtpx:hr></gpxtpx:TrackPointExtension></extensions>
      </trkpt>
      <trkpt lat="56.44133167" lon="12.72467333">
        <ele>87.174</ele>
        <time>1970-01-01T01:00:00Z</time>
        <extensions><gpxtpx:TrackPointExtension><gpxtpx:hr>91</gpxtpx:hr></gpxtpx:TrackPointExtension></extensions>
      </trkpt>
      <trkpt lat="56.44134333" lon="12.72466333">
        <ele>87.479</ele>
        <time>1970-01-01T01:00:00Z</time>
        <extensions><gpxtpx:TrackPointExtension><gpxtpx:hr>91</gpxtpx:hr></gpxtpx:TrackPointExtension></extensions>
      </trkpt>
      <trkpt lat="56.441355" lon="12.72464833">
        <ele>87.783</ele>
        <time>1970-01-01T01:00:00Z</time>
        <extensions><gpxtpx:TrackPointExtension><gpxtpx:hr>91</gpxtpx:hr></gpxtpx:TrackPointExtension></extensions>
      </trkpt>
      <trkpt lat="56.44136667" lon="12.724635">
        <ele>88.088</ele>
        <time>1970-01-01T01:00:00Z</time>
        <extensions><gpxtpx:TrackPointExtension><gpxtpx:hr>91</gpxtpx:hr></gpxtpx:TrackPointExtension></extensions>
      </trkpt>
      <trkpt lat="56.44137833" lon="12.72462333">
        <ele>88.393</ele>
        <time>1970-01-01T01:00:00Z</time>
        <extensions><gpxtpx:TrackPointExtension><gpxtpx:hr>91</gpxtpx:hr></gpxtpx:TrackPointExtension></extensions>
      </trkpt>
      <trkpt lat="56.44139" lon="12.72461">
        <ele>88.698</ele>
        <time>1970-01-01T01:00:00Z</time>
        <extensions><gpxtpx:TrackPointExtension><gpxtpx:hr>92</gpxtpx:hr></gpxtpx:TrackPointExtension></extensions>
      </trkpt>
      <trkpt lat="56.44140333" lon="12.72459333">
        <ele>89.003</ele>
        <time>1970-01-01T01:00:00Z</time>
        <extensions><gpxtpx:TrackPointExtension><gpxtpx:hr>92</gpxtpx:hr></gpxtpx:TrackPointExtension></extensions>
      </trkpt>
      <trkpt lat="56.44141833" lon="12.72458">
        <ele>89.307</ele>
        <time>1970-01-01T01:00:00Z</time>
        <extensions><gpxtpx:TrackPointExtension><gpxtpx:hr>92</gpxtpx:hr></gpxtpx:TrackPointExtension></extensions>
      </trkpt>
      <trkpt lat="56.44143167" lon="12.72456833">
        <ele>89.612</ele>
        <time>1970-01-01T01:00:00Z</time>
        <extensions><gpxtpx:TrackPointExtension><gpxtpx:hr>92</gpxtpx:hr></gpxtpx:TrackPointExtension></extensions>
      </trkpt>
      <trkpt lat="56.44144667" lon="12.724555">
        <ele>89.917</ele>
        <time>1970-01-01T01:00:00Z</time>
        <extensions><gpxtpx:TrackPointExtension><gpxtpx:hr>92</gpxtpx:hr></gpxtpx:TrackPointExtension></extensions>
      </trkpt>
      <trkpt lat="56.44145833" lon="12.72453833">
        <ele>90.069</ele>
        <time>1970-01-01T01:00:00Z</time>
        <extensions><gpxtpx:TrackPointExtension><gpxtpx:hr>92</gpxtpx:hr></gpxtpx:TrackPointExtension></extensions>
      </trkpt>
      <trkpt lat="56.44146833" lon="12.72451833">
        <ele>90.374</ele>
        <time>1970-01-01T01:00:00Z</time>
        <extensions><gpxtpx:TrackPointExtension><gpxtpx:hr>92</gpxtpx:hr></gpxtpx:TrackPointExtension></extensions>
      </trkpt>
      <trkpt lat="56.44148167" lon="12.72450333">
        <ele>90.374</ele>
        <time>1970-01-01T01:00:00Z</time>
        <extensions><gpxtpx:TrackPointExtension><gpxtpx:hr>93</gpxtpx:hr></gpxtpx:TrackPointExtension></extensions>
      </trkpt>
      <trkpt lat="56.44149667" lon="12.72449">
        <ele>90.527</ele>
        <time>1970-01-01T01:00:00Z</time>
        <extensions><gpxtpx:TrackPointExtension><gpxtpx:hr>93</gpxtpx:hr></gpxtpx:TrackPointExtension></extensions>
      </trkpt>
      <trkpt lat="56.44150833" lon="12.72447333">
        <ele>90.679</ele>
        <time>1970-01-01T01:00:00Z</time>
        <extensions><gpxtpx:TrackPointExtension><gpxtpx:hr>94</gpxtpx:hr></gpxtpx:TrackPointExtension></extensions>
      </trkpt>
      <trkpt lat="56.44152333" lon="12.72446333">
        <ele>90.679</ele>
        <time>1970-01-01T01:00:00Z</time>
        <extensions><gpxtpx:TrackPointExtension><gpxtpx:hr>94</gpxtpx:hr></gpxtpx:TrackPointExtension></extensions>
      </trkpt>
      <trkpt lat="56.44153667" lon="12.724455">
        <ele>90.832</ele>
        <time>1970-01-01T01:00:00Z</time>
        <extensions><gpxtpx:TrackPointExtension><gpxtpx:hr>95</gpxtpx:hr></gpxtpx:TrackPointExtension></extensions>
      </trkpt>
      <trkpt lat="56.44154833" lon="12.72444167">
        <ele>90.984</ele>
        <time>1970-01-01T01:00:00Z</time>
        <extensions><gpxtpx:TrackPointExtension><gpxtpx:hr>95</gpxtpx:hr></gpxtpx:TrackPointExtension></extensions>
      </trkpt>
      <trkpt lat="56.441555" lon="12.72443833">
        <ele>90.984</ele>
        <time>1970-01-01T01:00:00Z</time>
        <extensions><gpxtpx:TrackPointExtension><gpxtpx:hr>95</gpxtpx:hr></gpxtpx:TrackPointExtension></extensions>
      </trkpt>
      <trkpt lat="56.44156667" lon="12.72443333">
        <ele>91.136</ele>
        <time>1970-01-01T01:00:00Z</time>
        <extensions><gpxtpx:TrackPointExtension><gpxtpx:hr>96</gpxtpx:hr></gpxtpx:TrackPointExtension></extensions>
      </trkpt>
      <trkpt lat="56.44158333" lon="12.72442833">
        <ele>91.289</ele>
        <time>1970-01-01T01:00:00Z</time>
        <extensions><gpxtpx:TrackPointExtension><gpxtpx:hr>95</gpxtpx:hr></gpxtpx:TrackPointExtension></extensions>
      </trkpt>
      <trkpt lat="56.44159833" lon="12.72442">
        <ele>91.289</ele>
        <time>1970-01-01T01:00:00Z</time>
        <extensions><gpxtpx:TrackPointExtension><gpxtpx:hr>95</gpxtpx:hr></gpxtpx:TrackPointExtension></extensions>
      </trkpt>
      <trkpt lat="56.44161167" lon="12.72441">
        <ele>91.441</ele>
        <time>1970-01-01T01:00:00Z</time>
        <extensions><gpxtpx:TrackPointExtension><gpxtpx:hr>94</gpxtpx:hr></gpxtpx:TrackPointExtension></extensions>
      </trkpt>
      <trkpt lat="56.441625" lon="12.72440333">
        <ele>91.441</ele>
        <time>1970-01-01T01:00:00Z</time>
        <extensions><gpxtpx:TrackPointExtension><gpxtpx:hr>94</gpxtpx:hr></gpxtpx:TrackPointExtension></extensions>
      </trkpt>
      <trkpt lat="56.44163833" lon="12.724385">
        <ele>91.594</ele>
        <time>1970-01-01T01:00:00Z</time>
        <extensions><gpxtpx:TrackPointExtension><gpxtpx:hr>94</gpxtpx:hr></gpxtpx:TrackPointExtension></extensions>
      </trkpt>
      <trkpt lat="56.44165333" lon="12.724365">
        <ele>91.746</ele>
        <time>1970-01-01T01:00:00Z</time>
        <extensions><gpxtpx:TrackPointExtension><gpxtpx:hr>94</gpxtpx:hr></gpxtpx:TrackPointExtension></extensions>
      </trkpt>
      <trkpt lat="56.44166667" lon="12.72434667">
        <ele>91.898</ele>
        <time>1970-01-01T01:00:00Z</time>
        <extensions><gpxtpx:TrackPointExtension><gpxtpx:hr>94</gpxtpx:hr></gpxtpx:TrackPointExtension></extensions>
      </trkpt>
      <trkpt lat="56.44168" lon="12.72433167">
        <ele>91.898</ele>
        <time>1970-01-01T01:00:00Z</time>
        <extensions><gpxtpx:TrackPointExtension><gpxtpx:hr>93</gpxtpx:hr></gpxtpx:TrackPointExtension></extensions>
      </trkpt>
      <trkpt lat="56.441695" lon="12.72431667">
        <ele>92.051</ele>
        <time>1970-01-01T01:00:00Z</time>
        <extensions><gpxtpx:TrackPointExtension><gpxtpx:hr>93</gpxtpx:hr></gpxtpx:TrackPointExtension></extensions>
      </trkpt>
      <trkpt lat="56.44171" lon="12.72430667">
        <ele>92.203</ele>
        <time>1970-01-01T01:00:00Z</time>
        <extensions><gpxtpx:TrackPointExtension><gpxtpx:hr>93</gpxtpx:hr></gpxtpx:TrackPointExtension></extensions>
      </trkpt>
      <trkpt lat="56.44172333" lon="12.72429">
        <ele>92.356</ele>
        <time>1970-01-01T01:00:00Z</time>
        <extensions><gpxtpx:TrackPointExtension><gpxtpx:hr>93</gpxtpx:hr></gpxtpx:TrackPointExtension></extensions>
      </trkpt>
      <trkpt lat="56.44173167" lon="12.72426833">
        <ele>92.508</ele>
        <time>1970-01-01T01:00:00Z</time>
        <extensions><gpxtpx:TrackPointExtension><gpxtpx:hr>93</gpxtpx:hr></gpxtpx:TrackPointExtension></extensions>
      </trkpt>
      <trkpt lat="56.44174333" lon="12.72425333">
        <ele>92.66</ele>
        <time>1970-01-01T01:00:00Z</time>
        <extensions><gpxtpx:TrackPointExtension><gpxtpx:hr>93</gpxtpx:hr></gpxtpx:TrackPointExtension></extensions>
      </trkpt>
      <trkpt lat="56.44175667" lon="12.72423833">
        <ele>92.813</ele>
        <time>1970-01-01T01:00:00Z</time>
        <extensions><gpxtpx:TrackPointExtension><gpxtpx:hr>93</gpxtpx:hr></gpxtpx:TrackPointExtension></extensions>
      </trkpt>
      <trkpt lat="56.44177167" lon="12.72422167">
        <ele>92.813</ele>
        <time>1970-01-01T01:00:00Z</time>
        <extensions><gpxtpx:TrackPointExtension><gpxtpx:hr>94</gpxtpx:hr></gpxtpx:TrackPointExtension></extensions>
      </trkpt>
      <trkpt lat="56.44178333" lon="12.72420833">
        <ele>92.813</ele>
        <time>1970-01-01T01:00:00Z</time>
        <extensions><gpxtpx:TrackPointExtension><gpxtpx:hr>94</gpxtpx:hr></gpxtpx:TrackPointExtension></extensions>
      </trkpt>
      <trkpt lat="56.44179833" lon="12.7242">
        <ele>92.965</ele>
        <time>1970-01-01T01:00:00Z</time>
        <extensions><gpxtpx:TrackPointExtension><gpxtpx:hr>94</gpxtpx:hr></gpxtpx:TrackPointExtension></extensions>
      </trkpt>
      <trkpt lat="56.44181167" lon="12.72418833">
        <ele>92.965</ele>
        <time>1970-01-01T01:00:00Z</time>
        <extensions><gpxtpx:TrackPointExtension><gpxtpx:hr>94</gpxtpx:hr></gpxtpx:TrackPointExtension></extensions>
      </trkpt>
      <trkpt lat="56.441825" lon="12.724175">
        <ele>92.965</ele>
        <time>1970-01-01T01:00:00Z</time>
        <extensions><gpxtpx:TrackPointExtension><gpxtpx:hr>94</gpxtpx:hr></gpxtpx:TrackPointExtension></extensions>
      </trkpt>
      <trkpt lat="56.44183667" lon="12.72416">
        <ele>92.965</ele>
        <time>1970-01-01T01:00:00Z</time>
        <extensions><gpxtpx:TrackPointExtension><gpxtpx:hr>94</gpxtpx:hr></gpxtpx:TrackPointExtension></extensions>
      </trkpt>
      <trkpt lat="56.44184833" lon="12.72414833">
        <ele>92.965</ele>
        <time>1970-01-01T01:00:00Z</time>
        <extensions><gpxtpx:TrackPointExtension><gpxtpx:hr>94</gpxtpx:hr></gpxtpx:TrackPointExtension></extensions>
      </trkpt>
      <trkpt lat="56.44186167" lon="12.72413333">
        <ele>92.965</ele>
        <time>1970-01-01T01:00:00Z</time>
        <extensions><gpxtpx:TrackPointExtension><gpxtpx:hr>95</gpxtpx:hr></gpxtpx:TrackPointExtension></extensions>
      </trkpt>
      <trkpt lat="56.44187333" lon="12.72411333">
        <ele>92.965</ele>
        <time>1970-01-01T01:00:00Z</time>
        <extensions><gpxtpx:TrackPointExtension><gpxtpx:hr>94</gpxtpx:hr></gpxtpx:TrackPointExtension></extensions>
      </trkpt>
      <trkpt lat="56.44188667" lon="12.72409833">
        <ele>93.118</ele>
        <time>1970-01-01T01:00:00Z</time>
        <extensions><gpxtpx:TrackPointExtension><gpxtpx:hr>94</gpxtpx:hr></gpxtpx:TrackPointExtension></extensions>
      </trkpt>
      <trkpt lat="56.44190333" lon="12.72408833">
        <ele>93.118</ele>
        <time>1970-01-01T01:00:00Z</time>
        <extensions><gpxtpx:TrackPointExtension><gpxtpx:hr>95</gpxtpx:hr></gpxtpx:TrackPointExtension></extensions>
      </trkpt>
      <trkpt lat="56.44191667" lon="12.72408167">
        <ele>93.27</ele>
        <time>1970-01-01T01:00:00Z</time>
        <extensions><gpxtpx:TrackPointExtension><gpxtpx:hr>95</gpxtpx:hr></gpxtpx:TrackPointExtension></extensions>
      </trkpt>
      <trkpt lat="56.441925" lon="12.72408667">
        <ele>93.27</ele>
        <time>1970-01-01T01:00:00Z</time>
        <extensions><gpxtpx:TrackPointExtension><gpxtpx:hr>95</gpxtpx:hr></gpxtpx:TrackPointExtension></extensions>
      </trkpt>
      <trkpt lat="56.44193667" lon="12.72409167">
        <ele>93.422</ele>
        <time>1970-01-01T01:00:00Z</time>
        <extensions><gpxtpx:TrackPointExtension><gpxtpx:hr>95</gpxtpx:hr></gpxtpx:TrackPointExtension></extensions>
      </trkpt>
      <trkpt lat="56.441955" lon="12.72409167">
        <ele>93.422</ele>
        <time>1970-01-01T01:00:00Z</time>
        <extensions><gpxtpx:TrackPointExtension><gpxtpx:hr>95</gpxtpx:hr></gpxtpx:TrackPointExtension></extensions>
      </trkpt>
      <trkpt lat="56.44197167" lon="12.72408833">
        <ele>93.575</ele>
        <time>1970-01-01T01:00:00Z</time>
        <extensions><gpxtpx:TrackPointExtension><gpxtpx:hr>95</gpxtpx:hr></gpxtpx:TrackPointExtension></extensions>
      </trkpt>
      <trkpt lat="56.44198167" lon="12.724075">
        <ele>93.575</ele>
        <time>1970-01-01T01:00:00Z</time>
        <extensions><gpxtpx:TrackPointExtension><gpxtpx:hr>96</gpxtpx:hr></gpxtpx:TrackPointExtension></extensions>
      </trkpt>
      <trkpt lat="56.44199" lon="12.724055">
        <ele>93.727</ele>
        <time>1970-01-01T01:00:00Z</time>
        <extensions><gpxtpx:TrackPointExtension><gpxtpx:hr>96</gpxtpx:hr></gpxtpx:TrackPointExtension></extensions>
      </trkpt>
      <trkpt lat="56.44199833" lon="12.724035">
        <ele>93.88</ele>
        <time>1970-01-01T01:00:00Z</time>
        <extensions><gpxtpx:TrackPointExtension><gpxtpx:hr>96</gpxtpx:hr></gpxtpx:TrackPointExtension></extensions>
      </trkpt>
      <trkpt lat="56.44200833" lon="12.724025">
        <ele>94.032</ele>
        <time>1970-01-01T01:00:00Z</time>
        <extensions><gpxtpx:TrackPointExtension><gpxtpx:hr>96</gpxtpx:hr></gpxtpx:TrackPointExtension></extensions>
      </trkpt>
      <trkpt lat="56.442025" lon="12.724025">
        <ele>94.184</ele>
        <time>1970-01-01T01:00:00Z</time>
        <extensions><gpxtpx:TrackPointExtension><gpxtpx:hr>96</gpxtpx:hr></gpxtpx:TrackPointExtension></extensions>
      </trkpt>
      <trkpt lat="56.44204167" lon="12.72401667">
        <ele>94.337</ele>
        <time>1970-01-01T01:00:00Z</time>
        <extensions><gpxtpx:TrackPointExtension><gpxtpx:hr>96</gpxtpx:hr></gpxtpx:TrackPointExtension></extensions>
      </trkpt>
      <trkpt lat="56.442055" lon="12.72400333">
        <ele>94.642</ele>
        <time>1970-01-01T01:00:00Z</time>
        <extensions><gpxtpx:TrackPointExtension><gpxtpx:hr>96</gpxtpx:hr></gpxtpx:TrackPointExtension></extensions>
      </trkpt>
      <trkpt lat="56.44207" lon="12.72399333">
        <ele>94.794</ele>
        <time>1970-01-01T01:00:00Z</time>
        <extensions><gpxtpx:TrackPointExtension><gpxtpx:hr>96</gpxtpx:hr></gpxtpx:TrackPointExtension></extensions>
      </trkpt>
      <trkpt lat="56.44208333" lon="12.72398333">
        <ele>94.946</ele>
        <time>1970-01-01T01:00:00Z</time>
        <extensions><gpxtpx:TrackPointExtension><gpxtpx:hr>96</gpxtpx:hr></gpxtpx:TrackPointExtension></extensions>
      </trkpt>
      <trkpt lat="56.442095" lon="12.72396667">
        <ele>95.251</ele>
        <time>1970-01-01T01:00:00Z</time>
        <extensions><gpxtpx:TrackPointExtension><gpxtpx:hr>97</gpxtpx:hr></gpxtpx:TrackPointExtension></extensions>
      </trkpt>
      <trkpt lat="56.44210667" lon="12.72395">
        <ele>95.404</ele>
        <time>1970-01-01T01:00:00Z</time>
        <extensions><gpxtpx:TrackPointExtension><gpxtpx:hr>98</gpxtpx:hr></gpxtpx:TrackPointExtension></extensions>
      </trkpt>
      <trkpt lat="56.44211833" lon="12.72393333">
        <ele>95.556</ele>
        <time>1970-01-01T01:00:00Z</time>
        <extensions><gpxtpx:TrackPointExtension><gpxtpx:hr>98</gpxtpx:hr></gpxtpx:TrackPointExtension></extensions>
      </trkpt>
      <trkpt lat="56.44213" lon="12.72392167">
        <ele>95.708</ele>
        <time>1970-01-01T01:00:00Z</time>
        <extensions><gpxtpx:TrackPointExtension><gpxtpx:hr>99</gpxtpx:hr></gpxtpx:TrackPointExtension></extensions>
      </trkpt>
      <trkpt lat="56.44214333" lon="12.723905">
        <ele>95.861</ele>
        <time>1970-01-01T01:00:00Z</time>
        <extensions><gpxtpx:TrackPointExtension><gpxtpx:hr>99</gpxtpx:hr></gpxtpx:TrackPointExtension></extensions>
      </trkpt>
      <trkpt lat="56.44215667" lon="12.72388667">
        <ele>96.013</ele>
        <time>1970-01-01T01:00:00Z</time>
        <extensions><gpxtpx:TrackPointExtension><gpxtpx:hr>100</gpxtpx:hr></gpxtpx:TrackPointExtension></extensions>
      </trkpt>
      <trkpt lat="56.44216833" lon="12.72387167">
        <ele>96.013</ele>
        <time>1970-01-01T01:00:00Z</time>
        <extensions><gpxtpx:TrackPointExtension><gpxtpx:hr>101</gpxtpx:hr></gpxtpx:TrackPointExtension></extensions>
      </trkpt>
      <trkpt lat="56.442185" lon="12.723865">
        <ele>96.166</ele>
        <time>1970-01-01T01:00:00Z</time>
        <extensions><gpxtpx:TrackPointExtension><gpxtpx:hr>101</gpxtpx:hr></gpxtpx:TrackPointExtension></extensions>
      </trkpt>
      <trkpt lat="56.442195" lon="12.72386167">
        <ele>96.318</ele>
        <time>1970-01-01T01:00:00Z</time>
        <extensions><gpxtpx:TrackPointExtension><gpxtpx:hr>101</gpxtpx:hr></gpxtpx:TrackPointExtension></extensions>
      </trkpt>
      <trkpt lat="56.44220333" lon="12.72386167">
        <ele>96.318</ele>
        <time>1970-01-01T01:00:00Z</time>
        <extensions><gpxtpx:TrackPointExtension><gpxtpx:hr>101</gpxtpx:hr></gpxtpx:TrackPointExtension></extensions>
      </trkpt>
      <trkpt lat="56.442215" lon="12.72386667">
        <ele>96.47</ele>
        <time>1970-01-01T01:00:00Z</time>
        <extensions><gpxtpx:TrackPointExtension><gpxtpx:hr>102</gpxtpx:hr></gpxtpx:TrackPointExtension></extensions>
      </trkpt>
      <trkpt lat="56.44222667" lon="12.72387">
        <ele>96.47</ele>
        <time>1970-01-01T01:00:00Z</time>
        <extensions><gpxtpx:TrackPointExtension><gpxtpx:hr>102</gpxtpx:hr></gpxtpx:TrackPointExtension></extensions>
      </trkpt>
      <trkpt lat="56.44224167" lon="12.72387167">
        <ele>96.47</ele>
        <time>1970-01-01T01:00:00Z</time>
        <extensions><gpxtpx:TrackPointExtension><gpxtpx:hr>102</gpxtpx:hr></gpxtpx:TrackPointExtension></extensions>
      </trkpt>
      <trkpt lat="56.442255" lon="12.72387167">
        <ele>96.623</ele>
        <time>1970-01-01T01:00:00Z</time>
        <extensions><gpxtpx:TrackPointExtension><gpxtpx:hr>102</gpxtpx:hr></gpxtpx:TrackPointExtension></extensions>
      </trkpt>
      <trkpt lat="56.44226833" lon="12.72387333">
        <ele>96.623</ele>
        <time>1970-01-01T01:00:00Z</time>
        <extensions><gpxtpx:TrackPointExtension><gpxtpx:hr>102</gpxtpx:hr></gpxtpx:TrackPointExtension></extensions>
      </trkpt>
      <trkpt lat="56.44228167" lon="12.72387833">
        <ele>96.775</ele>
        <time>1970-01-01T01:00:00Z</time>
        <extensions><gpxtpx:TrackPointExtension><gpxtpx:hr>101</gpxtpx:hr></gpxtpx:TrackPointExtension></extensions>
      </trkpt>
      <trkpt lat="56.442295" lon="12.723885">
        <ele>96.775</ele>
        <time>1970-01-01T01:00:00Z</time>
        <extensions><gpxtpx:TrackPointExtension><gpxtpx:hr>101</gpxtpx:hr></gpxtpx:TrackPointExtension></extensions>
      </trkpt>
      <trkpt lat="56.44230667" lon="12.72389">
        <ele>96.928</ele>
        <time>1970-01-01T01:00:00Z</time>
        <extensions><gpxtpx:TrackPointExtension><gpxtpx:hr>100</gpxtpx:hr></gpxtpx:TrackPointExtension></extensions>
      </trkpt>
      <trkpt lat="56.44231833" lon="12.72389333">
        <ele>97.08</ele>
        <time>1970-01-01T01:00:00Z</time>
        <extensions><gpxtpx:TrackPointExtension><gpxtpx:hr>100</gpxtpx:hr></gpxtpx:TrackPointExtension></extensions>
      </trkpt>
      <trkpt lat="56.44233" lon="12.72389167">
        <ele>97.232</ele>
        <time>1970-01-01T01:00:00Z</time>
        <extensions><gpxtpx:TrackPointExtension><gpxtpx:hr>100</gpxtpx:hr></gpxtpx:TrackPointExtension></extensions>
      </trkpt>
      <trkpt lat="56.44234333" lon="12.72388667">
        <ele>97.232</ele>
        <time>1970-01-01T01:00:00Z</time>
        <extensions><gpxtpx:TrackPointExtension><gpxtpx:hr>100</gpxtpx:hr></gpxtpx:TrackPointExtension></extensions>
      </trkpt>
      <trkpt lat="56.44235667" lon="12.72388167">
        <ele>97.385</ele>
        <time>1970-01-01T01:00:00Z</time>
        <extensions><gpxtpx:TrackPointExtension><gpxtpx:hr>100</gpxtpx:hr></gpxtpx:TrackPointExtension></extensions>
      </trkpt>
      <trkpt lat="56.44237" lon="12.72387333">
        <ele>97.537</ele>
        <time>1970-01-01T01:00:00Z</time>
        <extensions><gpxtpx:TrackPointExtension><gpxtpx:hr>100</gpxtpx:hr></gpxtpx:TrackPointExtension></extensions>
      </trkpt>
      <trkpt lat="56.442385" lon="12.72386667">
        <ele>97.69</ele>
        <time>1970-01-01T01:00:00Z</time>
        <extensions><gpxtpx:TrackPointExtension><gpxtpx:hr>99</gpxtpx:hr></gpxtpx:TrackPointExtension></extensions>
      </trkpt>
      <trkpt lat="56.4424" lon="12.72385833">
        <ele>97.842</ele>
        <time>1970-01-01T01:00:00Z</time>
        <extensions><gpxtpx:TrackPointExtension><gpxtpx:hr>99</gpxtpx:hr></gpxtpx:TrackPointExtension></extensions>
      </trkpt>
      <trkpt lat="56.44241333" lon="12.72385333">
        <ele>97.994</ele>
        <time>1970-01-01T01:00:00Z</time>
        <extensions><gpxtpx:TrackPointExtension><gpxtpx:hr>99</gpxtpx:hr></gpxtpx:TrackPointExtension></extensions>
      </trkpt>
      <trkpt lat="56.44242667" lon="12.72384833">
        <ele>98.147</ele>
        <time>1970-01-01T01:00:00Z</time>
        <extensions><gpxtpx:TrackPointExtension><gpxtpx:hr>98</gpxtpx:hr></gpxtpx:TrackPointExtension></extensions>
      </trkpt>
      <trkpt lat="56.44244333" lon="12.723845">
        <ele>98.299</ele>
        <time>1970-01-01T01:00:00Z</time>
        <extensions><gpxtpx:TrackPointExtension><gpxtpx:hr>98</gpxtpx:hr></gpxtpx:TrackPointExtension></extensions>
      </trkpt>
      <trkpt lat="56.44245833" lon="12.72384167">
        <ele>98.452</ele>
        <time>1970-01-01T01:00:00Z</time>
        <extensions><gpxtpx:TrackPointExtension><gpxtpx:hr>97</gpxtpx:hr></gpxtpx:TrackPointExtension></extensions>
      </trkpt>
      <trkpt lat="56.44247333" lon="12.72384167">
        <ele>98.452</ele>
        <time>1970-01-01T01:00:00Z</time>
        <extensions><gpxtpx:TrackPointExtension><gpxtpx:hr>97</gpxtpx:hr></gpxtpx:TrackPointExtension></extensions>
      </trkpt>
      <trkpt lat="56.44249" lon="12.72384">
        <ele>98.452</ele>
        <time>1970-01-01T01:00:00Z</time>
        <extensions><gpxtpx:TrackPointExtension><gpxtpx:hr>97</gpxtpx:hr></gpxtpx:TrackPointExtension></extensions>
      </trkpt>
      <trkpt lat="56.44250333" lon="12.72385">
        <ele>98.604</ele>
        <time>1970-01-01T01:00:00Z</time>
        <extensions><gpxtpx:TrackPointExtension><gpxtpx:hr>97</gpxtpx:hr></gpxtpx:TrackPointExtension></extensions>
      </trkpt>
      <trkpt lat="56.44252" lon="12.72385667">
        <ele>98.604</ele>
        <time>1970-01-01T01:00:00Z</time>
        <extensions><gpxtpx:TrackPointExtension><gpxtpx:hr>96</gpxtpx:hr></gpxtpx:TrackPointExtension></extensions>
      </trkpt>
      <trkpt lat="56.44254" lon="12.72387167">
        <ele>98.756</ele>
        <time>1970-01-01T01:00:00Z</time>
        <extensions><gpxtpx:TrackPointExtension><gpxtpx:hr>96</gpxtpx:hr></gpxtpx:TrackPointExtension></extensions>
      </trkpt>
      <trkpt lat="56.44255333" lon="12.72386833">
        <ele>98.756</ele>
        <time>1970-01-01T01:00:00Z</time>
        <extensions><gpxtpx:TrackPointExtension><gpxtpx:hr>96</gpxtpx:hr></gpxtpx:TrackPointExtension></extensions>
      </trkpt>
      <trkpt lat="56.44256333" lon="12.72386167">
        <ele>98.909</ele>
        <time>1970-01-01T01:00:00Z</time>
        <extensions><gpxtpx:TrackPointExtension><gpxtpx:hr>96</gpxtpx:hr></gpxtpx:TrackPointExtension></extensions>
      </trkpt>
      <trkpt lat="56.442575" lon="12.72386">
        <ele>99.061</ele>
        <time>1970-01-01T01:00:00Z</time>
        <extensions><gpxtpx:TrackPointExtension><gpxtpx:hr>96</gpxtpx:hr></gpxtpx:TrackPointExtension></extensions>
      </trkpt>
      <trkpt lat="56.44258833" lon="12.72386167">
        <ele>99.061</ele>
        <time>1970-01-01T01:00:00Z</time>
        <extensions><gpxtpx:TrackPointExtension><gpxtpx:hr>96</gpxtpx:hr></gpxtpx:TrackPointExtension></extensions>
      </trkpt>
      <trkpt lat="56.442595" lon="12.72386">
        <ele>99.214</ele>
        <time>1970-01-01T01:00:00Z</time>
        <extensions><gpxtpx:TrackPointExtension><gpxtpx:hr>95</gpxtpx:hr></gpxtpx:TrackPointExtension></extensions>
      </trkpt>
      <trkpt lat="56.44260333" lon="12.72385667">
        <ele>99.214</ele>
        <time>1970-01-01T01:00:00Z</time>
        <extensions><gpxtpx:TrackPointExtension><gpxtpx:hr>95</gpxtpx:hr></gpxtpx:TrackPointExtension></extensions>
      </trkpt>
      <trkpt lat="56.44261833" lon="12.72386167">
        <ele>99.366</ele>
        <time>1970-01-01T01:00:00Z</time>
        <extensions><gpxtpx:TrackPointExtension><gpxtpx:hr>95</gpxtpx:hr></gpxtpx:TrackPointExtension></extensions>
      </trkpt>
      <trkpt lat="56.44263" lon="12.72387333">
        <ele>99.366</ele>
        <time>1970-01-01T01:00:00Z</time>
        <extensions><gpxtpx:TrackPointExtension><gpxtpx:hr>94</gpxtpx:hr></gpxtpx:TrackPointExtension></extensions>
      </trkpt>
      <trkpt lat="56.44264333" lon="12.723875">
        <ele>99.366</ele>
        <time>1970-01-01T01:00:00Z</time>
        <extensions><gpxtpx:TrackPointExtension><gpxtpx:hr>94</gpxtpx:hr></gpxtpx:TrackPointExtension></extensions>
      </trkpt>
      <trkpt lat="56.442665" lon="12.72388833">
        <ele>99.518</ele>
        <time>1970-01-01T01:00:00Z</time>
        <extensions><gpxtpx:TrackPointExtension><gpxtpx:hr>93</gpxtpx:hr></gpxtpx:TrackPointExtension></extensions>
      </trkpt>
      <trkpt lat="56.44268333" lon="12.7239">
        <ele>99.518</ele>
        <time>1970-01-01T01:00:00Z</time>
        <extensions><gpxtpx:TrackPointExtension><gpxtpx:hr>93</gpxtpx:hr></gpxtpx:TrackPointExtension></extensions>
      </trkpt>
      <trkpt lat="56.44270167" lon="12.72391167">
        <ele>99.518</ele>
        <time>1970-01-01T01:00:00Z</time>
        <extensions><gpxtpx:TrackPointExtension><gpxtpx:hr>93</gpxtpx:hr></gpxtpx:TrackPointExtension></extensions>
      </trkpt>
      <trkpt lat="56.44271333" lon="12.72391833">
        <ele>99.671</ele>
        <time>1970-01-01T01:00:00Z</time>
        <extensions><gpxtpx:TrackPointExtension><gpxtpx:hr>92</gpxtpx:hr></gpxtpx:TrackPointExtension></extensions>
      </trkpt>
      <trkpt lat="56.442725" lon="12.72392167">
        <ele>99.671</ele>
        <time>1970-01-01T01:00:00Z</time>
        <extensions><gpxtpx:TrackPointExtension><gpxtpx:hr>92</gpxtpx:hr></gpxtpx:TrackPointExtension></extensions>
      </trkpt>
      <trkpt lat="56.44273333" lon="12.723935">
        <ele>99.671</ele>
        <time>1970-01-01T01:00:00Z</time>
        <extensions><gpxtpx:TrackPointExtension><gpxtpx:hr>92</gpxtpx:hr></gpxtpx:TrackPointExtension></extensions>
      </trkpt>
      <trkpt lat="56.44274833" lon="12.723955">
        <ele>99.823</ele>
        <time>1970-01-01T01:00:00Z</time>
        <extensions><gpxtpx:TrackPointExtension><gpxtpx:hr>91</gpxtpx:hr></gpxtpx:TrackPointExtension></extensions>
      </trkpt>
      <trkpt lat="56.44276167" lon="12.723975">
        <ele>99.823</ele>
        <time>1970-01-01T01:00:00Z</time>
        <extensions><gpxtpx:TrackPointExtension><gpxtpx:hr>92</gpxtpx:hr></gpxtpx:TrackPointExtension></extensions>
      </trkpt>
      <trkpt lat="56.44277833" lon="12.72398333">
        <ele>99.823</ele>
        <time>1970-01-01T01:00:00Z</time>
        <extensions><gpxtpx:TrackPointExtension><gpxtpx:hr>92</gpxtpx:hr></gpxtpx:TrackPointExtension></extensions>
      </trkpt>
      <trkpt lat="56.44279333" lon="12.72397833">
        <ele>99.823</ele>
        <time>1970-01-01T01:00:00Z</time>
        <extensions><gpxtpx:TrackPointExtension><gpxtpx:hr>92</gpxtpx:hr></gpxtpx:TrackPointExtension></extensions>
      </trkpt>
      <trkpt lat="56.44280167" lon="12.72397667">
        <ele>99.976</ele>
        <time>1970-01-01T01:00:00Z</time>
        <extensions><gpxtpx:TrackPointExtension><gpxtpx:hr>92</gpxtpx:hr></gpxtpx:TrackPointExtension></extensions>
      </trkpt>
      <trkpt lat="56.44280833" lon="12.72398833">
        <ele>99.976</ele>
        <time>1970-01-01T01:00:00Z</time>
        <extensions><gpxtpx:TrackPointExtension><gpxtpx:hr>93</gpxtpx:hr></gpxtpx:TrackPointExtension></extensions>
      </trkpt>
      <trkpt lat="56.442825" lon="12.724">
        <ele>99.976</ele>
        <time>1970-01-01T01:00:00Z</time>
        <extensions><gpxtpx:TrackPointExtension><gpxtpx:hr>93</gpxtpx:hr></gpxtpx:TrackPointExtension></extensions>
      </trkpt>
      <trkpt lat="56.44284" lon="12.72400833">
        <ele>99.976</ele>
        <time>1970-01-01T01:00:00Z</time>
        <extensions><gpxtpx:TrackPointExtension><gpxtpx:hr>93</gpxtpx:hr></gpxtpx:TrackPointExtension></extensions>
      </trkpt>
      <trkpt lat="56.442855" lon="12.72401667">
        <ele>100.128</ele>
        <time>1970-01-01T01:00:00Z</time>
        <extensions><gpxtpx:TrackPointExtension><gpxtpx:hr>93</gpxtpx:hr></gpxtpx:TrackPointExtension></extensions>
      </trkpt>
      <trkpt lat="56.442865" lon="12.724025">
        <ele>100.128</ele>
        <time>1970-01-01T01:00:00Z</time>
        <extensions><gpxtpx:TrackPointExtension><gpxtpx:hr>93</gpxtpx:hr></gpxtpx:TrackPointExtension></extensions>
      </trkpt>
      <trkpt lat="56.442875" lon="12.72403167">
        <ele>100.128</ele>
        <time>1970-01-01T01:00:00Z</time>
        <extensions><gpxtpx:TrackPointExtension><gpxtpx:hr>93</gpxtpx:hr></gpxtpx:TrackPointExtension></extensions>
      </trkpt>
      <trkpt lat="56.44288833" lon="12.724035">
        <ele>100.128</ele>
        <time>1970-01-01T01:00:00Z</time>
        <extensions><gpxtpx:TrackPointExtension><gpxtpx:hr>93</gpxtpx:hr></gpxtpx:TrackPointExtension></extensions>
      </trkpt>
      <trkpt lat="56.4429" lon="12.72404">
        <ele>100.128</ele>
        <time>1970-01-01T01:00:00Z</time>
        <extensions><gpxtpx:TrackPointExtension><gpxtpx:hr>93</gpxtpx:hr></gpxtpx:TrackPointExtension></extensions>
      </trkpt>
      <trkpt lat="56.442915" lon="12.72404333">
        <ele>100.128</ele>
        <time>1970-01-01T01:00:00Z</time>
        <extensions><gpxtpx:TrackPointExtension><gpxtpx:hr>93</gpxtpx:hr></gpxtpx:TrackPointExtension></extensions>
      </trkpt>
      <trkpt lat="56.44293333" lon="12.72404833">
        <ele>100.128</ele>
        <time>1970-01-01T01:00:00Z</time>
        <extensions><gpxtpx:TrackPointExtension><gpxtpx:hr>93</gpxtpx:hr></gpxtpx:TrackPointExtension></extensions>
      </trkpt>
      <trkpt lat="56.44294667" lon="12.72405333">
        <ele>100.28</ele>
        <time>1970-01-01T01:00:00Z</time>
        <extensions><gpxtpx:TrackPointExtension><gpxtpx:hr>93</gpxtpx:hr></gpxtpx:TrackPointExtension></extensions>
      </trkpt>
      <trkpt lat="56.44296167" lon="12.72406">
        <ele>100.28</ele>
        <time>1970-01-01T01:00:00Z</time>
        <extensions><gpxtpx:TrackPointExtension><gpxtpx:hr>93</gpxtpx:hr></gpxtpx:TrackPointExtension></extensions>
      </trkpt>
      <trkpt lat="56.442975" lon="12.72406833">
        <ele>100.28</ele>
        <time>1970-01-01T01:00:00Z</time>
        <extensions><gpxtpx:TrackPointExtension><gpxtpx:hr>93</gpxtpx:hr></gpxtpx:TrackPointExtension></extensions>
      </trkpt>
      <trkpt lat="56.44298833" lon="12.72407667">
        <ele>100.28</ele>
        <time>1970-01-01T01:00:00Z</time>
        <extensions><gpxtpx:TrackPointExtension><gpxtpx:hr>93</gpxtpx:hr></gpxtpx:TrackPointExtension></extensions>
      </trkpt>
      <trkpt lat="56.44300167" lon="12.72409167">
        <ele>100.28</ele>
        <time>1970-01-01T01:00:00Z</time>
        <extensions><gpxtpx:TrackPointExtension><gpxtpx:hr>93</gpxtpx:hr></gpxtpx:TrackPointExtension></extensions>
      </trkpt>
      <trkpt lat="56.44301667" lon="12.724105">
        <ele>100.28</ele>
        <time>1970-01-01T01:00:00Z</time>
        <extensions><gpxtpx:TrackPointExtension><gpxtpx:hr>93</gpxtpx:hr></gpxtpx:TrackPointExtension></extensions>
      </trkpt>
      <trkpt lat="56.44303333" lon="12.724115">
        <ele>100.433</ele>
        <time>1970-01-01T01:00:00Z</time>
        <extensions><gpxtpx:TrackPointExtension><gpxtpx:hr>93</gpxtpx:hr></gpxtpx:TrackPointExtension></extensions>
      </trkpt>
      <trkpt lat="56.44304833" lon="12.72412">
        <ele>100.433</ele>
        <time>1970-01-01T01:00:00Z</time>
        <extensions><gpxtpx:TrackPointExtension><gpxtpx:hr>92</gpxtpx:hr></gpxtpx:TrackPointExtension></extensions>
      </trkpt>
      <trkpt lat="56.44306" lon="12.72412667">
        <ele>100.433</ele>
        <time>1970-01-01T01:00:00Z</time>
        <extensions><gpxtpx:TrackPointExtension><gpxtpx:hr>92</gpxtpx:hr></gpxtpx:TrackPointExtension></extensions>
      </trkpt>
      <trkpt lat="56.443075" lon="12.72413333">
        <ele>100.433</ele>
        <time>1970-01-01T01:00:00Z</time>
        <extensions><gpxtpx:TrackPointExtension><gpxtpx:hr>92</gpxtpx:hr></gpxtpx:TrackPointExtension></extensions>
      </trkpt>
      <trkpt lat="56.44308833" lon="12.72414167">
        <ele>100.433</ele>
        <time>1970-01-01T01:00:00Z</time>
        <extensions><gpxtpx:TrackPointExtension><gpxtpx:hr>92</gpxtpx:hr></gpxtpx:TrackPointExtension></extensions>
      </trkpt>
      <trkpt lat="56.44309833" lon="12.72414333">
        <ele>100.433</ele>
        <time>1970-01-01T01:00:00Z</time>
        <extensions><gpxtpx:TrackPointExtension><gpxtpx:hr>92</gpxtpx:hr></gpxtpx:TrackPointExtension></extensions>
      </trkpt>
      <trkpt lat="56.44311333" lon="12.724155">
        <ele>100.433</ele>
        <time>1970-01-01T01:00:00Z</time>
        <extensions><gpxtpx:TrackPointExtension><gpxtpx:hr>93</gpxtpx:hr></gpxtpx:TrackPointExtension></extensions>
      </trkpt>
      <trkpt lat="56.44312667" lon="12.72416667">
        <ele>100.585</ele>
        <time>1970-01-01T01:00:00Z</time>
        <extensions><gpxtpx:TrackPointExtension><gpxtpx:hr>93</gpxtpx:hr></gpxtpx:TrackPointExtension></extensions>
      </trkpt>
      <trkpt lat="56.44313833" lon="12.72417">
        <ele>100.585</ele>
        <time>1970-01-01T01:00:00Z</time>
        <extensions><gpxtpx:TrackPointExtension><gpxtpx:hr>93</gpxtpx:hr></gpxtpx:TrackPointExtension></extensions>
      </trkpt>
      <trkpt lat="56.44315333" lon="12.72418">
        <ele>100.585</ele>
        <time>1970-01-01T01:00:00Z</time>
        <extensions><gpxtpx:TrackPointExtension><gpxtpx:hr>93</gpxtpx:hr></gpxtpx:TrackPointExtension></extensions>
      </trkpt>
      <trkpt lat="56.44317" lon="12.72419833">
        <ele>100.738</ele>
        <time>1970-01-01T01:00:00Z</time>
        <extensions><gpxtpx:TrackPointExtension><gpxtpx:hr>93</gpxtpx:hr></gpxtpx:TrackPointExtension></extensions>
      </trkpt>
      <trkpt lat="56.44319167" lon="12.72422">
        <ele>100.738</ele>
        <time>1970-01-01T01:00:00Z</time>
        <extensions><gpxtpx:TrackPointExtension><gpxtpx:hr>94</gpxtpx:hr></gpxtpx:TrackPointExtension></extensions>
      </trkpt>
      <trkpt lat="56.44320833" lon="12.72424667">
        <ele>100.738</ele>
        <time>1970-01-01T01:00:00Z</time>
        <extensions><gpxtpx:TrackPointExtension><gpxtpx:hr>94</gpxtpx:hr></gpxtpx:TrackPointExtension></extensions>
      </trkpt>
      <trkpt lat="56.44322167" lon="12.72426333">
        <ele>100.738</ele>
        <time>1970-01-01T01:00:00Z</time>
        <extensions><gpxtpx:TrackPointExtension><gpxtpx:hr>94</gpxtpx:hr></gpxtpx:TrackPointExtension></extensions>
      </trkpt>
      <trkpt lat="56.44323667" lon="12.72427667">
        <ele>100.89</ele>
        <time>1970-01-01T01:00:00Z</time>
        <extensions><gpxtpx:TrackPointExtension><gpxtpx:hr>94</gpxtpx:hr></gpxtpx:TrackPointExtension></extensions>
      </trkpt>
      <trkpt lat="56.44325667" lon="12.72428333">
        <ele>100.89</ele>
        <time>1970-01-01T01:00:00Z</time>
        <extensions><gpxtpx:TrackPointExtension><gpxtpx:hr>95</gpxtpx:hr></gpxtpx:TrackPointExtension></extensions>
      </trkpt>
      <trkpt lat="56.44327" lon="12.72428833">
        <ele>100.89</ele>
        <time>1970-01-01T01:00:00Z</time>
        <extensions><gpxtpx:TrackPointExtension><gpxtpx:hr>94</gpxtpx:hr></gpxtpx:TrackPointExtension></extensions>
      </trkpt>
      <trkpt lat="56.44328833" lon="12.72430667">
        <ele>101.042</ele>
        <time>1970-01-01T01:00:00Z</time>
        <extensions><gpxtpx:TrackPointExtension><gpxtpx:hr>94</gpxtpx:hr></gpxtpx:TrackPointExtension></extensions>
      </trkpt>
      <trkpt lat="56.443305" lon="12.724325">
        <ele>101.042</ele>
        <time>1970-01-01T01:00:00Z</time>
        <extensions><gpxtpx:TrackPointExtension><gpxtpx:hr>94</gpxtpx:hr></gpxtpx:TrackPointExtension></extensions>
      </trkpt>
      <trkpt lat="56.44331833" lon="12.724335">
        <ele>101.195</ele>
        <time>1970-01-01T01:00:00Z</time>
        <extensions><gpxtpx:TrackPointExtension><gpxtpx:hr>93</gpxtpx:hr></gpxtpx:TrackPointExtension></extensions>
      </trkpt>
      <trkpt lat="56.44332333" lon="12.72434">
        <ele>101.195</ele>
        <time>1970-01-01T01:00:00Z</time>
        <extensions><gpxtpx:TrackPointExtension><gpxtpx:hr>93</gpxtpx:hr></gpxtpx:TrackPointExtension></extensions>
      </trkpt>
      <trkpt lat="56.44333167" lon="12.72434333">
        <ele>101.195</ele>
        <time>1970-01-01T01:00:00Z</time>
        <extensions><gpxtpx:TrackPointExtension><gpxtpx:hr>93</gpxtpx:hr></gpxtpx:TrackPointExtension></extensions>
      </trkpt>
      <trkpt lat="56.44334333" lon="12.724345">
        <ele>101.347</ele>
        <time>1970-01-01T01:00:00Z</time>
        <extensions><gpxtpx:TrackPointExtension><gpxtpx:hr>93</gpxtpx:hr></gpxtpx:TrackPointExtension></extensions>
      </trkpt>
      <trkpt lat="56.44336" lon="12.72435167">
        <ele>101.347</ele>
        <time>1970-01-01T01:00:00Z</time>
        <extensions><gpxtpx:TrackPointExtension><gpxtpx:hr>93</gpxtpx:hr></gpxtpx:TrackPointExtension></extensions>
      </trkpt>
      <trkpt lat="56.44337333" lon="12.72435">
        <ele>101.347</ele>
        <time>1970-01-01T01:00:00Z</time>
        <extensions><gpxtpx:TrackPointExtension><gpxtpx:hr>93</gpxtpx:hr></gpxtpx:TrackPointExtension></extensions>
      </trkpt>
      <trkpt lat="56.44338833" lon="12.72435">
        <ele>101.5</ele>
        <time>1970-01-01T01:00:00Z</time>
        <extensions><gpxtpx:TrackPointExtension><gpxtpx:hr>93</gpxtpx:hr></gpxtpx:TrackPointExtension></extensions>
      </trkpt>
      <trkpt lat="56.44340167" lon="12.72435">
        <ele>101.5</ele>
        <time>1970-01-01T01:00:00Z</time>
        <extensions><gpxtpx:TrackPointExtension><gpxtpx:hr>93</gpxtpx:hr></gpxtpx:TrackPointExtension></extensions>
      </trkpt>
      <trkpt lat="56.44341833" lon="12.72435167">
        <ele>101.5</ele>
        <time>1970-01-01T01:00:00Z</time>
        <extensions><gpxtpx:TrackPointExtension><gpxtpx:hr>93</gpxtpx:hr></gpxtpx:TrackPointExtension></extensions>
      </trkpt>
      <trkpt lat="56.44344" lon="12.72435833">
        <ele>101.5</ele>
        <time>1970-01-01T01:00:00Z</time>
        <extensions><gpxtpx:TrackPointExtension><gpxtpx:hr>94</gpxtpx:hr></gpxtpx:TrackPointExtension></extensions>
      </trkpt>
      <trkpt lat="56.44345333" lon="12.72436667">
        <ele>101.652</ele>
        <time>1970-01-01T01:00:00Z</time>
        <extensions><gpxtpx:TrackPointExtension><gpxtpx:hr>94</gpxtpx:hr></gpxtpx:TrackPointExtension></extensions>
      </trkpt>
      <trkpt lat="56.44346" lon="12.72437333">
        <ele>101.652</ele>
        <time>1970-01-01T01:00:00Z</time>
        <extensions><gpxtpx:TrackPointExtension><gpxtpx:hr>94</gpxtpx:hr></gpxtpx:TrackPointExtension></extensions>
      </trkpt>
      <trkpt lat="56.44347167" lon="12.72437667">
        <ele>101.652</ele>
        <time>1970-01-01T01:00:00Z</time>
        <extensions><gpxtpx:TrackPointExtension><gpxtpx:hr>94</gpxtpx:hr></gpxtpx:TrackPointExtension></extensions>
      </trkpt>
      <trkpt lat="56.44348667" lon="12.72438">
        <ele>101.652</ele>
        <time>1970-01-01T01:00:00Z</time>
        <extensions><gpxtpx:TrackPointExtension><gpxtpx:hr>94</gpxtpx:hr></gpxtpx:TrackPointExtension></extensions>
      </trkpt>
      <trkpt lat="56.44350333" lon="12.72438667">
        <ele>101.652</ele>
        <time>1970-01-01T01:00:00Z</time>
        <extensions><gpxtpx:TrackPointExtension><gpxtpx:hr>94</gpxtpx:hr></gpxtpx:TrackPointExtension></extensions>
      </trkpt>
      <trkpt lat="56.44351833" lon="12.72439833">
        <ele>101.652</ele>
        <time>1970-01-01T01:00:00Z</time>
        <extensions><gpxtpx:TrackPointExtension><gpxtpx:hr>94</gpxtpx:hr></gpxtpx:TrackPointExtension></extensions>
      </trkpt>
      <trkpt lat="56.44353167" lon="12.72440333">
        <ele>101.652</ele>
        <time>1970-01-01T01:00:00Z</time>
        <extensions><gpxtpx:TrackPointExtension><gpxtpx:hr>95</gpxtpx:hr></gpxtpx:TrackPointExtension></extensions>
      </trkpt>
      <trkpt lat="56.443545" lon="12.724415">
        <ele>101.652</ele>
        <time>1970-01-01T01:00:00Z</time>
        <extensions><gpxtpx:TrackPointExtension><gpxtpx:hr>95</gpxtpx:hr></gpxtpx:TrackPointExtension></extensions>
      </trkpt>
      <trkpt lat="56.44355667" lon="12.72442667">
        <ele>101.652</ele>
        <time>1970-01-01T01:00:00Z</time>
        <extensions><gpxtpx:TrackPointExtension><gpxtpx:hr>95</gpxtpx:hr></gpxtpx:TrackPointExtension></extensions>
      </trkpt>
      <trkpt lat="56.44357167" lon="12.72443333">
        <ele>101.652</ele>
        <time>1970-01-01T01:00:00Z</time>
        <extensions><gpxtpx:TrackPointExtension><gpxtpx:hr>94</gpxtpx:hr></gpxtpx:TrackPointExtension></extensions>
      </trkpt>
      <trkpt lat="56.44358833" lon="12.724445">
        <ele>101.652</ele>
        <time>1970-01-01T01:00:00Z</time>
        <extensions><gpxtpx:TrackPointExtension><gpxtpx:hr>94</gpxtpx:hr></gpxtpx:TrackPointExtension></extensions>
      </trkpt>
      <trkpt lat="56.44359167" lon="12.72444833">
        <ele>101.652</ele>
        <time>1970-01-01T01:00:00Z</time>
        <extensions><gpxtpx:TrackPointExtension><gpxtpx:hr>93</gpxtpx:hr></gpxtpx:TrackPointExtension></extensions>
      </trkpt>
      <trkpt lat="56.44360667" lon="12.72446667">
        <ele>101.652</ele>
        <time>1970-01-01T01:00:00Z</time>
        <extensions><gpxtpx:TrackPointExtension><gpxtpx:hr>93</gpxtpx:hr></gpxtpx:TrackPointExtension></extensions>
      </trkpt>
      <trkpt lat="56.44361333" lon="12.72447333">
        <ele>101.652</ele>
        <time>1970-01-01T01:00:00Z</time>
        <extensions><gpxtpx:TrackPointExtension><gpxtpx:hr>93</gpxtpx:hr></gpxtpx:TrackPointExtension></extensions>
      </trkpt>
      <trkpt lat="56.44362" lon="12.72448167">
        <ele>101.652</ele>
        <time>1970-01-01T01:00:00Z</time>
        <extensions><gpxtpx:TrackPointExtension><gpxtpx:hr>93</gpxtpx:hr></gpxtpx:TrackPointExtension></extensions>
      </trkpt>
      <trkpt lat="56.44363" lon="12.72449167">
        <ele>101.652</ele>
        <time>1970-01-01T01:00:00Z</time>
        <extensions><gpxtpx:TrackPointExtension><gpxtpx:hr>93</gpxtpx:hr></gpxtpx:TrackPointExtension></extensions>
      </trkpt>
      <trkpt lat="56.44363833" lon="12.72449833">
        <ele>101.652</ele>
        <time>1970-01-01T01:00:00Z</time>
        <extensions><gpxtpx:TrackPointExtension><gpxtpx:hr>92</gpxtpx:hr></gpxtpx:TrackPointExtension></extensions>
      </trkpt>
      <trkpt lat="56.44365167" lon="12.724505">
        <ele>101.652</ele>
        <time>1970-01-01T01:00:00Z</time>
        <extensions><gpxtpx:TrackPointExtension><gpxtpx:hr>93</gpxtpx:hr></gpxtpx:TrackPointExtension></extensions>
      </trkpt>
      <trkpt lat="56.44366333" lon="12.72450667">
        <ele>101.652</ele>
        <time>1970-01-01T01:00:00Z</time>
        <extensions><gpxtpx:TrackPointExtension><gpxtpx:hr>93</gpxtpx:hr></gpxtpx:TrackPointExtension></extensions>
      </trkpt>
      <trkpt lat="56.44367333" lon="12.72450167">
        <ele>101.652</ele>
        <time>1970-01-01T01:00:00Z</time>
        <extensions><gpxtpx:TrackPointExtension><gpxtpx:hr>94</gpxtpx:hr></gpxtpx:TrackPointExtension></extensions>
      </trkpt>
      <trkpt lat="56.44367833" lon="12.72449333">
        <ele>101.5</ele>
        <time>1970-01-01T01:00:00Z</time>
        <extensions><gpxtpx:TrackPointExtension><gpxtpx:hr>94</gpxtpx:hr></gpxtpx:TrackPointExtension></extensions>
      </trkpt>
      <trkpt lat="56.44368833" lon="12.72448667">
        <ele>101.5</ele>
        <time>1970-01-01T01:00:00Z</time>
        <extensions><gpxtpx:TrackPointExtension><gpxtpx:hr>94</gpxtpx:hr></gpxtpx:TrackPointExtension></extensions>
      </trkpt>
      <trkpt lat="56.44370333" lon="12.72448833">
        <ele>101.5</ele>
        <time>1970-01-01T01:00:00Z</time>
        <extensions><gpxtpx:TrackPointExtension><gpxtpx:hr>95</gpxtpx:hr></gpxtpx:TrackPointExtension></extensions>
      </trkpt>
      <trkpt lat="56.44372167" lon="12.72449833">
        <ele>101.5</ele>
        <time>1970-01-01T01:00:00Z</time>
        <extensions><gpxtpx:TrackPointExtension><gpxtpx:hr>95</gpxtpx:hr></gpxtpx:TrackPointExtension></extensions>
      </trkpt>
      <trkpt lat="56.443735" lon="12.72452833">
        <ele>101.5</ele>
        <time>1970-01-01T01:00:00Z</time>
        <extensions><gpxtpx:TrackPointExtension><gpxtpx:hr>95</gpxtpx:hr></gpxtpx:TrackPointExtension></extensions>
      </trkpt>
      <trkpt lat="56.44373667" lon="12.72454">
        <ele>101.5</ele>
        <time>1970-01-01T01:00:00Z</time>
        <extensions><gpxtpx:TrackPointExtension><gpxtpx:hr>95</gpxtpx:hr></gpxtpx:TrackPointExtension></extensions>
      </trkpt>
      <trkpt lat="56.44374333" lon="12.72454333">
        <ele>101.5</ele>
        <time>1970-01-01T01:00:00Z</time>
        <extensions><gpxtpx:TrackPointExtension><gpxtpx:hr>95</gpxtpx:hr></gpxtpx:TrackPointExtension></extensions>
      </trkpt>
      <trkpt lat="56.44373667" lon="12.724535">
        <ele>101.5</ele>
        <time>1970-01-01T01:00:00Z</time>
        <extensions><gpxtpx:TrackPointExtension><gpxtpx:hr>96</gpxtpx:hr></gpxtpx:TrackPointExtension></extensions>
      </trkpt>
      <trkpt lat="56.44374333" lon="12.72453333">
        <ele>101.5</ele>
        <time>1970-01-01T01:00:00Z</time>
        <extensions><gpxtpx:TrackPointExtension><gpxtpx:hr>96</gpxtpx:hr></gpxtpx:TrackPointExtension></extensions>
      </trkpt>
      <trkpt lat="56.44375833" lon="12.72454667">
        <ele>101.652</ele>
        <time>1970-01-01T01:00:00Z</time>
        <extensions><gpxtpx:TrackPointExtension><gpxtpx:hr>96</gpxtpx:hr></gpxtpx:TrackPointExtension></extensions>
      </trkpt>
      <trkpt lat="56.44377333" lon="12.72456667">
        <ele>101.652</ele>
        <time>1970-01-01T01:00:00Z</time>
        <extensions><gpxtpx:TrackPointExtension><gpxtpx:hr>96</gpxtpx:hr></gpxtpx:TrackPointExtension></extensions>
      </trkpt>
      <trkpt lat="56.44378667" lon="12.72457333">
        <ele>101.652</ele>
        <time>1970-01-01T01:00:00Z</time>
        <extensions><gpxtpx:TrackPointExtension><gpxtpx:hr>96</gpxtpx:hr></gpxtpx:TrackPointExtension></extensions>
      </trkpt>
      <trkpt lat="56.44379833" lon="12.72458167">
        <ele>101.652</ele>
        <time>1970-01-01T01:00:00Z</time>
        <extensions><gpxtpx:TrackPointExtension><gpxtpx:hr>96</gpxtpx:hr></gpxtpx:TrackPointExtension></extensions>
      </trkpt>
      <trkpt lat="56.44381167" lon="12.72459333">
        <ele>101.652</ele>
        <time>1970-01-01T01:00:00Z</time>
        <extensions><gpxtpx:TrackPointExtension><gpxtpx:hr>96</gpxtpx:hr></gpxtpx:TrackPointExtension></extensions>
      </trkpt>
      <trkpt lat="56.44383167" lon="12.72461">
        <ele>101.652</ele>
        <time>1970-01-01T01:00:00Z</time>
        <extensions><gpxtpx:TrackPointExtension><gpxtpx:hr>96</gpxtpx:hr></gpxtpx:TrackPointExtension></extensions>
      </trkpt>
      <trkpt lat="56.44384833" lon="12.72461667">
        <ele>101.652</ele>
        <time>1970-01-01T01:00:00Z</time>
        <extensions><gpxtpx:TrackPointExtension><gpxtpx:hr>96</gpxtpx:hr></gpxtpx:TrackPointExtension></extensions>
      </trkpt>
      <trkpt lat="56.44386333" lon="12.72462">
        <ele>101.652</ele>
        <time>1970-01-01T01:00:00Z</time>
        <extensions><gpxtpx:TrackPointExtension><gpxtpx:hr>96</gpxtpx:hr></gpxtpx:TrackPointExtension></extensions>
      </trkpt>
      <trkpt lat="56.44387167" lon="12.72462">
        <ele>101.652</ele>
        <time>1970-01-01T01:00:00Z</time>
        <extensions><gpxtpx:TrackPointExtension><gpxtpx:hr>96</gpxtpx:hr></gpxtpx:TrackPointExtension></extensions>
      </trkpt>
      <trkpt lat="56.44388333" lon="12.72461667">
        <ele>101.652</ele>
        <time>1970-01-01T01:00:00Z</time>
        <extensions><gpxtpx:TrackPointExtension><gpxtpx:hr>96</gpxtpx:hr></gpxtpx:TrackPointExtension></extensions>
      </trkpt>
      <trkpt lat="56.44389833" lon="12.724625">
        <ele>101.652</ele>
        <time>1970-01-01T01:00:00Z</time>
        <extensions><gpxtpx:TrackPointExtension><gpxtpx:hr>96</gpxtpx:hr></gpxtpx:TrackPointExtension></extensions>
      </trkpt>
      <trkpt lat="56.44391" lon="12.72463">
        <ele>101.652</ele>
        <time>1970-01-01T01:00:00Z</time>
        <extensions><gpxtpx:TrackPointExtension><gpxtpx:hr>96</gpxtpx:hr></gpxtpx:TrackPointExtension></extensions>
      </trkpt>
      <trkpt lat="56.44392" lon="12.72463333">
        <ele>101.652</ele>
        <time>1970-01-01T01:00:00Z</time>
        <extensions><gpxtpx:TrackPointExtension><gpxtpx:hr>96</gpxtpx:hr></gpxtpx:TrackPointExtension></extensions>
      </trkpt>
      <trkpt lat="56.44393" lon="12.72464167">
        <ele>101.652</ele>
        <time>1970-01-01T01:00:00Z</time>
        <extensions><gpxtpx:TrackPointExtension><gpxtpx:hr>96</gpxtpx:hr></gpxtpx:TrackPointExtension></extensions>
      </trkpt>
      <trkpt lat="56.443935" lon="12.72464833">
        <ele>101.652</ele>
        <time>1970-01-01T01:00:00Z</time>
        <extensions><gpxtpx:TrackPointExtension><gpxtpx:hr>96</gpxtpx:hr></gpxtpx:TrackPointExtension></extensions>
      </trkpt>
      <trkpt lat="56.443945" lon="12.72465667">
        <ele>101.652</ele>
        <time>1970-01-01T01:00:00Z</time>
        <extensions><gpxtpx:TrackPointExtension><gpxtpx:hr>96</gpxtpx:hr></gpxtpx:TrackPointExtension></extensions>
      </trkpt>
      <trkpt lat="56.443955" lon="12.72467167">
        <ele>101.652</ele>
        <time>1970-01-01T01:00:00Z</time>
        <extensions><gpxtpx:TrackPointExtension><gpxtpx:hr>96</gpxtpx:hr></gpxtpx:TrackPointExtension></extensions>
      </trkpt>
      <trkpt lat="56.44395667" lon="12.72468">
        <ele>101.804</ele>
        <time>1970-01-01T01:00:00Z</time>
        <extensions><gpxtpx:TrackPointExtension><gpxtpx:hr>96</gpxtpx:hr></gpxtpx:TrackPointExtension></extensions>
      </trkpt>
      <trkpt lat="56.44396333" lon="12.72468833">
        <ele>101.804</ele>
        <time>1970-01-01T01:00:00Z</time>
        <extensions><gpxtpx:TrackPointExtension><gpxtpx:hr>96</gpxtpx:hr></gpxtpx:TrackPointExtension></extensions>
      </trkpt>
      <trkpt lat="56.44398" lon="12.7247">
        <ele>101.804</ele>
        <time>1970-01-01T01:00:00Z</time>
        <extensions><gpxtpx:TrackPointExtension><gpxtpx:hr>96</gpxtpx:hr></gpxtpx:TrackPointExtension></extensions>
      </trkpt>
      <trkpt lat="56.444" lon="12.72470833">
        <ele>101.804</ele>
        <time>1970-01-01T01:00:00Z</time>
        <extensions><gpxtpx:TrackPointExtension><gpxtpx:hr>97</gpxtpx:hr></gpxtpx:TrackPointExtension></extensions>
      </trkpt>
      <trkpt lat="56.44402333" lon="12.72472333">
        <ele>101.957</ele>
        <time>1970-01-01T01:00:00Z</time>
        <extensions><gpxtpx:TrackPointExtension><gpxtpx:hr>98</gpxtpx:hr></gpxtpx:TrackPointExtension></extensions>
      </trkpt>
      <trkpt lat="56.44404" lon="12.72473667">
        <ele>101.957</ele>
        <time>1970-01-01T01:00:00Z</time>
        <extensions><gpxtpx:TrackPointExtension><gpxtpx:hr>98</gpxtpx:hr></gpxtpx:TrackPointExtension></extensions>
      </trkpt>
      <trkpt lat="56.44405667" lon="12.72474833">
        <ele>101.957</ele>
        <time>1970-01-01T01:00:00Z</time>
        <extensions><gpxtpx:TrackPointExtension><gpxtpx:hr>98</gpxtpx:hr></gpxtpx:TrackPointExtension></extensions>
      </trkpt>
      <trkpt lat="56.44407333" lon="12.72475667">
        <ele>101.957</ele>
        <time>1970-01-01T01:00:00Z</time>
        <extensions><gpxtpx:TrackPointExtension><gpxtpx:hr>98</gpxtpx:hr></gpxtpx:TrackPointExtension></extensions>
      </trkpt>
      <trkpt lat="56.44408667" lon="12.72476833">
        <ele>101.957</ele>
        <time>1970-01-01T01:00:00Z</time>
        <extensions><gpxtpx:TrackPointExtension><gpxtpx:hr>98</gpxtpx:hr></gpxtpx:TrackPointExtension></extensions>
      </trkpt>
      <trkpt lat="56.44409833" lon="12.72478167">
        <ele>101.957</ele>
        <time>1970-01-01T01:00:00Z</time>
        <extensions><gpxtpx:TrackPointExtension><gpxtpx:hr>98</gpxtpx:hr></gpxtpx:TrackPointExtension></extensions>
      </trkpt>
      <trkpt lat="56.444115" lon="12.72478833">
        <ele>101.957</ele>
        <time>1970-01-01T01:00:00Z</time>
        <extensions><gpxtpx:TrackPointExtension><gpxtpx:hr>98</gpxtpx:hr></gpxtpx:TrackPointExtension></extensions>
      </trkpt>
      <trkpt lat="56.44412167" lon="12.72478667">
        <ele>101.957</ele>
        <time>1970-01-01T01:00:00Z</time>
        <extensions><gpxtpx:TrackPointExtension><gpxtpx:hr>99</gpxtpx:hr></gpxtpx:TrackPointExtension></extensions>
      </trkpt>
      <trkpt lat="56.44412167" lon="12.72479">
        <ele>101.957</ele>
        <time>1970-01-01T01:00:00Z</time>
        <extensions><gpxtpx:TrackPointExtension><gpxtpx:hr>99</gpxtpx:hr></gpxtpx:TrackPointExtension></extensions>
      </trkpt>
      <trkpt lat="56.44412833" lon="12.7248">
        <ele>101.957</ele>
        <time>1970-01-01T01:00:00Z</time>
        <extensions><gpxtpx:TrackPointExtension><gpxtpx:hr>99</gpxtpx:hr></gpxtpx:TrackPointExtension></extensions>
      </trkpt>
      <trkpt lat="56.44414167" lon="12.72481833">
        <ele>101.957</ele>
        <time>1970-01-01T01:00:00Z</time>
        <extensions><gpxtpx:TrackPointExtension><gpxtpx:hr>99</gpxtpx:hr></gpxtpx:TrackPointExtension></extensions>
      </trkpt>
      <trkpt lat="56.44416333" lon="12.72484">
        <ele>101.804</ele>
        <time>1970-01-01T01:00:00Z</time>
        <extensions><gpxtpx:TrackPointExtension><gpxtpx:hr>99</gpxtpx:hr></gpxtpx:TrackPointExtension></extensions>
      </trkpt>
      <trkpt lat="56.44418167" lon="12.724875">
        <ele>101.804</ele>
        <time>1970-01-01T01:00:00Z</time>
        <extensions><gpxtpx:TrackPointExtension><gpxtpx:hr>99</gpxtpx:hr></gpxtpx:TrackPointExtension></extensions>
      </trkpt>
      <trkpt lat="56.44418667" lon="12.72488167">
        <ele>101.804</ele>
        <time>1970-01-01T01:00:00Z</time>
        <extensions><gpxtpx:TrackPointExtension><gpxtpx:hr>99</gpxtpx:hr></gpxtpx:TrackPointExtension></extensions>
      </trkpt>
      <trkpt lat="56.44421" lon="12.72485667">
        <ele>101.804</ele>
        <time>1970-01-01T01:00:00Z</time>
        <extensions><gpxtpx:TrackPointExtension><gpxtpx:hr>99</gpxtpx:hr></gpxtpx:TrackPointExtension></extensions>
      </trkpt>
      <trkpt lat="56.444215" lon="12.72485667">
        <ele>101.804</ele>
        <time>1970-01-01T01:00:00Z</time>
        <extensions><gpxtpx:TrackPointExtension><gpxtpx:hr>99</gpxtpx:hr></gpxtpx:TrackPointExtension></extensions>
      </trkpt>
      <trkpt lat="56.444225" lon="12.72485">
        <ele>101.804</ele>
        <time>1970-01-01T01:00:00Z</time>
        <extensions><gpxtpx:TrackPointExtension><gpxtpx:hr>99</gpxtpx:hr></gpxtpx:TrackPointExtension></extensions>
      </trkpt>
      <trkpt lat="56.44423167" lon="12.72484333">
        <ele>101.804</ele>
        <time>1970-01-01T01:00:00Z</time>
        <extensions><gpxtpx:TrackPointExtension><gpxtpx:hr>99</gpxtpx:hr></gpxtpx:TrackPointExtension></extensions>
      </trkpt>
      <trkpt lat="56.44424833" lon="12.72484667">
        <ele>101.652</ele>
        <time>1970-01-01T01:00:00Z</time>
        <extensions><gpxtpx:TrackPointExtension><gpxtpx:hr>99</gpxtpx:hr></gpxtpx:TrackPointExtension></extensions>
      </trkpt>
      <trkpt lat="56.44427333" lon="12.72484667">
        <ele>101.652</ele>
        <time>1970-01-01T01:00:00Z</time>
        <extensions><gpxtpx:TrackPointExtension><gpxtpx:hr>99</gpxtpx:hr></gpxtpx:TrackPointExtension></extensions>
      </trkpt>
      <trkpt lat="56.44429333" lon="12.72484667">
        <ele>101.652</ele>
        <time>1970-01-01T01:00:00Z</time>
        <extensions><gpxtpx:TrackPointExtension><gpxtpx:hr>99</gpxtpx:hr></gpxtpx:TrackPointExtension></extensions>
      </trkpt>
      <trkpt lat="56.44431167" lon="12.724845">
        <ele>101.652</ele>
        <time>1970-01-01T01:00:00Z</time>
        <extensions><gpxtpx:TrackPointExtension><gpxtpx:hr>99</gpxtpx:hr></gpxtpx:TrackPointExtension></extensions>
      </trkpt>
      <trkpt lat="56.44432667" lon="12.72485">
        <ele>101.652</ele>
        <time>1970-01-01T01:00:00Z</time>
        <extensions><gpxtpx:TrackPointExtension><gpxtpx:hr>99</gpxtpx:hr></gpxtpx:TrackPointExtension></extensions>
      </trkpt>
      <trkpt lat="56.44433833" lon="12.72486833">
        <ele>101.652</ele>
        <time>1970-01-01T01:00:00Z</time>
        <extensions><gpxtpx:TrackPointExtension><gpxtpx:hr>99</gpxtpx:hr></gpxtpx:TrackPointExtension></extensions>
      </trkpt>
      <trkpt lat="56.444355" lon="12.72488667">
        <ele>101.5</ele>
        <time>1970-01-01T01:00:00Z</time>
        <extensions><gpxtpx:TrackPointExtension><gpxtpx:hr>99</gpxtpx:hr></gpxtpx:TrackPointExtension></extensions>
      </trkpt>
      <trkpt lat="56.44438167" lon="12.724905">
        <ele>101.5</ele>
        <time>1970-01-01T01:00:00Z</time>
        <extensions><gpxtpx:TrackPointExtension><gpxtpx:hr>99</gpxtpx:hr></gpxtpx:TrackPointExtension></extensions>
      </trkpt>
      <trkpt lat="56.44440667" lon="12.72491167">
        <ele>101.5</ele>
        <time>1970-01-01T01:00:00Z</time>
        <extensions><gpxtpx:TrackPointExtension><gpxtpx:hr>99</gpxtpx:hr></gpxtpx:TrackPointExtension></extensions>
      </trkpt>
      <trkpt lat="56.44442167" lon="12.724915">
        <ele>101.5</ele>
        <time>1970-01-01T01:00:00Z</time>
        <extensions><gpxtpx:TrackPointExtension><gpxtpx:hr>99</gpxtpx:hr></gpxtpx:TrackPointExtension></extensions>
      </trkpt>
      <trkpt lat="56.44443833" lon="12.724915">
        <ele>101.5</ele>
        <time>1970-01-01T01:00:00Z</time>
        <extensions><gpxtpx:TrackPointExtension><gpxtpx:hr>98</gpxtpx:hr></gpxtpx:TrackPointExtension></extensions>
      </trkpt>
      <trkpt lat="56.44445167" lon="12.724925">
        <ele>101.5</ele>
        <time>1970-01-01T01:00:00Z</time>
        <extensions><gpxtpx:TrackPointExtension><gpxtpx:hr>98</gpxtpx:hr></gpxtpx:TrackPointExtension></extensions>
      </trkpt>
      <trkpt lat="56.44446333" lon="12.72492">
        <ele>101.5</ele>
        <time>1970-01-01T01:00:00Z</time>
        <extensions><gpxtpx:TrackPointExtension><gpxtpx:hr>98</gpxtpx:hr></gpxtpx:TrackPointExtension></extensions>
      </trkpt>
      <trkpt lat="56.44447833" lon="12.72491667">
        <ele>101.5</ele>
        <time>1970-01-01T01:00:00Z</time>
        <extensions><gpxtpx:TrackPointExtension><gpxtpx:hr>98</gpxtpx:hr></gpxtpx:TrackPointExtension></extensions>
      </trkpt>
      <trkpt lat="56.4445" lon="12.72494">
        <ele>101.5</ele>
        <time>1970-01-01T01:00:00Z</time>
        <extensions><gpxtpx:TrackPointExtension><gpxtpx:hr>98</gpxtpx:hr></gpxtpx:TrackPointExtension></extensions>
      </trkpt>
      <trkpt lat="56.44449667" lon="12.72495667">
        <ele>101.5</ele>
        <time>1970-01-01T01:00:00Z</time>
        <extensions><gpxtpx:TrackPointExtension><gpxtpx:hr>98</gpxtpx:hr></gpxtpx:TrackPointExtension></extensions>
      </trkpt>
      <trkpt lat="56.44449833" lon="12.72496333">
        <ele>101.5</ele>
        <time>1970-01-01T01:00:00Z</time>
        <extensions><gpxtpx:TrackPointExtension><gpxtpx:hr>98</gpxtpx:hr></gpxtpx:TrackPointExtension></extensions>
      </trkpt>
      <trkpt lat="56.44450167" lon="12.72494167">
        <ele>101.5</ele>
        <time>1970-01-01T01:00:00Z</time>
        <extensions><gpxtpx:TrackPointExtension><gpxtpx:hr>98</gpxtpx:hr></gpxtpx:TrackPointExtension></extensions>
      </trkpt>
      <trkpt lat="56.44450333" lon="12.72492167">
        <ele>101.5</ele>
        <time>1970-01-01T01:00:00Z</time>
        <extensions><gpxtpx:TrackPointExtension><gpxtpx:hr>98</gpxtpx:hr></gpxtpx:TrackPointExtension></extensions>
      </trkpt>
      <trkpt lat="56.444515" lon="12.72492667">
        <ele>101.652</ele>
        <time>1970-01-01T01:00:00Z</time>
        <extensions><gpxtpx:TrackPointExtension><gpxtpx:hr>98</gpxtpx:hr></gpxtpx:TrackPointExtension></extensions>
      </trkpt>
      <trkpt lat="56.44453333" lon="12.72494">
        <ele>101.652</ele>
        <time>1970-01-01T01:00:00Z</time>
        <extensions><gpxtpx:TrackPointExtension><gpxtpx:hr>98</gpxtpx:hr></gpxtpx:TrackPointExtension></extensions>
      </trkpt>
      <trkpt lat="56.444555" lon="12.72494">
        <ele>101.652</ele>
        <time>1970-01-01T01:00:00Z</time>
        <extensions><gpxtpx:TrackPointExtension><gpxtpx:hr>98</gpxtpx:hr></gpxtpx:TrackPointExtension></extensions>
      </trkpt>
      <trkpt lat="56.44457833" lon="12.72495667">
        <ele>101.804</ele>
        <time>1970-01-01T01:00:00Z</time>
        <extensions><gpxtpx:TrackPointExtension><gpxtpx:hr>98</gpxtpx:hr></gpxtpx:TrackPointExtension></extensions>
      </trkpt>
      <trkpt lat="56.44460833" lon="12.72497">
        <ele>101.804</ele>
        <time>1970-01-01T01:00:00Z</time>
        <extensions><gpxtpx:TrackPointExtension><gpxtpx:hr>97</gpxtpx:hr></gpxtpx:TrackPointExtension></extensions>
      </trkpt>
      <trkpt lat="56.44462833" lon="12.72498833">
        <ele>101.957</ele>
        <time>1970-01-01T01:00:00Z</time>
        <extensions><gpxtpx:TrackPointExtension><gpxtpx:hr>97</gpxtpx:hr></gpxtpx:TrackPointExtension></extensions>
      </trkpt>
      <trkpt lat="56.444645" lon="12.72500333">
        <ele>101.957</ele>
        <time>1970-01-01T01:00:00Z</time>
        <extensions><gpxtpx:TrackPointExtension><gpxtpx:hr>97</gpxtpx:hr></gpxtpx:TrackPointExtension></extensions>
      </trkpt>
      <trkpt lat="56.44465833" lon="12.72499833">
        <ele>102.109</ele>
        <time>1970-01-01T01:00:00Z</time>
        <extensions><gpxtpx:TrackPointExtension><gpxtpx:hr>97</gpxtpx:hr></gpxtpx:TrackPointExtension></extensions>
      </trkpt>
      <trkpt lat="56.44468333" lon="12.725005">
        <ele>102.109</ele>
        <time>1970-01-01T01:00:00Z</time>
        <extensions><gpxtpx:TrackPointExtension><gpxtpx:hr>97</gpxtpx:hr></gpxtpx:TrackPointExtension></extensions>
      </trkpt>
      <trkpt lat="56.44469833" lon="12.725005">
        <ele>102.109</ele>
        <time>1970-01-01T01:00:00Z</time>
        <extensions><gpxtpx:TrackPointExtension><gpxtpx:hr>97</gpxtpx:hr></gpxtpx:TrackPointExtension></extensions>
      </trkpt>
      <trkpt lat="56.44471167" lon="12.72500667">
        <ele>102.262</ele>
        <time>1970-01-01T01:00:00Z</time>
        <extensions><gpxtpx:TrackPointExtension><gpxtpx:hr>98</gpxtpx:hr></gpxtpx:TrackPointExtension></extensions>
      </trkpt>
      <trkpt lat="56.44473" lon="12.72503">
        <ele>102.262</ele>
        <time>1970-01-01T01:00:00Z</time>
        <extensions><gpxtpx:TrackPointExtension><gpxtpx:hr>98</gpxtpx:hr></gpxtpx:TrackPointExtension></extensions>
      </trkpt>
      <trkpt lat="56.444755" lon="12.72506833">
        <ele>102.414</ele>
        <time>1970-01-01T01:00:00Z</time>
        <extensions><gpxtpx:TrackPointExtension><gpxtpx:hr>98</gpxtpx:hr></gpxtpx:TrackPointExtension></extensions>
      </trkpt>
      <trkpt lat="56.444775" lon="12.72509667">
        <ele>102.414</ele>
        <time>1970-01-01T01:00:00Z</time>
        <extensions><gpxtpx:TrackPointExtension><gpxtpx:hr>99</gpxtpx:hr></gpxtpx:TrackPointExtension></extensions>
      </trkpt>
      <trkpt lat="56.44479" lon="12.725125">
        <ele>102.566</ele>
        <time>1970-01-01T01:00:00Z</time>
        <extensions><gpxtpx:TrackPointExtension><gpxtpx:hr>99</gpxtpx:hr></gpxtpx:TrackPointExtension></extensions>
      </trkpt>
      <trkpt lat="56.44480833" lon="12.72513833">
        <ele>102.566</ele>
        <time>1970-01-01T01:00:00Z</time>
        <extensions><gpxtpx:TrackPointExtension><gpxtpx:hr>99</gpxtpx:hr></gpxtpx:TrackPointExtension></extensions>
      </trkpt>
      <trkpt lat="56.44482167" lon="12.725145">
        <ele>102.719</ele>
        <time>1970-01-01T01:00:00Z</time>
        <extensions><gpxtpx:TrackPointExtension><gpxtpx:hr>98</gpxtpx:hr></gpxtpx:TrackPointExtension></extensions>
      </trkpt>
      <trkpt lat="56.44482667" lon="12.725145">
        <ele>102.719</ele>
        <time>1970-01-01T01:00:00Z</time>
        <extensions><gpxtpx:TrackPointExtension><gpxtpx:hr>98</gpxtpx:hr></gpxtpx:TrackPointExtension></extensions>
      </trkpt>
      <trkpt lat="56.44482833" lon="12.72514">
        <ele>102.871</ele>
        <time>1970-01-01T01:00:00Z</time>
        <extensions><gpxtpx:TrackPointExtension><gpxtpx:hr>98</gpxtpx:hr></gpxtpx:TrackPointExtension></extensions>
      </trkpt>
      <trkpt lat="56.44483333" lon="12.72514167">
        <ele>102.871</ele>
        <time>1970-01-01T01:00:00Z</time>
        <extensions><gpxtpx:TrackPointExtension><gpxtpx:hr>98</gpxtpx:hr></gpxtpx:TrackPointExtension></extensions>
      </trkpt>
      <trkpt lat="56.44485" lon="12.72514167">
        <ele>102.871</ele>
        <time>1970-01-01T01:00:00Z</time>
        <extensions><gpxtpx:TrackPointExtension><gpxtpx:hr>98</gpxtpx:hr></gpxtpx:TrackPointExtension></extensions>
      </trkpt>
      <trkpt lat="56.44486167" lon="12.72515">
        <ele>103.024</ele>
        <time>1970-01-01T01:00:00Z</time>
        <extensions><gpxtpx:TrackPointExtension><gpxtpx:hr>98</gpxtpx:hr></gpxtpx:TrackPointExtension></extensions>
      </trkpt>
      <trkpt lat="56.44487" lon="12.72515333">
        <ele>103.024</ele>
        <time>1970-01-01T01:00:00Z</time>
        <extensions><gpxtpx:TrackPointExtension><gpxtpx:hr>98</gpxtpx:hr></gpxtpx:TrackPointExtension></extensions>
      </trkpt>
      <trkpt lat="56.444875" lon="12.725165">
        <ele>103.176</ele>
        <time>1970-01-01T01:00:00Z</time>
        <extensions><gpxtpx:TrackPointExtension><gpxtpx:hr>98</gpxtpx:hr></gpxtpx:TrackPointExtension></extensions>
      </trkpt>
      <trkpt lat="56.44488667" lon="12.725175">
        <ele>103.176</ele>
        <time>1970-01-01T01:00:00Z</time>
        <extensions><gpxtpx:TrackPointExtension><gpxtpx:hr>98</gpxtpx:hr></gpxtpx:TrackPointExtension></extensions>
      </trkpt>
      <trkpt lat="56.44490167" lon="12.72518833">
        <ele>103.328</ele>
        <time>1970-01-01T01:00:00Z</time>
        <extensions><gpxtpx:TrackPointExtension><gpxtpx:hr>98</gpxtpx:hr></gpxtpx:TrackPointExtension></extensions>
      </trkpt>
      <trkpt lat="56.44492833" lon="12.725195">
        <ele>103.481</ele>
        <time>1970-01-01T01:00:00Z</time>
        <extensions><gpxtpx:TrackPointExtension><gpxtpx:hr>98</gpxtpx:hr></gpxtpx:TrackPointExtension></extensions>
      </trkpt>
      <trkpt lat="56.44494833" lon="12.7252">
        <ele>103.481</ele>
        <time>1970-01-01T01:00:00Z</time>
        <extensions><gpxtpx:TrackPointExtension><gpxtpx:hr>98</gpxtpx:hr></gpxtpx:TrackPointExtension></extensions>
      </trkpt>
      <trkpt lat="56.44496667" lon="12.72522167">
        <ele>103.633</ele>
        <time>1970-01-01T01:00:00Z</time>
        <extensions><gpxtpx:TrackPointExtension><gpxtpx:hr>99</gpxtpx:hr></gpxtpx:TrackPointExtension></extensions>
      </trkpt>
      <trkpt lat="56.444995" lon="12.725245">
        <ele>103.633</ele>
        <time>1970-01-01T01:00:00Z</time>
        <extensions><gpxtpx:TrackPointExtension><gpxtpx:hr>99</gpxtpx:hr></gpxtpx:TrackPointExtension></extensions>
      </trkpt>
      <trkpt lat="56.44501333" lon="12.72523833">
        <ele>103.786</ele>
        <time>1970-01-01T01:00:00Z</time>
        <extensions><gpxtpx:TrackPointExtension><gpxtpx:hr>99</gpxtpx:hr></gpxtpx:TrackPointExtension></extensions>
      </trkpt>
      <trkpt lat="56.445025" lon="12.72522167">
        <ele>103.786</ele>
        <time>1970-01-01T01:00:00Z</time>
        <extensions><gpxtpx:TrackPointExtension><gpxtpx:hr>99</gpxtpx:hr></gpxtpx:TrackPointExtension></extensions>
      </trkpt>
      <trkpt lat="56.44503" lon="12.72522">
        <ele>103.938</ele>
        <time>1970-01-01T01:00:00Z</time>
        <extensions><gpxtpx:TrackPointExtension><gpxtpx:hr>100</gpxtpx:hr></gpxtpx:TrackPointExtension></extensions>
      </trkpt>
      <trkpt lat="56.44503167" lon="12.72522333">
        <ele>103.938</ele>
        <time>1970-01-01T01:00:00Z</time>
        <extensions><gpxtpx:TrackPointExtension><gpxtpx:hr>100</gpxtpx:hr></gpxtpx:TrackPointExtension></extensions>
      </trkpt>
      <trkpt lat="56.44503333" lon="12.725225">
        <ele>103.938</ele>
        <time>1970-01-01T01:00:00Z</time>
        <extensions><gpxtpx:TrackPointExtension><gpxtpx:hr>100</gpxtpx:hr></gpxtpx:TrackPointExtension></extensions>
      </trkpt>
      <trkpt lat="56.445135" lon="12.72535167">
        <ele>104.09</ele>
        <time>1970-01-01T01:00:00Z</time>
        <extensions><gpxtpx:TrackPointExtension><gpxtpx:hr>100</gpxtpx:hr></gpxtpx:TrackPointExtension></extensions>
      </trkpt>
      <trkpt lat="56.44514333" lon="12.72537">
        <ele>104.09</ele>
        <time>1970-01-01T01:00:00Z</time>
        <extensions><gpxtpx:TrackPointExtension><gpxtpx:hr>100</gpxtpx:hr></gpxtpx:TrackPointExtension></extensions>
      </trkpt>
      <trkpt lat="56.44516" lon="12.72539">
        <ele>104.243</ele>
        <time>1970-01-01T01:00:00Z</time>
        <extensions><gpxtpx:TrackPointExtension><gpxtpx:hr>100</gpxtpx:hr></gpxtpx:TrackPointExtension></extensions>
      </trkpt>
      <trkpt lat="56.44516833" lon="12.7254">
        <ele>104.243</ele>
        <time>1970-01-01T01:00:00Z</time>
        <extensions><gpxtpx:TrackPointExtension><gpxtpx:hr>100</gpxtpx:hr></gpxtpx:TrackPointExtension></extensions>
      </trkpt>
      <trkpt lat="56.44518" lon="12.72541667">
        <ele>104.243</ele>
        <time>1970-01-01T01:00:00Z</time>
        <extensions><gpxtpx:TrackPointExtension><gpxtpx:hr>100</gpxtpx:hr></gpxtpx:TrackPointExtension></extensions>
      </trkpt>
      <trkpt lat="56.44519333" lon="12.72542833">
        <ele>104.395</ele>
        <time>1970-01-01T01:00:00Z</time>
        <extensions><gpxtpx:TrackPointExtension><gpxtpx:hr>99</gpxtpx:hr></gpxtpx:TrackPointExtension></extensions>
      </trkpt>
      <trkpt lat="56.44521167" lon="12.72544167">
        <ele>104.395</ele>
        <time>1970-01-01T01:00:00Z</time>
        <extensions><gpxtpx:TrackPointExtension><gpxtpx:hr>99</gpxtpx:hr></gpxtpx:TrackPointExtension></extensions>
      </trkpt>
      <trkpt lat="56.44523" lon="12.72545">
        <ele>104.548</ele>
        <time>1970-01-01T01:00:00Z</time>
        <extensions><gpxtpx:TrackPointExtension><gpxtpx:hr>98</gpxtpx:hr></gpxtpx:TrackPointExtension></extensions>
      </trkpt>
      <trkpt lat="56.44524333" lon="12.72545">
        <ele>104.548</ele>
        <time>1970-01-01T01:00:00Z</time>
        <extensions><gpxtpx:TrackPointExtension><gpxtpx:hr>98</gpxtpx:hr></gpxtpx:TrackPointExtension></extensions>
      </trkpt>
      <trkpt lat="56.445255" lon="12.72546667">
        <ele>104.7</ele>
        <time>1970-01-01T01:00:00Z</time>
        <extensions><gpxtpx:TrackPointExtension><gpxtpx:hr>98</gpxtpx:hr></gpxtpx:TrackPointExtension></extensions>
      </trkpt>
      <trkpt lat="56.44527" lon="12.725485">
        <ele>104.7</ele>
        <time>1970-01-01T01:00:00Z</time>
        <extensions><gpxtpx:TrackPointExtension><gpxtpx:hr>97</gpxtpx:hr></gpxtpx:TrackPointExtension></extensions>
      </trkpt>
      <trkpt lat="56.44528667" lon="12.72548833">
        <ele>104.852</ele>
        <time>1970-01-01T01:00:00Z</time>
        <extensions><gpxtpx:TrackPointExtension><gpxtpx:hr>97</gpxtpx:hr></gpxtpx:TrackPointExtension></extensions>
      </trkpt>
      <trkpt lat="56.44529833" lon="12.7255">
        <ele>105.005</ele>
        <time>1970-01-01T01:00:00Z</time>
        <extensions><gpxtpx:TrackPointExtension><gpxtpx:hr>97</gpxtpx:hr></gpxtpx:TrackPointExtension></extensions>
      </trkpt>
      <trkpt lat="56.44531333" lon="12.725515">
        <ele>105.005</ele>
        <time>1970-01-01T01:00:00Z</time>
        <extensions><gpxtpx:TrackPointExtension><gpxtpx:hr>97</gpxtpx:hr></gpxtpx:TrackPointExtension></extensions>
      </trkpt>
      <trkpt lat="56.445315" lon="12.72552167">
        <ele>105.157</ele>
        <time>1970-01-01T01:00:00Z</time>
        <extensions><gpxtpx:TrackPointExtension><gpxtpx:hr>97</gpxtpx:hr></gpxtpx:TrackPointExtension></extensions>
      </trkpt>
      <trkpt lat="56.44532833" lon="12.72554833">
        <ele>105.31</ele>
        <time>1970-01-01T01:00:00Z</time>
        <extensions><gpxtpx:TrackPointExtension><gpxtpx:hr>98</gpxtpx:hr></gpxtpx:TrackPointExtension></extensions>
      </trkpt>
      <trkpt lat="56.445335" lon="12.72556833">
        <ele>105.31</ele>
        <time>1970-01-01T01:00:00Z</time>
        <extensions><gpxtpx:TrackPointExtension><gpxtpx:hr>98</gpxtpx:hr></gpxtpx:TrackPointExtension></extensions>
      </trkpt>
      <trkpt lat="56.44534833" lon="12.72557667">
        <ele>105.462</ele>
        <time>1970-01-01T01:00:00Z</time>
        <extensions><gpxtpx:TrackPointExtension><gpxtpx:hr>98</gpxtpx:hr></gpxtpx:TrackPointExtension></extensions>
      </trkpt>
      <trkpt lat="56.44536167" lon="12.72559167">
        <ele>105.614</ele>
        <time>1970-01-01T01:00:00Z</time>
        <extensions><gpxtpx:TrackPointExtension><gpxtpx:hr>98</gpxtpx:hr></gpxtpx:TrackPointExtension></extensions>
      </trkpt>
      <trkpt lat="56.44537" lon="12.7256">
        <ele>105.614</ele>
        <time>1970-01-01T01:00:00Z</time>
        <extensions><gpxtpx:TrackPointExtension><gpxtpx:hr>99</gpxtpx:hr></gpxtpx:TrackPointExtension></extensions>
      </trkpt>
      <trkpt lat="56.44537667" lon="12.72561">
        <ele>105.767</ele>
        <time>1970-01-01T01:00:00Z</time>
        <extensions><gpxtpx:TrackPointExtension><gpxtpx:hr>99</gpxtpx:hr></gpxtpx:TrackPointExtension></extensions>
      </trkpt>
      <trkpt lat="56.44539333" lon="12.72563">
        <ele>105.919</ele>
        <time>1970-01-01T01:00:00Z</time>
        <extensions><gpxtpx:TrackPointExtension><gpxtpx:hr>99</gpxtpx:hr></gpxtpx:TrackPointExtension></extensions>
      </trkpt>
      <trkpt lat="56.445415" lon="12.72564333">
        <ele>106.072</ele>
        <time>1970-01-01T01:00:00Z</time>
        <extensions><gpxtpx:TrackPointExtension><gpxtpx:hr>99</gpxtpx:hr></gpxtpx:TrackPointExtension></extensions>
      </trkpt>
      <trkpt lat="56.44541667" lon="12.725645">
        <ele>106.224</ele>
        <time>1970-01-01T01:00:00Z</time>
        <extensions><gpxtpx:TrackPointExtension><gpxtpx:hr>99</gpxtpx:hr></gpxtpx:TrackPointExtension></extensions>
      </trkpt>
      <trkpt lat="56.44542833" lon="12.725685">
        <ele>106.224</ele>
        <time>1970-01-01T01:00:00Z</time>
        <extensions><gpxtpx:TrackPointExtension><gpxtpx:hr>99</gpxtpx:hr></gpxtpx:TrackPointExtension></extensions>
      </trkpt>
      <trkpt lat="56.44542833" lon="12.72570833">
        <ele>106.376</ele>
        <time>1970-01-01T01:00:00Z</time>
        <extensions><gpxtpx:TrackPointExtension><gpxtpx:hr>99</gpxtpx:hr></gpxtpx:TrackPointExtension></extensions>
      </trkpt>
      <trkpt lat="56.445445" lon="12.72572667">
        <ele>106.529</ele>
        <time>1970-01-01T01:00:00Z</time>
        <extensions><gpxtpx:TrackPointExtension><gpxtpx:hr>99</gpxtpx:hr></gpxtpx:TrackPointExtension></extensions>
      </trkpt>
      <trkpt lat="56.445465" lon="12.72574167">
        <ele>106.681</ele>
        <time>1970-01-01T01:00:00Z</time>
        <extensions><gpxtpx:TrackPointExtension><gpxtpx:hr>98</gpxtpx:hr></gpxtpx:TrackPointExtension></extensions>
      </trkpt>
      <trkpt lat="56.44548" lon="12.72575167">
        <ele>106.834</ele>
        <time>1970-01-01T01:00:00Z</time>
        <extensions><gpxtpx:TrackPointExtension><gpxtpx:hr>98</gpxtpx:hr></gpxtpx:TrackPointExtension></extensions>
      </trkpt>
      <trkpt lat="56.44549667" lon="12.72574667">
        <ele>106.834</ele>
        <time>1970-01-01T01:00:00Z</time>
        <extensions><gpxtpx:TrackPointExtension><gpxtpx:hr>98</gpxtpx:hr></gpxtpx:TrackPointExtension></extensions>
      </trkpt>
      <trkpt lat="56.44551167" lon="12.72574167">
        <ele>106.986</ele>
        <time>1970-01-01T01:00:00Z</time>
        <extensions><gpxtpx:TrackPointExtension><gpxtpx:hr>98</gpxtpx:hr></gpxtpx:TrackPointExtension></extensions>
      </trkpt>
      <trkpt lat="56.44552833" lon="12.72573833">
        <ele>107.138</ele>
        <time>1970-01-01T01:00:00Z</time>
        <extensions><gpxtpx:TrackPointExtension><gpxtpx:hr>97</gpxtpx:hr></gpxtpx:TrackPointExtension></extensions>
      </trkpt>
      <trkpt lat="56.44554" lon="12.72573667">
        <ele>107.291</ele>
        <time>1970-01-01T01:00:00Z</time>
        <extensions><gpxtpx:TrackPointExtension><gpxtpx:hr>98</gpxtpx:hr></gpxtpx:TrackPointExtension></extensions>
      </trkpt>
      <trkpt lat="56.44554833" lon="12.725735">
        <ele>107.443</ele>
        <time>1970-01-01T01:00:00Z</time>
        <extensions><gpxtpx:TrackPointExtension><gpxtpx:hr>98</gpxtpx:hr></gpxtpx:TrackPointExtension></extensions>
      </trkpt>
      <trkpt lat="56.44555833" lon="12.72573333">
        <ele>107.443</ele>
        <time>1970-01-01T01:00:00Z</time>
        <extensions><gpxtpx:TrackPointExtension><gpxtpx:hr>98</gpxtpx:hr></gpxtpx:TrackPointExtension></extensions>
      </trkpt>
      <trkpt lat="56.44557" lon="12.72574833">
        <ele>107.596</ele>
        <time>1970-01-01T01:00:00Z</time>
        <extensions><gpxtpx:TrackPointExtension><gpxtpx:hr>99</gpxtpx:hr></gpxtpx:TrackPointExtension></extensions>
      </trkpt>
      <trkpt lat="56.44558" lon="12.72575333">
        <ele>107.748</ele>
        <time>1970-01-01T01:00:00Z</time>
        <extensions><gpxtpx:TrackPointExtension><gpxtpx:hr>99</gpxtpx:hr></gpxtpx:TrackPointExtension></extensions>
      </trkpt>
      <trkpt lat="56.445595" lon="12.72576167">
        <ele>107.901</ele>
        <time>1970-01-01T01:00:00Z</time>
        <extensions><gpxtpx:TrackPointExtension><gpxtpx:hr>99</gpxtpx:hr></gpxtpx:TrackPointExtension></extensions>
      </trkpt>
      <trkpt lat="56.44561167" lon="12.725765">
        <ele>107.901</ele>
        <time>1970-01-01T01:00:00Z</time>
        <extensions><gpxtpx:TrackPointExtension><gpxtpx:hr>100</gpxtpx:hr></gpxtpx:TrackPointExtension></extensions>
      </trkpt>
      <trkpt lat="56.44562" lon="12.72576167">
        <ele>108.053</ele>
        <time>1970-01-01T01:00:00Z</time>
        <extensions><gpxtpx:TrackPointExtension><gpxtpx:hr>100</gpxtpx:hr></gpxtpx:TrackPointExtension></extensions>
      </trkpt>
      <trkpt lat="56.445625" lon="12.72576">
        <ele>108.205</ele>
        <time>1970-01-01T01:00:00Z</time>
        <extensions><gpxtpx:TrackPointExtension><gpxtpx:hr>100</gpxtpx:hr></gpxtpx:TrackPointExtension></extensions>
      </trkpt>
      <trkpt lat="56.44563667" lon="12.72575333">
        <ele>108.358</ele>
        <time>1970-01-01T01:00:00Z</time>
        <extensions><gpxtpx:TrackPointExtension><gpxtpx:hr>100</gpxtpx:hr></gpxtpx:TrackPointExtension></extensions>
      </trkpt>
      <trkpt lat="56.44565333" lon="12.725755">
        <ele>108.358</ele>
        <time>1970-01-01T01:00:00Z</time>
        <extensions><gpxtpx:TrackPointExtension><gpxtpx:hr>100</gpxtpx:hr></gpxtpx:TrackPointExtension></extensions>
      </trkpt>
      <trkpt lat="56.44566833" lon="12.72575833">
        <ele>108.51</ele>
        <time>1970-01-01T01:00:00Z</time>
        <extensions><gpxtpx:TrackPointExtension><gpxtpx:hr>100</gpxtpx:hr></gpxtpx:TrackPointExtension></extensions>
      </trkpt>
      <trkpt lat="56.445695" lon="12.725765">
        <ele>108.663</ele>
        <time>1970-01-01T01:00:00Z</time>
        <extensions><gpxtpx:TrackPointExtension><gpxtpx:hr>100</gpxtpx:hr></gpxtpx:TrackPointExtension></extensions>
      </trkpt>
      <trkpt lat="56.44571667" lon="12.72577667">
        <ele>108.815</ele>
        <time>1970-01-01T01:00:00Z</time>
        <extensions><gpxtpx:TrackPointExtension><gpxtpx:hr>100</gpxtpx:hr></gpxtpx:TrackPointExtension></extensions>
      </trkpt>
      <trkpt lat="56.44574167" lon="12.72578167">
        <ele>108.815</ele>
        <time>1970-01-01T01:00:00Z</time>
        <extensions><gpxtpx:TrackPointExtension><gpxtpx:hr>100</gpxtpx:hr></gpxtpx:TrackPointExtension></extensions>
      </trkpt>
      <trkpt lat="56.44576667" lon="12.72579167">
        <ele>108.967</ele>
        <time>1970-01-01T01:00:00Z</time>
        <extensions><gpxtpx:TrackPointExtension><gpxtpx:hr>100</gpxtpx:hr></gpxtpx:TrackPointExtension></extensions>
      </trkpt>
      <trkpt lat="56.44579" lon="12.72580167">
        <ele>109.12</ele>
        <time>1970-01-01T01:00:00Z</time>
        <extensions><gpxtpx:TrackPointExtension><gpxtpx:hr>100</gpxtpx:hr></gpxtpx:TrackPointExtension></extensions>
      </trkpt>
      <trkpt lat="56.44582" lon="12.72581667">
        <ele>109.12</ele>
        <time>1970-01-01T01:00:00Z</time>
        <extensions><gpxtpx:TrackPointExtension><gpxtpx:hr>100</gpxtpx:hr></gpxtpx:TrackPointExtension></extensions>
      </trkpt>
      <trkpt lat="56.44584167" lon="12.72580833">
        <ele>109.272</ele>
        <time>1970-01-01T01:00:00Z</time>
        <extensions><gpxtpx:TrackPointExtension><gpxtpx:hr>100</gpxtpx:hr></gpxtpx:TrackPointExtension></extensions>
      </trkpt>
      <trkpt lat="56.44586167" lon="12.725805">
        <ele>109.425</ele>
        <time>1970-01-01T01:00:00Z</time>
        <extensions><gpxtpx:TrackPointExtension><gpxtpx:hr>100</gpxtpx:hr></gpxtpx:TrackPointExtension></extensions>
      </trkpt>
      <trkpt lat="56.44588167" lon="12.72578667">
        <ele>109.577</ele>
        <time>1970-01-01T01:00:00Z</time>
        <extensions><gpxtpx:TrackPointExtension><gpxtpx:hr>101</gpxtpx:hr></gpxtpx:TrackPointExtension></extensions>
      </trkpt>
      <trkpt lat="56.445905" lon="12.72579333">
        <ele>109.729</ele>
        <time>1970-01-01T01:00:00Z</time>
        <extensions><gpxtpx:TrackPointExtension><gpxtpx:hr>101</gpxtpx:hr></gpxtpx:TrackPointExtension></extensions>
      </trkpt>
      <trkpt lat="56.44592" lon="12.7258">
        <ele>109.882</ele>
        <time>1970-01-01T01:00:00Z</time>
        <extensions><gpxtpx:TrackPointExtension><gpxtpx:hr>100</gpxtpx:hr></gpxtpx:TrackPointExtension></extensions>
      </trkpt>
      <trkpt lat="56.44592833" lon="12.72580333">
        <ele>109.882</ele>
        <time>1970-01-01T01:00:00Z</time>
        <extensions><gpxtpx:TrackPointExtension><gpxtpx:hr>99</gpxtpx:hr></gpxtpx:TrackPointExtension></extensions>
      </trkpt>
      <trkpt lat="56.44594333" lon="12.725805">
        <ele>110.034</ele>
        <time>1970-01-01T01:00:00Z</time>
        <extensions><gpxtpx:TrackPointExtension><gpxtpx:hr>99</gpxtpx:hr></gpxtpx:TrackPointExtension></extensions>
      </trkpt>
      <trkpt lat="56.44595" lon="12.72582667">
        <ele>110.187</ele>
        <time>1970-01-01T01:00:00Z</time>
        <extensions><gpxtpx:TrackPointExtension><gpxtpx:hr>98</gpxtpx:hr></gpxtpx:TrackPointExtension></extensions>
      </trkpt>
      <trkpt lat="56.44596833" lon="12.725835">
        <ele>110.339</ele>
        <time>1970-01-01T01:00:00Z</time>
        <extensions><gpxtpx:TrackPointExtension><gpxtpx:hr>98</gpxtpx:hr></gpxtpx:TrackPointExtension></extensions>
      </trkpt>
      <trkpt lat="56.44598833" lon="12.72584667">
        <ele>110.491</ele>
        <time>1970-01-01T01:00:00Z</time>
        <extensions><gpxtpx:TrackPointExtension><gpxtpx:hr>98</gpxtpx:hr></gpxtpx:TrackPointExtension></extensions>
      </trkpt>
      <trkpt lat="56.44601" lon="12.72584333">
        <ele>110.644</ele>
        <time>1970-01-01T01:00:00Z</time>
        <extensions><gpxtpx:TrackPointExtension><gpxtpx:hr>98</gpxtpx:hr></gpxtpx:TrackPointExtension></extensions>
      </trkpt>
      <trkpt lat="56.44602" lon="12.72583">
        <ele>110.796</ele>
        <time>1970-01-01T01:00:00Z</time>
        <extensions><gpxtpx:TrackPointExtension><gpxtpx:hr>98</gpxtpx:hr></gpxtpx:TrackPointExtension></extensions>
      </trkpt>
      <trkpt lat="56.44603" lon="12.72582">
        <ele>110.949</ele>
        <time>1970-01-01T01:00:00Z</time>
        <extensions><gpxtpx:TrackPointExtension><gpxtpx:hr>98</gpxtpx:hr></gpxtpx:TrackPointExtension></extensions>
      </trkpt>
      <trkpt lat="56.44603667" lon="12.72583">
        <ele>111.101</ele>
        <time>1970-01-01T01:00:00Z</time>
        <extensions><gpxtpx:TrackPointExtension><gpxtpx:hr>98</gpxtpx:hr></gpxtpx:TrackPointExtension></extensions>
      </trkpt>
      <trkpt lat="56.44604333" lon="12.72584667">
        <ele>111.101</ele>
        <time>1970-01-01T01:00:00Z</time>
        <extensions><gpxtpx:TrackPointExtension><gpxtpx:hr>98</gpxtpx:hr></gpxtpx:TrackPointExtension></extensions>
      </trkpt>
      <trkpt lat="56.44605333" lon="12.72586167">
        <ele>111.253</ele>
        <time>1970-01-01T01:00:00Z</time>
        <extensions><gpxtpx:TrackPointExtension><gpxtpx:hr>98</gpxtpx:hr></gpxtpx:TrackPointExtension></extensions>
      </trkpt>
      <trkpt lat="56.44607" lon="12.72586833">
        <ele>111.406</ele>
        <time>1970-01-01T01:00:00Z</time>
        <extensions><gpxtpx:TrackPointExtension><gpxtpx:hr>99</gpxtpx:hr></gpxtpx:TrackPointExtension></extensions>
      </trkpt>
      <trkpt lat="56.44608333" lon="12.72586333">
        <ele>111.558</ele>
        <time>1970-01-01T01:00:00Z</time>
        <extensions><gpxtpx:TrackPointExtension><gpxtpx:hr>99</gpxtpx:hr></gpxtpx:TrackPointExtension></extensions>
      </trkpt>
      <trkpt lat="56.44609833" lon="12.72586667">
        <ele>111.558</ele>
        <time>1970-01-01T01:00:00Z</time>
        <extensions><gpxtpx:TrackPointExtension><gpxtpx:hr>99</gpxtpx:hr></gpxtpx:TrackPointExtension></extensions>
      </trkpt>
      <trkpt lat="56.44610667" lon="12.72587667">
        <ele>111.711</ele>
        <time>1970-01-01T01:00:00Z</time>
        <extensions><gpxtpx:TrackPointExtension><gpxtpx:hr>100</gpxtpx:hr></gpxtpx:TrackPointExtension></extensions>
      </trkpt>
      <trkpt lat="56.44611667" lon="12.72587833">
        <ele>111.863</ele>
        <time>1970-01-01T01:00:00Z</time>
        <extensions><gpxtpx:TrackPointExtension><gpxtpx:hr>100</gpxtpx:hr></gpxtpx:TrackPointExtension></extensions>
      </trkpt>
      <trkpt lat="56.44613" lon="12.72588">
        <ele>111.863</ele>
        <time>1970-01-01T01:00:00Z</time>
        <extensions><gpxtpx:TrackPointExtension><gpxtpx:hr>100</gpxtpx:hr></gpxtpx:TrackPointExtension></extensions>
      </trkpt>
      <trkpt lat="56.44614333" lon="12.72587167">
        <ele>112.015</ele>
        <time>1970-01-01T01:00:00Z</time>
        <extensions><gpxtpx:TrackPointExtension><gpxtpx:hr>100</gpxtpx:hr></gpxtpx:TrackPointExtension></extensions>
      </trkpt>
      <trkpt lat="56.44615333" lon="12.725875">
        <ele>112.168</ele>
        <time>1970-01-01T01:00:00Z</time>
        <extensions><gpxtpx:TrackPointExtension><gpxtpx:hr>100</gpxtpx:hr></gpxtpx:TrackPointExtension></extensions>
      </trkpt>
      <trkpt lat="56.44616667" lon="12.72588333">
        <ele>112.168</ele>
        <time>1970-01-01T01:00:00Z</time>
        <extensions><gpxtpx:TrackPointExtension><gpxtpx:hr>100</gpxtpx:hr></gpxtpx:TrackPointExtension></extensions>
      </trkpt>
      <trkpt lat="56.44617833" lon="12.72589333">
        <ele>112.32</ele>
        <time>1970-01-01T01:00:00Z</time>
        <extensions><gpxtpx:TrackPointExtension><gpxtpx:hr>101</gpxtpx:hr></gpxtpx:TrackPointExtension></extensions>
      </trkpt>
      <trkpt lat="56.44618833" lon="12.72589667">
        <ele>112.32</ele>
        <time>1970-01-01T01:00:00Z</time>
        <extensions><gpxtpx:TrackPointExtension><gpxtpx:hr>101</gpxtpx:hr></gpxtpx:TrackPointExtension></extensions>
      </trkpt>
      <trkpt lat="56.446205" lon="12.7259">
        <ele>112.473</ele>
        <time>1970-01-01T01:00:00Z</time>
        <extensions><gpxtpx:TrackPointExtension><gpxtpx:hr>101</gpxtpx:hr></gpxtpx:TrackPointExtension></extensions>
      </trkpt>
      <trkpt lat="56.44621667" lon="12.72591">
        <ele>112.473</ele>
        <time>1970-01-01T01:00:00Z</time>
        <extensions><gpxtpx:TrackPointExtension><gpxtpx:hr>102</gpxtpx:hr></gpxtpx:TrackPointExtension></extensions>
      </trkpt>
      <trkpt lat="56.44622667" lon="12.72592833">
        <ele>112.625</ele>
        <time>1970-01-01T01:00:00Z</time>
        <extensions><gpxtpx:TrackPointExtension><gpxtpx:hr>102</gpxtpx:hr></gpxtpx:TrackPointExtension></extensions>
      </trkpt>
      <trkpt lat="56.44623333" lon="12.725925">
        <ele>112.625</ele>
        <time>1970-01-01T01:00:00Z</time>
        <extensions><gpxtpx:TrackPointExtension><gpxtpx:hr>102</gpxtpx:hr></gpxtpx:TrackPointExtension></extensions>
      </trkpt>
      <trkpt lat="56.44623667" lon="12.725925">
        <ele>112.777</ele>
        <time>1970-01-01T01:00:00Z</time>
        <extensions><gpxtpx:TrackPointExtension><gpxtpx:hr>102</gpxtpx:hr></gpxtpx:TrackPointExtension></extensions>
      </trkpt>
      <trkpt lat="56.44623833" lon="12.72592333">
        <ele>112.777</ele>
        <time>1970-01-01T01:00:00Z</time>
        <extensions><gpxtpx:TrackPointExtension><gpxtpx:hr>102</gpxtpx:hr></gpxtpx:TrackPointExtension></extensions>
      </trkpt>
      <trkpt lat="56.44629167" lon="12.72601667">
        <ele>112.93</ele>
        <time>1970-01-01T01:00:00Z</time>
        <extensions><gpxtpx:TrackPointExtension><gpxtpx:hr>102</gpxtpx:hr></gpxtpx:TrackPointExtension></extensions>
      </trkpt>
      <trkpt lat="56.4463" lon="12.72602833">
        <ele>113.082</ele>
        <time>1970-01-01T01:00:00Z</time>
        <extensions><gpxtpx:TrackPointExtension><gpxtpx:hr>102</gpxtpx:hr></gpxtpx:TrackPointExtension></extensions>
      </trkpt>
      <trkpt lat="56.44631167" lon="12.72605333">
        <ele>113.082</ele>
        <time>1970-01-01T01:00:00Z</time>
        <extensions><gpxtpx:TrackPointExtension><gpxtpx:hr>102</gpxtpx:hr></gpxtpx:TrackPointExtension></extensions>
      </trkpt>
      <trkpt lat="56.44632167" lon="12.72608">
        <ele>113.235</ele>
        <time>1970-01-01T01:00:00Z</time>
        <extensions><gpxtpx:TrackPointExtension><gpxtpx:hr>103</gpxtpx:hr></gpxtpx:TrackPointExtension></extensions>
      </trkpt>
      <trkpt lat="56.44632833" lon="12.72611">
        <ele>113.387</ele>
        <time>1970-01-01T01:00:00Z</time>
        <extensions><gpxtpx:TrackPointExtension><gpxtpx:hr>103</gpxtpx:hr></gpxtpx:TrackPointExtension></extensions>
      </trkpt>
      <trkpt lat="56.44633833" lon="12.72614">
        <ele>113.387</ele>
        <time>1970-01-01T01:00:00Z</time>
        <extensions><gpxtpx:TrackPointExtension><gpxtpx:hr>103</gpxtpx:hr></gpxtpx:TrackPointExtension></extensions>
      </trkpt>
      <trkpt lat="56.44634667" lon="12.72616667">
        <ele>113.539</ele>
        <time>1970-01-01T01:00:00Z</time>
        <extensions><gpxtpx:TrackPointExtension><gpxtpx:hr>103</gpxtpx:hr></gpxtpx:TrackPointExtension></extensions>
      </trkpt>
      <trkpt lat="56.44635333" lon="12.72619667">
        <ele>113.539</ele>
        <time>1970-01-01T01:00:00Z</time>
        <extensions><gpxtpx:TrackPointExtension><gpxtpx:hr>103</gpxtpx:hr></gpxtpx:TrackPointExtension></extensions>
      </trkpt>
      <trkpt lat="56.44635667" lon="12.72622333">
        <ele>113.692</ele>
        <time>1970-01-01T01:00:00Z</time>
        <extensions><gpxtpx:TrackPointExtension><gpxtpx:hr>104</gpxtpx:hr></gpxtpx:TrackPointExtension></extensions>
      </trkpt>
      <trkpt lat="56.446355" lon="12.72624667">
        <ele>113.692</ele>
        <time>1970-01-01T01:00:00Z</time>
        <extensions><gpxtpx:TrackPointExtension><gpxtpx:hr>104</gpxtpx:hr></gpxtpx:TrackPointExtension></extensions>
      </trkpt>
      <trkpt lat="56.44635333" lon="12.726255">
        <ele>113.844</ele>
        <time>1970-01-01T01:00:00Z</time>
        <extensions><gpxtpx:TrackPointExtension><gpxtpx:hr>104</gpxtpx:hr></gpxtpx:TrackPointExtension></extensions>
      </trkpt>
      <trkpt lat="56.44635333" lon="12.72627667">
        <ele>113.844</ele>
        <time>1970-01-01T01:00:00Z</time>
        <extensions><gpxtpx:TrackPointExtension><gpxtpx:hr>104</gpxtpx:hr></gpxtpx:TrackPointExtension></extensions>
      </trkpt>
      <trkpt lat="56.446355" lon="12.72630333">
        <ele>113.997</ele>
        <time>1970-01-01T01:00:00Z</time>
        <extensions><gpxtpx:TrackPointExtension><gpxtpx:hr>104</gpxtpx:hr></gpxtpx:TrackPointExtension></extensions>
      </trkpt>
      <trkpt lat="56.44636" lon="12.72633">
        <ele>114.149</ele>
        <time>1970-01-01T01:00:00Z</time>
        <extensions><gpxtpx:TrackPointExtension><gpxtpx:hr>105</gpxtpx:hr></gpxtpx:TrackPointExtension></extensions>
      </trkpt>
      <trkpt lat="56.44636333" lon="12.72635667">
        <ele>114.149</ele>
        <time>1970-01-01T01:00:00Z</time>
        <extensions><gpxtpx:TrackPointExtension><gpxtpx:hr>105</gpxtpx:hr></gpxtpx:TrackPointExtension></extensions>
      </trkpt>
      <trkpt lat="56.44636667" lon="12.72637667">
        <ele>114.301</ele>
        <time>1970-01-01T01:00:00Z</time>
        <extensions><gpxtpx:TrackPointExtension><gpxtpx:hr>106</gpxtpx:hr></gpxtpx:TrackPointExtension></extensions>
      </trkpt>
      <trkpt lat="56.44637333" lon="12.72641">
        <ele>114.454</ele>
        <time>1970-01-01T01:00:00Z</time>
        <extensions><gpxtpx:TrackPointExtension><gpxtpx:hr>106</gpxtpx:hr></gpxtpx:TrackPointExtension></extensions>
      </trkpt>
      <trkpt lat="56.44637667" lon="12.726445">
        <ele>114.606</ele>
        <time>1970-01-01T01:00:00Z</time>
        <extensions><gpxtpx:TrackPointExtension><gpxtpx:hr>106</gpxtpx:hr></gpxtpx:TrackPointExtension></extensions>
      </trkpt>
      <trkpt lat="56.44638333" lon="12.72648833">
        <ele>114.606</ele>
        <time>1970-01-01T01:00:00Z</time>
        <extensions><gpxtpx:TrackPointExtension><gpxtpx:hr>107</gpxtpx:hr></gpxtpx:TrackPointExtension></extensions>
      </trkpt>
      <trkpt lat="56.44638333" lon="12.72649667">
        <ele>114.759</ele>
        <time>1970-01-01T01:00:00Z</time>
        <extensions><gpxtpx:TrackPointExtension><gpxtpx:hr>107</gpxtpx:hr></gpxtpx:TrackPointExtension></extensions>
      </trkpt>
      <trkpt lat="56.44638833" lon="12.72652">
        <ele>114.911</ele>
        <time>1970-01-01T01:00:00Z</time>
        <extensions><gpxtpx:TrackPointExtension><gpxtpx:hr>107</gpxtpx:hr></gpxtpx:TrackPointExtension></extensions>
      </trkpt>
      <trkpt lat="56.44638833" lon="12.72654">
        <ele>115.063</ele>
        <time>1970-01-01T01:00:00Z</time>
        <extensions><gpxtpx:TrackPointExtension><gpxtpx:hr>107</gpxtpx:hr></gpxtpx:TrackPointExtension></extensions>
      </trkpt>
      <trkpt lat="56.44639167" lon="12.72656833">
        <ele>115.216</ele>
        <time>1970-01-01T01:00:00Z</time>
        <extensions><gpxtpx:TrackPointExtension><gpxtpx:hr>107</gpxtpx:hr></gpxtpx:TrackPointExtension></extensions>
      </trkpt>
      <trkpt lat="56.44639167" lon="12.72657167">
        <ele>115.368</ele>
        <time>1970-01-01T01:00:00Z</time>
        <extensions><gpxtpx:TrackPointExtension><gpxtpx:hr>107</gpxtpx:hr></gpxtpx:TrackPointExtension></extensions>
      </trkpt>
      <trkpt lat="56.44639833" lon="12.72659833">
        <ele>115.673</ele>
        <time>1970-01-01T01:00:00Z</time>
        <extensions><gpxtpx:TrackPointExtension><gpxtpx:hr>107</gpxtpx:hr></gpxtpx:TrackPointExtension></extensions>
      </trkpt>
      <trkpt lat="56.44640667" lon="12.72662167">
        <ele>115.825</ele>
        <time>1970-01-01T01:00:00Z</time>
        <extensions><gpxtpx:TrackPointExtension><gpxtpx:hr>106</gpxtpx:hr></gpxtpx:TrackPointExtension></extensions>
      </trkpt>
      <trkpt lat="56.44641167" lon="12.726645">
        <ele>115.978</ele>
        <time>1970-01-01T01:00:00Z</time>
        <extensions><gpxtpx:TrackPointExtension><gpxtpx:hr>106</gpxtpx:hr></gpxtpx:TrackPointExtension></extensions>
      </trkpt>
      <trkpt lat="56.44641833" lon="12.72667333">
        <ele>116.13</ele>
        <time>1970-01-01T01:00:00Z</time>
        <extensions><gpxtpx:TrackPointExtension><gpxtpx:hr>106</gpxtpx:hr></gpxtpx:TrackPointExtension></extensions>
      </trkpt>
      <trkpt lat="56.44642333" lon="12.72669667">
        <ele>116.435</ele>
        <time>1970-01-01T01:00:00Z</time>
        <extensions><gpxtpx:TrackPointExtension><gpxtpx:hr>106</gpxtpx:hr></gpxtpx:TrackPointExtension></extensions>
      </trkpt>
      <trkpt lat="56.44642833" lon="12.72671333">
        <ele>117.654</ele>
        <time>1970-01-01T01:00:00Z</time>
        <extensions><gpxtpx:TrackPointExtension><gpxtpx:hr>105</gpxtpx:hr></gpxtpx:TrackPointExtension></extensions>
      </trkpt>
      <trkpt lat="56.44642667" lon="12.72673">
        <ele>117.807</ele>
        <time>1970-01-01T01:00:00Z</time>
        <extensions><gpxtpx:TrackPointExtension><gpxtpx:hr>105</gpxtpx:hr></gpxtpx:TrackPointExtension></extensions>
      </trkpt>
      <trkpt lat="56.44643" lon="12.726765">
        <ele>117.959</ele>
        <time>1970-01-01T01:00:00Z</time>
        <extensions><gpxtpx:TrackPointExtension><gpxtpx:hr>105</gpxtpx:hr></gpxtpx:TrackPointExtension></extensions>
      </trkpt>
      <trkpt lat="56.44643667" lon="12.72679">
        <ele>118.111</ele>
        <time>1970-01-01T01:00:00Z</time>
        <extensions><gpxtpx:TrackPointExtension><gpxtpx:hr>105</gpxtpx:hr></gpxtpx:TrackPointExtension></extensions>
      </trkpt>
      <trkpt lat="56.44644" lon="12.72681833">
        <ele>118.264</ele>
        <time>1970-01-01T01:00:00Z</time>
        <extensions><gpxtpx:TrackPointExtension><gpxtpx:hr>105</gpxtpx:hr></gpxtpx:TrackPointExtension></extensions>
      </trkpt>
      <trkpt lat="56.44644167" lon="12.72685833">
        <ele>118.416</ele>
        <time>1970-01-01T01:00:00Z</time>
        <extensions><gpxtpx:TrackPointExtension><gpxtpx:hr>105</gpxtpx:hr></gpxtpx:TrackPointExtension></extensions>
      </trkpt>
      <trkpt lat="56.446445" lon="12.72689167">
        <ele>118.569</ele>
        <time>1970-01-01T01:00:00Z</time>
        <extensions><gpxtpx:TrackPointExtension><gpxtpx:hr>105</gpxtpx:hr></gpxtpx:TrackPointExtension></extensions>
      </trkpt>
      <trkpt lat="56.44645" lon="12.72691">
        <ele>118.721</ele>
        <time>1970-01-01T01:00:00Z</time>
        <extensions><gpxtpx:TrackPointExtension><gpxtpx:hr>105</gpxtpx:hr></gpxtpx:TrackPointExtension></extensions>
      </trkpt>
      <trkpt lat="56.44645333" lon="12.72693333">
        <ele>118.721</ele>
        <time>1970-01-01T01:00:00Z</time>
        <extensions><gpxtpx:TrackPointExtension><gpxtpx:hr>105</gpxtpx:hr></gpxtpx:TrackPointExtension></extensions>
      </trkpt>
      <trkpt lat="56.44645333" lon="12.72695333">
        <ele>118.873</ele>
        <time>1970-01-01T01:00:00Z</time>
        <extensions><gpxtpx:TrackPointExtension><gpxtpx:hr>105</gpxtpx:hr></gpxtpx:TrackPointExtension></extensions>
      </trkpt>
      <trkpt lat="56.44646167" lon="12.72699">
        <ele>119.026</ele>
        <time>1970-01-01T01:00:00Z</time>
        <extensions><gpxtpx:TrackPointExtension><gpxtpx:hr>105</gpxtpx:hr></gpxtpx:TrackPointExtension></extensions>
      </trkpt>
      <trkpt lat="56.44646833" lon="12.72702">
        <ele>119.178</ele>
        <time>1970-01-01T01:00:00Z</time>
        <extensions><gpxtpx:TrackPointExtension><gpxtpx:hr>104</gpxtpx:hr></gpxtpx:TrackPointExtension></extensions>
      </trkpt>
      <trkpt lat="56.44647333" lon="12.72704167">
        <ele>119.331</ele>
        <time>1970-01-01T01:00:00Z</time>
        <extensions><gpxtpx:TrackPointExtension><gpxtpx:hr>104</gpxtpx:hr></gpxtpx:TrackPointExtension></extensions>
      </trkpt>
      <trkpt lat="56.44648167" lon="12.72706833">
        <ele>119.331</ele>
        <time>1970-01-01T01:00:00Z</time>
        <extensions><gpxtpx:TrackPointExtension><gpxtpx:hr>104</gpxtpx:hr></gpxtpx:TrackPointExtension></extensions>
      </trkpt>
      <trkpt lat="56.44649" lon="12.7271">
        <ele>119.483</ele>
        <time>1970-01-01T01:00:00Z</time>
        <extensions><gpxtpx:TrackPointExtension><gpxtpx:hr>104</gpxtpx:hr></gpxtpx:TrackPointExtension></extensions>
      </trkpt>
      <trkpt lat="56.44650333" lon="12.727135">
        <ele>119.483</ele>
        <time>1970-01-01T01:00:00Z</time>
        <extensions><gpxtpx:TrackPointExtension><gpxtpx:hr>103</gpxtpx:hr></gpxtpx:TrackPointExtension></extensions>
      </trkpt>
      <trkpt lat="56.44651167" lon="12.72717">
        <ele>119.635</ele>
        <time>1970-01-01T01:00:00Z</time>
        <extensions><gpxtpx:TrackPointExtension><gpxtpx:hr>103</gpxtpx:hr></gpxtpx:TrackPointExtension></extensions>
      </trkpt>
      <trkpt lat="56.44651833" lon="12.72720833">
        <ele>119.788</ele>
        <time>1970-01-01T01:00:00Z</time>
        <extensions><gpxtpx:TrackPointExtension><gpxtpx:hr>103</gpxtpx:hr></gpxtpx:TrackPointExtension></extensions>
      </trkpt>
      <trkpt lat="56.446525" lon="12.72724333">
        <ele>119.788</ele>
        <time>1970-01-01T01:00:00Z</time>
        <extensions><gpxtpx:TrackPointExtension><gpxtpx:hr>103</gpxtpx:hr></gpxtpx:TrackPointExtension></extensions>
      </trkpt>
      <trkpt lat="56.44653167" lon="12.72728833">
        <ele>119.94</ele>
        <time>1970-01-01T01:00:00Z</time>
        <extensions><gpxtpx:TrackPointExtension><gpxtpx:hr>103</gpxtpx:hr></gpxtpx:TrackPointExtension></extensions>
      </trkpt>
      <trkpt lat="56.44654" lon="12.72734">
        <ele>119.94</ele>
        <time>1970-01-01T01:00:00Z</time>
        <extensions><gpxtpx:TrackPointExtension><gpxtpx:hr>103</gpxtpx:hr></gpxtpx:TrackPointExtension></extensions>
      </trkpt>
      <trkpt lat="56.44655167" lon="12.72738833">
        <ele>120.093</ele>
        <time>1970-01-01T01:00:00Z</time>
        <extensions><gpxtpx:TrackPointExtension><gpxtpx:hr>104</gpxtpx:hr></gpxtpx:TrackPointExtension></extensions>
      </trkpt>
      <trkpt lat="56.44655333" lon="12.72741">
        <ele>120.093</ele>
        <time>1970-01-01T01:00:00Z</time>
        <extensions><gpxtpx:TrackPointExtension><gpxtpx:hr>104</gpxtpx:hr></gpxtpx:TrackPointExtension></extensions>
      </trkpt>
      <trkpt lat="56.446565" lon="12.727455">
        <ele>120.245</ele>
        <time>1970-01-01T01:00:00Z</time>
        <extensions><gpxtpx:TrackPointExtension><gpxtpx:hr>105</gpxtpx:hr></gpxtpx:TrackPointExtension></extensions>
      </trkpt>
      <trkpt lat="56.44657167" lon="12.72750167">
        <ele>120.245</ele>
        <time>1970-01-01T01:00:00Z</time>
        <extensions><gpxtpx:TrackPointExtension><gpxtpx:hr>105</gpxtpx:hr></gpxtpx:TrackPointExtension></extensions>
      </trkpt>
      <trkpt lat="56.44658" lon="12.72755333">
        <ele>120.397</ele>
        <time>1970-01-01T01:00:00Z</time>
        <extensions><gpxtpx:TrackPointExtension><gpxtpx:hr>106</gpxtpx:hr></gpxtpx:TrackPointExtension></extensions>
      </trkpt>
      <trkpt lat="56.44658833" lon="12.72761333">
        <ele>120.397</ele>
        <time>1970-01-01T01:00:00Z</time>
        <extensions><gpxtpx:TrackPointExtension><gpxtpx:hr>106</gpxtpx:hr></gpxtpx:TrackPointExtension></extensions>
      </trkpt>
      <trkpt lat="56.446605" lon="12.72770667">
        <ele>120.55</ele>
        <time>1970-01-01T01:00:00Z</time>
        <extensions><gpxtpx:TrackPointExtension><gpxtpx:hr>106</gpxtpx:hr></gpxtpx:TrackPointExtension></extensions>
      </trkpt>
      <trkpt lat="56.44661" lon="12.72777">
        <ele>120.702</ele>
        <time>1970-01-01T01:00:00Z</time>
        <extensions><gpxtpx:TrackPointExtension><gpxtpx:hr>106</gpxtpx:hr></gpxtpx:TrackPointExtension></extensions>
      </trkpt>
      <trkpt lat="56.446625" lon="12.72781167">
        <ele>120.855</ele>
        <time>1970-01-01T01:00:00Z</time>
        <extensions><gpxtpx:TrackPointExtension><gpxtpx:hr>106</gpxtpx:hr></gpxtpx:TrackPointExtension></extensions>
      </trkpt>
      <trkpt lat="56.44663333" lon="12.72783667">
        <ele>121.007</ele>
        <time>1970-01-01T01:00:00Z</time>
        <extensions><gpxtpx:TrackPointExtension><gpxtpx:hr>106</gpxtpx:hr></gpxtpx:TrackPointExtension></extensions>
      </trkpt>
      <trkpt lat="56.44663333" lon="12.72785667">
        <ele>121.159</ele>
        <time>1970-01-01T01:00:00Z</time>
        <extensions><gpxtpx:TrackPointExtension><gpxtpx:hr>105</gpxtpx:hr></gpxtpx:TrackPointExtension></extensions>
      </trkpt>
      <trkpt lat="56.44662833" lon="12.72788167">
        <ele>121.312</ele>
        <time>1970-01-01T01:00:00Z</time>
        <extensions><gpxtpx:TrackPointExtension><gpxtpx:hr>105</gpxtpx:hr></gpxtpx:TrackPointExtension></extensions>
      </trkpt>
      <trkpt lat="56.44663167" lon="12.72790667">
        <ele>121.464</ele>
        <time>1970-01-01T01:00:00Z</time>
        <extensions><gpxtpx:TrackPointExtension><gpxtpx:hr>105</gpxtpx:hr></gpxtpx:TrackPointExtension></extensions>
      </trkpt>
      <trkpt lat="56.44664333" lon="12.72793167">
        <ele>121.617</ele>
        <time>1970-01-01T01:00:00Z</time>
        <extensions><gpxtpx:TrackPointExtension><gpxtpx:hr>104</gpxtpx:hr></gpxtpx:TrackPointExtension></extensions>
      </trkpt>
      <trkpt lat="56.446655" lon="12.72796">
        <ele>121.769</ele>
        <time>1970-01-01T01:00:00Z</time>
        <extensions><gpxtpx:TrackPointExtension><gpxtpx:hr>103</gpxtpx:hr></gpxtpx:TrackPointExtension></extensions>
      </trkpt>
      <trkpt lat="56.446665" lon="12.728">
        <ele>121.921</ele>
        <time>1970-01-01T01:00:00Z</time>
        <extensions><gpxtpx:TrackPointExtension><gpxtpx:hr>102</gpxtpx:hr></gpxtpx:TrackPointExtension></extensions>
      </trkpt>
      <trkpt lat="56.44668167" lon="12.72804167">
        <ele>122.074</ele>
        <time>1970-01-01T01:00:00Z</time>
        <extensions><gpxtpx:TrackPointExtension><gpxtpx:hr>102</gpxtpx:hr></gpxtpx:TrackPointExtension></extensions>
      </trkpt>
      <trkpt lat="56.44669" lon="12.72808167">
        <ele>122.226</ele>
        <time>1970-01-01T01:00:00Z</time>
        <extensions><gpxtpx:TrackPointExtension><gpxtpx:hr>101</gpxtpx:hr></gpxtpx:TrackPointExtension></extensions>
      </trkpt>
      <trkpt lat="56.44669667" lon="12.72811167">
        <ele>122.379</ele>
        <time>1970-01-01T01:00:00Z</time>
        <extensions><gpxtpx:TrackPointExtension><gpxtpx:hr>101</gpxtpx:hr></gpxtpx:TrackPointExtension></extensions>
      </trkpt>
      <trkpt lat="56.44669833" lon="12.72814333">
        <ele>122.683</ele>
        <time>1970-01-01T01:00:00Z</time>
        <extensions><gpxtpx:TrackPointExtension><gpxtpx:hr>101</gpxtpx:hr></gpxtpx:TrackPointExtension></extensions>
      </trkpt>
      <trkpt lat="56.44670167" lon="12.72816833">
        <ele>122.836</ele>
        <time>1970-01-01T01:00:00Z</time>
        <extensions><gpxtpx:TrackPointExtension><gpxtpx:hr>101</gpxtpx:hr></gpxtpx:TrackPointExtension></extensions>
      </trkpt>
      <trkpt lat="56.44670167" lon="12.72819667">
        <ele>122.988</ele>
        <time>1970-01-01T01:00:00Z</time>
        <extensions><gpxtpx:TrackPointExtension><gpxtpx:hr>101</gpxtpx:hr></gpxtpx:TrackPointExtension></extensions>
      </trkpt>
      <trkpt lat="56.446695" lon="12.72822833">
        <ele>123.293</ele>
        <time>1970-01-01T01:00:00Z</time>
        <extensions><gpxtpx:TrackPointExtension><gpxtpx:hr>101</gpxtpx:hr></gpxtpx:TrackPointExtension></extensions>
      </trkpt>
      <trkpt lat="56.44669333" lon="12.72826333">
        <ele>123.445</ele>
        <time>1970-01-01T01:00:00Z</time>
        <extensions><gpxtpx:TrackPointExtension><gpxtpx:hr>101</gpxtpx:hr></gpxtpx:TrackPointExtension></extensions>
      </trkpt>
      <trkpt lat="56.44669167" lon="12.728305">
        <ele>123.598</ele>
        <time>1970-01-01T01:00:00Z</time>
        <extensions><gpxtpx:TrackPointExtension><gpxtpx:hr>101</gpxtpx:hr></gpxtpx:TrackPointExtension></extensions>
      </trkpt>
      <trkpt lat="56.44669167" lon="12.72835">
        <ele>123.903</ele>
        <time>1970-01-01T01:00:00Z</time>
        <extensions><gpxtpx:TrackPointExtension><gpxtpx:hr>101</gpxtpx:hr></gpxtpx:TrackPointExtension></extensions>
      </trkpt>
      <trkpt lat="56.44669333" lon="12.72838167">
        <ele>124.055</ele>
        <time>1970-01-01T01:00:00Z</time>
        <extensions><gpxtpx:TrackPointExtension><gpxtpx:hr>101</gpxtpx:hr></gpxtpx:TrackPointExtension></extensions>
      </trkpt>
      <trkpt lat="56.44668" lon="12.72840667">
        <ele>124.208</ele>
        <time>1970-01-01T01:00:00Z</time>
        <extensions><gpxtpx:TrackPointExtension><gpxtpx:hr>101</gpxtpx:hr></gpxtpx:TrackPointExtension></extensions>
      </trkpt>
      <trkpt lat="56.44665667" lon="12.728425">
        <ele>124.512</ele>
        <time>1970-01-01T01:00:00Z</time>
        <extensions><gpxtpx:TrackPointExtension><gpxtpx:hr>100</gpxtpx:hr></gpxtpx:TrackPointExtension></extensions>
      </trkpt>
      <trkpt lat="56.44663333" lon="12.728425">
        <ele>124.665</ele>
        <time>1970-01-01T01:00:00Z</time>
        <extensions><gpxtpx:TrackPointExtension><gpxtpx:hr>100</gpxtpx:hr></gpxtpx:TrackPointExtension></extensions>
      </trkpt>
      <trkpt lat="56.44661833" lon="12.72842">
        <ele>124.817</ele>
        <time>1970-01-01T01:00:00Z</time>
        <extensions><gpxtpx:TrackPointExtension><gpxtpx:hr>100</gpxtpx:hr></gpxtpx:TrackPointExtension></extensions>
      </trkpt>
      <trkpt lat="56.44661167" lon="12.72843833">
        <ele>124.97</ele>
        <time>1970-01-01T01:00:00Z</time>
        <extensions><gpxtpx:TrackPointExtension><gpxtpx:hr>100</gpxtpx:hr></gpxtpx:TrackPointExtension></extensions>
      </trkpt>
      <trkpt lat="56.44661667" lon="12.728455">
        <ele>125.274</ele>
        <time>1970-01-01T01:00:00Z</time>
        <extensions><gpxtpx:TrackPointExtension><gpxtpx:hr>99</gpxtpx:hr></gpxtpx:TrackPointExtension></extensions>
      </trkpt>
      <trkpt lat="56.44662" lon="12.728485">
        <ele>125.427</ele>
        <time>1970-01-01T01:00:00Z</time>
        <extensions><gpxtpx:TrackPointExtension><gpxtpx:hr>99</gpxtpx:hr></gpxtpx:TrackPointExtension></extensions>
      </trkpt>
      <trkpt lat="56.446625" lon="12.72851167">
        <ele>125.579</ele>
        <time>1970-01-01T01:00:00Z</time>
        <extensions><gpxtpx:TrackPointExtension><gpxtpx:hr>99</gpxtpx:hr></gpxtpx:TrackPointExtension></extensions>
      </trkpt>
      <trkpt lat="56.44662333" lon="12.72853667">
        <ele>125.732</ele>
        <time>1970-01-01T01:00:00Z</time>
        <extensions><gpxtpx:TrackPointExtension><gpxtpx:hr>99</gpxtpx:hr></gpxtpx:TrackPointExtension></extensions>
      </trkpt>
      <trkpt lat="56.44662" lon="12.72856167">
        <ele>126.036</ele>
        <time>1970-01-01T01:00:00Z</time>
        <extensions><gpxtpx:TrackPointExtension><gpxtpx:hr>99</gpxtpx:hr></gpxtpx:TrackPointExtension></extensions>
      </trkpt>
      <trkpt lat="56.446645" lon="12.72857167">
        <ele>126.189</ele>
        <time>1970-01-01T01:00:00Z</time>
        <extensions><gpxtpx:TrackPointExtension><gpxtpx:hr>100</gpxtpx:hr></gpxtpx:TrackPointExtension></extensions>
      </trkpt>
      <trkpt lat="56.446645" lon="12.728595">
        <ele>126.341</ele>
        <time>1970-01-01T01:00:00Z</time>
        <extensions><gpxtpx:TrackPointExtension><gpxtpx:hr>101</gpxtpx:hr></gpxtpx:TrackPointExtension></extensions>
      </trkpt>
      <trkpt lat="56.44666333" lon="12.72861667">
        <ele>126.494</ele>
        <time>1970-01-01T01:00:00Z</time>
        <extensions><gpxtpx:TrackPointExtension><gpxtpx:hr>101</gpxtpx:hr></gpxtpx:TrackPointExtension></extensions>
      </trkpt>
      <trkpt lat="56.44666833" lon="12.72865333">
        <ele>126.646</ele>
        <time>1970-01-01T01:00:00Z</time>
        <extensions><gpxtpx:TrackPointExtension><gpxtpx:hr>102</gpxtpx:hr></gpxtpx:TrackPointExtension></extensions>
      </trkpt>
      <trkpt lat="56.44666167" lon="12.728695">
        <ele>126.951</ele>
        <time>1970-01-01T01:00:00Z</time>
        <extensions><gpxtpx:TrackPointExtension><gpxtpx:hr>103</gpxtpx:hr></gpxtpx:TrackPointExtension></extensions>
      </trkpt>
      <trkpt lat="56.44665667" lon="12.72873">
        <ele>127.103</ele>
        <time>1970-01-01T01:00:00Z</time>
        <extensions><gpxtpx:TrackPointExtension><gpxtpx:hr>103</gpxtpx:hr></gpxtpx:TrackPointExtension></extensions>
      </trkpt>
      <trkpt lat="56.44664833" lon="12.728755">
        <ele>127.256</ele>
        <time>1970-01-01T01:00:00Z</time>
        <extensions><gpxtpx:TrackPointExtension><gpxtpx:hr>104</gpxtpx:hr></gpxtpx:TrackPointExtension></extensions>
      </trkpt>
      <trkpt lat="56.44664667" lon="12.72877167">
        <ele>127.408</ele>
        <time>1970-01-01T01:00:00Z</time>
        <extensions><gpxtpx:TrackPointExtension><gpxtpx:hr>104</gpxtpx:hr></gpxtpx:TrackPointExtension></extensions>
      </trkpt>
      <trkpt lat="56.44665167" lon="12.72879167">
        <ele>127.56</ele>
        <time>1970-01-01T01:00:00Z</time>
        <extensions><gpxtpx:TrackPointExtension><gpxtpx:hr>104</gpxtpx:hr></gpxtpx:TrackPointExtension></extensions>
      </trkpt>
      <trkpt lat="56.44664833" lon="12.72880167">
        <ele>127.713</ele>
        <time>1970-01-01T01:00:00Z</time>
        <extensions><gpxtpx:TrackPointExtension><gpxtpx:hr>103</gpxtpx:hr></gpxtpx:TrackPointExtension></extensions>
      </trkpt>
      <trkpt lat="56.446645" lon="12.72881">
        <ele>127.865</ele>
        <time>1970-01-01T01:00:00Z</time>
        <extensions><gpxtpx:TrackPointExtension><gpxtpx:hr>103</gpxtpx:hr></gpxtpx:TrackPointExtension></extensions>
      </trkpt>
      <trkpt lat="56.44664" lon="12.72882167">
        <ele>128.018</ele>
        <time>1970-01-01T01:00:00Z</time>
        <extensions><gpxtpx:TrackPointExtension><gpxtpx:hr>103</gpxtpx:hr></gpxtpx:TrackPointExtension></extensions>
      </trkpt>
      <trkpt lat="56.44663333" lon="12.72883667">
        <ele>128.17</ele>
        <time>1970-01-01T01:00:00Z</time>
        <extensions><gpxtpx:TrackPointExtension><gpxtpx:hr>102</gpxtpx:hr></gpxtpx:TrackPointExtension></extensions>
      </trkpt>
      <trkpt lat="56.44663167" lon="12.72885333">
        <ele>128.322</ele>
        <time>1970-01-01T01:00:00Z</time>
        <extensions><gpxtpx:TrackPointExtension><gpxtpx:hr>102</gpxtpx:hr></gpxtpx:TrackPointExtension></extensions>
      </trkpt>
      <trkpt lat="56.446625" lon="12.72887833">
        <ele>128.475</ele>
        <time>1970-01-01T01:00:00Z</time>
        <extensions><gpxtpx:TrackPointExtension><gpxtpx:hr>102</gpxtpx:hr></gpxtpx:TrackPointExtension></extensions>
      </trkpt>
      <trkpt lat="56.44661833" lon="12.7289">
        <ele>128.627</ele>
        <time>1970-01-01T01:00:00Z</time>
        <extensions><gpxtpx:TrackPointExtension><gpxtpx:hr>102</gpxtpx:hr></gpxtpx:TrackPointExtension></extensions>
      </trkpt>
      <trkpt lat="56.44661167" lon="12.72891833">
        <ele>128.78</ele>
        <time>1970-01-01T01:00:00Z</time>
        <extensions><gpxtpx:TrackPointExtension><gpxtpx:hr>102</gpxtpx:hr></gpxtpx:TrackPointExtension></extensions>
      </trkpt>
      <trkpt lat="56.446605" lon="12.72893333">
        <ele>128.932</ele>
        <time>1970-01-01T01:00:00Z</time>
        <extensions><gpxtpx:TrackPointExtension><gpxtpx:hr>102</gpxtpx:hr></gpxtpx:TrackPointExtension></extensions>
      </trkpt>
      <trkpt lat="56.44659167" lon="12.72895">
        <ele>129.084</ele>
        <time>1970-01-01T01:00:00Z</time>
        <extensions><gpxtpx:TrackPointExtension><gpxtpx:hr>102</gpxtpx:hr></gpxtpx:TrackPointExtension></extensions>
      </trkpt>
      <trkpt lat="56.44658167" lon="12.72897">
        <ele>129.237</ele>
        <time>1970-01-01T01:00:00Z</time>
        <extensions><gpxtpx:TrackPointExtension><gpxtpx:hr>102</gpxtpx:hr></gpxtpx:TrackPointExtension></extensions>
      </trkpt>
      <trkpt lat="56.44657" lon="12.72899167">
        <ele>129.389</ele>
        <time>1970-01-01T01:00:00Z</time>
        <extensions><gpxtpx:TrackPointExtension><gpxtpx:hr>102</gpxtpx:hr></gpxtpx:TrackPointExtension></extensions>
      </trkpt>
      <trkpt lat="56.44657167" lon="12.729015">
        <ele>129.389</ele>
        <time>1970-01-01T01:00:00Z</time>
        <extensions><gpxtpx:TrackPointExtension><gpxtpx:hr>103</gpxtpx:hr></gpxtpx:TrackPointExtension></extensions>
      </trkpt>
      <trkpt lat="56.44657167" lon="12.72903667">
        <ele>129.542</ele>
        <time>1970-01-01T01:00:00Z</time>
        <extensions><gpxtpx:TrackPointExtension><gpxtpx:hr>103</gpxtpx:hr></gpxtpx:TrackPointExtension></extensions>
      </trkpt>
      <trkpt lat="56.44657" lon="12.729065">
        <ele>129.694</ele>
        <time>1970-01-01T01:00:00Z</time>
        <extensions><gpxtpx:TrackPointExtension><gpxtpx:hr>104</gpxtpx:hr></gpxtpx:TrackPointExtension></extensions>
      </trkpt>
      <trkpt lat="56.44657" lon="12.72908667">
        <ele>129.846</ele>
        <time>1970-01-01T01:00:00Z</time>
        <extensions><gpxtpx:TrackPointExtension><gpxtpx:hr>105</gpxtpx:hr></gpxtpx:TrackPointExtension></extensions>
      </trkpt>
      <trkpt lat="56.44657333" lon="12.72911167">
        <ele>130.151</ele>
        <time>1970-01-01T01:00:00Z</time>
        <extensions><gpxtpx:TrackPointExtension><gpxtpx:hr>104</gpxtpx:hr></gpxtpx:TrackPointExtension></extensions>
      </trkpt>
      <trkpt lat="56.44657" lon="12.72914333">
        <ele>130.151</ele>
        <time>1970-01-01T01:00:00Z</time>
        <extensions><gpxtpx:TrackPointExtension><gpxtpx:hr>104</gpxtpx:hr></gpxtpx:TrackPointExtension></extensions>
      </trkpt>
      <trkpt lat="56.44657" lon="12.72918167">
        <ele>130.151</ele>
        <time>1970-01-01T01:00:00Z</time>
        <extensions><gpxtpx:TrackPointExtension><gpxtpx:hr>104</gpxtpx:hr></gpxtpx:TrackPointExtension></extensions>
      </trkpt>
      <trkpt lat="56.44656667" lon="12.72923333">
        <ele>130.151</ele>
        <time>1970-01-01T01:00:00Z</time>
        <extensions><gpxtpx:TrackPointExtension><gpxtpx:hr>104</gpxtpx:hr></gpxtpx:TrackPointExtension></extensions>
      </trkpt>
      <trkpt lat="56.44656" lon="12.72929">
        <ele>130.151</ele>
        <time>1970-01-01T01:00:00Z</time>
        <extensions><gpxtpx:TrackPointExtension><gpxtpx:hr>104</gpxtpx:hr></gpxtpx:TrackPointExtension></extensions>
      </trkpt>
      <trkpt lat="56.44654167" lon="12.72935167">
        <ele>130.151</ele>
        <time>1970-01-01T01:00:00Z</time>
        <extensions><gpxtpx:TrackPointExtension><gpxtpx:hr>104</gpxtpx:hr></gpxtpx:TrackPointExtension></extensions>
      </trkpt>
      <trkpt lat="56.44652333" lon="12.72941333">
        <ele>130.151</ele>
        <time>1970-01-01T01:00:00Z</time>
        <extensions><gpxtpx:TrackPointExtension><gpxtpx:hr>104</gpxtpx:hr></gpxtpx:TrackPointExtension></extensions>
      </trkpt>
      <trkpt lat="56.44652" lon="12.72948">
        <ele>129.999</ele>
        <time>1970-01-01T01:00:00Z</time>
        <extensions><gpxtpx:TrackPointExtension><gpxtpx:hr>104</gpxtpx:hr></gpxtpx:TrackPointExtension></extensions>
      </trkpt>
      <trkpt lat="56.446515" lon="12.72953333">
        <ele>129.999</ele>
        <time>1970-01-01T01:00:00Z</time>
        <extensions><gpxtpx:TrackPointExtension><gpxtpx:hr>103</gpxtpx:hr></gpxtpx:TrackPointExtension></extensions>
      </trkpt>
      <trkpt lat="56.44652" lon="12.72956333">
        <ele>129.999</ele>
        <time>1970-01-01T01:00:00Z</time>
        <extensions><gpxtpx:TrackPointExtension><gpxtpx:hr>103</gpxtpx:hr></gpxtpx:TrackPointExtension></extensions>
      </trkpt>
      <trkpt lat="56.44652167" lon="12.72959667">
        <ele>129.999</ele>
        <time>1970-01-01T01:00:00Z</time>
        <extensions><gpxtpx:TrackPointExtension><gpxtpx:hr>103</gpxtpx:hr></gpxtpx:TrackPointExtension></extensions>
      </trkpt>
      <trkpt lat="56.446525" lon="12.72962333">
        <ele>129.999</ele>
        <time>1970-01-01T01:00:00Z</time>
        <extensions><gpxtpx:TrackPointExtension><gpxtpx:hr>103</gpxtpx:hr></gpxtpx:TrackPointExtension></extensions>
      </trkpt>
      <trkpt lat="56.44652833" lon="12.72965833">
        <ele>129.846</ele>
        <time>1970-01-01T01:00:00Z</time>
        <extensions><gpxtpx:TrackPointExtension><gpxtpx:hr>103</gpxtpx:hr></gpxtpx:TrackPointExtension></extensions>
      </trkpt>
      <trkpt lat="56.44652" lon="12.72967667">
        <ele>129.846</ele>
        <time>1970-01-01T01:00:00Z</time>
        <extensions><gpxtpx:TrackPointExtension><gpxtpx:hr>103</gpxtpx:hr></gpxtpx:TrackPointExtension></extensions>
      </trkpt>
      <trkpt lat="56.44651833" lon="12.72969">
        <ele>129.846</ele>
        <time>1970-01-01T01:00:00Z</time>
        <extensions><gpxtpx:TrackPointExtension><gpxtpx:hr>103</gpxtpx:hr></gpxtpx:TrackPointExtension></extensions>
      </trkpt>
      <trkpt lat="56.44650333" lon="12.729675">
        <ele>129.846</ele>
        <time>1970-01-01T01:00:00Z</time>
        <extensions><gpxtpx:TrackPointExtension><gpxtpx:hr>103</gpxtpx:hr></gpxtpx:TrackPointExtension></extensions>
      </trkpt>
      <trkpt lat="56.44648667" lon="12.72965167">
        <ele>129.694</ele>
        <time>1970-01-01T01:00:00Z</time>
        <extensions><gpxtpx:TrackPointExtension><gpxtpx:hr>102</gpxtpx:hr></gpxtpx:TrackPointExtension></extensions>
      </trkpt>
      <trkpt lat="56.44647667" lon="12.729615">
        <ele>129.694</ele>
        <time>1970-01-01T01:00:00Z</time>
        <extensions><gpxtpx:TrackPointExtension><gpxtpx:hr>102</gpxtpx:hr></gpxtpx:TrackPointExtension></extensions>
      </trkpt>
      <trkpt lat="56.44645833" lon="12.7296">
        <ele>129.542</ele>
        <time>1970-01-01T01:00:00Z</time>
        <extensions><gpxtpx:TrackPointExtension><gpxtpx:hr>101</gpxtpx:hr></gpxtpx:TrackPointExtension></extensions>
      </trkpt>
      <trkpt lat="56.44645833" lon="12.729585">
        <ele>129.542</ele>
        <time>1970-01-01T01:00:00Z</time>
        <extensions><gpxtpx:TrackPointExtension><gpxtpx:hr>101</gpxtpx:hr></gpxtpx:TrackPointExtension></extensions>
      </trkpt>
      <trkpt lat="56.44644667" lon="12.729575">
        <ele>129.389</ele>
        <time>1970-01-01T01:00:00Z</time>
        <extensions><gpxtpx:TrackPointExtension><gpxtpx:hr>101</gpxtpx:hr></gpxtpx:TrackPointExtension></extensions>
      </trkpt>
      <trkpt lat="56.44643833" lon="12.729575">
        <ele>129.389</ele>
        <time>1970-01-01T01:00:00Z</time>
        <extensions><gpxtpx:TrackPointExtension><gpxtpx:hr>101</gpxtpx:hr></gpxtpx:TrackPointExtension></extensions>
      </trkpt>
      <trkpt lat="56.44644" lon="12.72957167">
        <ele>129.237</ele>
        <time>1970-01-01T01:00:00Z</time>
        <extensions><gpxtpx:TrackPointExtension><gpxtpx:hr>101</gpxtpx:hr></gpxtpx:TrackPointExtension></extensions>
      </trkpt>
      <trkpt lat="56.44643667" lon="12.72956167">
        <ele>129.084</ele>
        <time>1970-01-01T01:00:00Z</time>
        <extensions><gpxtpx:TrackPointExtension><gpxtpx:hr>102</gpxtpx:hr></gpxtpx:TrackPointExtension></extensions>
      </trkpt>
      <trkpt lat="56.446435" lon="12.72956167">
        <ele>129.084</ele>
        <time>1970-01-01T01:00:00Z</time>
        <extensions><gpxtpx:TrackPointExtension><gpxtpx:hr>102</gpxtpx:hr></gpxtpx:TrackPointExtension></extensions>
      </trkpt>
      <trkpt lat="56.44643333" lon="12.72955833">
        <ele>128.932</ele>
        <time>1970-01-01T01:00:00Z</time>
        <extensions><gpxtpx:TrackPointExtension><gpxtpx:hr>102</gpxtpx:hr></gpxtpx:TrackPointExtension></extensions>
      </trkpt>
      <trkpt lat="56.44643667" lon="12.72956">
        <ele>128.932</ele>
        <time>1970-01-01T01:00:00Z</time>
        <extensions><gpxtpx:TrackPointExtension><gpxtpx:hr>102</gpxtpx:hr></gpxtpx:TrackPointExtension></extensions>
      </trkpt>
      <trkpt lat="56.44643833" lon="12.72956167">
        <ele>128.78</ele>
        <time>1970-01-01T01:00:00Z</time>
        <extensions><gpxtpx:TrackPointExtension><gpxtpx:hr>103</gpxtpx:hr></gpxtpx:TrackPointExtension></extensions>
      </trkpt>
      <trkpt lat="56.44638" lon="12.729715">
        <ele>128.627</ele>
        <time>1970-01-01T01:00:00Z</time>
        <extensions><gpxtpx:TrackPointExtension><gpxtpx:hr>103</gpxtpx:hr></gpxtpx:TrackPointExtension></extensions>
      </trkpt>
      <trkpt lat="56.44637667" lon="12.72973833">
        <ele>128.627</ele>
        <time>1970-01-01T01:00:00Z</time>
        <extensions><gpxtpx:TrackPointExtension><gpxtpx:hr>103</gpxtpx:hr></gpxtpx:TrackPointExtension></extensions>
      </trkpt>
      <trkpt lat="56.44637333" lon="12.72977">
        <ele>128.475</ele>
        <time>1970-01-01T01:00:00Z</time>
        <extensions><gpxtpx:TrackPointExtension><gpxtpx:hr>103</gpxtpx:hr></gpxtpx:TrackPointExtension></extensions>
      </trkpt>
      <trkpt lat="56.44637667" lon="12.72981">
        <ele>128.475</ele>
        <time>1970-01-01T01:00:00Z</time>
        <extensions><gpxtpx:TrackPointExtension><gpxtpx:hr>104</gpxtpx:hr></gpxtpx:TrackPointExtension></extensions>
      </trkpt>
      <trkpt lat="56.44637667" lon="12.72985">
        <ele>128.322</ele>
        <time>1970-01-01T01:00:00Z</time>
        <extensions><gpxtpx:TrackPointExtension><gpxtpx:hr>104</gpxtpx:hr></gpxtpx:TrackPointExtension></extensions>
      </trkpt>
      <trkpt lat="56.44637167" lon="12.72987667">
        <ele>128.17</ele>
        <time>1970-01-01T01:00:00Z</time>
        <extensions><gpxtpx:TrackPointExtension><gpxtpx:hr>104</gpxtpx:hr></gpxtpx:TrackPointExtension></extensions>
      </trkpt>
      <trkpt lat="56.446365" lon="12.72989667">
        <ele>128.17</ele>
        <time>1970-01-01T01:00:00Z</time>
        <extensions><gpxtpx:TrackPointExtension><gpxtpx:hr>104</gpxtpx:hr></gpxtpx:TrackPointExtension></extensions>
      </trkpt>
      <trkpt lat="56.44635667" lon="12.72992">
        <ele>128.018</ele>
        <time>1970-01-01T01:00:00Z</time>
        <extensions><gpxtpx:TrackPointExtension><gpxtpx:hr>104</gpxtpx:hr></gpxtpx:TrackPointExtension></extensions>
      </trkpt>
      <trkpt lat="56.44635333" lon="12.72993833">
        <ele>128.018</ele>
        <time>1970-01-01T01:00:00Z</time>
        <extensions><gpxtpx:TrackPointExtension><gpxtpx:hr>104</gpxtpx:hr></gpxtpx:TrackPointExtension></extensions>
      </trkpt>
      <trkpt lat="56.446345" lon="12.72995833">
        <ele>127.865</ele>
        <time>1970-01-01T01:00:00Z</time>
        <extensions><gpxtpx:TrackPointExtension><gpxtpx:hr>103</gpxtpx:hr></gpxtpx:TrackPointExtension></extensions>
      </trkpt>
      <trkpt lat="56.44632833" lon="12.72996667">
        <ele>127.713</ele>
        <time>1970-01-01T01:00:00Z</time>
        <extensions><gpxtpx:TrackPointExtension><gpxtpx:hr>103</gpxtpx:hr></gpxtpx:TrackPointExtension></extensions>
      </trkpt>
      <trkpt lat="56.44632167" lon="12.72998333">
        <ele>127.713</ele>
        <time>1970-01-01T01:00:00Z</time>
        <extensions><gpxtpx:TrackPointExtension><gpxtpx:hr>103</gpxtpx:hr></gpxtpx:TrackPointExtension></extensions>
      </trkpt>
      <trkpt lat="56.44631333" lon="12.73000333">
        <ele>127.56</ele>
        <time>1970-01-01T01:00:00Z</time>
        <extensions><gpxtpx:TrackPointExtension><gpxtpx:hr>103</gpxtpx:hr></gpxtpx:TrackPointExtension></extensions>
      </trkpt>
      <trkpt lat="56.44631167" lon="12.73002">
        <ele>127.408</ele>
        <time>1970-01-01T01:00:00Z</time>
        <extensions><gpxtpx:TrackPointExtension><gpxtpx:hr>103</gpxtpx:hr></gpxtpx:TrackPointExtension></extensions>
      </trkpt>
      <trkpt lat="56.44630667" lon="12.73003">
        <ele>127.408</ele>
        <time>1970-01-01T01:00:00Z</time>
        <extensions><gpxtpx:TrackPointExtension><gpxtpx:hr>104</gpxtpx:hr></gpxtpx:TrackPointExtension></extensions>
      </trkpt>
      <trkpt lat="56.44630833" lon="12.730035">
        <ele>127.256</ele>
        <time>1970-01-01T01:00:00Z</time>
        <extensions><gpxtpx:TrackPointExtension><gpxtpx:hr>104</gpxtpx:hr></gpxtpx:TrackPointExtension></extensions>
      </trkpt>
      <trkpt lat="56.44630333" lon="12.73005333">
        <ele>127.256</ele>
        <time>1970-01-01T01:00:00Z</time>
        <extensions><gpxtpx:TrackPointExtension><gpxtpx:hr>104</gpxtpx:hr></gpxtpx:TrackPointExtension></extensions>
      </trkpt>
      <trkpt lat="56.446295" lon="12.73007667">
        <ele>127.256</ele>
        <time>1970-01-01T01:00:00Z</time>
        <extensions><gpxtpx:TrackPointExtension><gpxtpx:hr>104</gpxtpx:hr></gpxtpx:TrackPointExtension></extensions>
      </trkpt>
      <trkpt lat="56.44628333" lon="12.73009667">
        <ele>127.103</ele>
        <time>1970-01-01T01:00:00Z</time>
        <extensions><gpxtpx:TrackPointExtension><gpxtpx:hr>104</gpxtpx:hr></gpxtpx:TrackPointExtension></extensions>
      </trkpt>
      <trkpt lat="56.44627333" lon="12.73011833">
        <ele>127.103</ele>
        <time>1970-01-01T01:00:00Z</time>
        <extensions><gpxtpx:TrackPointExtension><gpxtpx:hr>104</gpxtpx:hr></gpxtpx:TrackPointExtension></extensions>
      </trkpt>
      <trkpt lat="56.44626667" lon="12.730145">
        <ele>127.103</ele>
        <time>1970-01-01T01:00:00Z</time>
        <extensions><gpxtpx:TrackPointExtension><gpxtpx:hr>104</gpxtpx:hr></gpxtpx:TrackPointExtension></extensions>
      </trkpt>
      <trkpt lat="56.44626667" lon="12.73015333">
        <ele>127.103</ele>
        <time>1970-01-01T01:00:00Z</time>
        <extensions><gpxtpx:TrackPointExtension><gpxtpx:hr>104</gpxtpx:hr></gpxtpx:TrackPointExtension></extensions>
      </trkpt>
      <trkpt lat="56.446265" lon="12.73015833">
        <ele>127.103</ele>
        <time>1970-01-01T01:00:00Z</time>
        <extensions><gpxtpx:TrackPointExtension><gpxtpx:hr>103</gpxtpx:hr></gpxtpx:TrackPointExtension></extensions>
      </trkpt>
      <trkpt lat="56.44625833" lon="12.73018167">
        <ele>127.103</ele>
        <time>1970-01-01T01:00:00Z</time>
        <extensions><gpxtpx:TrackPointExtension><gpxtpx:hr>103</gpxtpx:hr></gpxtpx:TrackPointExtension></extensions>
      </trkpt>
      <trkpt lat="56.446255" lon="12.73019">
        <ele>127.103</ele>
        <time>1970-01-01T01:00:00Z</time>
        <extensions><gpxtpx:TrackPointExtension><gpxtpx:hr>103</gpxtpx:hr></gpxtpx:TrackPointExtension></extensions>
      </trkpt>
      <trkpt lat="56.44625333" lon="12.73019833">
        <ele>127.256</ele>
        <time>1970-01-01T01:00:00Z</time>
        <extensions><gpxtpx:TrackPointExtension><gpxtpx:hr>103</gpxtpx:hr></gpxtpx:TrackPointExtension></extensions>
      </trkpt>
      <trkpt lat="56.44625333" lon="12.73020833">
        <ele>127.256</ele>
        <time>1970-01-01T01:00:00Z</time>
        <extensions><gpxtpx:TrackPointExtension><gpxtpx:hr>103</gpxtpx:hr></gpxtpx:TrackPointExtension></extensions>
      </trkpt>
      <trkpt lat="56.44625167" lon="12.73021833">
        <ele>127.256</ele>
        <time>1970-01-01T01:00:00Z</time>
        <extensions><gpxtpx:TrackPointExtension><gpxtpx:hr>103</gpxtpx:hr></gpxtpx:TrackPointExtension></extensions>
      </trkpt>
      <trkpt lat="56.44625167" lon="12.730235">
        <ele>127.256</ele>
        <time>1970-01-01T01:00:00Z</time>
        <extensions><gpxtpx:TrackPointExtension><gpxtpx:hr>103</gpxtpx:hr></gpxtpx:TrackPointExtension></extensions>
      </trkpt>
      <trkpt lat="56.44625" lon="12.73025167">
        <ele>127.256</ele>
        <time>1970-01-01T01:00:00Z</time>
        <extensions><gpxtpx:TrackPointExtension><gpxtpx:hr>103</gpxtpx:hr></gpxtpx:TrackPointExtension></extensions>
      </trkpt>
      <trkpt lat="56.44625" lon="12.73025833">
        <ele>127.256</ele>
        <time>1970-01-01T01:00:00Z</time>
        <extensions><gpxtpx:TrackPointExtension><gpxtpx:hr>103</gpxtpx:hr></gpxtpx:TrackPointExtension></extensions>
      </trkpt>
      <trkpt lat="56.44625" lon="12.73026667">
        <ele>127.256</ele>
        <time>1970-01-01T01:00:00Z</time>
        <extensions><gpxtpx:TrackPointExtension><gpxtpx:hr>104</gpxtpx:hr></gpxtpx:TrackPointExtension></extensions>
      </trkpt>
      <trkpt lat="56.44625" lon="12.730275">
        <ele>127.408</ele>
        <time>1970-01-01T01:00:00Z</time>
        <extensions><gpxtpx:TrackPointExtension><gpxtpx:hr>104</gpxtpx:hr></gpxtpx:TrackPointExtension></extensions>
      </trkpt>
      <trkpt lat="56.44625" lon="12.73028">
        <ele>127.408</ele>
        <time>1970-01-01T01:00:00Z</time>
        <extensions><gpxtpx:TrackPointExtension><gpxtpx:hr>104</gpxtpx:hr></gpxtpx:TrackPointExtension></extensions>
      </trkpt>
      <trkpt lat="56.44625" lon="12.730285">
        <ele>127.408</ele>
        <time>1970-01-01T01:00:00Z</time>
        <extensions><gpxtpx:TrackPointExtension><gpxtpx:hr>104</gpxtpx:hr></gpxtpx:TrackPointExtension></extensions>
      </trkpt>
      <trkpt lat="56.44624667" lon="12.73029833">
        <ele>127.408</ele>
        <time>1970-01-01T01:00:00Z</time>
        <extensions><gpxtpx:TrackPointExtension><gpxtpx:hr>104</gpxtpx:hr></gpxtpx:TrackPointExtension></extensions>
      </trkpt>
      <trkpt lat="56.44625167" lon="12.73031667">
        <ele>127.56</ele>
        <time>1970-01-01T01:00:00Z</time>
        <extensions><gpxtpx:TrackPointExtension><gpxtpx:hr>104</gpxtpx:hr></gpxtpx:TrackPointExtension></extensions>
      </trkpt>
      <trkpt lat="56.446255" lon="12.73032667">
        <ele>127.56</ele>
        <time>1970-01-01T01:00:00Z</time>
        <extensions><gpxtpx:TrackPointExtension><gpxtpx:hr>104</gpxtpx:hr></gpxtpx:TrackPointExtension></extensions>
      </trkpt>
      <trkpt lat="56.44624333" lon="12.730345">
        <ele>127.56</ele>
        <time>1970-01-01T01:00:00Z</time>
        <extensions><gpxtpx:TrackPointExtension><gpxtpx:hr>104</gpxtpx:hr></gpxtpx:TrackPointExtension></extensions>
      </trkpt>
      <trkpt lat="56.44623167" lon="12.73035667">
        <ele>127.713</ele>
        <time>1970-01-01T01:00:00Z</time>
        <extensions><gpxtpx:TrackPointExtension><gpxtpx:hr>104</gpxtpx:hr></gpxtpx:TrackPointExtension></extensions>
      </trkpt>
      <trkpt lat="56.44622333" lon="12.73038">
        <ele>127.713</ele>
        <time>1970-01-01T01:00:00Z</time>
        <extensions><gpxtpx:TrackPointExtension><gpxtpx:hr>104</gpxtpx:hr></gpxtpx:TrackPointExtension></extensions>
      </trkpt>
      <trkpt lat="56.44622333" lon="12.73038833">
        <ele>127.713</ele>
        <time>1970-01-01T01:00:00Z</time>
        <extensions><gpxtpx:TrackPointExtension><gpxtpx:hr>104</gpxtpx:hr></gpxtpx:TrackPointExtension></extensions>
      </trkpt>
      <trkpt lat="56.44622333" lon="12.73039333">
        <ele>127.865</ele>
        <time>1970-01-01T01:00:00Z</time>
        <extensions><gpxtpx:TrackPointExtension><gpxtpx:hr>103</gpxtpx:hr></gpxtpx:TrackPointExtension></extensions>
      </trkpt>
      <trkpt lat="56.446225" lon="12.73039833">
        <ele>127.865</ele>
        <time>1970-01-01T01:00:00Z</time>
        <extensions><gpxtpx:TrackPointExtension><gpxtpx:hr>103</gpxtpx:hr></gpxtpx:TrackPointExtension></extensions>
      </trkpt>
      <trkpt lat="56.44622667" lon="12.73040167">
        <ele>127.865</ele>
        <time>1970-01-01T01:00:00Z</time>
        <extensions><gpxtpx:TrackPointExtension><gpxtpx:hr>103</gpxtpx:hr></gpxtpx:TrackPointExtension></extensions>
      </trkpt>
      <trkpt lat="56.446225" lon="12.73041333">
        <ele>128.018</ele>
        <time>1970-01-01T01:00:00Z</time>
        <extensions><gpxtpx:TrackPointExtension><gpxtpx:hr>103</gpxtpx:hr></gpxtpx:TrackPointExtension></extensions>
      </trkpt>
      <trkpt lat="56.44622667" lon="12.73041833">
        <ele>128.018</ele>
        <time>1970-01-01T01:00:00Z</time>
        <extensions><gpxtpx:TrackPointExtension><gpxtpx:hr>103</gpxtpx:hr></gpxtpx:TrackPointExtension></extensions>
      </trkpt>
      <trkpt lat="56.44622667" lon="12.730425">
        <ele>128.018</ele>
        <time>1970-01-01T01:00:00Z</time>
        <extensions><gpxtpx:TrackPointExtension><gpxtpx:hr>102</gpxtpx:hr></gpxtpx:TrackPointExtension></extensions>
      </trkpt>
      <trkpt lat="56.44622833" lon="12.73043167">
        <ele>128.17</ele>
        <time>1970-01-01T01:00:00Z</time>
        <extensions><gpxtpx:TrackPointExtension><gpxtpx:hr>102</gpxtpx:hr></gpxtpx:TrackPointExtension></extensions>
      </trkpt>
      <trkpt lat="56.44621833" lon="12.73046">
        <ele>128.17</ele>
        <time>1970-01-01T01:00:00Z</time>
        <extensions><gpxtpx:TrackPointExtension><gpxtpx:hr>102</gpxtpx:hr></gpxtpx:TrackPointExtension></extensions>
      </trkpt>
      <trkpt lat="56.446205" lon="12.73048833">
        <ele>128.322</ele>
        <time>1970-01-01T01:00:00Z</time>
        <extensions><gpxtpx:TrackPointExtension><gpxtpx:hr>103</gpxtpx:hr></gpxtpx:TrackPointExtension></extensions>
      </trkpt>
      <trkpt lat="56.44618833" lon="12.73051167">
        <ele>128.322</ele>
        <time>1970-01-01T01:00:00Z</time>
        <extensions><gpxtpx:TrackPointExtension><gpxtpx:hr>103</gpxtpx:hr></gpxtpx:TrackPointExtension></extensions>
      </trkpt>
      <trkpt lat="56.44618" lon="12.73053">
        <ele>128.475</ele>
        <time>1970-01-01T01:00:00Z</time>
        <extensions><gpxtpx:TrackPointExtension><gpxtpx:hr>104</gpxtpx:hr></gpxtpx:TrackPointExtension></extensions>
      </trkpt>
      <trkpt lat="56.44617833" lon="12.73054">
        <ele>128.475</ele>
        <time>1970-01-01T01:00:00Z</time>
        <extensions><gpxtpx:TrackPointExtension><gpxtpx:hr>103</gpxtpx:hr></gpxtpx:TrackPointExtension></extensions>
      </trkpt>
      <trkpt lat="56.44617833" lon="12.73054833">
        <ele>128.627</ele>
        <time>1970-01-01T01:00:00Z</time>
        <extensions><gpxtpx:TrackPointExtension><gpxtpx:hr>103</gpxtpx:hr></gpxtpx:TrackPointExtension></extensions>
      </trkpt>
      <trkpt lat="56.44617833" lon="12.73055">
        <ele>128.78</ele>
        <time>1970-01-01T01:00:00Z</time>
        <extensions><gpxtpx:TrackPointExtension><gpxtpx:hr>103</gpxtpx:hr></gpxtpx:TrackPointExtension></extensions>
      </trkpt>
      <trkpt lat="56.44614833" lon="12.73060167">
        <ele>128.78</ele>
        <time>1970-01-01T01:00:00Z</time>
        <extensions><gpxtpx:TrackPointExtension><gpxtpx:hr>103</gpxtpx:hr></gpxtpx:TrackPointExtension></extensions>
      </trkpt>
      <trkpt lat="56.446145" lon="12.73060833">
        <ele>128.932</ele>
        <time>1970-01-01T01:00:00Z</time>
        <extensions><gpxtpx:TrackPointExtension><gpxtpx:hr>103</gpxtpx:hr></gpxtpx:TrackPointExtension></extensions>
      </trkpt>
      <trkpt lat="56.44613833" lon="12.730615">
        <ele>128.932</ele>
        <time>1970-01-01T01:00:00Z</time>
        <extensions><gpxtpx:TrackPointExtension><gpxtpx:hr>104</gpxtpx:hr></gpxtpx:TrackPointExtension></extensions>
      </trkpt>
      <trkpt lat="56.44613833" lon="12.73062167">
        <ele>129.084</ele>
        <time>1970-01-01T01:00:00Z</time>
        <extensions><gpxtpx:TrackPointExtension><gpxtpx:hr>104</gpxtpx:hr></gpxtpx:TrackPointExtension></extensions>
      </trkpt>
      <trkpt lat="56.44613833" lon="12.73062833">
        <ele>129.084</ele>
        <time>1970-01-01T01:00:00Z</time>
        <extensions><gpxtpx:TrackPointExtension><gpxtpx:hr>105</gpxtpx:hr></gpxtpx:TrackPointExtension></extensions>
      </trkpt>
      <trkpt lat="56.44613833" lon="12.730635">
        <ele>129.237</ele>
        <time>1970-01-01T01:00:00Z</time>
        <extensions><gpxtpx:TrackPointExtension><gpxtpx:hr>106</gpxtpx:hr></gpxtpx:TrackPointExtension></extensions>
      </trkpt>
      <trkpt lat="56.44609" lon="12.7308">
        <ele>129.389</ele>
        <time>1970-01-01T01:00:00Z</time>
        <extensions><gpxtpx:TrackPointExtension><gpxtpx:hr>108</gpxtpx:hr></gpxtpx:TrackPointExtension></extensions>
      </trkpt>
      <trkpt lat="56.44608833" lon="12.73081833">
        <ele>129.389</ele>
        <time>1970-01-01T01:00:00Z</time>
        <extensions><gpxtpx:TrackPointExtension><gpxtpx:hr>108</gpxtpx:hr></gpxtpx:TrackPointExtension></extensions>
      </trkpt>
      <trkpt lat="56.44609" lon="12.73083667">
        <ele>129.389</ele>
        <time>1970-01-01T01:00:00Z</time>
        <extensions><gpxtpx:TrackPointExtension><gpxtpx:hr>109</gpxtpx:hr></gpxtpx:TrackPointExtension></extensions>
      </trkpt>
      <trkpt lat="56.44609333" lon="12.73084833">
        <ele>129.542</ele>
        <time>1970-01-01T01:00:00Z</time>
        <extensions><gpxtpx:TrackPointExtension><gpxtpx:hr>109</gpxtpx:hr></gpxtpx:TrackPointExtension></extensions>
      </trkpt>
      <trkpt lat="56.446095" lon="12.73086167">
        <ele>129.542</ele>
        <time>1970-01-01T01:00:00Z</time>
        <extensions><gpxtpx:TrackPointExtension><gpxtpx:hr>109</gpxtpx:hr></gpxtpx:TrackPointExtension></extensions>
      </trkpt>
      <trkpt lat="56.446095" lon="12.730875">
        <ele>129.542</ele>
        <time>1970-01-01T01:00:00Z</time>
        <extensions><gpxtpx:TrackPointExtension><gpxtpx:hr>110</gpxtpx:hr></gpxtpx:TrackPointExtension></extensions>
      </trkpt>
      <trkpt lat="56.446095" lon="12.73088833">
        <ele>129.542</ele>
        <time>1970-01-01T01:00:00Z</time>
        <extensions><gpxtpx:TrackPointExtension><gpxtpx:hr>110</gpxtpx:hr></gpxtpx:TrackPointExtension></extensions>
      </trkpt>
      <trkpt lat="56.44609667" lon="12.73090333">
        <ele>129.542</ele>
        <time>1970-01-01T01:00:00Z</time>
        <extensions><gpxtpx:TrackPointExtension><gpxtpx:hr>110</gpxtpx:hr></gpxtpx:TrackPointExtension></extensions>
      </trkpt>
      <trkpt lat="56.44609667" lon="12.73092">
        <ele>129.694</ele>
        <time>1970-01-01T01:00:00Z</time>
        <extensions><gpxtpx:TrackPointExtension><gpxtpx:hr>110</gpxtpx:hr></gpxtpx:TrackPointExtension></extensions>
      </trkpt>
      <trkpt lat="56.44609167" lon="12.73093667">
        <ele>129.694</ele>
        <time>1970-01-01T01:00:00Z</time>
        <extensions><gpxtpx:TrackPointExtension><gpxtpx:hr>110</gpxtpx:hr></gpxtpx:TrackPointExtension></extensions>
      </trkpt>
      <trkpt lat="56.446095" lon="12.73094833">
        <ele>129.694</ele>
        <time>1970-01-01T01:00:00Z</time>
        <extensions><gpxtpx:TrackPointExtension><gpxtpx:hr>109</gpxtpx:hr></gpxtpx:TrackPointExtension></extensions>
      </trkpt>
      <trkpt lat="56.44609833" lon="12.73096667">
        <ele>129.694</ele>
        <time>1970-01-01T01:00:00Z</time>
        <extensions><gpxtpx:TrackPointExtension><gpxtpx:hr>109</gpxtpx:hr></gpxtpx:TrackPointExtension></extensions>
      </trkpt>
      <trkpt lat="56.44609833" lon="12.73098667">
        <ele>129.694</ele>
        <time>1970-01-01T01:00:00Z</time>
        <extensions><gpxtpx:TrackPointExtension><gpxtpx:hr>109</gpxtpx:hr></gpxtpx:TrackPointExtension></extensions>
      </trkpt>
      <trkpt lat="56.44610167" lon="12.73100833">
        <ele>129.694</ele>
        <time>1970-01-01T01:00:00Z</time>
        <extensions><gpxtpx:TrackPointExtension><gpxtpx:hr>109</gpxtpx:hr></gpxtpx:TrackPointExtension></extensions>
      </trkpt>
      <trkpt lat="56.446105" lon="12.73102333">
        <ele>129.542</ele>
        <time>1970-01-01T01:00:00Z</time>
        <extensions><gpxtpx:TrackPointExtension><gpxtpx:hr>110</gpxtpx:hr></gpxtpx:TrackPointExtension></extensions>
      </trkpt>
      <trkpt lat="56.44610833" lon="12.731045">
        <ele>129.542</ele>
        <time>1970-01-01T01:00:00Z</time>
        <extensions><gpxtpx:TrackPointExtension><gpxtpx:hr>111</gpxtpx:hr></gpxtpx:TrackPointExtension></extensions>
      </trkpt>
      <trkpt lat="56.44610667" lon="12.73106833">
        <ele>129.542</ele>
        <time>1970-01-01T01:00:00Z</time>
        <extensions><gpxtpx:TrackPointExtension><gpxtpx:hr>113</gpxtpx:hr></gpxtpx:TrackPointExtension></extensions>
      </trkpt>
      <trkpt lat="56.446105" lon="12.73109167">
        <ele>129.389</ele>
        <time>1970-01-01T01:00:00Z</time>
        <extensions><gpxtpx:TrackPointExtension><gpxtpx:hr>114</gpxtpx:hr></gpxtpx:TrackPointExtension></extensions>
      </trkpt>
      <trkpt lat="56.44610167" lon="12.73112167">
        <ele>129.389</ele>
        <time>1970-01-01T01:00:00Z</time>
        <extensions><gpxtpx:TrackPointExtension><gpxtpx:hr>115</gpxtpx:hr></gpxtpx:TrackPointExtension></extensions>
      </trkpt>
      <trkpt lat="56.44609833" lon="12.73115167">
        <ele>129.389</ele>
        <time>1970-01-01T01:00:00Z</time>
        <extensions><gpxtpx:TrackPointExtension><gpxtpx:hr>115</gpxtpx:hr></gpxtpx:TrackPointExtension></extensions>
      </trkpt>
      <trkpt lat="56.44609" lon="12.73119">
        <ele>129.237</ele>
        <time>1970-01-01T01:00:00Z</time>
        <extensions><gpxtpx:TrackPointExtension><gpxtpx:hr>115</gpxtpx:hr></gpxtpx:TrackPointExtension></extensions>
      </trkpt>
      <trkpt lat="56.44608667" lon="12.73122">
        <ele>129.237</ele>
        <time>1970-01-01T01:00:00Z</time>
        <extensions><gpxtpx:TrackPointExtension><gpxtpx:hr>116</gpxtpx:hr></gpxtpx:TrackPointExtension></extensions>
      </trkpt>
      <trkpt lat="56.446085" lon="12.73124667">
        <ele>129.237</ele>
        <time>1970-01-01T01:00:00Z</time>
        <extensions><gpxtpx:TrackPointExtension><gpxtpx:hr>116</gpxtpx:hr></gpxtpx:TrackPointExtension></extensions>
      </trkpt>
      <trkpt lat="56.44608333" lon="12.73128167">
        <ele>129.237</ele>
        <time>1970-01-01T01:00:00Z</time>
        <extensions><gpxtpx:TrackPointExtension><gpxtpx:hr>116</gpxtpx:hr></gpxtpx:TrackPointExtension></extensions>
      </trkpt>
      <trkpt lat="56.44608" lon="12.73131167">
        <ele>129.237</ele>
        <time>1970-01-01T01:00:00Z</time>
        <extensions><gpxtpx:TrackPointExtension><gpxtpx:hr>116</gpxtpx:hr></gpxtpx:TrackPointExtension></extensions>
      </trkpt>
      <trkpt lat="56.44607667" lon="12.73134333">
        <ele>129.237</ele>
        <time>1970-01-01T01:00:00Z</time>
        <extensions><gpxtpx:TrackPointExtension><gpxtpx:hr>116</gpxtpx:hr></gpxtpx:TrackPointExtension></extensions>
      </trkpt>
      <trkpt lat="56.44607333" lon="12.73137333">
        <ele>129.237</ele>
        <time>1970-01-01T01:00:00Z</time>
        <extensions><gpxtpx:TrackPointExtension><gpxtpx:hr>116</gpxtpx:hr></gpxtpx:TrackPointExtension></extensions>
      </trkpt>
      <trkpt lat="56.44606667" lon="12.731405">
        <ele>129.237</ele>
        <time>1970-01-01T01:00:00Z</time>
        <extensions><gpxtpx:TrackPointExtension><gpxtpx:hr>115</gpxtpx:hr></gpxtpx:TrackPointExtension></extensions>
      </trkpt>
      <trkpt lat="56.44605667" lon="12.73143833">
        <ele>129.389</ele>
        <time>1970-01-01T01:00:00Z</time>
        <extensions><gpxtpx:TrackPointExtension><gpxtpx:hr>115</gpxtpx:hr></gpxtpx:TrackPointExtension></extensions>
      </trkpt>
      <trkpt lat="56.44604667" lon="12.73147333">
        <ele>129.389</ele>
        <time>1970-01-01T01:00:00Z</time>
        <extensions><gpxtpx:TrackPointExtension><gpxtpx:hr>115</gpxtpx:hr></gpxtpx:TrackPointExtension></extensions>
      </trkpt>
      <trkpt lat="56.44604" lon="12.73149833">
        <ele>129.542</ele>
        <time>1970-01-01T01:00:00Z</time>
        <extensions><gpxtpx:TrackPointExtension><gpxtpx:hr>114</gpxtpx:hr></gpxtpx:TrackPointExtension></extensions>
      </trkpt>
      <trkpt lat="56.44603667" lon="12.73151667">
        <ele>129.542</ele>
        <time>1970-01-01T01:00:00Z</time>
        <extensions><gpxtpx:TrackPointExtension><gpxtpx:hr>114</gpxtpx:hr></gpxtpx:TrackPointExtension></extensions>
      </trkpt>
      <trkpt lat="56.446035" lon="12.73154167">
        <ele>129.694</ele>
        <time>1970-01-01T01:00:00Z</time>
        <extensions><gpxtpx:TrackPointExtension><gpxtpx:hr>113</gpxtpx:hr></gpxtpx:TrackPointExtension></extensions>
      </trkpt>
      <trkpt lat="56.44603167" lon="12.73157167">
        <ele>129.846</ele>
        <time>1970-01-01T01:00:00Z</time>
        <extensions><gpxtpx:TrackPointExtension><gpxtpx:hr>113</gpxtpx:hr></gpxtpx:TrackPointExtension></extensions>
      </trkpt>
      <trkpt lat="56.44603167" lon="12.73160333">
        <ele>129.999</ele>
        <time>1970-01-01T01:00:00Z</time>
        <extensions><gpxtpx:TrackPointExtension><gpxtpx:hr>113</gpxtpx:hr></gpxtpx:TrackPointExtension></extensions>
      </trkpt>
      <trkpt lat="56.446025" lon="12.73163">
        <ele>130.151</ele>
        <time>1970-01-01T01:00:00Z</time>
        <extensions><gpxtpx:TrackPointExtension><gpxtpx:hr>112</gpxtpx:hr></gpxtpx:TrackPointExtension></extensions>
      </trkpt>
      <trkpt lat="56.44601833" lon="12.731655">
        <ele>130.304</ele>
        <time>1970-01-01T01:00:00Z</time>
        <extensions><gpxtpx:TrackPointExtension><gpxtpx:hr>111</gpxtpx:hr></gpxtpx:TrackPointExtension></extensions>
      </trkpt>
      <trkpt lat="56.446015" lon="12.73168167">
        <ele>130.456</ele>
        <time>1970-01-01T01:00:00Z</time>
        <extensions><gpxtpx:TrackPointExtension><gpxtpx:hr>109</gpxtpx:hr></gpxtpx:TrackPointExtension></extensions>
      </trkpt>
      <trkpt lat="56.44601167" lon="12.73170833">
        <ele>130.761</ele>
        <time>1970-01-01T01:00:00Z</time>
        <extensions><gpxtpx:TrackPointExtension><gpxtpx:hr>108</gpxtpx:hr></gpxtpx:TrackPointExtension></extensions>
      </trkpt>
      <trkpt lat="56.44600833" lon="12.73173667">
        <ele>130.913</ele>
        <time>1970-01-01T01:00:00Z</time>
        <extensions><gpxtpx:TrackPointExtension><gpxtpx:hr>107</gpxtpx:hr></gpxtpx:TrackPointExtension></extensions>
      </trkpt>
      <trkpt lat="56.446005" lon="12.73176667">
        <ele>131.066</ele>
        <time>1970-01-01T01:00:00Z</time>
        <extensions><gpxtpx:TrackPointExtension><gpxtpx:hr>107</gpxtpx:hr></gpxtpx:TrackPointExtension></extensions>
      </trkpt>
      <trkpt lat="56.44600333" lon="12.731805">
        <ele>131.37</ele>
        <time>1970-01-01T01:00:00Z</time>
        <extensions><gpxtpx:TrackPointExtension><gpxtpx:hr>108</gpxtpx:hr></gpxtpx:TrackPointExtension></extensions>
      </trkpt>
      <trkpt lat="56.44599833" lon="12.73184167">
        <ele>131.523</ele>
        <time>1970-01-01T01:00:00Z</time>
        <extensions><gpxtpx:TrackPointExtension><gpxtpx:hr>108</gpxtpx:hr></gpxtpx:TrackPointExtension></extensions>
      </trkpt>
      <trkpt lat="56.445995" lon="12.73187333">
        <ele>131.675</ele>
        <time>1970-01-01T01:00:00Z</time>
        <extensions><gpxtpx:TrackPointExtension><gpxtpx:hr>110</gpxtpx:hr></gpxtpx:TrackPointExtension></extensions>
      </trkpt>
      <trkpt lat="56.44598833" lon="12.73189833">
        <ele>131.98</ele>
        <time>1970-01-01T01:00:00Z</time>
        <extensions><gpxtpx:TrackPointExtension><gpxtpx:hr>108</gpxtpx:hr></gpxtpx:TrackPointExtension></extensions>
      </trkpt>
      <trkpt lat="56.44598" lon="12.73192167">
        <ele>132.132</ele>
        <time>1970-01-01T01:00:00Z</time>
        <extensions><gpxtpx:TrackPointExtension><gpxtpx:hr>107</gpxtpx:hr></gpxtpx:TrackPointExtension></extensions>
      </trkpt>
      <trkpt lat="56.44597333" lon="12.73194333">
        <ele>132.285</ele>
        <time>1970-01-01T01:00:00Z</time>
        <extensions><gpxtpx:TrackPointExtension><gpxtpx:hr>106</gpxtpx:hr></gpxtpx:TrackPointExtension></extensions>
      </trkpt>
      <trkpt lat="56.44596667" lon="12.73197333">
        <ele>132.437</ele>
        <time>1970-01-01T01:00:00Z</time>
        <extensions><gpxtpx:TrackPointExtension><gpxtpx:hr>106</gpxtpx:hr></gpxtpx:TrackPointExtension></extensions>
      </trkpt>
      <trkpt lat="56.44596333" lon="12.73201">
        <ele>138.686</ele>
        <time>1970-01-01T01:00:00Z</time>
        <extensions><gpxtpx:TrackPointExtension><gpxtpx:hr>109</gpxtpx:hr></gpxtpx:TrackPointExtension></extensions>
      </trkpt>
      <trkpt lat="56.44596" lon="12.732045">
        <ele>138.838</ele>
        <time>1970-01-01T01:00:00Z</time>
        <extensions><gpxtpx:TrackPointExtension><gpxtpx:hr>109</gpxtpx:hr></gpxtpx:TrackPointExtension></extensions>
      </trkpt>
      <trkpt lat="56.44595167" lon="12.73207167">
        <ele>138.838</ele>
        <time>1970-01-01T01:00:00Z</time>
        <extensions><gpxtpx:TrackPointExtension><gpxtpx:hr>110</gpxtpx:hr></gpxtpx:TrackPointExtension></extensions>
      </trkpt>
      <trkpt lat="56.44594667" lon="12.73209667">
        <ele>138.99</ele>
        <time>1970-01-01T01:00:00Z</time>
        <extensions><gpxtpx:TrackPointExtension><gpxtpx:hr>110</gpxtpx:hr></gpxtpx:TrackPointExtension></extensions>
      </trkpt>
      <trkpt lat="56.44594" lon="12.73212">
        <ele>139.143</ele>
        <time>1970-01-01T01:00:00Z</time>
        <extensions><gpxtpx:TrackPointExtension><gpxtpx:hr>110</gpxtpx:hr></gpxtpx:TrackPointExtension></extensions>
      </trkpt>
      <trkpt lat="56.445935" lon="12.73214667">
        <ele>139.295</ele>
        <time>1970-01-01T01:00:00Z</time>
        <extensions><gpxtpx:TrackPointExtension><gpxtpx:hr>110</gpxtpx:hr></gpxtpx:TrackPointExtension></extensions>
      </trkpt>
      <trkpt lat="56.44592833" lon="12.73217167">
        <ele>139.295</ele>
        <time>1970-01-01T01:00:00Z</time>
        <extensions><gpxtpx:TrackPointExtension><gpxtpx:hr>110</gpxtpx:hr></gpxtpx:TrackPointExtension></extensions>
      </trkpt>
      <trkpt lat="56.44592333" lon="12.73219833">
        <ele>139.448</ele>
        <time>1970-01-01T01:00:00Z</time>
        <extensions><gpxtpx:TrackPointExtension><gpxtpx:hr>110</gpxtpx:hr></gpxtpx:TrackPointExtension></extensions>
      </trkpt>
      <trkpt lat="56.44591667" lon="12.73222667">
        <ele>139.6</ele>
        <time>1970-01-01T01:00:00Z</time>
        <extensions><gpxtpx:TrackPointExtension><gpxtpx:hr>110</gpxtpx:hr></gpxtpx:TrackPointExtension></extensions>
      </trkpt>
      <trkpt lat="56.44591" lon="12.73225667">
        <ele>139.6</ele>
        <time>1970-01-01T01:00:00Z</time>
        <extensions><gpxtpx:TrackPointExtension><gpxtpx:hr>111</gpxtpx:hr></gpxtpx:TrackPointExtension></extensions>
      </trkpt>
      <trkpt lat="56.44590667" lon="12.73228667">
        <ele>139.753</ele>
        <time>1970-01-01T01:00:00Z</time>
        <extensions><gpxtpx:TrackPointExtension><gpxtpx:hr>111</gpxtpx:hr></gpxtpx:TrackPointExtension></extensions>
      </trkpt>
      <trkpt lat="56.44590333" lon="12.732315">
        <ele>139.753</ele>
        <time>1970-01-01T01:00:00Z</time>
        <extensions><gpxtpx:TrackPointExtension><gpxtpx:hr>110</gpxtpx:hr></gpxtpx:TrackPointExtension></extensions>
      </trkpt>
      <trkpt lat="56.44590333" lon="12.73234167">
        <ele>139.905</ele>
        <time>1970-01-01T01:00:00Z</time>
        <extensions><gpxtpx:TrackPointExtension><gpxtpx:hr>109</gpxtpx:hr></gpxtpx:TrackPointExtension></extensions>
      </trkpt>
      <trkpt lat="56.445895" lon="12.73236667">
        <ele>139.905</ele>
        <time>1970-01-01T01:00:00Z</time>
        <extensions><gpxtpx:TrackPointExtension><gpxtpx:hr>108</gpxtpx:hr></gpxtpx:TrackPointExtension></extensions>
      </trkpt>
      <trkpt lat="56.44588667" lon="12.73239">
        <ele>140.057</ele>
        <time>1970-01-01T01:00:00Z</time>
        <extensions><gpxtpx:TrackPointExtension><gpxtpx:hr>109</gpxtpx:hr></gpxtpx:TrackPointExtension></extensions>
      </trkpt>
      <trkpt lat="56.44587833" lon="12.732415">
        <ele>140.057</ele>
        <time>1970-01-01T01:00:00Z</time>
        <extensions><gpxtpx:TrackPointExtension><gpxtpx:hr>109</gpxtpx:hr></gpxtpx:TrackPointExtension></extensions>
      </trkpt>
      <trkpt lat="56.44587167" lon="12.73244333">
        <ele>140.057</ele>
        <time>1970-01-01T01:00:00Z</time>
        <extensions><gpxtpx:TrackPointExtension><gpxtpx:hr>109</gpxtpx:hr></gpxtpx:TrackPointExtension></extensions>
      </trkpt>
      <trkpt lat="56.44586333" lon="12.73246833">
        <ele>140.057</ele>
        <time>1970-01-01T01:00:00Z</time>
        <extensions><gpxtpx:TrackPointExtension><gpxtpx:hr>109</gpxtpx:hr></gpxtpx:TrackPointExtension></extensions>
      </trkpt>
      <trkpt lat="56.44586167" lon="12.73249">
        <ele>140.057</ele>
        <time>1970-01-01T01:00:00Z</time>
        <extensions><gpxtpx:TrackPointExtension><gpxtpx:hr>110</gpxtpx:hr></gpxtpx:TrackPointExtension></extensions>
      </trkpt>
      <trkpt lat="56.44585667" lon="12.73251">
        <ele>140.057</ele>
        <time>1970-01-01T01:00:00Z</time>
        <extensions><gpxtpx:TrackPointExtension><gpxtpx:hr>110</gpxtpx:hr></gpxtpx:TrackPointExtension></extensions>
      </trkpt>
      <trkpt lat="56.44585333" lon="12.73253">
        <ele>140.057</ele>
        <time>1970-01-01T01:00:00Z</time>
        <extensions><gpxtpx:TrackPointExtension><gpxtpx:hr>110</gpxtpx:hr></gpxtpx:TrackPointExtension></extensions>
      </trkpt>
      <trkpt lat="56.44585" lon="12.73255167">
        <ele>140.057</ele>
        <time>1970-01-01T01:00:00Z</time>
        <extensions><gpxtpx:TrackPointExtension><gpxtpx:hr>110</gpxtpx:hr></gpxtpx:TrackPointExtension></extensions>
      </trkpt>
      <trkpt lat="56.44584333" lon="12.73257">
        <ele>140.057</ele>
        <time>1970-01-01T01:00:00Z</time>
        <extensions><gpxtpx:TrackPointExtension><gpxtpx:hr>110</gpxtpx:hr></gpxtpx:TrackPointExtension></extensions>
      </trkpt>
      <trkpt lat="56.44583833" lon="12.73259">
        <ele>139.905</ele>
        <time>1970-01-01T01:00:00Z</time>
        <extensions><gpxtpx:TrackPointExtension><gpxtpx:hr>110</gpxtpx:hr></gpxtpx:TrackPointExtension></extensions>
      </trkpt>
      <trkpt lat="56.44583167" lon="12.73260667">
        <ele>139.753</ele>
        <time>1970-01-01T01:00:00Z</time>
        <extensions><gpxtpx:TrackPointExtension><gpxtpx:hr>110</gpxtpx:hr></gpxtpx:TrackPointExtension></extensions>
      </trkpt>
      <trkpt lat="56.44582333" lon="12.732635">
        <ele>139.753</ele>
        <time>1970-01-01T01:00:00Z</time>
        <extensions><gpxtpx:TrackPointExtension><gpxtpx:hr>109</gpxtpx:hr></gpxtpx:TrackPointExtension></extensions>
      </trkpt>
      <trkpt lat="56.445815" lon="12.73266">
        <ele>139.6</ele>
        <time>1970-01-01T01:00:00Z</time>
        <extensions><gpxtpx:TrackPointExtension><gpxtpx:hr>108</gpxtpx:hr></gpxtpx:TrackPointExtension></extensions>
      </trkpt>
      <trkpt lat="56.44581167" lon="12.73268833">
        <ele>139.448</ele>
        <time>1970-01-01T01:00:00Z</time>
        <extensions><gpxtpx:TrackPointExtension><gpxtpx:hr>107</gpxtpx:hr></gpxtpx:TrackPointExtension></extensions>
      </trkpt>
      <trkpt lat="56.445805" lon="12.73271833">
        <ele>139.295</ele>
        <time>1970-01-01T01:00:00Z</time>
        <extensions><gpxtpx:TrackPointExtension><gpxtpx:hr>107</gpxtpx:hr></gpxtpx:TrackPointExtension></extensions>
      </trkpt>
      <trkpt lat="56.44579667" lon="12.73275">
        <ele>139.143</ele>
        <time>1970-01-01T01:00:00Z</time>
        <extensions><gpxtpx:TrackPointExtension><gpxtpx:hr>106</gpxtpx:hr></gpxtpx:TrackPointExtension></extensions>
      </trkpt>
      <trkpt lat="56.44579333" lon="12.73277833">
        <ele>138.99</ele>
        <time>1970-01-01T01:00:00Z</time>
        <extensions><gpxtpx:TrackPointExtension><gpxtpx:hr>105</gpxtpx:hr></gpxtpx:TrackPointExtension></extensions>
      </trkpt>
      <trkpt lat="56.44579167" lon="12.73280167">
        <ele>138.686</ele>
        <time>1970-01-01T01:00:00Z</time>
        <extensions><gpxtpx:TrackPointExtension><gpxtpx:hr>106</gpxtpx:hr></gpxtpx:TrackPointExtension></extensions>
      </trkpt>
      <trkpt lat="56.44578833" lon="12.73283">
        <ele>138.533</ele>
        <time>1970-01-01T01:00:00Z</time>
        <extensions><gpxtpx:TrackPointExtension><gpxtpx:hr>106</gpxtpx:hr></gpxtpx:TrackPointExtension></extensions>
      </trkpt>
      <trkpt lat="56.445785" lon="12.732855">
        <ele>138.381</ele>
        <time>1970-01-01T01:00:00Z</time>
        <extensions><gpxtpx:TrackPointExtension><gpxtpx:hr>106</gpxtpx:hr></gpxtpx:TrackPointExtension></extensions>
      </trkpt>
      <trkpt lat="56.44578167" lon="12.732885">
        <ele>138.228</ele>
        <time>1970-01-01T01:00:00Z</time>
        <extensions><gpxtpx:TrackPointExtension><gpxtpx:hr>106</gpxtpx:hr></gpxtpx:TrackPointExtension></extensions>
      </trkpt>
      <trkpt lat="56.44578167" lon="12.73291333">
        <ele>137.924</ele>
        <time>1970-01-01T01:00:00Z</time>
        <extensions><gpxtpx:TrackPointExtension><gpxtpx:hr>106</gpxtpx:hr></gpxtpx:TrackPointExtension></extensions>
      </trkpt>
      <trkpt lat="56.44577833" lon="12.73294">
        <ele>137.771</ele>
        <time>1970-01-01T01:00:00Z</time>
        <extensions><gpxtpx:TrackPointExtension><gpxtpx:hr>105</gpxtpx:hr></gpxtpx:TrackPointExtension></extensions>
      </trkpt>
      <trkpt lat="56.445775" lon="12.73296667">
        <ele>137.466</ele>
        <time>1970-01-01T01:00:00Z</time>
        <extensions><gpxtpx:TrackPointExtension><gpxtpx:hr>105</gpxtpx:hr></gpxtpx:TrackPointExtension></extensions>
      </trkpt>
      <trkpt lat="56.445775" lon="12.73299167">
        <ele>137.314</ele>
        <time>1970-01-01T01:00:00Z</time>
        <extensions><gpxtpx:TrackPointExtension><gpxtpx:hr>104</gpxtpx:hr></gpxtpx:TrackPointExtension></extensions>
      </trkpt>
      <trkpt lat="56.445775" lon="12.733015">
        <ele>137.009</ele>
        <time>1970-01-01T01:00:00Z</time>
        <extensions><gpxtpx:TrackPointExtension><gpxtpx:hr>103</gpxtpx:hr></gpxtpx:TrackPointExtension></extensions>
      </trkpt>
      <trkpt lat="56.44577167" lon="12.73303667">
        <ele>136.857</ele>
        <time>1970-01-01T01:00:00Z</time>
        <extensions><gpxtpx:TrackPointExtension><gpxtpx:hr>102</gpxtpx:hr></gpxtpx:TrackPointExtension></extensions>
      </trkpt>
      <trkpt lat="56.44577167" lon="12.73305833">
        <ele>136.552</ele>
        <time>1970-01-01T01:00:00Z</time>
        <extensions><gpxtpx:TrackPointExtension><gpxtpx:hr>101</gpxtpx:hr></gpxtpx:TrackPointExtension></extensions>
      </trkpt>
      <trkpt lat="56.44577" lon="12.73308167">
        <ele>136.247</ele>
        <time>1970-01-01T01:00:00Z</time>
        <extensions><gpxtpx:TrackPointExtension><gpxtpx:hr>100</gpxtpx:hr></gpxtpx:TrackPointExtension></extensions>
      </trkpt>
      <trkpt lat="56.445765" lon="12.733105">
        <ele>135.942</ele>
        <time>1970-01-01T01:00:00Z</time>
        <extensions><gpxtpx:TrackPointExtension><gpxtpx:hr>98</gpxtpx:hr></gpxtpx:TrackPointExtension></extensions>
      </trkpt>
      <trkpt lat="56.44576333" lon="12.73313167">
        <ele>135.79</ele>
        <time>1970-01-01T01:00:00Z</time>
        <extensions><gpxtpx:TrackPointExtension><gpxtpx:hr>97</gpxtpx:hr></gpxtpx:TrackPointExtension></extensions>
      </trkpt>
      <trkpt lat="56.44576167" lon="12.73316">
        <ele>135.485</ele>
        <time>1970-01-01T01:00:00Z</time>
        <extensions><gpxtpx:TrackPointExtension><gpxtpx:hr>95</gpxtpx:hr></gpxtpx:TrackPointExtension></extensions>
      </trkpt>
      <trkpt lat="56.44576" lon="12.733185">
        <ele>135.333</ele>
        <time>1970-01-01T01:00:00Z</time>
        <extensions><gpxtpx:TrackPointExtension><gpxtpx:hr>94</gpxtpx:hr></gpxtpx:TrackPointExtension></extensions>
      </trkpt>
      <trkpt lat="56.44575667" lon="12.73321167">
        <ele>135.028</ele>
        <time>1970-01-01T01:00:00Z</time>
        <extensions><gpxtpx:TrackPointExtension><gpxtpx:hr>93</gpxtpx:hr></gpxtpx:TrackPointExtension></extensions>
      </trkpt>
      <trkpt lat="56.44575333" lon="12.73323333">
        <ele>134.876</ele>
        <time>1970-01-01T01:00:00Z</time>
        <extensions><gpxtpx:TrackPointExtension><gpxtpx:hr>92</gpxtpx:hr></gpxtpx:TrackPointExtension></extensions>
      </trkpt>
      <trkpt lat="56.44575167" lon="12.73325333">
        <ele>134.571</ele>
        <time>1970-01-01T01:00:00Z</time>
        <extensions><gpxtpx:TrackPointExtension><gpxtpx:hr>92</gpxtpx:hr></gpxtpx:TrackPointExtension></extensions>
      </trkpt>
      <trkpt lat="56.44574833" lon="12.73327833">
        <ele>134.418</ele>
        <time>1970-01-01T01:00:00Z</time>
        <extensions><gpxtpx:TrackPointExtension><gpxtpx:hr>92</gpxtpx:hr></gpxtpx:TrackPointExtension></extensions>
      </trkpt>
      <trkpt lat="56.44573833" lon="12.73330333">
        <ele>134.266</ele>
        <time>1970-01-01T01:00:00Z</time>
        <extensions><gpxtpx:TrackPointExtension><gpxtpx:hr>91</gpxtpx:hr></gpxtpx:TrackPointExtension></extensions>
      </trkpt>
      <trkpt lat="56.44573333" lon="12.733325">
        <ele>134.114</ele>
        <time>1970-01-01T01:00:00Z</time>
        <extensions><gpxtpx:TrackPointExtension><gpxtpx:hr>91</gpxtpx:hr></gpxtpx:TrackPointExtension></extensions>
      </trkpt>
      <trkpt lat="56.44572833" lon="12.73335">
        <ele>133.961</ele>
        <time>1970-01-01T01:00:00Z</time>
        <extensions><gpxtpx:TrackPointExtension><gpxtpx:hr>91</gpxtpx:hr></gpxtpx:TrackPointExtension></extensions>
      </trkpt>
      <trkpt lat="56.44572333" lon="12.73337833">
        <ele>133.809</ele>
        <time>1970-01-01T01:00:00Z</time>
        <extensions><gpxtpx:TrackPointExtension><gpxtpx:hr>91</gpxtpx:hr></gpxtpx:TrackPointExtension></extensions>
      </trkpt>
      <trkpt lat="56.44571833" lon="12.73340667">
        <ele>133.656</ele>
        <time>1970-01-01T01:00:00Z</time>
        <extensions><gpxtpx:TrackPointExtension><gpxtpx:hr>91</gpxtpx:hr></gpxtpx:TrackPointExtension></extensions>
      </trkpt>
      <trkpt lat="56.44571667" lon="12.733435">
        <ele>132.742</ele>
        <time>1970-01-01T01:00:00Z</time>
        <extensions><gpxtpx:TrackPointExtension><gpxtpx:hr>92</gpxtpx:hr></gpxtpx:TrackPointExtension></extensions>
      </trkpt>
      <trkpt lat="56.445715" lon="12.733465">
        <ele>132.59</ele>
        <time>1970-01-01T01:00:00Z</time>
        <extensions><gpxtpx:TrackPointExtension><gpxtpx:hr>92</gpxtpx:hr></gpxtpx:TrackPointExtension></extensions>
      </trkpt>
      <trkpt lat="56.44571167" lon="12.73350167">
        <ele>132.437</ele>
        <time>1970-01-01T01:00:00Z</time>
        <extensions><gpxtpx:TrackPointExtension><gpxtpx:hr>93</gpxtpx:hr></gpxtpx:TrackPointExtension></extensions>
      </trkpt>
      <trkpt lat="56.44571" lon="12.73353833">
        <ele>132.285</ele>
        <time>1970-01-01T01:00:00Z</time>
        <extensions><gpxtpx:TrackPointExtension><gpxtpx:hr>93</gpxtpx:hr></gpxtpx:TrackPointExtension></extensions>
      </trkpt>
      <trkpt lat="56.44570833" lon="12.73357167">
        <ele>132.132</ele>
        <time>1970-01-01T01:00:00Z</time>
        <extensions><gpxtpx:TrackPointExtension><gpxtpx:hr>93</gpxtpx:hr></gpxtpx:TrackPointExtension></extensions>
      </trkpt>
      <trkpt lat="56.44570833" lon="12.73360333">
        <ele>131.98</ele>
        <time>1970-01-01T01:00:00Z</time>
        <extensions><gpxtpx:TrackPointExtension><gpxtpx:hr>94</gpxtpx:hr></gpxtpx:TrackPointExtension></extensions>
      </trkpt>
      <trkpt lat="56.44570833" lon="12.73363">
        <ele>128.78</ele>
        <time>1970-01-01T01:00:00Z</time>
        <extensions><gpxtpx:TrackPointExtension><gpxtpx:hr>93</gpxtpx:hr></gpxtpx:TrackPointExtension></extensions>
      </trkpt>
      <trkpt lat="56.44570667" lon="12.73365833">
        <ele>128.475</ele>
        <time>1970-01-01T01:00:00Z</time>
        <extensions><gpxtpx:TrackPointExtension><gpxtpx:hr>93</gpxtpx:hr></gpxtpx:TrackPointExtension></extensions>
      </trkpt>
      <trkpt lat="56.445705" lon="12.73368667">
        <ele>128.322</ele>
        <time>1970-01-01T01:00:00Z</time>
        <extensions><gpxtpx:TrackPointExtension><gpxtpx:hr>93</gpxtpx:hr></gpxtpx:TrackPointExtension></extensions>
      </trkpt>
      <trkpt lat="56.445705" lon="12.73371">
        <ele>128.018</ele>
        <time>1970-01-01T01:00:00Z</time>
        <extensions><gpxtpx:TrackPointExtension><gpxtpx:hr>93</gpxtpx:hr></gpxtpx:TrackPointExtension></extensions>
      </trkpt>
      <trkpt lat="56.4457" lon="12.73373167">
        <ele>127.713</ele>
        <time>1970-01-01T01:00:00Z</time>
        <extensions><gpxtpx:TrackPointExtension><gpxtpx:hr>94</gpxtpx:hr></gpxtpx:TrackPointExtension></extensions>
      </trkpt>
      <trkpt lat="56.445695" lon="12.733755">
        <ele>127.408</ele>
        <time>1970-01-01T01:00:00Z</time>
        <extensions><gpxtpx:TrackPointExtension><gpxtpx:hr>94</gpxtpx:hr></gpxtpx:TrackPointExtension></extensions>
      </trkpt>
      <trkpt lat="56.44569" lon="12.73378">
        <ele>127.256</ele>
        <time>1970-01-01T01:00:00Z</time>
        <extensions><gpxtpx:TrackPointExtension><gpxtpx:hr>93</gpxtpx:hr></gpxtpx:TrackPointExtension></extensions>
      </trkpt>
      <trkpt lat="56.44568" lon="12.73381167">
        <ele>126.951</ele>
        <time>1970-01-01T01:00:00Z</time>
        <extensions><gpxtpx:TrackPointExtension><gpxtpx:hr>93</gpxtpx:hr></gpxtpx:TrackPointExtension></extensions>
      </trkpt>
      <trkpt lat="56.44567" lon="12.73384833">
        <ele>126.646</ele>
        <time>1970-01-01T01:00:00Z</time>
        <extensions><gpxtpx:TrackPointExtension><gpxtpx:hr>93</gpxtpx:hr></gpxtpx:TrackPointExtension></extensions>
      </trkpt>
      <trkpt lat="56.44566333" lon="12.73388667">
        <ele>126.494</ele>
        <time>1970-01-01T01:00:00Z</time>
        <extensions><gpxtpx:TrackPointExtension><gpxtpx:hr>93</gpxtpx:hr></gpxtpx:TrackPointExtension></extensions>
      </trkpt>
      <trkpt lat="56.44565167" lon="12.73392333">
        <ele>126.189</ele>
        <time>1970-01-01T01:00:00Z</time>
        <extensions><gpxtpx:TrackPointExtension><gpxtpx:hr>93</gpxtpx:hr></gpxtpx:TrackPointExtension></extensions>
      </trkpt>
      <trkpt lat="56.44564167" lon="12.73395833">
        <ele>125.884</ele>
        <time>1970-01-01T01:00:00Z</time>
        <extensions><gpxtpx:TrackPointExtension><gpxtpx:hr>92</gpxtpx:hr></gpxtpx:TrackPointExtension></extensions>
      </trkpt>
      <trkpt lat="56.445635" lon="12.733995">
        <ele>125.732</ele>
        <time>1970-01-01T01:00:00Z</time>
        <extensions><gpxtpx:TrackPointExtension><gpxtpx:hr>92</gpxtpx:hr></gpxtpx:TrackPointExtension></extensions>
      </trkpt>
      <trkpt lat="56.44562833" lon="12.73402167">
        <ele>125.427</ele>
        <time>1970-01-01T01:00:00Z</time>
        <extensions><gpxtpx:TrackPointExtension><gpxtpx:hr>92</gpxtpx:hr></gpxtpx:TrackPointExtension></extensions>
      </trkpt>
      <trkpt lat="56.445625" lon="12.73403667">
        <ele>125.274</ele>
        <time>1970-01-01T01:00:00Z</time>
        <extensions><gpxtpx:TrackPointExtension><gpxtpx:hr>92</gpxtpx:hr></gpxtpx:TrackPointExtension></extensions>
      </trkpt>
      <trkpt lat="56.445625" lon="12.73405167">
        <ele>125.122</ele>
        <time>1970-01-01T01:00:00Z</time>
        <extensions><gpxtpx:TrackPointExtension><gpxtpx:hr>94</gpxtpx:hr></gpxtpx:TrackPointExtension></extensions>
      </trkpt>
      <trkpt lat="56.44562333" lon="12.73407167">
        <ele>124.97</ele>
        <time>1970-01-01T01:00:00Z</time>
        <extensions><gpxtpx:TrackPointExtension><gpxtpx:hr>97</gpxtpx:hr></gpxtpx:TrackPointExtension></extensions>
      </trkpt>
      <trkpt lat="56.44562167" lon="12.73409">
        <ele>124.817</ele>
        <time>1970-01-01T01:00:00Z</time>
        <extensions><gpxtpx:TrackPointExtension><gpxtpx:hr>98</gpxtpx:hr></gpxtpx:TrackPointExtension></extensions>
      </trkpt>
      <trkpt lat="56.44562" lon="12.73410667">
        <ele>124.665</ele>
        <time>1970-01-01T01:00:00Z</time>
        <extensions><gpxtpx:TrackPointExtension><gpxtpx:hr>98</gpxtpx:hr></gpxtpx:TrackPointExtension></extensions>
      </trkpt>
      <trkpt lat="56.44561833" lon="12.734125">
        <ele>124.665</ele>
        <time>1970-01-01T01:00:00Z</time>
        <extensions><gpxtpx:TrackPointExtension><gpxtpx:hr>99</gpxtpx:hr></gpxtpx:TrackPointExtension></extensions>
      </trkpt>
      <trkpt lat="56.44561333" lon="12.73414333">
        <ele>124.512</ele>
        <time>1970-01-01T01:00:00Z</time>
        <extensions><gpxtpx:TrackPointExtension><gpxtpx:hr>99</gpxtpx:hr></gpxtpx:TrackPointExtension></extensions>
      </trkpt>
      <trkpt lat="56.4456" lon="12.73416167">
        <ele>124.512</ele>
        <time>1970-01-01T01:00:00Z</time>
        <extensions><gpxtpx:TrackPointExtension><gpxtpx:hr>100</gpxtpx:hr></gpxtpx:TrackPointExtension></extensions>
      </trkpt>
      <trkpt lat="56.44558833" lon="12.73417667">
        <ele>124.512</ele>
        <time>1970-01-01T01:00:00Z</time>
        <extensions><gpxtpx:TrackPointExtension><gpxtpx:hr>100</gpxtpx:hr></gpxtpx:TrackPointExtension></extensions>
      </trkpt>
      <trkpt lat="56.445575" lon="12.734195">
        <ele>124.512</ele>
        <time>1970-01-01T01:00:00Z</time>
        <extensions><gpxtpx:TrackPointExtension><gpxtpx:hr>100</gpxtpx:hr></gpxtpx:TrackPointExtension></extensions>
      </trkpt>
      <trkpt lat="56.44556667" lon="12.73420833">
        <ele>124.512</ele>
        <time>1970-01-01T01:00:00Z</time>
        <extensions><gpxtpx:TrackPointExtension><gpxtpx:hr>101</gpxtpx:hr></gpxtpx:TrackPointExtension></extensions>
      </trkpt>
      <trkpt lat="56.44556167" lon="12.73422167">
        <ele>124.512</ele>
        <time>1970-01-01T01:00:00Z</time>
        <extensions><gpxtpx:TrackPointExtension><gpxtpx:hr>101</gpxtpx:hr></gpxtpx:TrackPointExtension></extensions>
      </trkpt>
      <trkpt lat="56.44555333" lon="12.73424167">
        <ele>124.665</ele>
        <time>1970-01-01T01:00:00Z</time>
        <extensions><gpxtpx:TrackPointExtension><gpxtpx:hr>101</gpxtpx:hr></gpxtpx:TrackPointExtension></extensions>
      </trkpt>
      <trkpt lat="56.44554667" lon="12.734265">
        <ele>124.665</ele>
        <time>1970-01-01T01:00:00Z</time>
        <extensions><gpxtpx:TrackPointExtension><gpxtpx:hr>102</gpxtpx:hr></gpxtpx:TrackPointExtension></extensions>
      </trkpt>
      <trkpt lat="56.44554167" lon="12.734285">
        <ele>124.817</ele>
        <time>1970-01-01T01:00:00Z</time>
        <extensions><gpxtpx:TrackPointExtension><gpxtpx:hr>102</gpxtpx:hr></gpxtpx:TrackPointExtension></extensions>
      </trkpt>
      <trkpt lat="56.44553167" lon="12.73430667">
        <ele>124.817</ele>
        <time>1970-01-01T01:00:00Z</time>
        <extensions><gpxtpx:TrackPointExtension><gpxtpx:hr>102</gpxtpx:hr></gpxtpx:TrackPointExtension></extensions>
      </trkpt>
      <trkpt lat="56.44552333" lon="12.73433">
        <ele>124.97</ele>
        <time>1970-01-01T01:00:00Z</time>
        <extensions><gpxtpx:TrackPointExtension><gpxtpx:hr>103</gpxtpx:hr></gpxtpx:TrackPointExtension></extensions>
      </trkpt>
      <trkpt lat="56.445515" lon="12.73435333">
        <ele>124.97</ele>
        <time>1970-01-01T01:00:00Z</time>
        <extensions><gpxtpx:TrackPointExtension><gpxtpx:hr>102</gpxtpx:hr></gpxtpx:TrackPointExtension></extensions>
      </trkpt>
      <trkpt lat="56.44550667" lon="12.734375">
        <ele>125.122</ele>
        <time>1970-01-01T01:00:00Z</time>
        <extensions><gpxtpx:TrackPointExtension><gpxtpx:hr>101</gpxtpx:hr></gpxtpx:TrackPointExtension></extensions>
      </trkpt>
      <trkpt lat="56.44549833" lon="12.734395">
        <ele>125.274</ele>
        <time>1970-01-01T01:00:00Z</time>
        <extensions><gpxtpx:TrackPointExtension><gpxtpx:hr>101</gpxtpx:hr></gpxtpx:TrackPointExtension></extensions>
      </trkpt>
      <trkpt lat="56.44549167" lon="12.73441333">
        <ele>125.274</ele>
        <time>1970-01-01T01:00:00Z</time>
        <extensions><gpxtpx:TrackPointExtension><gpxtpx:hr>101</gpxtpx:hr></gpxtpx:TrackPointExtension></extensions>
      </trkpt>
      <trkpt lat="56.44548333" lon="12.73443667">
        <ele>125.427</ele>
        <time>1970-01-01T01:00:00Z</time>
        <extensions><gpxtpx:TrackPointExtension><gpxtpx:hr>101</gpxtpx:hr></gpxtpx:TrackPointExtension></extensions>
      </trkpt>
      <trkpt lat="56.445475" lon="12.73446">
        <ele>125.579</ele>
        <time>1970-01-01T01:00:00Z</time>
        <extensions><gpxtpx:TrackPointExtension><gpxtpx:hr>100</gpxtpx:hr></gpxtpx:TrackPointExtension></extensions>
      </trkpt>
      <trkpt lat="56.44546667" lon="12.73448667">
        <ele>125.732</ele>
        <time>1970-01-01T01:00:00Z</time>
        <extensions><gpxtpx:TrackPointExtension><gpxtpx:hr>101</gpxtpx:hr></gpxtpx:TrackPointExtension></extensions>
      </trkpt>
      <trkpt lat="56.44545833" lon="12.73451">
        <ele>125.732</ele>
        <time>1970-01-01T01:00:00Z</time>
        <extensions><gpxtpx:TrackPointExtension><gpxtpx:hr>101</gpxtpx:hr></gpxtpx:TrackPointExtension></extensions>
      </trkpt>
      <trkpt lat="56.44545167" lon="12.73453333">
        <ele>125.884</ele>
        <time>1970-01-01T01:00:00Z</time>
        <extensions><gpxtpx:TrackPointExtension><gpxtpx:hr>102</gpxtpx:hr></gpxtpx:TrackPointExtension></extensions>
      </trkpt>
      <trkpt lat="56.445445" lon="12.73455667">
        <ele>125.884</ele>
        <time>1970-01-01T01:00:00Z</time>
        <extensions><gpxtpx:TrackPointExtension><gpxtpx:hr>103</gpxtpx:hr></gpxtpx:TrackPointExtension></extensions>
      </trkpt>
      <trkpt lat="56.44543667" lon="12.73458">
        <ele>126.036</ele>
        <time>1970-01-01T01:00:00Z</time>
        <extensions><gpxtpx:TrackPointExtension><gpxtpx:hr>104</gpxtpx:hr></gpxtpx:TrackPointExtension></extensions>
      </trkpt>
      <trkpt lat="56.44543167" lon="12.734605">
        <ele>126.036</ele>
        <time>1970-01-01T01:00:00Z</time>
        <extensions><gpxtpx:TrackPointExtension><gpxtpx:hr>105</gpxtpx:hr></gpxtpx:TrackPointExtension></extensions>
      </trkpt>
      <trkpt lat="56.44542667" lon="12.73462667">
        <ele>126.189</ele>
        <time>1970-01-01T01:00:00Z</time>
        <extensions><gpxtpx:TrackPointExtension><gpxtpx:hr>105</gpxtpx:hr></gpxtpx:TrackPointExtension></extensions>
      </trkpt>
      <trkpt lat="56.44542167" lon="12.73464833">
        <ele>126.189</ele>
        <time>1970-01-01T01:00:00Z</time>
        <extensions><gpxtpx:TrackPointExtension><gpxtpx:hr>106</gpxtpx:hr></gpxtpx:TrackPointExtension></extensions>
      </trkpt>
      <trkpt lat="56.445415" lon="12.73467167">
        <ele>126.189</ele>
        <time>1970-01-01T01:00:00Z</time>
        <extensions><gpxtpx:TrackPointExtension><gpxtpx:hr>107</gpxtpx:hr></gpxtpx:TrackPointExtension></extensions>
      </trkpt>
      <trkpt lat="56.44541" lon="12.73469167">
        <ele>126.341</ele>
        <time>1970-01-01T01:00:00Z</time>
        <extensions><gpxtpx:TrackPointExtension><gpxtpx:hr>108</gpxtpx:hr></gpxtpx:TrackPointExtension></extensions>
      </trkpt>
      <trkpt lat="56.44540167" lon="12.73471167">
        <ele>126.341</ele>
        <time>1970-01-01T01:00:00Z</time>
        <extensions><gpxtpx:TrackPointExtension><gpxtpx:hr>108</gpxtpx:hr></gpxtpx:TrackPointExtension></extensions>
      </trkpt>
      <trkpt lat="56.445395" lon="12.73472833">
        <ele>126.341</ele>
        <time>1970-01-01T01:00:00Z</time>
        <extensions><gpxtpx:TrackPointExtension><gpxtpx:hr>108</gpxtpx:hr></gpxtpx:TrackPointExtension></extensions>
      </trkpt>
      <trkpt lat="56.44539" lon="12.734745">
        <ele>126.341</ele>
        <time>1970-01-01T01:00:00Z</time>
        <extensions><gpxtpx:TrackPointExtension><gpxtpx:hr>108</gpxtpx:hr></gpxtpx:TrackPointExtension></extensions>
      </trkpt>
      <trkpt lat="56.44538333" lon="12.73476167">
        <ele>126.341</ele>
        <time>1970-01-01T01:00:00Z</time>
        <extensions><gpxtpx:TrackPointExtension><gpxtpx:hr>108</gpxtpx:hr></gpxtpx:TrackPointExtension></extensions>
      </trkpt>
      <trkpt lat="56.44537667" lon="12.73477833">
        <ele>126.341</ele>
        <time>1970-01-01T01:00:00Z</time>
        <extensions><gpxtpx:TrackPointExtension><gpxtpx:hr>109</gpxtpx:hr></gpxtpx:TrackPointExtension></extensions>
      </trkpt>
      <trkpt lat="56.44537167" lon="12.73479833">
        <ele>126.341</ele>
        <time>1970-01-01T01:00:00Z</time>
        <extensions><gpxtpx:TrackPointExtension><gpxtpx:hr>109</gpxtpx:hr></gpxtpx:TrackPointExtension></extensions>
      </trkpt>
      <trkpt lat="56.44536667" lon="12.73481833">
        <ele>126.341</ele>
        <time>1970-01-01T01:00:00Z</time>
        <extensions><gpxtpx:TrackPointExtension><gpxtpx:hr>109</gpxtpx:hr></gpxtpx:TrackPointExtension></extensions>
      </trkpt>
      <trkpt lat="56.44536167" lon="12.73483667">
        <ele>126.341</ele>
        <time>1970-01-01T01:00:00Z</time>
        <extensions><gpxtpx:TrackPointExtension><gpxtpx:hr>109</gpxtpx:hr></gpxtpx:TrackPointExtension></extensions>
      </trkpt>
      <trkpt lat="56.445355" lon="12.73485167">
        <ele>126.341</ele>
        <time>1970-01-01T01:00:00Z</time>
        <extensions><gpxtpx:TrackPointExtension><gpxtpx:hr>109</gpxtpx:hr></gpxtpx:TrackPointExtension></extensions>
      </trkpt>
      <trkpt lat="56.44534833" lon="12.73487333">
        <ele>126.341</ele>
        <time>1970-01-01T01:00:00Z</time>
        <extensions><gpxtpx:TrackPointExtension><gpxtpx:hr>108</gpxtpx:hr></gpxtpx:TrackPointExtension></extensions>
      </trkpt>
      <trkpt lat="56.44534167" lon="12.73489333">
        <ele>126.341</ele>
        <time>1970-01-01T01:00:00Z</time>
        <extensions><gpxtpx:TrackPointExtension><gpxtpx:hr>107</gpxtpx:hr></gpxtpx:TrackPointExtension></extensions>
      </trkpt>
      <trkpt lat="56.44534167" lon="12.734915">
        <ele>126.341</ele>
        <time>1970-01-01T01:00:00Z</time>
        <extensions><gpxtpx:TrackPointExtension><gpxtpx:hr>107</gpxtpx:hr></gpxtpx:TrackPointExtension></extensions>
      </trkpt>
      <trkpt lat="56.44534167" lon="12.73493167">
        <ele>126.341</ele>
        <time>1970-01-01T01:00:00Z</time>
        <extensions><gpxtpx:TrackPointExtension><gpxtpx:hr>107</gpxtpx:hr></gpxtpx:TrackPointExtension></extensions>
      </trkpt>
      <trkpt lat="56.44534333" lon="12.73495167">
        <ele>126.341</ele>
        <time>1970-01-01T01:00:00Z</time>
        <extensions><gpxtpx:TrackPointExtension><gpxtpx:hr>107</gpxtpx:hr></gpxtpx:TrackPointExtension></extensions>
      </trkpt>
      <trkpt lat="56.44534167" lon="12.73497167">
        <ele>126.341</ele>
        <time>1970-01-01T01:00:00Z</time>
        <extensions><gpxtpx:TrackPointExtension><gpxtpx:hr>107</gpxtpx:hr></gpxtpx:TrackPointExtension></extensions>
      </trkpt>
      <trkpt lat="56.44533667" lon="12.73498667">
        <ele>126.341</ele>
        <time>1970-01-01T01:00:00Z</time>
        <extensions><gpxtpx:TrackPointExtension><gpxtpx:hr>107</gpxtpx:hr></gpxtpx:TrackPointExtension></extensions>
      </trkpt>
      <trkpt lat="56.44533167" lon="12.73500167">
        <ele>126.341</ele>
        <time>1970-01-01T01:00:00Z</time>
        <extensions><gpxtpx:TrackPointExtension><gpxtpx:hr>107</gpxtpx:hr></gpxtpx:TrackPointExtension></extensions>
      </trkpt>
      <trkpt lat="56.44532833" lon="12.73502333">
        <ele>126.494</ele>
        <time>1970-01-01T01:00:00Z</time>
        <extensions><gpxtpx:TrackPointExtension><gpxtpx:hr>107</gpxtpx:hr></gpxtpx:TrackPointExtension></extensions>
      </trkpt>
      <trkpt lat="56.44532833" lon="12.73504333">
        <ele>126.494</ele>
        <time>1970-01-01T01:00:00Z</time>
        <extensions><gpxtpx:TrackPointExtension><gpxtpx:hr>107</gpxtpx:hr></gpxtpx:TrackPointExtension></extensions>
      </trkpt>
      <trkpt lat="56.44532667" lon="12.73506333">
        <ele>126.494</ele>
        <time>1970-01-01T01:00:00Z</time>
        <extensions><gpxtpx:TrackPointExtension><gpxtpx:hr>107</gpxtpx:hr></gpxtpx:TrackPointExtension></extensions>
      </trkpt>
      <trkpt lat="56.44531833" lon="12.73509667">
        <ele>126.494</ele>
        <time>1970-01-01T01:00:00Z</time>
        <extensions><gpxtpx:TrackPointExtension><gpxtpx:hr>108</gpxtpx:hr></gpxtpx:TrackPointExtension></extensions>
      </trkpt>
      <trkpt lat="56.44531" lon="12.73513333">
        <ele>126.646</ele>
        <time>1970-01-01T01:00:00Z</time>
        <extensions><gpxtpx:TrackPointExtension><gpxtpx:hr>108</gpxtpx:hr></gpxtpx:TrackPointExtension></extensions>
      </trkpt>
      <trkpt lat="56.44530167" lon="12.73516667">
        <ele>126.646</ele>
        <time>1970-01-01T01:00:00Z</time>
        <extensions><gpxtpx:TrackPointExtension><gpxtpx:hr>108</gpxtpx:hr></gpxtpx:TrackPointExtension></extensions>
      </trkpt>
      <trkpt lat="56.44529667" lon="12.73519667">
        <ele>126.646</ele>
        <time>1970-01-01T01:00:00Z</time>
        <extensions><gpxtpx:TrackPointExtension><gpxtpx:hr>108</gpxtpx:hr></gpxtpx:TrackPointExtension></extensions>
      </trkpt>
      <trkpt lat="56.4453" lon="12.73522333">
        <ele>126.646</ele>
        <time>1970-01-01T01:00:00Z</time>
        <extensions><gpxtpx:TrackPointExtension><gpxtpx:hr>109</gpxtpx:hr></gpxtpx:TrackPointExtension></extensions>
      </trkpt>
      <trkpt lat="56.44530167" lon="12.73525">
        <ele>126.798</ele>
        <time>1970-01-01T01:00:00Z</time>
        <extensions><gpxtpx:TrackPointExtension><gpxtpx:hr>109</gpxtpx:hr></gpxtpx:TrackPointExtension></extensions>
      </trkpt>
      <trkpt lat="56.4453" lon="12.73527">
        <ele>126.798</ele>
        <time>1970-01-01T01:00:00Z</time>
        <extensions><gpxtpx:TrackPointExtension><gpxtpx:hr>109</gpxtpx:hr></gpxtpx:TrackPointExtension></extensions>
      </trkpt>
      <trkpt lat="56.44529667" lon="12.73529333">
        <ele>126.798</ele>
        <time>1970-01-01T01:00:00Z</time>
        <extensions><gpxtpx:TrackPointExtension><gpxtpx:hr>109</gpxtpx:hr></gpxtpx:TrackPointExtension></extensions>
      </trkpt>
      <trkpt lat="56.44529167" lon="12.73532833">
        <ele>126.951</ele>
        <time>1970-01-01T01:00:00Z</time>
        <extensions><gpxtpx:TrackPointExtension><gpxtpx:hr>110</gpxtpx:hr></gpxtpx:TrackPointExtension></extensions>
      </trkpt>
      <trkpt lat="56.445285" lon="12.73537">
        <ele>126.951</ele>
        <time>1970-01-01T01:00:00Z</time>
        <extensions><gpxtpx:TrackPointExtension><gpxtpx:hr>110</gpxtpx:hr></gpxtpx:TrackPointExtension></extensions>
      </trkpt>
      <trkpt lat="56.44528" lon="12.73539667">
        <ele>126.951</ele>
        <time>1970-01-01T01:00:00Z</time>
        <extensions><gpxtpx:TrackPointExtension><gpxtpx:hr>110</gpxtpx:hr></gpxtpx:TrackPointExtension></extensions>
      </trkpt>
      <trkpt lat="56.445275" lon="12.73542333">
        <ele>127.103</ele>
        <time>1970-01-01T01:00:00Z</time>
        <extensions><gpxtpx:TrackPointExtension><gpxtpx:hr>110</gpxtpx:hr></gpxtpx:TrackPointExtension></extensions>
      </trkpt>
      <trkpt lat="56.44527333" lon="12.73546167">
        <ele>127.103</ele>
        <time>1970-01-01T01:00:00Z</time>
        <extensions><gpxtpx:TrackPointExtension><gpxtpx:hr>110</gpxtpx:hr></gpxtpx:TrackPointExtension></extensions>
      </trkpt>
      <trkpt lat="56.44527333" lon="12.73549167">
        <ele>127.256</ele>
        <time>1970-01-01T01:00:00Z</time>
        <extensions><gpxtpx:TrackPointExtension><gpxtpx:hr>110</gpxtpx:hr></gpxtpx:TrackPointExtension></extensions>
      </trkpt>
      <trkpt lat="56.44527667" lon="12.735525">
        <ele>127.256</ele>
        <time>1970-01-01T01:00:00Z</time>
        <extensions><gpxtpx:TrackPointExtension><gpxtpx:hr>111</gpxtpx:hr></gpxtpx:TrackPointExtension></extensions>
      </trkpt>
      <trkpt lat="56.44528" lon="12.73555">
        <ele>127.256</ele>
        <time>1970-01-01T01:00:00Z</time>
        <extensions><gpxtpx:TrackPointExtension><gpxtpx:hr>111</gpxtpx:hr></gpxtpx:TrackPointExtension></extensions>
      </trkpt>
      <trkpt lat="56.44528333" lon="12.73557333">
        <ele>127.408</ele>
        <time>1970-01-01T01:00:00Z</time>
        <extensions><gpxtpx:TrackPointExtension><gpxtpx:hr>111</gpxtpx:hr></gpxtpx:TrackPointExtension></extensions>
      </trkpt>
      <trkpt lat="56.445285" lon="12.73560167">
        <ele>127.408</ele>
        <time>1970-01-01T01:00:00Z</time>
        <extensions><gpxtpx:TrackPointExtension><gpxtpx:hr>112</gpxtpx:hr></gpxtpx:TrackPointExtension></extensions>
      </trkpt>
      <trkpt lat="56.445285" lon="12.73562667">
        <ele>127.408</ele>
        <time>1970-01-01T01:00:00Z</time>
        <extensions><gpxtpx:TrackPointExtension><gpxtpx:hr>112</gpxtpx:hr></gpxtpx:TrackPointExtension></extensions>
      </trkpt>
      <trkpt lat="56.445285" lon="12.73566333">
        <ele>127.56</ele>
        <time>1970-01-01T01:00:00Z</time>
        <extensions><gpxtpx:TrackPointExtension><gpxtpx:hr>113</gpxtpx:hr></gpxtpx:TrackPointExtension></extensions>
      </trkpt>
      <trkpt lat="56.44528167" lon="12.73568833">
        <ele>127.56</ele>
        <time>1970-01-01T01:00:00Z</time>
        <extensions><gpxtpx:TrackPointExtension><gpxtpx:hr>113</gpxtpx:hr></gpxtpx:TrackPointExtension></extensions>
      </trkpt>
      <trkpt lat="56.44528167" lon="12.73571667">
        <ele>127.56</ele>
        <time>1970-01-01T01:00:00Z</time>
        <extensions><gpxtpx:TrackPointExtension><gpxtpx:hr>113</gpxtpx:hr></gpxtpx:TrackPointExtension></extensions>
      </trkpt>
      <trkpt lat="56.44528333" lon="12.73574167">
        <ele>127.56</ele>
        <time>1970-01-01T01:00:00Z</time>
        <extensions><gpxtpx:TrackPointExtension><gpxtpx:hr>113</gpxtpx:hr></gpxtpx:TrackPointExtension></extensions>
      </trkpt>
      <trkpt lat="56.44528" lon="12.73576333">
        <ele>127.713</ele>
        <time>1970-01-01T01:00:00Z</time>
        <extensions><gpxtpx:TrackPointExtension><gpxtpx:hr>114</gpxtpx:hr></gpxtpx:TrackPointExtension></extensions>
      </trkpt>
      <trkpt lat="56.445275" lon="12.73578667">
        <ele>127.713</ele>
        <time>1970-01-01T01:00:00Z</time>
        <extensions><gpxtpx:TrackPointExtension><gpxtpx:hr>115</gpxtpx:hr></gpxtpx:TrackPointExtension></extensions>
      </trkpt>
      <trkpt lat="56.44527667" lon="12.73581667">
        <ele>127.865</ele>
        <time>1970-01-01T01:00:00Z</time>
        <extensions><gpxtpx:TrackPointExtension><gpxtpx:hr>116</gpxtpx:hr></gpxtpx:TrackPointExtension></extensions>
      </trkpt>
      <trkpt lat="56.445275" lon="12.735845">
        <ele>127.865</ele>
        <time>1970-01-01T01:00:00Z</time>
        <extensions><gpxtpx:TrackPointExtension><gpxtpx:hr>116</gpxtpx:hr></gpxtpx:TrackPointExtension></extensions>
      </trkpt>
      <trkpt lat="56.44527333" lon="12.73587667">
        <ele>127.865</ele>
        <time>1970-01-01T01:00:00Z</time>
        <extensions><gpxtpx:TrackPointExtension><gpxtpx:hr>116</gpxtpx:hr></gpxtpx:TrackPointExtension></extensions>
      </trkpt>
      <trkpt lat="56.44527167" lon="12.73591167">
        <ele>128.018</ele>
        <time>1970-01-01T01:00:00Z</time>
        <extensions><gpxtpx:TrackPointExtension><gpxtpx:hr>117</gpxtpx:hr></gpxtpx:TrackPointExtension></extensions>
      </trkpt>
      <trkpt lat="56.44527" lon="12.73594667">
        <ele>128.018</ele>
        <time>1970-01-01T01:00:00Z</time>
        <extensions><gpxtpx:TrackPointExtension><gpxtpx:hr>117</gpxtpx:hr></gpxtpx:TrackPointExtension></extensions>
      </trkpt>
      <trkpt lat="56.44526667" lon="12.73597667">
        <ele>128.17</ele>
        <time>1970-01-01T01:00:00Z</time>
        <extensions><gpxtpx:TrackPointExtension><gpxtpx:hr>117</gpxtpx:hr></gpxtpx:TrackPointExtension></extensions>
      </trkpt>
      <trkpt lat="56.445265" lon="12.736005">
        <ele>128.17</ele>
        <time>1970-01-01T01:00:00Z</time>
        <extensions><gpxtpx:TrackPointExtension><gpxtpx:hr>117</gpxtpx:hr></gpxtpx:TrackPointExtension></extensions>
      </trkpt>
      <trkpt lat="56.44526167" lon="12.73602667">
        <ele>128.322</ele>
        <time>1970-01-01T01:00:00Z</time>
        <extensions><gpxtpx:TrackPointExtension><gpxtpx:hr>116</gpxtpx:hr></gpxtpx:TrackPointExtension></extensions>
      </trkpt>
      <trkpt lat="56.44525833" lon="12.73606167">
        <ele>128.322</ele>
        <time>1970-01-01T01:00:00Z</time>
        <extensions><gpxtpx:TrackPointExtension><gpxtpx:hr>115</gpxtpx:hr></gpxtpx:TrackPointExtension></extensions>
      </trkpt>
      <trkpt lat="56.445255" lon="12.73609167">
        <ele>128.322</ele>
        <time>1970-01-01T01:00:00Z</time>
        <extensions><gpxtpx:TrackPointExtension><gpxtpx:hr>113</gpxtpx:hr></gpxtpx:TrackPointExtension></extensions>
      </trkpt>
      <trkpt lat="56.445255" lon="12.73612">
        <ele>128.475</ele>
        <time>1970-01-01T01:00:00Z</time>
        <extensions><gpxtpx:TrackPointExtension><gpxtpx:hr>112</gpxtpx:hr></gpxtpx:TrackPointExtension></extensions>
      </trkpt>
      <trkpt lat="56.44525333" lon="12.73615">
        <ele>128.475</ele>
        <time>1970-01-01T01:00:00Z</time>
        <extensions><gpxtpx:TrackPointExtension><gpxtpx:hr>112</gpxtpx:hr></gpxtpx:TrackPointExtension></extensions>
      </trkpt>
      <trkpt lat="56.44525167" lon="12.736175">
        <ele>128.475</ele>
        <time>1970-01-01T01:00:00Z</time>
        <extensions><gpxtpx:TrackPointExtension><gpxtpx:hr>112</gpxtpx:hr></gpxtpx:TrackPointExtension></extensions>
      </trkpt>
      <trkpt lat="56.44525" lon="12.73619833">
        <ele>128.627</ele>
        <time>1970-01-01T01:00:00Z</time>
        <extensions><gpxtpx:TrackPointExtension><gpxtpx:hr>111</gpxtpx:hr></gpxtpx:TrackPointExtension></extensions>
      </trkpt>
      <trkpt lat="56.44524833" lon="12.736225">
        <ele>128.627</ele>
        <time>1970-01-01T01:00:00Z</time>
        <extensions><gpxtpx:TrackPointExtension><gpxtpx:hr>112</gpxtpx:hr></gpxtpx:TrackPointExtension></extensions>
      </trkpt>
      <trkpt lat="56.44524333" lon="12.73625">
        <ele>128.627</ele>
        <time>1970-01-01T01:00:00Z</time>
        <extensions><gpxtpx:TrackPointExtension><gpxtpx:hr>112</gpxtpx:hr></gpxtpx:TrackPointExtension></extensions>
      </trkpt>
      <trkpt lat="56.44524" lon="12.73627667">
        <ele>128.78</ele>
        <time>1970-01-01T01:00:00Z</time>
        <extensions><gpxtpx:TrackPointExtension><gpxtpx:hr>112</gpxtpx:hr></gpxtpx:TrackPointExtension></extensions>
      </trkpt>
      <trkpt lat="56.44523667" lon="12.7363">
        <ele>128.78</ele>
        <time>1970-01-01T01:00:00Z</time>
        <extensions><gpxtpx:TrackPointExtension><gpxtpx:hr>112</gpxtpx:hr></gpxtpx:TrackPointExtension></extensions>
      </trkpt>
      <trkpt lat="56.445235" lon="12.73632333">
        <ele>128.932</ele>
        <time>1970-01-01T01:00:00Z</time>
        <extensions><gpxtpx:TrackPointExtension><gpxtpx:hr>112</gpxtpx:hr></gpxtpx:TrackPointExtension></extensions>
      </trkpt>
      <trkpt lat="56.44523333" lon="12.73635">
        <ele>128.932</ele>
        <time>1970-01-01T01:00:00Z</time>
        <extensions><gpxtpx:TrackPointExtension><gpxtpx:hr>111</gpxtpx:hr></gpxtpx:TrackPointExtension></extensions>
      </trkpt>
      <trkpt lat="56.44523167" lon="12.736375">
        <ele>129.084</ele>
        <time>1970-01-01T01:00:00Z</time>
        <extensions><gpxtpx:TrackPointExtension><gpxtpx:hr>111</gpxtpx:hr></gpxtpx:TrackPointExtension></extensions>
      </trkpt>
      <trkpt lat="56.445235" lon="12.7364">
        <ele>129.084</ele>
        <time>1970-01-01T01:00:00Z</time>
        <extensions><gpxtpx:TrackPointExtension><gpxtpx:hr>111</gpxtpx:hr></gpxtpx:TrackPointExtension></extensions>
      </trkpt>
      <trkpt lat="56.44524167" lon="12.73642333">
        <ele>129.237</ele>
        <time>1970-01-01T01:00:00Z</time>
        <extensions><gpxtpx:TrackPointExtension><gpxtpx:hr>111</gpxtpx:hr></gpxtpx:TrackPointExtension></extensions>
      </trkpt>
      <trkpt lat="56.44524667" lon="12.736445">
        <ele>129.389</ele>
        <time>1970-01-01T01:00:00Z</time>
        <extensions><gpxtpx:TrackPointExtension><gpxtpx:hr>111</gpxtpx:hr></gpxtpx:TrackPointExtension></extensions>
      </trkpt>
      <trkpt lat="56.44524833" lon="12.73647">
        <ele>129.389</ele>
        <time>1970-01-01T01:00:00Z</time>
        <extensions><gpxtpx:TrackPointExtension><gpxtpx:hr>111</gpxtpx:hr></gpxtpx:TrackPointExtension></extensions>
      </trkpt>
      <trkpt lat="56.44525" lon="12.73649833">
        <ele>129.542</ele>
        <time>1970-01-01T01:00:00Z</time>
        <extensions><gpxtpx:TrackPointExtension><gpxtpx:hr>111</gpxtpx:hr></gpxtpx:TrackPointExtension></extensions>
      </trkpt>
      <trkpt lat="56.445255" lon="12.73652667">
        <ele>129.694</ele>
        <time>1970-01-01T01:00:00Z</time>
        <extensions><gpxtpx:TrackPointExtension><gpxtpx:hr>111</gpxtpx:hr></gpxtpx:TrackPointExtension></extensions>
      </trkpt>
      <trkpt lat="56.44525667" lon="12.736555">
        <ele>129.694</ele>
        <time>1970-01-01T01:00:00Z</time>
        <extensions><gpxtpx:TrackPointExtension><gpxtpx:hr>111</gpxtpx:hr></gpxtpx:TrackPointExtension></extensions>
      </trkpt>
      <trkpt lat="56.44526167" lon="12.73658167">
        <ele>129.846</ele>
        <time>1970-01-01T01:00:00Z</time>
        <extensions><gpxtpx:TrackPointExtension><gpxtpx:hr>111</gpxtpx:hr></gpxtpx:TrackPointExtension></extensions>
      </trkpt>
      <trkpt lat="56.44526167" lon="12.736605">
        <ele>129.846</ele>
        <time>1970-01-01T01:00:00Z</time>
        <extensions><gpxtpx:TrackPointExtension><gpxtpx:hr>111</gpxtpx:hr></gpxtpx:TrackPointExtension></extensions>
      </trkpt>
      <trkpt lat="56.44526333" lon="12.73663167">
        <ele>129.999</ele>
        <time>1970-01-01T01:00:00Z</time>
        <extensions><gpxtpx:TrackPointExtension><gpxtpx:hr>110</gpxtpx:hr></gpxtpx:TrackPointExtension></extensions>
      </trkpt>
      <trkpt lat="56.44526333" lon="12.73665333">
        <ele>129.999</ele>
        <time>1970-01-01T01:00:00Z</time>
        <extensions><gpxtpx:TrackPointExtension><gpxtpx:hr>110</gpxtpx:hr></gpxtpx:TrackPointExtension></extensions>
      </trkpt>
      <trkpt lat="56.44526167" lon="12.73667667">
        <ele>129.999</ele>
        <time>1970-01-01T01:00:00Z</time>
        <extensions><gpxtpx:TrackPointExtension><gpxtpx:hr>110</gpxtpx:hr></gpxtpx:TrackPointExtension></extensions>
      </trkpt>
      <trkpt lat="56.44526167" lon="12.7367">
        <ele>130.151</ele>
        <time>1970-01-01T01:00:00Z</time>
        <extensions><gpxtpx:TrackPointExtension><gpxtpx:hr>109</gpxtpx:hr></gpxtpx:TrackPointExtension></extensions>
      </trkpt>
      <trkpt lat="56.44526333" lon="12.736725">
        <ele>130.151</ele>
        <time>1970-01-01T01:00:00Z</time>
        <extensions><gpxtpx:TrackPointExtension><gpxtpx:hr>107</gpxtpx:hr></gpxtpx:TrackPointExtension></extensions>
      </trkpt>
      <trkpt lat="56.44526167" lon="12.73674667">
        <ele>130.151</ele>
        <time>1970-01-01T01:00:00Z</time>
        <extensions><gpxtpx:TrackPointExtension><gpxtpx:hr>107</gpxtpx:hr></gpxtpx:TrackPointExtension></extensions>
      </trkpt>
      <trkpt lat="56.44526167" lon="12.73676833">
        <ele>129.999</ele>
        <time>1970-01-01T01:00:00Z</time>
        <extensions><gpxtpx:TrackPointExtension><gpxtpx:hr>107</gpxtpx:hr></gpxtpx:TrackPointExtension></extensions>
      </trkpt>
      <trkpt lat="56.44525833" lon="12.73679167">
        <ele>129.999</ele>
        <time>1970-01-01T01:00:00Z</time>
        <extensions><gpxtpx:TrackPointExtension><gpxtpx:hr>107</gpxtpx:hr></gpxtpx:TrackPointExtension></extensions>
      </trkpt>
      <trkpt lat="56.44525667" lon="12.736815">
        <ele>129.999</ele>
        <time>1970-01-01T01:00:00Z</time>
        <extensions><gpxtpx:TrackPointExtension><gpxtpx:hr>106</gpxtpx:hr></gpxtpx:TrackPointExtension></extensions>
      </trkpt>
      <trkpt lat="56.445255" lon="12.73683833">
        <ele>129.999</ele>
        <time>1970-01-01T01:00:00Z</time>
        <extensions><gpxtpx:TrackPointExtension><gpxtpx:hr>106</gpxtpx:hr></gpxtpx:TrackPointExtension></extensions>
      </trkpt>
      <trkpt lat="56.44525667" lon="12.73686">
        <ele>129.999</ele>
        <time>1970-01-01T01:00:00Z</time>
        <extensions><gpxtpx:TrackPointExtension><gpxtpx:hr>106</gpxtpx:hr></gpxtpx:TrackPointExtension></extensions>
      </trkpt>
      <trkpt lat="56.44525167" lon="12.73687">
        <ele>129.999</ele>
        <time>1970-01-01T01:00:00Z</time>
        <extensions><gpxtpx:TrackPointExtension><gpxtpx:hr>106</gpxtpx:hr></gpxtpx:TrackPointExtension></extensions>
      </trkpt>
      <trkpt lat="56.44524167" lon="12.73688333">
        <ele>129.999</ele>
        <time>1970-01-01T01:00:00Z</time>
        <extensions><gpxtpx:TrackPointExtension><gpxtpx:hr>106</gpxtpx:hr></gpxtpx:TrackPointExtension></extensions>
      </trkpt>
      <trkpt lat="56.44523667" lon="12.7369">
        <ele>129.999</ele>
        <time>1970-01-01T01:00:00Z</time>
        <extensions><gpxtpx:TrackPointExtension><gpxtpx:hr>106</gpxtpx:hr></gpxtpx:TrackPointExtension></extensions>
      </trkpt>
      <trkpt lat="56.44523" lon="12.73691667">
        <ele>129.999</ele>
        <time>1970-01-01T01:00:00Z</time>
        <extensions><gpxtpx:TrackPointExtension><gpxtpx:hr>106</gpxtpx:hr></gpxtpx:TrackPointExtension></extensions>
      </trkpt>
      <trkpt lat="56.44522333" lon="12.73693667">
        <ele>129.999</ele>
        <time>1970-01-01T01:00:00Z</time>
        <extensions><gpxtpx:TrackPointExtension><gpxtpx:hr>106</gpxtpx:hr></gpxtpx:TrackPointExtension></extensions>
      </trkpt>
      <trkpt lat="56.44521667" lon="12.73695667">
        <ele>129.846</ele>
        <time>1970-01-01T01:00:00Z</time>
        <extensions><gpxtpx:TrackPointExtension><gpxtpx:hr>106</gpxtpx:hr></gpxtpx:TrackPointExtension></extensions>
      </trkpt>
      <trkpt lat="56.44521167" lon="12.73697833">
        <ele>129.846</ele>
        <time>1970-01-01T01:00:00Z</time>
        <extensions><gpxtpx:TrackPointExtension><gpxtpx:hr>106</gpxtpx:hr></gpxtpx:TrackPointExtension></extensions>
      </trkpt>
      <trkpt lat="56.44520667" lon="12.73700333">
        <ele>129.846</ele>
        <time>1970-01-01T01:00:00Z</time>
        <extensions><gpxtpx:TrackPointExtension><gpxtpx:hr>107</gpxtpx:hr></gpxtpx:TrackPointExtension></extensions>
      </trkpt>
      <trkpt lat="56.44520167" lon="12.73703167">
        <ele>129.846</ele>
        <time>1970-01-01T01:00:00Z</time>
        <extensions><gpxtpx:TrackPointExtension><gpxtpx:hr>109</gpxtpx:hr></gpxtpx:TrackPointExtension></extensions>
      </trkpt>
      <trkpt lat="56.445195" lon="12.73705833">
        <ele>129.846</ele>
        <time>1970-01-01T01:00:00Z</time>
        <extensions><gpxtpx:TrackPointExtension><gpxtpx:hr>109</gpxtpx:hr></gpxtpx:TrackPointExtension></extensions>
      </trkpt>
      <trkpt lat="56.445185" lon="12.73708333">
        <ele>129.846</ele>
        <time>1970-01-01T01:00:00Z</time>
        <extensions><gpxtpx:TrackPointExtension><gpxtpx:hr>109</gpxtpx:hr></gpxtpx:TrackPointExtension></extensions>
      </trkpt>
      <trkpt lat="56.44517333" lon="12.73710167">
        <ele>129.694</ele>
        <time>1970-01-01T01:00:00Z</time>
        <extensions><gpxtpx:TrackPointExtension><gpxtpx:hr>110</gpxtpx:hr></gpxtpx:TrackPointExtension></extensions>
      </trkpt>
      <trkpt lat="56.44515833" lon="12.737115">
        <ele>129.694</ele>
        <time>1970-01-01T01:00:00Z</time>
        <extensions><gpxtpx:TrackPointExtension><gpxtpx:hr>110</gpxtpx:hr></gpxtpx:TrackPointExtension></extensions>
      </trkpt>
      <trkpt lat="56.44514" lon="12.73712833">
        <ele>129.694</ele>
        <time>1970-01-01T01:00:00Z</time>
        <extensions><gpxtpx:TrackPointExtension><gpxtpx:hr>111</gpxtpx:hr></gpxtpx:TrackPointExtension></extensions>
      </trkpt>
      <trkpt lat="56.445125" lon="12.73714333">
        <ele>129.694</ele>
        <time>1970-01-01T01:00:00Z</time>
        <extensions><gpxtpx:TrackPointExtension><gpxtpx:hr>111</gpxtpx:hr></gpxtpx:TrackPointExtension></extensions>
      </trkpt>
      <trkpt lat="56.44510833" lon="12.73715667">
        <ele>129.694</ele>
        <time>1970-01-01T01:00:00Z</time>
        <extensions><gpxtpx:TrackPointExtension><gpxtpx:hr>111</gpxtpx:hr></gpxtpx:TrackPointExtension></extensions>
      </trkpt>
      <trkpt lat="56.44509" lon="12.73716333">
        <ele>129.846</ele>
        <time>1970-01-01T01:00:00Z</time>
        <extensions><gpxtpx:TrackPointExtension><gpxtpx:hr>112</gpxtpx:hr></gpxtpx:TrackPointExtension></extensions>
      </trkpt>
      <trkpt lat="56.44507167" lon="12.737165">
        <ele>129.846</ele>
        <time>1970-01-01T01:00:00Z</time>
        <extensions><gpxtpx:TrackPointExtension><gpxtpx:hr>112</gpxtpx:hr></gpxtpx:TrackPointExtension></extensions>
      </trkpt>
      <trkpt lat="56.445055" lon="12.73716167">
        <ele>129.846</ele>
        <time>1970-01-01T01:00:00Z</time>
        <extensions><gpxtpx:TrackPointExtension><gpxtpx:hr>115</gpxtpx:hr></gpxtpx:TrackPointExtension></extensions>
      </trkpt>
      <trkpt lat="56.44503833" lon="12.73715833">
        <ele>129.846</ele>
        <time>1970-01-01T01:00:00Z</time>
        <extensions><gpxtpx:TrackPointExtension><gpxtpx:hr>116</gpxtpx:hr></gpxtpx:TrackPointExtension></extensions>
      </trkpt>
      <trkpt lat="56.44502167" lon="12.73715333">
        <ele>129.846</ele>
        <time>1970-01-01T01:00:00Z</time>
        <extensions><gpxtpx:TrackPointExtension><gpxtpx:hr>116</gpxtpx:hr></gpxtpx:TrackPointExtension></extensions>
      </trkpt>
      <trkpt lat="56.445005" lon="12.73714833">
        <ele>129.999</ele>
        <time>1970-01-01T01:00:00Z</time>
        <extensions><gpxtpx:TrackPointExtension><gpxtpx:hr>116</gpxtpx:hr></gpxtpx:TrackPointExtension></extensions>
      </trkpt>
      <trkpt lat="56.44498833" lon="12.73714667">
        <ele>129.999</ele>
        <time>1970-01-01T01:00:00Z</time>
        <extensions><gpxtpx:TrackPointExtension><gpxtpx:hr>117</gpxtpx:hr></gpxtpx:TrackPointExtension></extensions>
      </trkpt>
      <trkpt lat="56.44497167" lon="12.737145">
        <ele>129.999</ele>
        <time>1970-01-01T01:00:00Z</time>
        <extensions><gpxtpx:TrackPointExtension><gpxtpx:hr>118</gpxtpx:hr></gpxtpx:TrackPointExtension></extensions>
      </trkpt>
      <trkpt lat="56.44495333" lon="12.73714">
        <ele>129.999</ele>
        <time>1970-01-01T01:00:00Z</time>
        <extensions><gpxtpx:TrackPointExtension><gpxtpx:hr>118</gpxtpx:hr></gpxtpx:TrackPointExtension></extensions>
      </trkpt>
      <trkpt lat="56.44493833" lon="12.73713667">
        <ele>129.999</ele>
        <time>1970-01-01T01:00:00Z</time>
        <extensions><gpxtpx:TrackPointExtension><gpxtpx:hr>118</gpxtpx:hr></gpxtpx:TrackPointExtension></extensions>
      </trkpt>
      <trkpt lat="56.44492167" lon="12.73713333">
        <ele>130.151</ele>
        <time>1970-01-01T01:00:00Z</time>
        <extensions><gpxtpx:TrackPointExtension><gpxtpx:hr>118</gpxtpx:hr></gpxtpx:TrackPointExtension></extensions>
      </trkpt>
      <trkpt lat="56.44490667" lon="12.73713">
        <ele>130.151</ele>
        <time>1970-01-01T01:00:00Z</time>
        <extensions><gpxtpx:TrackPointExtension><gpxtpx:hr>118</gpxtpx:hr></gpxtpx:TrackPointExtension></extensions>
      </trkpt>
      <trkpt lat="56.44489" lon="12.73712833">
        <ele>130.151</ele>
        <time>1970-01-01T01:00:00Z</time>
        <extensions><gpxtpx:TrackPointExtension><gpxtpx:hr>118</gpxtpx:hr></gpxtpx:TrackPointExtension></extensions>
      </trkpt>
      <trkpt lat="56.44487667" lon="12.73712667">
        <ele>130.151</ele>
        <time>1970-01-01T01:00:00Z</time>
        <extensions><gpxtpx:TrackPointExtension><gpxtpx:hr>119</gpxtpx:hr></gpxtpx:TrackPointExtension></extensions>
      </trkpt>
      <trkpt lat="56.44486333" lon="12.737125">
        <ele>130.151</ele>
        <time>1970-01-01T01:00:00Z</time>
        <extensions><gpxtpx:TrackPointExtension><gpxtpx:hr>119</gpxtpx:hr></gpxtpx:TrackPointExtension></extensions>
      </trkpt>
      <trkpt lat="56.44484667" lon="12.73712167">
        <ele>130.151</ele>
        <time>1970-01-01T01:00:00Z</time>
        <extensions><gpxtpx:TrackPointExtension><gpxtpx:hr>119</gpxtpx:hr></gpxtpx:TrackPointExtension></extensions>
      </trkpt>
      <trkpt lat="56.44483167" lon="12.73711667">
        <ele>130.304</ele>
        <time>1970-01-01T01:00:00Z</time>
        <extensions><gpxtpx:TrackPointExtension><gpxtpx:hr>119</gpxtpx:hr></gpxtpx:TrackPointExtension></extensions>
      </trkpt>
      <trkpt lat="56.44481667" lon="12.73711167">
        <ele>130.304</ele>
        <time>1970-01-01T01:00:00Z</time>
        <extensions><gpxtpx:TrackPointExtension><gpxtpx:hr>119</gpxtpx:hr></gpxtpx:TrackPointExtension></extensions>
      </trkpt>
      <trkpt lat="56.44480333" lon="12.73710667">
        <ele>130.304</ele>
        <time>1970-01-01T01:00:00Z</time>
        <extensions><gpxtpx:TrackPointExtension><gpxtpx:hr>119</gpxtpx:hr></gpxtpx:TrackPointExtension></extensions>
      </trkpt>
      <trkpt lat="56.44478833" lon="12.737105">
        <ele>130.304</ele>
        <time>1970-01-01T01:00:00Z</time>
        <extensions><gpxtpx:TrackPointExtension><gpxtpx:hr>119</gpxtpx:hr></gpxtpx:TrackPointExtension></extensions>
      </trkpt>
      <trkpt lat="56.444775" lon="12.73710333">
        <ele>130.151</ele>
        <time>1970-01-01T01:00:00Z</time>
        <extensions><gpxtpx:TrackPointExtension><gpxtpx:hr>119</gpxtpx:hr></gpxtpx:TrackPointExtension></extensions>
      </trkpt>
      <trkpt lat="56.44476167" lon="12.73710167">
        <ele>130.151</ele>
        <time>1970-01-01T01:00:00Z</time>
        <extensions><gpxtpx:TrackPointExtension><gpxtpx:hr>119</gpxtpx:hr></gpxtpx:TrackPointExtension></extensions>
      </trkpt>
      <trkpt lat="56.44474667" lon="12.73709833">
        <ele>130.151</ele>
        <time>1970-01-01T01:00:00Z</time>
        <extensions><gpxtpx:TrackPointExtension><gpxtpx:hr>120</gpxtpx:hr></gpxtpx:TrackPointExtension></extensions>
      </trkpt>
      <trkpt lat="56.44473333" lon="12.73709667">
        <ele>130.151</ele>
        <time>1970-01-01T01:00:00Z</time>
        <extensions><gpxtpx:TrackPointExtension><gpxtpx:hr>120</gpxtpx:hr></gpxtpx:TrackPointExtension></extensions>
      </trkpt>
      <trkpt lat="56.44472" lon="12.737095">
        <ele>129.999</ele>
        <time>1970-01-01T01:00:00Z</time>
        <extensions><gpxtpx:TrackPointExtension><gpxtpx:hr>120</gpxtpx:hr></gpxtpx:TrackPointExtension></extensions>
      </trkpt>
      <trkpt lat="56.444705" lon="12.73708833">
        <ele>129.999</ele>
        <time>1970-01-01T01:00:00Z</time>
        <extensions><gpxtpx:TrackPointExtension><gpxtpx:hr>120</gpxtpx:hr></gpxtpx:TrackPointExtension></extensions>
      </trkpt>
      <trkpt lat="56.44469" lon="12.737085">
        <ele>129.999</ele>
        <time>1970-01-01T01:00:00Z</time>
        <extensions><gpxtpx:TrackPointExtension><gpxtpx:hr>120</gpxtpx:hr></gpxtpx:TrackPointExtension></extensions>
      </trkpt>
      <trkpt lat="56.44467667" lon="12.73708">
        <ele>129.846</ele>
        <time>1970-01-01T01:00:00Z</time>
        <extensions><gpxtpx:TrackPointExtension><gpxtpx:hr>121</gpxtpx:hr></gpxtpx:TrackPointExtension></extensions>
      </trkpt>
      <trkpt lat="56.44466167" lon="12.73707667">
        <ele>129.846</ele>
        <time>1970-01-01T01:00:00Z</time>
        <extensions><gpxtpx:TrackPointExtension><gpxtpx:hr>121</gpxtpx:hr></gpxtpx:TrackPointExtension></extensions>
      </trkpt>
      <trkpt lat="56.44464667" lon="12.73707">
        <ele>129.694</ele>
        <time>1970-01-01T01:00:00Z</time>
        <extensions><gpxtpx:TrackPointExtension><gpxtpx:hr>121</gpxtpx:hr></gpxtpx:TrackPointExtension></extensions>
      </trkpt>
      <trkpt lat="56.44463333" lon="12.737065">
        <ele>129.694</ele>
        <time>1970-01-01T01:00:00Z</time>
        <extensions><gpxtpx:TrackPointExtension><gpxtpx:hr>121</gpxtpx:hr></gpxtpx:TrackPointExtension></extensions>
      </trkpt>
      <trkpt lat="56.44462" lon="12.73706">
        <ele>129.694</ele>
        <time>1970-01-01T01:00:00Z</time>
        <extensions><gpxtpx:TrackPointExtension><gpxtpx:hr>121</gpxtpx:hr></gpxtpx:TrackPointExtension></extensions>
      </trkpt>
      <trkpt lat="56.44460833" lon="12.737055">
        <ele>129.542</ele>
        <time>1970-01-01T01:00:00Z</time>
        <extensions><gpxtpx:TrackPointExtension><gpxtpx:hr>121</gpxtpx:hr></gpxtpx:TrackPointExtension></extensions>
      </trkpt>
      <trkpt lat="56.44459333" lon="12.73704833">
        <ele>129.542</ele>
        <time>1970-01-01T01:00:00Z</time>
        <extensions><gpxtpx:TrackPointExtension><gpxtpx:hr>121</gpxtpx:hr></gpxtpx:TrackPointExtension></extensions>
      </trkpt>
      <trkpt lat="56.44457667" lon="12.73704167">
        <ele>129.542</ele>
        <time>1970-01-01T01:00:00Z</time>
        <extensions><gpxtpx:TrackPointExtension><gpxtpx:hr>121</gpxtpx:hr></gpxtpx:TrackPointExtension></extensions>
      </trkpt>
      <trkpt lat="56.44456" lon="12.737035">
        <ele>129.389</ele>
        <time>1970-01-01T01:00:00Z</time>
        <extensions><gpxtpx:TrackPointExtension><gpxtpx:hr>120</gpxtpx:hr></gpxtpx:TrackPointExtension></extensions>
      </trkpt>
      <trkpt lat="56.444545" lon="12.73702833">
        <ele>129.389</ele>
        <time>1970-01-01T01:00:00Z</time>
        <extensions><gpxtpx:TrackPointExtension><gpxtpx:hr>120</gpxtpx:hr></gpxtpx:TrackPointExtension></extensions>
      </trkpt>
      <trkpt lat="56.44453167" lon="12.73701833">
        <ele>129.389</ele>
        <time>1970-01-01T01:00:00Z</time>
        <extensions><gpxtpx:TrackPointExtension><gpxtpx:hr>120</gpxtpx:hr></gpxtpx:TrackPointExtension></extensions>
      </trkpt>
      <trkpt lat="56.44451667" lon="12.73701167">
        <ele>129.389</ele>
        <time>1970-01-01T01:00:00Z</time>
        <extensions><gpxtpx:TrackPointExtension><gpxtpx:hr>120</gpxtpx:hr></gpxtpx:TrackPointExtension></extensions>
      </trkpt>
      <trkpt lat="56.4445" lon="12.73700833">
        <ele>129.237</ele>
        <time>1970-01-01T01:00:00Z</time>
        <extensions><gpxtpx:TrackPointExtension><gpxtpx:hr>120</gpxtpx:hr></gpxtpx:TrackPointExtension></extensions>
      </trkpt>
      <trkpt lat="56.44448833" lon="12.73700333">
        <ele>129.237</ele>
        <time>1970-01-01T01:00:00Z</time>
        <extensions><gpxtpx:TrackPointExtension><gpxtpx:hr>120</gpxtpx:hr></gpxtpx:TrackPointExtension></extensions>
      </trkpt>
      <trkpt lat="56.44447333" lon="12.73699833">
        <ele>129.237</ele>
        <time>1970-01-01T01:00:00Z</time>
        <extensions><gpxtpx:TrackPointExtension><gpxtpx:hr>121</gpxtpx:hr></gpxtpx:TrackPointExtension></extensions>
      </trkpt>
      <trkpt lat="56.44446" lon="12.73699333">
        <ele>129.237</ele>
        <time>1970-01-01T01:00:00Z</time>
        <extensions><gpxtpx:TrackPointExtension><gpxtpx:hr>121</gpxtpx:hr></gpxtpx:TrackPointExtension></extensions>
      </trkpt>
      <trkpt lat="56.44444667" lon="12.73699167">
        <ele>129.237</ele>
        <time>1970-01-01T01:00:00Z</time>
        <extensions><gpxtpx:TrackPointExtension><gpxtpx:hr>121</gpxtpx:hr></gpxtpx:TrackPointExtension></extensions>
      </trkpt>
      <trkpt lat="56.44443333" lon="12.73698667">
        <ele>129.237</ele>
        <time>1970-01-01T01:00:00Z</time>
        <extensions><gpxtpx:TrackPointExtension><gpxtpx:hr>121</gpxtpx:hr></gpxtpx:TrackPointExtension></extensions>
      </trkpt>
      <trkpt lat="56.44442" lon="12.73698167">
        <ele>129.084</ele>
        <time>1970-01-01T01:00:00Z</time>
        <extensions><gpxtpx:TrackPointExtension><gpxtpx:hr>121</gpxtpx:hr></gpxtpx:TrackPointExtension></extensions>
      </trkpt>
      <trkpt lat="56.44440667" lon="12.73697833">
        <ele>129.084</ele>
        <time>1970-01-01T01:00:00Z</time>
        <extensions><gpxtpx:TrackPointExtension><gpxtpx:hr>121</gpxtpx:hr></gpxtpx:TrackPointExtension></extensions>
      </trkpt>
      <trkpt lat="56.44439167" lon="12.73697667">
        <ele>129.084</ele>
        <time>1970-01-01T01:00:00Z</time>
        <extensions><gpxtpx:TrackPointExtension><gpxtpx:hr>122</gpxtpx:hr></gpxtpx:TrackPointExtension></extensions>
      </trkpt>
      <trkpt lat="56.44437667" lon="12.73697167">
        <ele>129.084</ele>
        <time>1970-01-01T01:00:00Z</time>
        <extensions><gpxtpx:TrackPointExtension><gpxtpx:hr>122</gpxtpx:hr></gpxtpx:TrackPointExtension></extensions>
      </trkpt>
      <trkpt lat="56.44436167" lon="12.73697">
        <ele>129.084</ele>
        <time>1970-01-01T01:00:00Z</time>
        <extensions><gpxtpx:TrackPointExtension><gpxtpx:hr>122</gpxtpx:hr></gpxtpx:TrackPointExtension></extensions>
      </trkpt>
      <trkpt lat="56.44434667" lon="12.736965">
        <ele>128.932</ele>
        <time>1970-01-01T01:00:00Z</time>
        <extensions><gpxtpx:TrackPointExtension><gpxtpx:hr>122</gpxtpx:hr></gpxtpx:TrackPointExtension></extensions>
      </trkpt>
      <trkpt lat="56.44433167" lon="12.73695667">
        <ele>128.932</ele>
        <time>1970-01-01T01:00:00Z</time>
        <extensions><gpxtpx:TrackPointExtension><gpxtpx:hr>122</gpxtpx:hr></gpxtpx:TrackPointExtension></extensions>
      </trkpt>
      <trkpt lat="56.44431667" lon="12.73695333">
        <ele>128.932</ele>
        <time>1970-01-01T01:00:00Z</time>
        <extensions><gpxtpx:TrackPointExtension><gpxtpx:hr>122</gpxtpx:hr></gpxtpx:TrackPointExtension></extensions>
      </trkpt>
      <trkpt lat="56.44430167" lon="12.73695">
        <ele>128.78</ele>
        <time>1970-01-01T01:00:00Z</time>
        <extensions><gpxtpx:TrackPointExtension><gpxtpx:hr>122</gpxtpx:hr></gpxtpx:TrackPointExtension></extensions>
      </trkpt>
      <trkpt lat="56.44429" lon="12.73694667">
        <ele>128.78</ele>
        <time>1970-01-01T01:00:00Z</time>
        <extensions><gpxtpx:TrackPointExtension><gpxtpx:hr>122</gpxtpx:hr></gpxtpx:TrackPointExtension></extensions>
      </trkpt>
      <trkpt lat="56.44427667" lon="12.73694167">
        <ele>128.627</ele>
        <time>1970-01-01T01:00:00Z</time>
        <extensions><gpxtpx:TrackPointExtension><gpxtpx:hr>122</gpxtpx:hr></gpxtpx:TrackPointExtension></extensions>
      </trkpt>
      <trkpt lat="56.444265" lon="12.73693667">
        <ele>128.627</ele>
        <time>1970-01-01T01:00:00Z</time>
        <extensions><gpxtpx:TrackPointExtension><gpxtpx:hr>122</gpxtpx:hr></gpxtpx:TrackPointExtension></extensions>
      </trkpt>
      <trkpt lat="56.44425167" lon="12.73693167">
        <ele>128.475</ele>
        <time>1970-01-01T01:00:00Z</time>
        <extensions><gpxtpx:TrackPointExtension><gpxtpx:hr>120</gpxtpx:hr></gpxtpx:TrackPointExtension></extensions>
      </trkpt>
      <trkpt lat="56.44424" lon="12.736925">
        <ele>128.475</ele>
        <time>1970-01-01T01:00:00Z</time>
        <extensions><gpxtpx:TrackPointExtension><gpxtpx:hr>119</gpxtpx:hr></gpxtpx:TrackPointExtension></extensions>
      </trkpt>
      <trkpt lat="56.44422167" lon="12.736915">
        <ele>128.475</ele>
        <time>1970-01-01T01:00:00Z</time>
        <extensions><gpxtpx:TrackPointExtension><gpxtpx:hr>119</gpxtpx:hr></gpxtpx:TrackPointExtension></extensions>
      </trkpt>
      <trkpt lat="56.44421" lon="12.73690833">
        <ele>128.322</ele>
        <time>1970-01-01T01:00:00Z</time>
        <extensions><gpxtpx:TrackPointExtension><gpxtpx:hr>118</gpxtpx:hr></gpxtpx:TrackPointExtension></extensions>
      </trkpt>
      <trkpt lat="56.444195" lon="12.73690167">
        <ele>128.322</ele>
        <time>1970-01-01T01:00:00Z</time>
        <extensions><gpxtpx:TrackPointExtension><gpxtpx:hr>117</gpxtpx:hr></gpxtpx:TrackPointExtension></extensions>
      </trkpt>
      <trkpt lat="56.44417667" lon="12.73689333">
        <ele>128.322</ele>
        <time>1970-01-01T01:00:00Z</time>
        <extensions><gpxtpx:TrackPointExtension><gpxtpx:hr>115</gpxtpx:hr></gpxtpx:TrackPointExtension></extensions>
      </trkpt>
      <trkpt lat="56.44416333" lon="12.73688833">
        <ele>128.17</ele>
        <time>1970-01-01T01:00:00Z</time>
        <extensions><gpxtpx:TrackPointExtension><gpxtpx:hr>114</gpxtpx:hr></gpxtpx:TrackPointExtension></extensions>
      </trkpt>
      <trkpt lat="56.44415" lon="12.73687833">
        <ele>128.17</ele>
        <time>1970-01-01T01:00:00Z</time>
        <extensions><gpxtpx:TrackPointExtension><gpxtpx:hr>114</gpxtpx:hr></gpxtpx:TrackPointExtension></extensions>
      </trkpt>
      <trkpt lat="56.44413833" lon="12.73687333">
        <ele>128.17</ele>
        <time>1970-01-01T01:00:00Z</time>
        <extensions><gpxtpx:TrackPointExtension><gpxtpx:hr>113</gpxtpx:hr></gpxtpx:TrackPointExtension></extensions>
      </trkpt>
      <trkpt lat="56.44412333" lon="12.73686833">
        <ele>128.17</ele>
        <time>1970-01-01T01:00:00Z</time>
        <extensions><gpxtpx:TrackPointExtension><gpxtpx:hr>113</gpxtpx:hr></gpxtpx:TrackPointExtension></extensions>
      </trkpt>
      <trkpt lat="56.44411" lon="12.73686333">
        <ele>128.17</ele>
        <time>1970-01-01T01:00:00Z</time>
        <extensions><gpxtpx:TrackPointExtension><gpxtpx:hr>112</gpxtpx:hr></gpxtpx:TrackPointExtension></extensions>
      </trkpt>
      <trkpt lat="56.44409667" lon="12.73685833">
        <ele>128.17</ele>
        <time>1970-01-01T01:00:00Z</time>
        <extensions><gpxtpx:TrackPointExtension><gpxtpx:hr>111</gpxtpx:hr></gpxtpx:TrackPointExtension></extensions>
      </trkpt>
      <trkpt lat="56.44408167" lon="12.73685167">
        <ele>128.018</ele>
        <time>1970-01-01T01:00:00Z</time>
        <extensions><gpxtpx:TrackPointExtension><gpxtpx:hr>111</gpxtpx:hr></gpxtpx:TrackPointExtension></extensions>
      </trkpt>
      <trkpt lat="56.44406667" lon="12.736845">
        <ele>128.018</ele>
        <time>1970-01-01T01:00:00Z</time>
        <extensions><gpxtpx:TrackPointExtension><gpxtpx:hr>111</gpxtpx:hr></gpxtpx:TrackPointExtension></extensions>
      </trkpt>
      <trkpt lat="56.44405167" lon="12.73683833">
        <ele>128.018</ele>
        <time>1970-01-01T01:00:00Z</time>
        <extensions><gpxtpx:TrackPointExtension><gpxtpx:hr>110</gpxtpx:hr></gpxtpx:TrackPointExtension></extensions>
      </trkpt>
      <trkpt lat="56.444035" lon="12.736835">
        <ele>128.018</ele>
        <time>1970-01-01T01:00:00Z</time>
        <extensions><gpxtpx:TrackPointExtension><gpxtpx:hr>110</gpxtpx:hr></gpxtpx:TrackPointExtension></extensions>
      </trkpt>
      <trkpt lat="56.44402" lon="12.73683167">
        <ele>128.018</ele>
        <time>1970-01-01T01:00:00Z</time>
        <extensions><gpxtpx:TrackPointExtension><gpxtpx:hr>109</gpxtpx:hr></gpxtpx:TrackPointExtension></extensions>
      </trkpt>
      <trkpt lat="56.44400333" lon="12.736825">
        <ele>127.865</ele>
        <time>1970-01-01T01:00:00Z</time>
        <extensions><gpxtpx:TrackPointExtension><gpxtpx:hr>109</gpxtpx:hr></gpxtpx:TrackPointExtension></extensions>
      </trkpt>
      <trkpt lat="56.44398833" lon="12.73681667">
        <ele>127.865</ele>
        <time>1970-01-01T01:00:00Z</time>
        <extensions><gpxtpx:TrackPointExtension><gpxtpx:hr>109</gpxtpx:hr></gpxtpx:TrackPointExtension></extensions>
      </trkpt>
      <trkpt lat="56.44397167" lon="12.73680667">
        <ele>127.865</ele>
        <time>1970-01-01T01:00:00Z</time>
        <extensions><gpxtpx:TrackPointExtension><gpxtpx:hr>109</gpxtpx:hr></gpxtpx:TrackPointExtension></extensions>
      </trkpt>
      <trkpt lat="56.44395667" lon="12.7368">
        <ele>127.865</ele>
        <time>1970-01-01T01:00:00Z</time>
        <extensions><gpxtpx:TrackPointExtension><gpxtpx:hr>109</gpxtpx:hr></gpxtpx:TrackPointExtension></extensions>
      </trkpt>
      <trkpt lat="56.44394" lon="12.736795">
        <ele>127.865</ele>
        <time>1970-01-01T01:00:00Z</time>
        <extensions><gpxtpx:TrackPointExtension><gpxtpx:hr>109</gpxtpx:hr></gpxtpx:TrackPointExtension></extensions>
      </trkpt>
      <trkpt lat="56.443925" lon="12.73679">
        <ele>127.865</ele>
        <time>1970-01-01T01:00:00Z</time>
        <extensions><gpxtpx:TrackPointExtension><gpxtpx:hr>109</gpxtpx:hr></gpxtpx:TrackPointExtension></extensions>
      </trkpt>
      <trkpt lat="56.44391333" lon="12.73678667">
        <ele>127.713</ele>
        <time>1970-01-01T01:00:00Z</time>
        <extensions><gpxtpx:TrackPointExtension><gpxtpx:hr>109</gpxtpx:hr></gpxtpx:TrackPointExtension></extensions>
      </trkpt>
      <trkpt lat="56.4439" lon="12.736785">
        <ele>127.713</ele>
        <time>1970-01-01T01:00:00Z</time>
        <extensions><gpxtpx:TrackPointExtension><gpxtpx:hr>109</gpxtpx:hr></gpxtpx:TrackPointExtension></extensions>
      </trkpt>
      <trkpt lat="56.44388667" lon="12.73678167">
        <ele>127.713</ele>
        <time>1970-01-01T01:00:00Z</time>
        <extensions><gpxtpx:TrackPointExtension><gpxtpx:hr>111</gpxtpx:hr></gpxtpx:TrackPointExtension></extensions>
      </trkpt>
      <trkpt lat="56.44387333" lon="12.73677833">
        <ele>127.713</ele>
        <time>1970-01-01T01:00:00Z</time>
        <extensions><gpxtpx:TrackPointExtension><gpxtpx:hr>111</gpxtpx:hr></gpxtpx:TrackPointExtension></extensions>
      </trkpt>
      <trkpt lat="56.44386167" lon="12.73677333">
        <ele>127.56</ele>
        <time>1970-01-01T01:00:00Z</time>
        <extensions><gpxtpx:TrackPointExtension><gpxtpx:hr>111</gpxtpx:hr></gpxtpx:TrackPointExtension></extensions>
      </trkpt>
      <trkpt lat="56.44384667" lon="12.73676667">
        <ele>127.56</ele>
        <time>1970-01-01T01:00:00Z</time>
        <extensions><gpxtpx:TrackPointExtension><gpxtpx:hr>112</gpxtpx:hr></gpxtpx:TrackPointExtension></extensions>
      </trkpt>
      <trkpt lat="56.44383333" lon="12.736765">
        <ele>127.408</ele>
        <time>1970-01-01T01:00:00Z</time>
        <extensions><gpxtpx:TrackPointExtension><gpxtpx:hr>112</gpxtpx:hr></gpxtpx:TrackPointExtension></extensions>
      </trkpt>
      <trkpt lat="56.44382167" lon="12.73676167">
        <ele>127.408</ele>
        <time>1970-01-01T01:00:00Z</time>
        <extensions><gpxtpx:TrackPointExtension><gpxtpx:hr>114</gpxtpx:hr></gpxtpx:TrackPointExtension></extensions>
      </trkpt>
      <trkpt lat="56.44380833" lon="12.73675833">
        <ele>127.256</ele>
        <time>1970-01-01T01:00:00Z</time>
        <extensions><gpxtpx:TrackPointExtension><gpxtpx:hr>114</gpxtpx:hr></gpxtpx:TrackPointExtension></extensions>
      </trkpt>
      <trkpt lat="56.44379333" lon="12.73675333">
        <ele>127.256</ele>
        <time>1970-01-01T01:00:00Z</time>
        <extensions><gpxtpx:TrackPointExtension><gpxtpx:hr>114</gpxtpx:hr></gpxtpx:TrackPointExtension></extensions>
      </trkpt>
      <trkpt lat="56.44378" lon="12.73674667">
        <ele>127.103</ele>
        <time>1970-01-01T01:00:00Z</time>
        <extensions><gpxtpx:TrackPointExtension><gpxtpx:hr>114</gpxtpx:hr></gpxtpx:TrackPointExtension></extensions>
      </trkpt>
      <trkpt lat="56.44376667" lon="12.73674">
        <ele>126.951</ele>
        <time>1970-01-01T01:00:00Z</time>
        <extensions><gpxtpx:TrackPointExtension><gpxtpx:hr>115</gpxtpx:hr></gpxtpx:TrackPointExtension></extensions>
      </trkpt>
      <trkpt lat="56.443755" lon="12.73673">
        <ele>126.951</ele>
        <time>1970-01-01T01:00:00Z</time>
        <extensions><gpxtpx:TrackPointExtension><gpxtpx:hr>115</gpxtpx:hr></gpxtpx:TrackPointExtension></extensions>
      </trkpt>
      <trkpt lat="56.44374167" lon="12.736725">
        <ele>126.798</ele>
        <time>1970-01-01T01:00:00Z</time>
        <extensions><gpxtpx:TrackPointExtension><gpxtpx:hr>116</gpxtpx:hr></gpxtpx:TrackPointExtension></extensions>
      </trkpt>
      <trkpt lat="56.443725" lon="12.73671833">
        <ele>126.646</ele>
        <time>1970-01-01T01:00:00Z</time>
        <extensions><gpxtpx:TrackPointExtension><gpxtpx:hr>116</gpxtpx:hr></gpxtpx:TrackPointExtension></extensions>
      </trkpt>
      <trkpt lat="56.44371" lon="12.73671167">
        <ele>126.646</ele>
        <time>1970-01-01T01:00:00Z</time>
        <extensions><gpxtpx:TrackPointExtension><gpxtpx:hr>116</gpxtpx:hr></gpxtpx:TrackPointExtension></extensions>
      </trkpt>
      <trkpt lat="56.443695" lon="12.736705">
        <ele>126.494</ele>
        <time>1970-01-01T01:00:00Z</time>
        <extensions><gpxtpx:TrackPointExtension><gpxtpx:hr>116</gpxtpx:hr></gpxtpx:TrackPointExtension></extensions>
      </trkpt>
      <trkpt lat="56.44368333" lon="12.736695">
        <ele>126.341</ele>
        <time>1970-01-01T01:00:00Z</time>
        <extensions><gpxtpx:TrackPointExtension><gpxtpx:hr>118</gpxtpx:hr></gpxtpx:TrackPointExtension></extensions>
      </trkpt>
      <trkpt lat="56.44366833" lon="12.736685">
        <ele>126.341</ele>
        <time>1970-01-01T01:00:00Z</time>
        <extensions><gpxtpx:TrackPointExtension><gpxtpx:hr>119</gpxtpx:hr></gpxtpx:TrackPointExtension></extensions>
      </trkpt>
      <trkpt lat="56.443655" lon="12.73667833">
        <ele>126.189</ele>
        <time>1970-01-01T01:00:00Z</time>
        <extensions><gpxtpx:TrackPointExtension><gpxtpx:hr>119</gpxtpx:hr></gpxtpx:TrackPointExtension></extensions>
      </trkpt>
      <trkpt lat="56.44364" lon="12.73667">
        <ele>126.036</ele>
        <time>1970-01-01T01:00:00Z</time>
        <extensions><gpxtpx:TrackPointExtension><gpxtpx:hr>120</gpxtpx:hr></gpxtpx:TrackPointExtension></extensions>
      </trkpt>
      <trkpt lat="56.443625" lon="12.73666167">
        <ele>126.036</ele>
        <time>1970-01-01T01:00:00Z</time>
        <extensions><gpxtpx:TrackPointExtension><gpxtpx:hr>121</gpxtpx:hr></gpxtpx:TrackPointExtension></extensions>
      </trkpt>
      <trkpt lat="56.44361" lon="12.736655">
        <ele>125.884</ele>
        <time>1970-01-01T01:00:00Z</time>
        <extensions><gpxtpx:TrackPointExtension><gpxtpx:hr>122</gpxtpx:hr></gpxtpx:TrackPointExtension></extensions>
      </trkpt>
      <trkpt lat="56.44359667" lon="12.73664833">
        <ele>125.884</ele>
        <time>1970-01-01T01:00:00Z</time>
        <extensions><gpxtpx:TrackPointExtension><gpxtpx:hr>122</gpxtpx:hr></gpxtpx:TrackPointExtension></extensions>
      </trkpt>
      <trkpt lat="56.44358" lon="12.73664">
        <ele>125.732</ele>
        <time>1970-01-01T01:00:00Z</time>
        <extensions><gpxtpx:TrackPointExtension><gpxtpx:hr>122</gpxtpx:hr></gpxtpx:TrackPointExtension></extensions>
      </trkpt>
      <trkpt lat="56.44356667" lon="12.736635">
        <ele>125.732</ele>
        <time>1970-01-01T01:00:00Z</time>
        <extensions><gpxtpx:TrackPointExtension><gpxtpx:hr>122</gpxtpx:hr></gpxtpx:TrackPointExtension></extensions>
      </trkpt>
      <trkpt lat="56.44355333" lon="12.73662833">
        <ele>125.579</ele>
        <time>1970-01-01T01:00:00Z</time>
        <extensions><gpxtpx:TrackPointExtension><gpxtpx:hr>122</gpxtpx:hr></gpxtpx:TrackPointExtension></extensions>
      </trkpt>
      <trkpt lat="56.44353833" lon="12.73662333">
        <ele>125.427</ele>
        <time>1970-01-01T01:00:00Z</time>
        <extensions><gpxtpx:TrackPointExtension><gpxtpx:hr>122</gpxtpx:hr></gpxtpx:TrackPointExtension></extensions>
      </trkpt>
      <trkpt lat="56.443525" lon="12.73661833">
        <ele>125.427</ele>
        <time>1970-01-01T01:00:00Z</time>
        <extensions><gpxtpx:TrackPointExtension><gpxtpx:hr>123</gpxtpx:hr></gpxtpx:TrackPointExtension></extensions>
      </trkpt>
      <trkpt lat="56.44351333" lon="12.73661333">
        <ele>125.274</ele>
        <time>1970-01-01T01:00:00Z</time>
        <extensions><gpxtpx:TrackPointExtension><gpxtpx:hr>123</gpxtpx:hr></gpxtpx:TrackPointExtension></extensions>
      </trkpt>
      <trkpt lat="56.44350167" lon="12.73660833">
        <ele>125.274</ele>
        <time>1970-01-01T01:00:00Z</time>
        <extensions><gpxtpx:TrackPointExtension><gpxtpx:hr>123</gpxtpx:hr></gpxtpx:TrackPointExtension></extensions>
      </trkpt>
      <trkpt lat="56.44348833" lon="12.73660333">
        <ele>125.122</ele>
        <time>1970-01-01T01:00:00Z</time>
        <extensions><gpxtpx:TrackPointExtension><gpxtpx:hr>123</gpxtpx:hr></gpxtpx:TrackPointExtension></extensions>
      </trkpt>
      <trkpt lat="56.44347667" lon="12.736595">
        <ele>124.97</ele>
        <time>1970-01-01T01:00:00Z</time>
        <extensions><gpxtpx:TrackPointExtension><gpxtpx:hr>123</gpxtpx:hr></gpxtpx:TrackPointExtension></extensions>
      </trkpt>
      <trkpt lat="56.443465" lon="12.73658667">
        <ele>124.97</ele>
        <time>1970-01-01T01:00:00Z</time>
        <extensions><gpxtpx:TrackPointExtension><gpxtpx:hr>124</gpxtpx:hr></gpxtpx:TrackPointExtension></extensions>
      </trkpt>
      <trkpt lat="56.44345167" lon="12.73658">
        <ele>124.817</ele>
        <time>1970-01-01T01:00:00Z</time>
        <extensions><gpxtpx:TrackPointExtension><gpxtpx:hr>124</gpxtpx:hr></gpxtpx:TrackPointExtension></extensions>
      </trkpt>
      <trkpt lat="56.44344" lon="12.736575">
        <ele>124.817</ele>
        <time>1970-01-01T01:00:00Z</time>
        <extensions><gpxtpx:TrackPointExtension><gpxtpx:hr>124</gpxtpx:hr></gpxtpx:TrackPointExtension></extensions>
      </trkpt>
      <trkpt lat="56.44342833" lon="12.73657">
        <ele>124.665</ele>
        <time>1970-01-01T01:00:00Z</time>
        <extensions><gpxtpx:TrackPointExtension><gpxtpx:hr>124</gpxtpx:hr></gpxtpx:TrackPointExtension></extensions>
      </trkpt>
      <trkpt lat="56.44341167" lon="12.73656167">
        <ele>124.665</ele>
        <time>1970-01-01T01:00:00Z</time>
        <extensions><gpxtpx:TrackPointExtension><gpxtpx:hr>124</gpxtpx:hr></gpxtpx:TrackPointExtension></extensions>
      </trkpt>
      <trkpt lat="56.4434" lon="12.73655667">
        <ele>124.512</ele>
        <time>1970-01-01T01:00:00Z</time>
        <extensions><gpxtpx:TrackPointExtension><gpxtpx:hr>124</gpxtpx:hr></gpxtpx:TrackPointExtension></extensions>
      </trkpt>
      <trkpt lat="56.44338333" lon="12.73655">
        <ele>124.512</ele>
        <time>1970-01-01T01:00:00Z</time>
        <extensions><gpxtpx:TrackPointExtension><gpxtpx:hr>124</gpxtpx:hr></gpxtpx:TrackPointExtension></extensions>
      </trkpt>
      <trkpt lat="56.44336833" lon="12.73654">
        <ele>124.36</ele>
        <time>1970-01-01T01:00:00Z</time>
        <extensions><gpxtpx:TrackPointExtension><gpxtpx:hr>124</gpxtpx:hr></gpxtpx:TrackPointExtension></extensions>
      </trkpt>
      <trkpt lat="56.44335167" lon="12.736535">
        <ele>124.36</ele>
        <time>1970-01-01T01:00:00Z</time>
        <extensions><gpxtpx:TrackPointExtension><gpxtpx:hr>124</gpxtpx:hr></gpxtpx:TrackPointExtension></extensions>
      </trkpt>
      <trkpt lat="56.44333833" lon="12.73653">
        <ele>124.36</ele>
        <time>1970-01-01T01:00:00Z</time>
        <extensions><gpxtpx:TrackPointExtension><gpxtpx:hr>125</gpxtpx:hr></gpxtpx:TrackPointExtension></extensions>
      </trkpt>
      <trkpt lat="56.443325" lon="12.736525">
        <ele>124.208</ele>
        <time>1970-01-01T01:00:00Z</time>
        <extensions><gpxtpx:TrackPointExtension><gpxtpx:hr>124</gpxtpx:hr></gpxtpx:TrackPointExtension></extensions>
      </trkpt>
      <trkpt lat="56.44331167" lon="12.73652167">
        <ele>124.208</ele>
        <time>1970-01-01T01:00:00Z</time>
        <extensions><gpxtpx:TrackPointExtension><gpxtpx:hr>124</gpxtpx:hr></gpxtpx:TrackPointExtension></extensions>
      </trkpt>
      <trkpt lat="56.44330167" lon="12.73651667">
        <ele>124.208</ele>
        <time>1970-01-01T01:00:00Z</time>
        <extensions><gpxtpx:TrackPointExtension><gpxtpx:hr>124</gpxtpx:hr></gpxtpx:TrackPointExtension></extensions>
      </trkpt>
      <trkpt lat="56.44328833" lon="12.73650833">
        <ele>124.208</ele>
        <time>1970-01-01T01:00:00Z</time>
        <extensions><gpxtpx:TrackPointExtension><gpxtpx:hr>124</gpxtpx:hr></gpxtpx:TrackPointExtension></extensions>
      </trkpt>
      <trkpt lat="56.44327333" lon="12.73650167">
        <ele>124.055</ele>
        <time>1970-01-01T01:00:00Z</time>
        <extensions><gpxtpx:TrackPointExtension><gpxtpx:hr>122</gpxtpx:hr></gpxtpx:TrackPointExtension></extensions>
      </trkpt>
      <trkpt lat="56.44326" lon="12.73649833">
        <ele>124.055</ele>
        <time>1970-01-01T01:00:00Z</time>
        <extensions><gpxtpx:TrackPointExtension><gpxtpx:hr>121</gpxtpx:hr></gpxtpx:TrackPointExtension></extensions>
      </trkpt>
      <trkpt lat="56.443245" lon="12.73649167">
        <ele>124.055</ele>
        <time>1970-01-01T01:00:00Z</time>
        <extensions><gpxtpx:TrackPointExtension><gpxtpx:hr>121</gpxtpx:hr></gpxtpx:TrackPointExtension></extensions>
      </trkpt>
      <trkpt lat="56.44323333" lon="12.73648667">
        <ele>124.055</ele>
        <time>1970-01-01T01:00:00Z</time>
        <extensions><gpxtpx:TrackPointExtension><gpxtpx:hr>121</gpxtpx:hr></gpxtpx:TrackPointExtension></extensions>
      </trkpt>
      <trkpt lat="56.44322" lon="12.73647667">
        <ele>124.055</ele>
        <time>1970-01-01T01:00:00Z</time>
        <extensions><gpxtpx:TrackPointExtension><gpxtpx:hr>120</gpxtpx:hr></gpxtpx:TrackPointExtension></extensions>
      </trkpt>
      <trkpt lat="56.44321" lon="12.73647">
        <ele>124.055</ele>
        <time>1970-01-01T01:00:00Z</time>
        <extensions><gpxtpx:TrackPointExtension><gpxtpx:hr>119</gpxtpx:hr></gpxtpx:TrackPointExtension></extensions>
      </trkpt>
      <trkpt lat="56.44319833" lon="12.73646833">
        <ele>124.055</ele>
        <time>1970-01-01T01:00:00Z</time>
        <extensions><gpxtpx:TrackPointExtension><gpxtpx:hr>119</gpxtpx:hr></gpxtpx:TrackPointExtension></extensions>
      </trkpt>
      <trkpt lat="56.443185" lon="12.73646667">
        <ele>124.055</ele>
        <time>1970-01-01T01:00:00Z</time>
        <extensions><gpxtpx:TrackPointExtension><gpxtpx:hr>119</gpxtpx:hr></gpxtpx:TrackPointExtension></extensions>
      </trkpt>
      <trkpt lat="56.44317167" lon="12.73646333">
        <ele>124.055</ele>
        <time>1970-01-01T01:00:00Z</time>
        <extensions><gpxtpx:TrackPointExtension><gpxtpx:hr>119</gpxtpx:hr></gpxtpx:TrackPointExtension></extensions>
      </trkpt>
      <trkpt lat="56.44315833" lon="12.73645667">
        <ele>124.055</ele>
        <time>1970-01-01T01:00:00Z</time>
        <extensions><gpxtpx:TrackPointExtension><gpxtpx:hr>119</gpxtpx:hr></gpxtpx:TrackPointExtension></extensions>
      </trkpt>
      <trkpt lat="56.443145" lon="12.73644833">
        <ele>124.055</ele>
        <time>1970-01-01T01:00:00Z</time>
        <extensions><gpxtpx:TrackPointExtension><gpxtpx:hr>120</gpxtpx:hr></gpxtpx:TrackPointExtension></extensions>
      </trkpt>
      <trkpt lat="56.44313167" lon="12.73644333">
        <ele>124.055</ele>
        <time>1970-01-01T01:00:00Z</time>
        <extensions><gpxtpx:TrackPointExtension><gpxtpx:hr>120</gpxtpx:hr></gpxtpx:TrackPointExtension></extensions>
      </trkpt>
      <trkpt lat="56.44311833" lon="12.73643833">
        <ele>124.055</ele>
        <time>1970-01-01T01:00:00Z</time>
        <extensions><gpxtpx:TrackPointExtension><gpxtpx:hr>121</gpxtpx:hr></gpxtpx:TrackPointExtension></extensions>
      </trkpt>
      <trkpt lat="56.44310667" lon="12.73643333">
        <ele>124.055</ele>
        <time>1970-01-01T01:00:00Z</time>
        <extensions><gpxtpx:TrackPointExtension><gpxtpx:hr>121</gpxtpx:hr></gpxtpx:TrackPointExtension></extensions>
      </trkpt>
      <trkpt lat="56.44309333" lon="12.73642833">
        <ele>124.055</ele>
        <time>1970-01-01T01:00:00Z</time>
        <extensions><gpxtpx:TrackPointExtension><gpxtpx:hr>121</gpxtpx:hr></gpxtpx:TrackPointExtension></extensions>
      </trkpt>
      <trkpt lat="56.44308" lon="12.73642333">
        <ele>124.055</ele>
        <time>1970-01-01T01:00:00Z</time>
        <extensions><gpxtpx:TrackPointExtension><gpxtpx:hr>122</gpxtpx:hr></gpxtpx:TrackPointExtension></extensions>
      </trkpt>
      <trkpt lat="56.443065" lon="12.73641667">
        <ele>123.903</ele>
        <time>1970-01-01T01:00:00Z</time>
        <extensions><gpxtpx:TrackPointExtension><gpxtpx:hr>122</gpxtpx:hr></gpxtpx:TrackPointExtension></extensions>
      </trkpt>
      <trkpt lat="56.44304667" lon="12.73641167">
        <ele>123.903</ele>
        <time>1970-01-01T01:00:00Z</time>
        <extensions><gpxtpx:TrackPointExtension><gpxtpx:hr>121</gpxtpx:hr></gpxtpx:TrackPointExtension></extensions>
      </trkpt>
      <trkpt lat="56.44303" lon="12.73640833">
        <ele>123.903</ele>
        <time>1970-01-01T01:00:00Z</time>
        <extensions><gpxtpx:TrackPointExtension><gpxtpx:hr>121</gpxtpx:hr></gpxtpx:TrackPointExtension></extensions>
      </trkpt>
      <trkpt lat="56.44301333" lon="12.73640333">
        <ele>123.903</ele>
        <time>1970-01-01T01:00:00Z</time>
        <extensions><gpxtpx:TrackPointExtension><gpxtpx:hr>120</gpxtpx:hr></gpxtpx:TrackPointExtension></extensions>
      </trkpt>
      <trkpt lat="56.44299833" lon="12.736395">
        <ele>123.903</ele>
        <time>1970-01-01T01:00:00Z</time>
        <extensions><gpxtpx:TrackPointExtension><gpxtpx:hr>119</gpxtpx:hr></gpxtpx:TrackPointExtension></extensions>
      </trkpt>
      <trkpt lat="56.44298667" lon="12.73639167">
        <ele>123.903</ele>
        <time>1970-01-01T01:00:00Z</time>
        <extensions><gpxtpx:TrackPointExtension><gpxtpx:hr>119</gpxtpx:hr></gpxtpx:TrackPointExtension></extensions>
      </trkpt>
      <trkpt lat="56.44297167" lon="12.73638667">
        <ele>123.75</ele>
        <time>1970-01-01T01:00:00Z</time>
        <extensions><gpxtpx:TrackPointExtension><gpxtpx:hr>119</gpxtpx:hr></gpxtpx:TrackPointExtension></extensions>
      </trkpt>
      <trkpt lat="56.44295833" lon="12.73638333">
        <ele>123.75</ele>
        <time>1970-01-01T01:00:00Z</time>
        <extensions><gpxtpx:TrackPointExtension><gpxtpx:hr>119</gpxtpx:hr></gpxtpx:TrackPointExtension></extensions>
      </trkpt>
      <trkpt lat="56.442945" lon="12.73637833">
        <ele>123.75</ele>
        <time>1970-01-01T01:00:00Z</time>
        <extensions><gpxtpx:TrackPointExtension><gpxtpx:hr>119</gpxtpx:hr></gpxtpx:TrackPointExtension></extensions>
      </trkpt>
      <trkpt lat="56.44293" lon="12.73637167">
        <ele>123.75</ele>
        <time>1970-01-01T01:00:00Z</time>
        <extensions><gpxtpx:TrackPointExtension><gpxtpx:hr>120</gpxtpx:hr></gpxtpx:TrackPointExtension></extensions>
      </trkpt>
      <trkpt lat="56.44291667" lon="12.73636667">
        <ele>123.75</ele>
        <time>1970-01-01T01:00:00Z</time>
        <extensions><gpxtpx:TrackPointExtension><gpxtpx:hr>120</gpxtpx:hr></gpxtpx:TrackPointExtension></extensions>
      </trkpt>
      <trkpt lat="56.44290333" lon="12.736355">
        <ele>123.75</ele>
        <time>1970-01-01T01:00:00Z</time>
        <extensions><gpxtpx:TrackPointExtension><gpxtpx:hr>120</gpxtpx:hr></gpxtpx:TrackPointExtension></extensions>
      </trkpt>
      <trkpt lat="56.44289" lon="12.736345">
        <ele>123.75</ele>
        <time>1970-01-01T01:00:00Z</time>
        <extensions><gpxtpx:TrackPointExtension><gpxtpx:hr>120</gpxtpx:hr></gpxtpx:TrackPointExtension></extensions>
      </trkpt>
      <trkpt lat="56.44287833" lon="12.73633833">
        <ele>123.75</ele>
        <time>1970-01-01T01:00:00Z</time>
        <extensions><gpxtpx:TrackPointExtension><gpxtpx:hr>120</gpxtpx:hr></gpxtpx:TrackPointExtension></extensions>
      </trkpt>
      <trkpt lat="56.44286333" lon="12.73633333">
        <ele>123.75</ele>
        <time>1970-01-01T01:00:00Z</time>
        <extensions><gpxtpx:TrackPointExtension><gpxtpx:hr>119</gpxtpx:hr></gpxtpx:TrackPointExtension></extensions>
      </trkpt>
      <trkpt lat="56.44285" lon="12.73632833">
        <ele>123.75</ele>
        <time>1970-01-01T01:00:00Z</time>
        <extensions><gpxtpx:TrackPointExtension><gpxtpx:hr>119</gpxtpx:hr></gpxtpx:TrackPointExtension></extensions>
      </trkpt>
      <trkpt lat="56.44283833" lon="12.73632167">
        <ele>123.75</ele>
        <time>1970-01-01T01:00:00Z</time>
        <extensions><gpxtpx:TrackPointExtension><gpxtpx:hr>119</gpxtpx:hr></gpxtpx:TrackPointExtension></extensions>
      </trkpt>
      <trkpt lat="56.44282833" lon="12.73631667">
        <ele>123.75</ele>
        <time>1970-01-01T01:00:00Z</time>
        <extensions><gpxtpx:TrackPointExtension><gpxtpx:hr>119</gpxtpx:hr></gpxtpx:TrackPointExtension></extensions>
      </trkpt>
      <trkpt lat="56.44281833" lon="12.736315">
        <ele>123.75</ele>
        <time>1970-01-01T01:00:00Z</time>
        <extensions><gpxtpx:TrackPointExtension><gpxtpx:hr>119</gpxtpx:hr></gpxtpx:TrackPointExtension></extensions>
      </trkpt>
      <trkpt lat="56.4428" lon="12.73631333">
        <ele>123.75</ele>
        <time>1970-01-01T01:00:00Z</time>
        <extensions><gpxtpx:TrackPointExtension><gpxtpx:hr>119</gpxtpx:hr></gpxtpx:TrackPointExtension></extensions>
      </trkpt>
      <trkpt lat="56.44279" lon="12.73630833">
        <ele>123.903</ele>
        <time>1970-01-01T01:00:00Z</time>
        <extensions><gpxtpx:TrackPointExtension><gpxtpx:hr>119</gpxtpx:hr></gpxtpx:TrackPointExtension></extensions>
      </trkpt>
      <trkpt lat="56.44277833" lon="12.73630333">
        <ele>123.903</ele>
        <time>1970-01-01T01:00:00Z</time>
        <extensions><gpxtpx:TrackPointExtension><gpxtpx:hr>119</gpxtpx:hr></gpxtpx:TrackPointExtension></extensions>
      </trkpt>
      <trkpt lat="56.44276833" lon="12.73629833">
        <ele>123.903</ele>
        <time>1970-01-01T01:00:00Z</time>
        <extensions><gpxtpx:TrackPointExtension><gpxtpx:hr>119</gpxtpx:hr></gpxtpx:TrackPointExtension></extensions>
      </trkpt>
      <trkpt lat="56.44275333" lon="12.736295">
        <ele>123.903</ele>
        <time>1970-01-01T01:00:00Z</time>
        <extensions><gpxtpx:TrackPointExtension><gpxtpx:hr>119</gpxtpx:hr></gpxtpx:TrackPointExtension></extensions>
      </trkpt>
      <trkpt lat="56.44274" lon="12.73629">
        <ele>123.903</ele>
        <time>1970-01-01T01:00:00Z</time>
        <extensions><gpxtpx:TrackPointExtension><gpxtpx:hr>120</gpxtpx:hr></gpxtpx:TrackPointExtension></extensions>
      </trkpt>
      <trkpt lat="56.44272833" lon="12.73628333">
        <ele>123.903</ele>
        <time>1970-01-01T01:00:00Z</time>
        <extensions><gpxtpx:TrackPointExtension><gpxtpx:hr>120</gpxtpx:hr></gpxtpx:TrackPointExtension></extensions>
      </trkpt>
      <trkpt lat="56.442715" lon="12.736275">
        <ele>123.903</ele>
        <time>1970-01-01T01:00:00Z</time>
        <extensions><gpxtpx:TrackPointExtension><gpxtpx:hr>120</gpxtpx:hr></gpxtpx:TrackPointExtension></extensions>
      </trkpt>
      <trkpt lat="56.44269833" lon="12.73627167">
        <ele>123.903</ele>
        <time>1970-01-01T01:00:00Z</time>
        <extensions><gpxtpx:TrackPointExtension><gpxtpx:hr>120</gpxtpx:hr></gpxtpx:TrackPointExtension></extensions>
      </trkpt>
      <trkpt lat="56.442685" lon="12.73627">
        <ele>123.903</ele>
        <time>1970-01-01T01:00:00Z</time>
        <extensions><gpxtpx:TrackPointExtension><gpxtpx:hr>120</gpxtpx:hr></gpxtpx:TrackPointExtension></extensions>
      </trkpt>
      <trkpt lat="56.44267" lon="12.73626667">
        <ele>123.903</ele>
        <time>1970-01-01T01:00:00Z</time>
        <extensions><gpxtpx:TrackPointExtension><gpxtpx:hr>120</gpxtpx:hr></gpxtpx:TrackPointExtension></extensions>
      </trkpt>
      <trkpt lat="56.44265333" lon="12.73626167">
        <ele>123.903</ele>
        <time>1970-01-01T01:00:00Z</time>
        <extensions><gpxtpx:TrackPointExtension><gpxtpx:hr>120</gpxtpx:hr></gpxtpx:TrackPointExtension></extensions>
      </trkpt>
      <trkpt lat="56.44263667" lon="12.73626167">
        <ele>123.903</ele>
        <time>1970-01-01T01:00:00Z</time>
        <extensions><gpxtpx:TrackPointExtension><gpxtpx:hr>120</gpxtpx:hr></gpxtpx:TrackPointExtension></extensions>
      </trkpt>
      <trkpt lat="56.44261833" lon="12.73626">
        <ele>123.75</ele>
        <time>1970-01-01T01:00:00Z</time>
        <extensions><gpxtpx:TrackPointExtension><gpxtpx:hr>120</gpxtpx:hr></gpxtpx:TrackPointExtension></extensions>
      </trkpt>
      <trkpt lat="56.44260167" lon="12.73625333">
        <ele>123.75</ele>
        <time>1970-01-01T01:00:00Z</time>
        <extensions><gpxtpx:TrackPointExtension><gpxtpx:hr>121</gpxtpx:hr></gpxtpx:TrackPointExtension></extensions>
      </trkpt>
      <trkpt lat="56.44258667" lon="12.73624833">
        <ele>123.75</ele>
        <time>1970-01-01T01:00:00Z</time>
        <extensions><gpxtpx:TrackPointExtension><gpxtpx:hr>121</gpxtpx:hr></gpxtpx:TrackPointExtension></extensions>
      </trkpt>
      <trkpt lat="56.44257167" lon="12.73624333">
        <ele>123.75</ele>
        <time>1970-01-01T01:00:00Z</time>
        <extensions><gpxtpx:TrackPointExtension><gpxtpx:hr>121</gpxtpx:hr></gpxtpx:TrackPointExtension></extensions>
      </trkpt>
      <trkpt lat="56.44255667" lon="12.736235">
        <ele>123.75</ele>
        <time>1970-01-01T01:00:00Z</time>
        <extensions><gpxtpx:TrackPointExtension><gpxtpx:hr>121</gpxtpx:hr></gpxtpx:TrackPointExtension></extensions>
      </trkpt>
      <trkpt lat="56.44254" lon="12.73622833">
        <ele>123.75</ele>
        <time>1970-01-01T01:00:00Z</time>
        <extensions><gpxtpx:TrackPointExtension><gpxtpx:hr>121</gpxtpx:hr></gpxtpx:TrackPointExtension></extensions>
      </trkpt>
      <trkpt lat="56.44252833" lon="12.73622333">
        <ele>123.75</ele>
        <time>1970-01-01T01:00:00Z</time>
        <extensions><gpxtpx:TrackPointExtension><gpxtpx:hr>121</gpxtpx:hr></gpxtpx:TrackPointExtension></extensions>
      </trkpt>
      <trkpt lat="56.44251" lon="12.73621833">
        <ele>123.75</ele>
        <time>1970-01-01T01:00:00Z</time>
        <extensions><gpxtpx:TrackPointExtension><gpxtpx:hr>121</gpxtpx:hr></gpxtpx:TrackPointExtension></extensions>
      </trkpt>
      <trkpt lat="56.442495" lon="12.736215">
        <ele>123.75</ele>
        <time>1970-01-01T01:00:00Z</time>
        <extensions><gpxtpx:TrackPointExtension><gpxtpx:hr>121</gpxtpx:hr></gpxtpx:TrackPointExtension></extensions>
      </trkpt>
      <trkpt lat="56.44248167" lon="12.73620833">
        <ele>123.598</ele>
        <time>1970-01-01T01:00:00Z</time>
        <extensions><gpxtpx:TrackPointExtension><gpxtpx:hr>121</gpxtpx:hr></gpxtpx:TrackPointExtension></extensions>
      </trkpt>
      <trkpt lat="56.44246833" lon="12.73620167">
        <ele>123.598</ele>
        <time>1970-01-01T01:00:00Z</time>
        <extensions><gpxtpx:TrackPointExtension><gpxtpx:hr>121</gpxtpx:hr></gpxtpx:TrackPointExtension></extensions>
      </trkpt>
      <trkpt lat="56.442455" lon="12.73619667">
        <ele>123.598</ele>
        <time>1970-01-01T01:00:00Z</time>
        <extensions><gpxtpx:TrackPointExtension><gpxtpx:hr>121</gpxtpx:hr></gpxtpx:TrackPointExtension></extensions>
      </trkpt>
      <trkpt lat="56.44244333" lon="12.73618833">
        <ele>123.598</ele>
        <time>1970-01-01T01:00:00Z</time>
        <extensions><gpxtpx:TrackPointExtension><gpxtpx:hr>121</gpxtpx:hr></gpxtpx:TrackPointExtension></extensions>
      </trkpt>
      <trkpt lat="56.44243" lon="12.73617833">
        <ele>123.598</ele>
        <time>1970-01-01T01:00:00Z</time>
        <extensions><gpxtpx:TrackPointExtension><gpxtpx:hr>122</gpxtpx:hr></gpxtpx:TrackPointExtension></extensions>
      </trkpt>
      <trkpt lat="56.44241333" lon="12.73616833">
        <ele>123.445</ele>
        <time>1970-01-01T01:00:00Z</time>
        <extensions><gpxtpx:TrackPointExtension><gpxtpx:hr>122</gpxtpx:hr></gpxtpx:TrackPointExtension></extensions>
      </trkpt>
      <trkpt lat="56.44240167" lon="12.736165">
        <ele>123.445</ele>
        <time>1970-01-01T01:00:00Z</time>
        <extensions><gpxtpx:TrackPointExtension><gpxtpx:hr>122</gpxtpx:hr></gpxtpx:TrackPointExtension></extensions>
      </trkpt>
      <trkpt lat="56.44239" lon="12.73616333">
        <ele>123.445</ele>
        <time>1970-01-01T01:00:00Z</time>
        <extensions><gpxtpx:TrackPointExtension><gpxtpx:hr>122</gpxtpx:hr></gpxtpx:TrackPointExtension></extensions>
      </trkpt>
      <trkpt lat="56.442375" lon="12.73616">
        <ele>123.293</ele>
        <time>1970-01-01T01:00:00Z</time>
        <extensions><gpxtpx:TrackPointExtension><gpxtpx:hr>121</gpxtpx:hr></gpxtpx:TrackPointExtension></extensions>
      </trkpt>
      <trkpt lat="56.44236167" lon="12.736155">
        <ele>123.293</ele>
        <time>1970-01-01T01:00:00Z</time>
        <extensions><gpxtpx:TrackPointExtension><gpxtpx:hr>121</gpxtpx:hr></gpxtpx:TrackPointExtension></extensions>
      </trkpt>
      <trkpt lat="56.44234833" lon="12.73614667">
        <ele>123.293</ele>
        <time>1970-01-01T01:00:00Z</time>
        <extensions><gpxtpx:TrackPointExtension><gpxtpx:hr>121</gpxtpx:hr></gpxtpx:TrackPointExtension></extensions>
      </trkpt>
      <trkpt lat="56.442335" lon="12.73613833">
        <ele>123.141</ele>
        <time>1970-01-01T01:00:00Z</time>
        <extensions><gpxtpx:TrackPointExtension><gpxtpx:hr>121</gpxtpx:hr></gpxtpx:TrackPointExtension></extensions>
      </trkpt>
      <trkpt lat="56.44232" lon="12.73613167">
        <ele>123.141</ele>
        <time>1970-01-01T01:00:00Z</time>
        <extensions><gpxtpx:TrackPointExtension><gpxtpx:hr>121</gpxtpx:hr></gpxtpx:TrackPointExtension></extensions>
      </trkpt>
      <trkpt lat="56.44230833" lon="12.73612667">
        <ele>123.141</ele>
        <time>1970-01-01T01:00:00Z</time>
        <extensions><gpxtpx:TrackPointExtension><gpxtpx:hr>121</gpxtpx:hr></gpxtpx:TrackPointExtension></extensions>
      </trkpt>
      <trkpt lat="56.44229167" lon="12.73612167">
        <ele>123.141</ele>
        <time>1970-01-01T01:00:00Z</time>
        <extensions><gpxtpx:TrackPointExtension><gpxtpx:hr>120</gpxtpx:hr></gpxtpx:TrackPointExtension></extensions>
      </trkpt>
      <trkpt lat="56.44227333" lon="12.73611667">
        <ele>122.988</ele>
        <time>1970-01-01T01:00:00Z</time>
        <extensions><gpxtpx:TrackPointExtension><gpxtpx:hr>120</gpxtpx:hr></gpxtpx:TrackPointExtension></extensions>
      </trkpt>
      <trkpt lat="56.44226167" lon="12.73611333">
        <ele>122.988</ele>
        <time>1970-01-01T01:00:00Z</time>
        <extensions><gpxtpx:TrackPointExtension><gpxtpx:hr>120</gpxtpx:hr></gpxtpx:TrackPointExtension></extensions>
      </trkpt>
      <trkpt lat="56.442245" lon="12.73611">
        <ele>122.988</ele>
        <time>1970-01-01T01:00:00Z</time>
        <extensions><gpxtpx:TrackPointExtension><gpxtpx:hr>120</gpxtpx:hr></gpxtpx:TrackPointExtension></extensions>
      </trkpt>
      <trkpt lat="56.44222833" lon="12.73610333">
        <ele>122.988</ele>
        <time>1970-01-01T01:00:00Z</time>
        <extensions><gpxtpx:TrackPointExtension><gpxtpx:hr>121</gpxtpx:hr></gpxtpx:TrackPointExtension></extensions>
      </trkpt>
      <trkpt lat="56.44221" lon="12.73609667">
        <ele>122.836</ele>
        <time>1970-01-01T01:00:00Z</time>
        <extensions><gpxtpx:TrackPointExtension><gpxtpx:hr>121</gpxtpx:hr></gpxtpx:TrackPointExtension></extensions>
      </trkpt>
      <trkpt lat="56.442195" lon="12.73609333">
        <ele>122.836</ele>
        <time>1970-01-01T01:00:00Z</time>
        <extensions><gpxtpx:TrackPointExtension><gpxtpx:hr>121</gpxtpx:hr></gpxtpx:TrackPointExtension></extensions>
      </trkpt>
      <trkpt lat="56.44217833" lon="12.73609">
        <ele>122.836</ele>
        <time>1970-01-01T01:00:00Z</time>
        <extensions><gpxtpx:TrackPointExtension><gpxtpx:hr>121</gpxtpx:hr></gpxtpx:TrackPointExtension></extensions>
      </trkpt>
      <trkpt lat="56.44216333" lon="12.73608667">
        <ele>122.683</ele>
        <time>1970-01-01T01:00:00Z</time>
        <extensions><gpxtpx:TrackPointExtension><gpxtpx:hr>121</gpxtpx:hr></gpxtpx:TrackPointExtension></extensions>
      </trkpt>
      <trkpt lat="56.44215" lon="12.73608167">
        <ele>122.531</ele>
        <time>1970-01-01T01:00:00Z</time>
        <extensions><gpxtpx:TrackPointExtension><gpxtpx:hr>122</gpxtpx:hr></gpxtpx:TrackPointExtension></extensions>
      </trkpt>
      <trkpt lat="56.442135" lon="12.736075">
        <ele>122.531</ele>
        <time>1970-01-01T01:00:00Z</time>
        <extensions><gpxtpx:TrackPointExtension><gpxtpx:hr>122</gpxtpx:hr></gpxtpx:TrackPointExtension></extensions>
      </trkpt>
      <trkpt lat="56.44212333" lon="12.73607167">
        <ele>122.379</ele>
        <time>1970-01-01T01:00:00Z</time>
        <extensions><gpxtpx:TrackPointExtension><gpxtpx:hr>122</gpxtpx:hr></gpxtpx:TrackPointExtension></extensions>
      </trkpt>
      <trkpt lat="56.44210833" lon="12.736065">
        <ele>122.379</ele>
        <time>1970-01-01T01:00:00Z</time>
        <extensions><gpxtpx:TrackPointExtension><gpxtpx:hr>122</gpxtpx:hr></gpxtpx:TrackPointExtension></extensions>
      </trkpt>
      <trkpt lat="56.44209333" lon="12.73605667">
        <ele>122.226</ele>
        <time>1970-01-01T01:00:00Z</time>
        <extensions><gpxtpx:TrackPointExtension><gpxtpx:hr>122</gpxtpx:hr></gpxtpx:TrackPointExtension></extensions>
      </trkpt>
      <trkpt lat="56.44208167" lon="12.73605167">
        <ele>122.226</ele>
        <time>1970-01-01T01:00:00Z</time>
        <extensions><gpxtpx:TrackPointExtension><gpxtpx:hr>122</gpxtpx:hr></gpxtpx:TrackPointExtension></extensions>
      </trkpt>
      <trkpt lat="56.44206833" lon="12.73604333">
        <ele>122.226</ele>
        <time>1970-01-01T01:00:00Z</time>
        <extensions><gpxtpx:TrackPointExtension><gpxtpx:hr>122</gpxtpx:hr></gpxtpx:TrackPointExtension></extensions>
      </trkpt>
      <trkpt lat="56.44205167" lon="12.73603833">
        <ele>122.074</ele>
        <time>1970-01-01T01:00:00Z</time>
        <extensions><gpxtpx:TrackPointExtension><gpxtpx:hr>123</gpxtpx:hr></gpxtpx:TrackPointExtension></extensions>
      </trkpt>
      <trkpt lat="56.44204" lon="12.73603333">
        <ele>122.074</ele>
        <time>1970-01-01T01:00:00Z</time>
        <extensions><gpxtpx:TrackPointExtension><gpxtpx:hr>123</gpxtpx:hr></gpxtpx:TrackPointExtension></extensions>
      </trkpt>
      <trkpt lat="56.44202667" lon="12.73603167">
        <ele>121.921</ele>
        <time>1970-01-01T01:00:00Z</time>
        <extensions><gpxtpx:TrackPointExtension><gpxtpx:hr>123</gpxtpx:hr></gpxtpx:TrackPointExtension></extensions>
      </trkpt>
      <trkpt lat="56.44201333" lon="12.73602667">
        <ele>121.921</ele>
        <time>1970-01-01T01:00:00Z</time>
        <extensions><gpxtpx:TrackPointExtension><gpxtpx:hr>123</gpxtpx:hr></gpxtpx:TrackPointExtension></extensions>
      </trkpt>
      <trkpt lat="56.442" lon="12.73602333">
        <ele>121.769</ele>
        <time>1970-01-01T01:00:00Z</time>
        <extensions><gpxtpx:TrackPointExtension><gpxtpx:hr>123</gpxtpx:hr></gpxtpx:TrackPointExtension></extensions>
      </trkpt>
      <trkpt lat="56.441985" lon="12.73601667">
        <ele>121.617</ele>
        <time>1970-01-01T01:00:00Z</time>
        <extensions><gpxtpx:TrackPointExtension><gpxtpx:hr>123</gpxtpx:hr></gpxtpx:TrackPointExtension></extensions>
      </trkpt>
      <trkpt lat="56.44197333" lon="12.73601167">
        <ele>121.617</ele>
        <time>1970-01-01T01:00:00Z</time>
        <extensions><gpxtpx:TrackPointExtension><gpxtpx:hr>123</gpxtpx:hr></gpxtpx:TrackPointExtension></extensions>
      </trkpt>
      <trkpt lat="56.44195833" lon="12.73601">
        <ele>121.617</ele>
        <time>1970-01-01T01:00:00Z</time>
        <extensions><gpxtpx:TrackPointExtension><gpxtpx:hr>123</gpxtpx:hr></gpxtpx:TrackPointExtension></extensions>
      </trkpt>
      <trkpt lat="56.44194167" lon="12.73600833">
        <ele>121.464</ele>
        <time>1970-01-01T01:00:00Z</time>
        <extensions><gpxtpx:TrackPointExtension><gpxtpx:hr>123</gpxtpx:hr></gpxtpx:TrackPointExtension></extensions>
      </trkpt>
      <trkpt lat="56.44192667" lon="12.73600667">
        <ele>121.464</ele>
        <time>1970-01-01T01:00:00Z</time>
        <extensions><gpxtpx:TrackPointExtension><gpxtpx:hr>124</gpxtpx:hr></gpxtpx:TrackPointExtension></extensions>
      </trkpt>
      <trkpt lat="56.44191333" lon="12.736005">
        <ele>121.464</ele>
        <time>1970-01-01T01:00:00Z</time>
        <extensions><gpxtpx:TrackPointExtension><gpxtpx:hr>124</gpxtpx:hr></gpxtpx:TrackPointExtension></extensions>
      </trkpt>
      <trkpt lat="56.44189833" lon="12.735995">
        <ele>121.312</ele>
        <time>1970-01-01T01:00:00Z</time>
        <extensions><gpxtpx:TrackPointExtension><gpxtpx:hr>124</gpxtpx:hr></gpxtpx:TrackPointExtension></extensions>
      </trkpt>
      <trkpt lat="56.44188333" lon="12.73598167">
        <ele>121.312</ele>
        <time>1970-01-01T01:00:00Z</time>
        <extensions><gpxtpx:TrackPointExtension><gpxtpx:hr>124</gpxtpx:hr></gpxtpx:TrackPointExtension></extensions>
      </trkpt>
      <trkpt lat="56.44186667" lon="12.73597">
        <ele>121.312</ele>
        <time>1970-01-01T01:00:00Z</time>
        <extensions><gpxtpx:TrackPointExtension><gpxtpx:hr>124</gpxtpx:hr></gpxtpx:TrackPointExtension></extensions>
      </trkpt>
      <trkpt lat="56.44185167" lon="12.73595667">
        <ele>121.312</ele>
        <time>1970-01-01T01:00:00Z</time>
        <extensions><gpxtpx:TrackPointExtension><gpxtpx:hr>124</gpxtpx:hr></gpxtpx:TrackPointExtension></extensions>
      </trkpt>
      <trkpt lat="56.44183667" lon="12.735945">
        <ele>121.312</ele>
        <time>1970-01-01T01:00:00Z</time>
        <extensions><gpxtpx:TrackPointExtension><gpxtpx:hr>124</gpxtpx:hr></gpxtpx:TrackPointExtension></extensions>
      </trkpt>
      <trkpt lat="56.44182167" lon="12.73593">
        <ele>121.312</ele>
        <time>1970-01-01T01:00:00Z</time>
        <extensions><gpxtpx:TrackPointExtension><gpxtpx:hr>124</gpxtpx:hr></gpxtpx:TrackPointExtension></extensions>
      </trkpt>
      <trkpt lat="56.44180833" lon="12.735915">
        <ele>121.312</ele>
        <time>1970-01-01T01:00:00Z</time>
        <extensions><gpxtpx:TrackPointExtension><gpxtpx:hr>124</gpxtpx:hr></gpxtpx:TrackPointExtension></extensions>
      </trkpt>
      <trkpt lat="56.44179833" lon="12.73589833">
        <ele>121.312</ele>
        <time>1970-01-01T01:00:00Z</time>
        <extensions><gpxtpx:TrackPointExtension><gpxtpx:hr>124</gpxtpx:hr></gpxtpx:TrackPointExtension></extensions>
      </trkpt>
      <trkpt lat="56.441785" lon="12.73588167">
        <ele>121.312</ele>
        <time>1970-01-01T01:00:00Z</time>
        <extensions><gpxtpx:TrackPointExtension><gpxtpx:hr>124</gpxtpx:hr></gpxtpx:TrackPointExtension></extensions>
      </trkpt>
      <trkpt lat="56.44177333" lon="12.73586">
        <ele>121.312</ele>
        <time>1970-01-01T01:00:00Z</time>
        <extensions><gpxtpx:TrackPointExtension><gpxtpx:hr>124</gpxtpx:hr></gpxtpx:TrackPointExtension></extensions>
      </trkpt>
      <trkpt lat="56.44176333" lon="12.73583333">
        <ele>121.312</ele>
        <time>1970-01-01T01:00:00Z</time>
        <extensions><gpxtpx:TrackPointExtension><gpxtpx:hr>124</gpxtpx:hr></gpxtpx:TrackPointExtension></extensions>
      </trkpt>
      <trkpt lat="56.44175667" lon="12.73581833">
        <ele>121.312</ele>
        <time>1970-01-01T01:00:00Z</time>
        <extensions><gpxtpx:TrackPointExtension><gpxtpx:hr>124</gpxtpx:hr></gpxtpx:TrackPointExtension></extensions>
      </trkpt>
      <trkpt lat="56.441745" lon="12.73579667">
        <ele>121.312</ele>
        <time>1970-01-01T01:00:00Z</time>
        <extensions><gpxtpx:TrackPointExtension><gpxtpx:hr>124</gpxtpx:hr></gpxtpx:TrackPointExtension></extensions>
      </trkpt>
      <trkpt lat="56.441735" lon="12.735775">
        <ele>121.464</ele>
        <time>1970-01-01T01:00:00Z</time>
        <extensions><gpxtpx:TrackPointExtension><gpxtpx:hr>124</gpxtpx:hr></gpxtpx:TrackPointExtension></extensions>
      </trkpt>
      <trkpt lat="56.44172667" lon="12.735755">
        <ele>121.464</ele>
        <time>1970-01-01T01:00:00Z</time>
        <extensions><gpxtpx:TrackPointExtension><gpxtpx:hr>124</gpxtpx:hr></gpxtpx:TrackPointExtension></extensions>
      </trkpt>
      <trkpt lat="56.44171667" lon="12.73573333">
        <ele>121.464</ele>
        <time>1970-01-01T01:00:00Z</time>
        <extensions><gpxtpx:TrackPointExtension><gpxtpx:hr>124</gpxtpx:hr></gpxtpx:TrackPointExtension></extensions>
      </trkpt>
      <trkpt lat="56.44170667" lon="12.735715">
        <ele>121.617</ele>
        <time>1970-01-01T01:00:00Z</time>
        <extensions><gpxtpx:TrackPointExtension><gpxtpx:hr>124</gpxtpx:hr></gpxtpx:TrackPointExtension></extensions>
      </trkpt>
      <trkpt lat="56.44169833" lon="12.735695">
        <ele>121.617</ele>
        <time>1970-01-01T01:00:00Z</time>
        <extensions><gpxtpx:TrackPointExtension><gpxtpx:hr>123</gpxtpx:hr></gpxtpx:TrackPointExtension></extensions>
      </trkpt>
      <trkpt lat="56.44168833" lon="12.73567833">
        <ele>121.769</ele>
        <time>1970-01-01T01:00:00Z</time>
        <extensions><gpxtpx:TrackPointExtension><gpxtpx:hr>122</gpxtpx:hr></gpxtpx:TrackPointExtension></extensions>
      </trkpt>
      <trkpt lat="56.44168" lon="12.73565833">
        <ele>121.769</ele>
        <time>1970-01-01T01:00:00Z</time>
        <extensions><gpxtpx:TrackPointExtension><gpxtpx:hr>121</gpxtpx:hr></gpxtpx:TrackPointExtension></extensions>
      </trkpt>
      <trkpt lat="56.44167167" lon="12.73564167">
        <ele>121.921</ele>
        <time>1970-01-01T01:00:00Z</time>
        <extensions><gpxtpx:TrackPointExtension><gpxtpx:hr>121</gpxtpx:hr></gpxtpx:TrackPointExtension></extensions>
      </trkpt>
      <trkpt lat="56.44166333" lon="12.73562333">
        <ele>121.921</ele>
        <time>1970-01-01T01:00:00Z</time>
        <extensions><gpxtpx:TrackPointExtension><gpxtpx:hr>121</gpxtpx:hr></gpxtpx:TrackPointExtension></extensions>
      </trkpt>
      <trkpt lat="56.44165667" lon="12.73560667">
        <ele>121.921</ele>
        <time>1970-01-01T01:00:00Z</time>
        <extensions><gpxtpx:TrackPointExtension><gpxtpx:hr>120</gpxtpx:hr></gpxtpx:TrackPointExtension></extensions>
      </trkpt>
      <trkpt lat="56.44165" lon="12.73559167">
        <ele>122.074</ele>
        <time>1970-01-01T01:00:00Z</time>
        <extensions><gpxtpx:TrackPointExtension><gpxtpx:hr>121</gpxtpx:hr></gpxtpx:TrackPointExtension></extensions>
      </trkpt>
      <trkpt lat="56.44164333" lon="12.73557333">
        <ele>122.074</ele>
        <time>1970-01-01T01:00:00Z</time>
        <extensions><gpxtpx:TrackPointExtension><gpxtpx:hr>121</gpxtpx:hr></gpxtpx:TrackPointExtension></extensions>
      </trkpt>
      <trkpt lat="56.441635" lon="12.73555333">
        <ele>122.226</ele>
        <time>1970-01-01T01:00:00Z</time>
        <extensions><gpxtpx:TrackPointExtension><gpxtpx:hr>121</gpxtpx:hr></gpxtpx:TrackPointExtension></extensions>
      </trkpt>
      <trkpt lat="56.441625" lon="12.735535">
        <ele>122.226</ele>
        <time>1970-01-01T01:00:00Z</time>
        <extensions><gpxtpx:TrackPointExtension><gpxtpx:hr>122</gpxtpx:hr></gpxtpx:TrackPointExtension></extensions>
      </trkpt>
      <trkpt lat="56.44161667" lon="12.73551833">
        <ele>122.226</ele>
        <time>1970-01-01T01:00:00Z</time>
        <extensions><gpxtpx:TrackPointExtension><gpxtpx:hr>122</gpxtpx:hr></gpxtpx:TrackPointExtension></extensions>
      </trkpt>
      <trkpt lat="56.44160833" lon="12.7355">
        <ele>122.379</ele>
        <time>1970-01-01T01:00:00Z</time>
        <extensions><gpxtpx:TrackPointExtension><gpxtpx:hr>123</gpxtpx:hr></gpxtpx:TrackPointExtension></extensions>
      </trkpt>
      <trkpt lat="56.44159833" lon="12.73548333">
        <ele>122.379</ele>
        <time>1970-01-01T01:00:00Z</time>
        <extensions><gpxtpx:TrackPointExtension><gpxtpx:hr>123</gpxtpx:hr></gpxtpx:TrackPointExtension></extensions>
      </trkpt>
      <trkpt lat="56.44159" lon="12.73546333">
        <ele>122.379</ele>
        <time>1970-01-01T01:00:00Z</time>
        <extensions><gpxtpx:TrackPointExtension><gpxtpx:hr>123</gpxtpx:hr></gpxtpx:TrackPointExtension></extensions>
      </trkpt>
      <trkpt lat="56.44158167" lon="12.73544333">
        <ele>122.531</ele>
        <time>1970-01-01T01:00:00Z</time>
        <extensions><gpxtpx:TrackPointExtension><gpxtpx:hr>123</gpxtpx:hr></gpxtpx:TrackPointExtension></extensions>
      </trkpt>
      <trkpt lat="56.44157333" lon="12.73542">
        <ele>122.531</ele>
        <time>1970-01-01T01:00:00Z</time>
        <extensions><gpxtpx:TrackPointExtension><gpxtpx:hr>123</gpxtpx:hr></gpxtpx:TrackPointExtension></extensions>
      </trkpt>
      <trkpt lat="56.44156667" lon="12.73540167">
        <ele>122.531</ele>
        <time>1970-01-01T01:00:00Z</time>
        <extensions><gpxtpx:TrackPointExtension><gpxtpx:hr>123</gpxtpx:hr></gpxtpx:TrackPointExtension></extensions>
      </trkpt>
      <trkpt lat="56.441555" lon="12.73538">
        <ele>122.683</ele>
        <time>1970-01-01T01:00:00Z</time>
        <extensions><gpxtpx:TrackPointExtension><gpxtpx:hr>123</gpxtpx:hr></gpxtpx:TrackPointExtension></extensions>
      </trkpt>
      <trkpt lat="56.44154333" lon="12.73536">
        <ele>122.683</ele>
        <time>1970-01-01T01:00:00Z</time>
        <extensions><gpxtpx:TrackPointExtension><gpxtpx:hr>123</gpxtpx:hr></gpxtpx:TrackPointExtension></extensions>
      </trkpt>
      <trkpt lat="56.44153" lon="12.73534">
        <ele>122.836</ele>
        <time>1970-01-01T01:00:00Z</time>
        <extensions><gpxtpx:TrackPointExtension><gpxtpx:hr>123</gpxtpx:hr></gpxtpx:TrackPointExtension></extensions>
      </trkpt>
      <trkpt lat="56.44151833" lon="12.73532">
        <ele>122.836</ele>
        <time>1970-01-01T01:00:00Z</time>
        <extensions><gpxtpx:TrackPointExtension><gpxtpx:hr>123</gpxtpx:hr></gpxtpx:TrackPointExtension></extensions>
      </trkpt>
      <trkpt lat="56.44150667" lon="12.73530167">
        <ele>122.836</ele>
        <time>1970-01-01T01:00:00Z</time>
        <extensions><gpxtpx:TrackPointExtension><gpxtpx:hr>123</gpxtpx:hr></gpxtpx:TrackPointExtension></extensions>
      </trkpt>
      <trkpt lat="56.44149833" lon="12.73528333">
        <ele>122.988</ele>
        <time>1970-01-01T01:00:00Z</time>
        <extensions><gpxtpx:TrackPointExtension><gpxtpx:hr>123</gpxtpx:hr></gpxtpx:TrackPointExtension></extensions>
      </trkpt>
      <trkpt lat="56.44149167" lon="12.73526167">
        <ele>122.988</ele>
        <time>1970-01-01T01:00:00Z</time>
        <extensions><gpxtpx:TrackPointExtension><gpxtpx:hr>123</gpxtpx:hr></gpxtpx:TrackPointExtension></extensions>
      </trkpt>
      <trkpt lat="56.44148167" lon="12.735245">
        <ele>123.141</ele>
        <time>1970-01-01T01:00:00Z</time>
        <extensions><gpxtpx:TrackPointExtension><gpxtpx:hr>124</gpxtpx:hr></gpxtpx:TrackPointExtension></extensions>
      </trkpt>
      <trkpt lat="56.44147167" lon="12.73522833">
        <ele>123.141</ele>
        <time>1970-01-01T01:00:00Z</time>
        <extensions><gpxtpx:TrackPointExtension><gpxtpx:hr>123</gpxtpx:hr></gpxtpx:TrackPointExtension></extensions>
      </trkpt>
      <trkpt lat="56.44146167" lon="12.73521">
        <ele>123.141</ele>
        <time>1970-01-01T01:00:00Z</time>
        <extensions><gpxtpx:TrackPointExtension><gpxtpx:hr>123</gpxtpx:hr></gpxtpx:TrackPointExtension></extensions>
      </trkpt>
      <trkpt lat="56.44145167" lon="12.73519167">
        <ele>123.141</ele>
        <time>1970-01-01T01:00:00Z</time>
        <extensions><gpxtpx:TrackPointExtension><gpxtpx:hr>123</gpxtpx:hr></gpxtpx:TrackPointExtension></extensions>
      </trkpt>
      <trkpt lat="56.44144" lon="12.73517">
        <ele>123.293</ele>
        <time>1970-01-01T01:00:00Z</time>
        <extensions><gpxtpx:TrackPointExtension><gpxtpx:hr>123</gpxtpx:hr></gpxtpx:TrackPointExtension></extensions>
      </trkpt>
      <trkpt lat="56.44142833" lon="12.73515167">
        <ele>123.293</ele>
        <time>1970-01-01T01:00:00Z</time>
        <extensions><gpxtpx:TrackPointExtension><gpxtpx:hr>123</gpxtpx:hr></gpxtpx:TrackPointExtension></extensions>
      </trkpt>
      <trkpt lat="56.44141667" lon="12.73513667">
        <ele>123.293</ele>
        <time>1970-01-01T01:00:00Z</time>
        <extensions><gpxtpx:TrackPointExtension><gpxtpx:hr>123</gpxtpx:hr></gpxtpx:TrackPointExtension></extensions>
      </trkpt>
      <trkpt lat="56.441405" lon="12.73512">
        <ele>123.293</ele>
        <time>1970-01-01T01:00:00Z</time>
        <extensions><gpxtpx:TrackPointExtension><gpxtpx:hr>123</gpxtpx:hr></gpxtpx:TrackPointExtension></extensions>
      </trkpt>
      <trkpt lat="56.44139333" lon="12.73510333">
        <ele>123.293</ele>
        <time>1970-01-01T01:00:00Z</time>
        <extensions><gpxtpx:TrackPointExtension><gpxtpx:hr>122</gpxtpx:hr></gpxtpx:TrackPointExtension></extensions>
      </trkpt>
      <trkpt lat="56.44138167" lon="12.73508667">
        <ele>123.445</ele>
        <time>1970-01-01T01:00:00Z</time>
        <extensions><gpxtpx:TrackPointExtension><gpxtpx:hr>122</gpxtpx:hr></gpxtpx:TrackPointExtension></extensions>
      </trkpt>
      <trkpt lat="56.44137167" lon="12.73506333">
        <ele>123.445</ele>
        <time>1970-01-01T01:00:00Z</time>
        <extensions><gpxtpx:TrackPointExtension><gpxtpx:hr>122</gpxtpx:hr></gpxtpx:TrackPointExtension></extensions>
      </trkpt>
      <trkpt lat="56.44136" lon="12.73504333">
        <ele>123.445</ele>
        <time>1970-01-01T01:00:00Z</time>
        <extensions><gpxtpx:TrackPointExtension><gpxtpx:hr>122</gpxtpx:hr></gpxtpx:TrackPointExtension></extensions>
      </trkpt>
      <trkpt lat="56.44135" lon="12.73502333">
        <ele>123.598</ele>
        <time>1970-01-01T01:00:00Z</time>
        <extensions><gpxtpx:TrackPointExtension><gpxtpx:hr>122</gpxtpx:hr></gpxtpx:TrackPointExtension></extensions>
      </trkpt>
      <trkpt lat="56.44133833" lon="12.73500167">
        <ele>123.598</ele>
        <time>1970-01-01T01:00:00Z</time>
        <extensions><gpxtpx:TrackPointExtension><gpxtpx:hr>121</gpxtpx:hr></gpxtpx:TrackPointExtension></extensions>
      </trkpt>
      <trkpt lat="56.44133" lon="12.73498">
        <ele>123.75</ele>
        <time>1970-01-01T01:00:00Z</time>
        <extensions><gpxtpx:TrackPointExtension><gpxtpx:hr>121</gpxtpx:hr></gpxtpx:TrackPointExtension></extensions>
      </trkpt>
      <trkpt lat="56.44132167" lon="12.73496333">
        <ele>123.75</ele>
        <time>1970-01-01T01:00:00Z</time>
        <extensions><gpxtpx:TrackPointExtension><gpxtpx:hr>121</gpxtpx:hr></gpxtpx:TrackPointExtension></extensions>
      </trkpt>
      <trkpt lat="56.44131167" lon="12.734945">
        <ele>123.903</ele>
        <time>1970-01-01T01:00:00Z</time>
        <extensions><gpxtpx:TrackPointExtension><gpxtpx:hr>120</gpxtpx:hr></gpxtpx:TrackPointExtension></extensions>
      </trkpt>
      <trkpt lat="56.44130167" lon="12.73492833">
        <ele>123.903</ele>
        <time>1970-01-01T01:00:00Z</time>
        <extensions><gpxtpx:TrackPointExtension><gpxtpx:hr>119</gpxtpx:hr></gpxtpx:TrackPointExtension></extensions>
      </trkpt>
      <trkpt lat="56.44129333" lon="12.73491">
        <ele>124.055</ele>
        <time>1970-01-01T01:00:00Z</time>
        <extensions><gpxtpx:TrackPointExtension><gpxtpx:hr>119</gpxtpx:hr></gpxtpx:TrackPointExtension></extensions>
      </trkpt>
      <trkpt lat="56.44128333" lon="12.73489">
        <ele>124.055</ele>
        <time>1970-01-01T01:00:00Z</time>
        <extensions><gpxtpx:TrackPointExtension><gpxtpx:hr>119</gpxtpx:hr></gpxtpx:TrackPointExtension></extensions>
      </trkpt>
      <trkpt lat="56.441275" lon="12.73487333">
        <ele>124.208</ele>
        <time>1970-01-01T01:00:00Z</time>
        <extensions><gpxtpx:TrackPointExtension><gpxtpx:hr>118</gpxtpx:hr></gpxtpx:TrackPointExtension></extensions>
      </trkpt>
      <trkpt lat="56.44126667" lon="12.734855">
        <ele>124.208</ele>
        <time>1970-01-01T01:00:00Z</time>
        <extensions><gpxtpx:TrackPointExtension><gpxtpx:hr>117</gpxtpx:hr></gpxtpx:TrackPointExtension></extensions>
      </trkpt>
      <trkpt lat="56.44125667" lon="12.73483667">
        <ele>124.36</ele>
        <time>1970-01-01T01:00:00Z</time>
        <extensions><gpxtpx:TrackPointExtension><gpxtpx:hr>117</gpxtpx:hr></gpxtpx:TrackPointExtension></extensions>
      </trkpt>
      <trkpt lat="56.44124667" lon="12.73482167">
        <ele>124.512</ele>
        <time>1970-01-01T01:00:00Z</time>
        <extensions><gpxtpx:TrackPointExtension><gpxtpx:hr>116</gpxtpx:hr></gpxtpx:TrackPointExtension></extensions>
      </trkpt>
      <trkpt lat="56.441235" lon="12.73480333">
        <ele>124.512</ele>
        <time>1970-01-01T01:00:00Z</time>
        <extensions><gpxtpx:TrackPointExtension><gpxtpx:hr>116</gpxtpx:hr></gpxtpx:TrackPointExtension></extensions>
      </trkpt>
      <trkpt lat="56.441225" lon="12.73478833">
        <ele>124.665</ele>
        <time>1970-01-01T01:00:00Z</time>
        <extensions><gpxtpx:TrackPointExtension><gpxtpx:hr>116</gpxtpx:hr></gpxtpx:TrackPointExtension></extensions>
      </trkpt>
      <trkpt lat="56.44121667" lon="12.734775">
        <ele>124.665</ele>
        <time>1970-01-01T01:00:00Z</time>
        <extensions><gpxtpx:TrackPointExtension><gpxtpx:hr>115</gpxtpx:hr></gpxtpx:TrackPointExtension></extensions>
      </trkpt>
      <trkpt lat="56.44120667" lon="12.734765">
        <ele>124.665</ele>
        <time>1970-01-01T01:00:00Z</time>
        <extensions><gpxtpx:TrackPointExtension><gpxtpx:hr>114</gpxtpx:hr></gpxtpx:TrackPointExtension></extensions>
      </trkpt>
      <trkpt lat="56.441195" lon="12.73475333">
        <ele>124.817</ele>
        <time>1970-01-01T01:00:00Z</time>
        <extensions><gpxtpx:TrackPointExtension><gpxtpx:hr>114</gpxtpx:hr></gpxtpx:TrackPointExtension></extensions>
      </trkpt>
      <trkpt lat="56.441185" lon="12.73474167">
        <ele>124.817</ele>
        <time>1970-01-01T01:00:00Z</time>
        <extensions><gpxtpx:TrackPointExtension><gpxtpx:hr>114</gpxtpx:hr></gpxtpx:TrackPointExtension></extensions>
      </trkpt>
      <trkpt lat="56.44117333" lon="12.73473333">
        <ele>124.817</ele>
        <time>1970-01-01T01:00:00Z</time>
        <extensions><gpxtpx:TrackPointExtension><gpxtpx:hr>114</gpxtpx:hr></gpxtpx:TrackPointExtension></extensions>
      </trkpt>
      <trkpt lat="56.44116167" lon="12.73472333">
        <ele>124.97</ele>
        <time>1970-01-01T01:00:00Z</time>
        <extensions><gpxtpx:TrackPointExtension><gpxtpx:hr>115</gpxtpx:hr></gpxtpx:TrackPointExtension></extensions>
      </trkpt>
      <trkpt lat="56.44115" lon="12.734715">
        <ele>124.97</ele>
        <time>1970-01-01T01:00:00Z</time>
        <extensions><gpxtpx:TrackPointExtension><gpxtpx:hr>115</gpxtpx:hr></gpxtpx:TrackPointExtension></extensions>
      </trkpt>
      <trkpt lat="56.44113667" lon="12.73470667">
        <ele>124.97</ele>
        <time>1970-01-01T01:00:00Z</time>
        <extensions><gpxtpx:TrackPointExtension><gpxtpx:hr>115</gpxtpx:hr></gpxtpx:TrackPointExtension></extensions>
      </trkpt>
      <trkpt lat="56.44112833" lon="12.73469833">
        <ele>125.122</ele>
        <time>1970-01-01T01:00:00Z</time>
        <extensions><gpxtpx:TrackPointExtension><gpxtpx:hr>115</gpxtpx:hr></gpxtpx:TrackPointExtension></extensions>
      </trkpt>
      <trkpt lat="56.44111833" lon="12.73469167">
        <ele>125.122</ele>
        <time>1970-01-01T01:00:00Z</time>
        <extensions><gpxtpx:TrackPointExtension><gpxtpx:hr>116</gpxtpx:hr></gpxtpx:TrackPointExtension></extensions>
      </trkpt>
      <trkpt lat="56.44110667" lon="12.73468667">
        <ele>125.122</ele>
        <time>1970-01-01T01:00:00Z</time>
        <extensions><gpxtpx:TrackPointExtension><gpxtpx:hr>116</gpxtpx:hr></gpxtpx:TrackPointExtension></extensions>
      </trkpt>
      <trkpt lat="56.441095" lon="12.734685">
        <ele>125.274</ele>
        <time>1970-01-01T01:00:00Z</time>
        <extensions><gpxtpx:TrackPointExtension><gpxtpx:hr>117</gpxtpx:hr></gpxtpx:TrackPointExtension></extensions>
      </trkpt>
      <trkpt lat="56.44108167" lon="12.734685">
        <ele>125.274</ele>
        <time>1970-01-01T01:00:00Z</time>
        <extensions><gpxtpx:TrackPointExtension><gpxtpx:hr>117</gpxtpx:hr></gpxtpx:TrackPointExtension></extensions>
      </trkpt>
      <trkpt lat="56.44106833" lon="12.734685">
        <ele>125.274</ele>
        <time>1970-01-01T01:00:00Z</time>
        <extensions><gpxtpx:TrackPointExtension><gpxtpx:hr>117</gpxtpx:hr></gpxtpx:TrackPointExtension></extensions>
      </trkpt>
      <trkpt lat="56.441055" lon="12.73468667">
        <ele>125.427</ele>
        <time>1970-01-01T01:00:00Z</time>
        <extensions><gpxtpx:TrackPointExtension><gpxtpx:hr>117</gpxtpx:hr></gpxtpx:TrackPointExtension></extensions>
      </trkpt>
      <trkpt lat="56.44104167" lon="12.73468667">
        <ele>125.427</ele>
        <time>1970-01-01T01:00:00Z</time>
        <extensions><gpxtpx:TrackPointExtension><gpxtpx:hr>118</gpxtpx:hr></gpxtpx:TrackPointExtension></extensions>
      </trkpt>
      <trkpt lat="56.44102833" lon="12.73469">
        <ele>125.579</ele>
        <time>1970-01-01T01:00:00Z</time>
        <extensions><gpxtpx:TrackPointExtension><gpxtpx:hr>118</gpxtpx:hr></gpxtpx:TrackPointExtension></extensions>
      </trkpt>
      <trkpt lat="56.441015" lon="12.734695">
        <ele>125.579</ele>
        <time>1970-01-01T01:00:00Z</time>
        <extensions><gpxtpx:TrackPointExtension><gpxtpx:hr>119</gpxtpx:hr></gpxtpx:TrackPointExtension></extensions>
      </trkpt>
      <trkpt lat="56.441" lon="12.73470167">
        <ele>125.732</ele>
        <time>1970-01-01T01:00:00Z</time>
        <extensions><gpxtpx:TrackPointExtension><gpxtpx:hr>119</gpxtpx:hr></gpxtpx:TrackPointExtension></extensions>
      </trkpt>
      <trkpt lat="56.44098667" lon="12.73470667">
        <ele>125.732</ele>
        <time>1970-01-01T01:00:00Z</time>
        <extensions><gpxtpx:TrackPointExtension><gpxtpx:hr>119</gpxtpx:hr></gpxtpx:TrackPointExtension></extensions>
      </trkpt>
      <trkpt lat="56.44097333" lon="12.73471667">
        <ele>125.884</ele>
        <time>1970-01-01T01:00:00Z</time>
        <extensions><gpxtpx:TrackPointExtension><gpxtpx:hr>119</gpxtpx:hr></gpxtpx:TrackPointExtension></extensions>
      </trkpt>
      <trkpt lat="56.44095833" lon="12.73473">
        <ele>125.884</ele>
        <time>1970-01-01T01:00:00Z</time>
        <extensions><gpxtpx:TrackPointExtension><gpxtpx:hr>120</gpxtpx:hr></gpxtpx:TrackPointExtension></extensions>
      </trkpt>
      <trkpt lat="56.44094333" lon="12.73474167">
        <ele>126.036</ele>
        <time>1970-01-01T01:00:00Z</time>
        <extensions><gpxtpx:TrackPointExtension><gpxtpx:hr>120</gpxtpx:hr></gpxtpx:TrackPointExtension></extensions>
      </trkpt>
      <trkpt lat="56.44092833" lon="12.73475333">
        <ele>126.189</ele>
        <time>1970-01-01T01:00:00Z</time>
        <extensions><gpxtpx:TrackPointExtension><gpxtpx:hr>120</gpxtpx:hr></gpxtpx:TrackPointExtension></extensions>
      </trkpt>
      <trkpt lat="56.44091333" lon="12.734765">
        <ele>126.189</ele>
        <time>1970-01-01T01:00:00Z</time>
        <extensions><gpxtpx:TrackPointExtension><gpxtpx:hr>120</gpxtpx:hr></gpxtpx:TrackPointExtension></extensions>
      </trkpt>
      <trkpt lat="56.44089833" lon="12.73478">
        <ele>126.341</ele>
        <time>1970-01-01T01:00:00Z</time>
        <extensions><gpxtpx:TrackPointExtension><gpxtpx:hr>121</gpxtpx:hr></gpxtpx:TrackPointExtension></extensions>
      </trkpt>
      <trkpt lat="56.44088333" lon="12.73479167">
        <ele>126.494</ele>
        <time>1970-01-01T01:00:00Z</time>
        <extensions><gpxtpx:TrackPointExtension><gpxtpx:hr>121</gpxtpx:hr></gpxtpx:TrackPointExtension></extensions>
      </trkpt>
      <trkpt lat="56.44086833" lon="12.73480167">
        <ele>126.494</ele>
        <time>1970-01-01T01:00:00Z</time>
        <extensions><gpxtpx:TrackPointExtension><gpxtpx:hr>121</gpxtpx:hr></gpxtpx:TrackPointExtension></extensions>
      </trkpt>
      <trkpt lat="56.44085333" lon="12.73481333">
        <ele>126.646</ele>
        <time>1970-01-01T01:00:00Z</time>
        <extensions><gpxtpx:TrackPointExtension><gpxtpx:hr>121</gpxtpx:hr></gpxtpx:TrackPointExtension></extensions>
      </trkpt>
      <trkpt lat="56.44083833" lon="12.73482667">
        <ele>126.798</ele>
        <time>1970-01-01T01:00:00Z</time>
        <extensions><gpxtpx:TrackPointExtension><gpxtpx:hr>121</gpxtpx:hr></gpxtpx:TrackPointExtension></extensions>
      </trkpt>
      <trkpt lat="56.44082167" lon="12.73483667">
        <ele>126.798</ele>
        <time>1970-01-01T01:00:00Z</time>
        <extensions><gpxtpx:TrackPointExtension><gpxtpx:hr>121</gpxtpx:hr></gpxtpx:TrackPointExtension></extensions>
      </trkpt>
      <trkpt lat="56.44080667" lon="12.73484667">
        <ele>126.798</ele>
        <time>1970-01-01T01:00:00Z</time>
        <extensions><gpxtpx:TrackPointExtension><gpxtpx:hr>122</gpxtpx:hr></gpxtpx:TrackPointExtension></extensions>
      </trkpt>
      <trkpt lat="56.440795" lon="12.73485333">
        <ele>126.951</ele>
        <time>1970-01-01T01:00:00Z</time>
        <extensions><gpxtpx:TrackPointExtension><gpxtpx:hr>122</gpxtpx:hr></gpxtpx:TrackPointExtension></extensions>
      </trkpt>
      <trkpt lat="56.44078167" lon="12.73486333">
        <ele>126.951</ele>
        <time>1970-01-01T01:00:00Z</time>
        <extensions><gpxtpx:TrackPointExtension><gpxtpx:hr>122</gpxtpx:hr></gpxtpx:TrackPointExtension></extensions>
      </trkpt>
      <trkpt lat="56.44076667" lon="12.73487">
        <ele>126.951</ele>
        <time>1970-01-01T01:00:00Z</time>
        <extensions><gpxtpx:TrackPointExtension><gpxtpx:hr>122</gpxtpx:hr></gpxtpx:TrackPointExtension></extensions>
      </trkpt>
      <trkpt lat="56.44075167" lon="12.73487667">
        <ele>127.103</ele>
        <time>1970-01-01T01:00:00Z</time>
        <extensions><gpxtpx:TrackPointExtension><gpxtpx:hr>124</gpxtpx:hr></gpxtpx:TrackPointExtension></extensions>
      </trkpt>
      <trkpt lat="56.44073833" lon="12.73488167">
        <ele>127.103</ele>
        <time>1970-01-01T01:00:00Z</time>
        <extensions><gpxtpx:TrackPointExtension><gpxtpx:hr>125</gpxtpx:hr></gpxtpx:TrackPointExtension></extensions>
      </trkpt>
      <trkpt lat="56.440725" lon="12.73489333">
        <ele>127.103</ele>
        <time>1970-01-01T01:00:00Z</time>
        <extensions><gpxtpx:TrackPointExtension><gpxtpx:hr>126</gpxtpx:hr></gpxtpx:TrackPointExtension></extensions>
      </trkpt>
      <trkpt lat="56.44071167" lon="12.73490333">
        <ele>127.103</ele>
        <time>1970-01-01T01:00:00Z</time>
        <extensions><gpxtpx:TrackPointExtension><gpxtpx:hr>126</gpxtpx:hr></gpxtpx:TrackPointExtension></extensions>
      </trkpt>
      <trkpt lat="56.44069833" lon="12.73491333">
        <ele>127.103</ele>
        <time>1970-01-01T01:00:00Z</time>
        <extensions><gpxtpx:TrackPointExtension><gpxtpx:hr>126</gpxtpx:hr></gpxtpx:TrackPointExtension></extensions>
      </trkpt>
      <trkpt lat="56.44068667" lon="12.73492167">
        <ele>127.103</ele>
        <time>1970-01-01T01:00:00Z</time>
        <extensions><gpxtpx:TrackPointExtension><gpxtpx:hr>126</gpxtpx:hr></gpxtpx:TrackPointExtension></extensions>
      </trkpt>
      <trkpt lat="56.44067333" lon="12.73493333">
        <ele>127.103</ele>
        <time>1970-01-01T01:00:00Z</time>
        <extensions><gpxtpx:TrackPointExtension><gpxtpx:hr>126</gpxtpx:hr></gpxtpx:TrackPointExtension></extensions>
      </trkpt>
      <trkpt lat="56.44066" lon="12.73494">
        <ele>127.103</ele>
        <time>1970-01-01T01:00:00Z</time>
        <extensions><gpxtpx:TrackPointExtension><gpxtpx:hr>126</gpxtpx:hr></gpxtpx:TrackPointExtension></extensions>
      </trkpt>
      <trkpt lat="56.44064667" lon="12.734945">
        <ele>127.103</ele>
        <time>1970-01-01T01:00:00Z</time>
        <extensions><gpxtpx:TrackPointExtension><gpxtpx:hr>126</gpxtpx:hr></gpxtpx:TrackPointExtension></extensions>
      </trkpt>
      <trkpt lat="56.44063167" lon="12.73495667">
        <ele>127.103</ele>
        <time>1970-01-01T01:00:00Z</time>
        <extensions><gpxtpx:TrackPointExtension><gpxtpx:hr>126</gpxtpx:hr></gpxtpx:TrackPointExtension></extensions>
      </trkpt>
      <trkpt lat="56.44062333" lon="12.73496333">
        <ele>127.256</ele>
        <time>1970-01-01T01:00:00Z</time>
        <extensions><gpxtpx:TrackPointExtension><gpxtpx:hr>126</gpxtpx:hr></gpxtpx:TrackPointExtension></extensions>
      </trkpt>
      <trkpt lat="56.44061" lon="12.73497167">
        <ele>127.256</ele>
        <time>1970-01-01T01:00:00Z</time>
        <extensions><gpxtpx:TrackPointExtension><gpxtpx:hr>126</gpxtpx:hr></gpxtpx:TrackPointExtension></extensions>
      </trkpt>
      <trkpt lat="56.4406" lon="12.73497833">
        <ele>127.256</ele>
        <time>1970-01-01T01:00:00Z</time>
        <extensions><gpxtpx:TrackPointExtension><gpxtpx:hr>125</gpxtpx:hr></gpxtpx:TrackPointExtension></extensions>
      </trkpt>
      <trkpt lat="56.44058833" lon="12.73498667">
        <ele>127.256</ele>
        <time>1970-01-01T01:00:00Z</time>
        <extensions><gpxtpx:TrackPointExtension><gpxtpx:hr>125</gpxtpx:hr></gpxtpx:TrackPointExtension></extensions>
      </trkpt>
      <trkpt lat="56.44057667" lon="12.73499333">
        <ele>127.256</ele>
        <time>1970-01-01T01:00:00Z</time>
        <extensions><gpxtpx:TrackPointExtension><gpxtpx:hr>125</gpxtpx:hr></gpxtpx:TrackPointExtension></extensions>
      </trkpt>
      <trkpt lat="56.44056333" lon="12.73500333">
        <ele>127.256</ele>
        <time>1970-01-01T01:00:00Z</time>
        <extensions><gpxtpx:TrackPointExtension><gpxtpx:hr>125</gpxtpx:hr></gpxtpx:TrackPointExtension></extensions>
      </trkpt>
      <trkpt lat="56.44055167" lon="12.73501667">
        <ele>127.256</ele>
        <time>1970-01-01T01:00:00Z</time>
        <extensions><gpxtpx:TrackPointExtension><gpxtpx:hr>125</gpxtpx:hr></gpxtpx:TrackPointExtension></extensions>
      </trkpt>
      <trkpt lat="56.44053833" lon="12.73503">
        <ele>127.256</ele>
        <time>1970-01-01T01:00:00Z</time>
        <extensions><gpxtpx:TrackPointExtension><gpxtpx:hr>124</gpxtpx:hr></gpxtpx:TrackPointExtension></extensions>
      </trkpt>
      <trkpt lat="56.44052333" lon="12.73504">
        <ele>127.256</ele>
        <time>1970-01-01T01:00:00Z</time>
        <extensions><gpxtpx:TrackPointExtension><gpxtpx:hr>124</gpxtpx:hr></gpxtpx:TrackPointExtension></extensions>
      </trkpt>
      <trkpt lat="56.44051" lon="12.73504833">
        <ele>127.103</ele>
        <time>1970-01-01T01:00:00Z</time>
        <extensions><gpxtpx:TrackPointExtension><gpxtpx:hr>124</gpxtpx:hr></gpxtpx:TrackPointExtension></extensions>
      </trkpt>
      <trkpt lat="56.44049667" lon="12.73505333">
        <ele>127.103</ele>
        <time>1970-01-01T01:00:00Z</time>
        <extensions><gpxtpx:TrackPointExtension><gpxtpx:hr>123</gpxtpx:hr></gpxtpx:TrackPointExtension></extensions>
      </trkpt>
      <trkpt lat="56.44048333" lon="12.73505833">
        <ele>127.103</ele>
        <time>1970-01-01T01:00:00Z</time>
        <extensions><gpxtpx:TrackPointExtension><gpxtpx:hr>123</gpxtpx:hr></gpxtpx:TrackPointExtension></extensions>
      </trkpt>
      <trkpt lat="56.44046833" lon="12.73505833">
        <ele>126.951</ele>
        <time>1970-01-01T01:00:00Z</time>
        <extensions><gpxtpx:TrackPointExtension><gpxtpx:hr>123</gpxtpx:hr></gpxtpx:TrackPointExtension></extensions>
      </trkpt>
      <trkpt lat="56.44045333" lon="12.73505333">
        <ele>126.951</ele>
        <time>1970-01-01T01:00:00Z</time>
        <extensions><gpxtpx:TrackPointExtension><gpxtpx:hr>123</gpxtpx:hr></gpxtpx:TrackPointExtension></extensions>
      </trkpt>
      <trkpt lat="56.44043667" lon="12.73505">
        <ele>126.798</ele>
        <time>1970-01-01T01:00:00Z</time>
        <extensions><gpxtpx:TrackPointExtension><gpxtpx:hr>122</gpxtpx:hr></gpxtpx:TrackPointExtension></extensions>
      </trkpt>
      <trkpt lat="56.44042" lon="12.73504167">
        <ele>126.798</ele>
        <time>1970-01-01T01:00:00Z</time>
        <extensions><gpxtpx:TrackPointExtension><gpxtpx:hr>120</gpxtpx:hr></gpxtpx:TrackPointExtension></extensions>
      </trkpt>
      <trkpt lat="56.440405" lon="12.73503333">
        <ele>126.646</ele>
        <time>1970-01-01T01:00:00Z</time>
        <extensions><gpxtpx:TrackPointExtension><gpxtpx:hr>118</gpxtpx:hr></gpxtpx:TrackPointExtension></extensions>
      </trkpt>
      <trkpt lat="56.44039333" lon="12.73502167">
        <ele>126.646</ele>
        <time>1970-01-01T01:00:00Z</time>
        <extensions><gpxtpx:TrackPointExtension><gpxtpx:hr>117</gpxtpx:hr></gpxtpx:TrackPointExtension></extensions>
      </trkpt>
      <trkpt lat="56.44038" lon="12.73501333">
        <ele>126.494</ele>
        <time>1970-01-01T01:00:00Z</time>
        <extensions><gpxtpx:TrackPointExtension><gpxtpx:hr>117</gpxtpx:hr></gpxtpx:TrackPointExtension></extensions>
      </trkpt>
      <trkpt lat="56.44037" lon="12.73499833">
        <ele>126.494</ele>
        <time>1970-01-01T01:00:00Z</time>
        <extensions><gpxtpx:TrackPointExtension><gpxtpx:hr>117</gpxtpx:hr></gpxtpx:TrackPointExtension></extensions>
      </trkpt>
      <trkpt lat="56.44036" lon="12.73497833">
        <ele>126.341</ele>
        <time>1970-01-01T01:00:00Z</time>
        <extensions><gpxtpx:TrackPointExtension><gpxtpx:hr>116</gpxtpx:hr></gpxtpx:TrackPointExtension></extensions>
      </trkpt>
      <trkpt lat="56.44034833" lon="12.73495333">
        <ele>126.341</ele>
        <time>1970-01-01T01:00:00Z</time>
        <extensions><gpxtpx:TrackPointExtension><gpxtpx:hr>116</gpxtpx:hr></gpxtpx:TrackPointExtension></extensions>
      </trkpt>
      <trkpt lat="56.44034167" lon="12.73492667">
        <ele>126.189</ele>
        <time>1970-01-01T01:00:00Z</time>
        <extensions><gpxtpx:TrackPointExtension><gpxtpx:hr>116</gpxtpx:hr></gpxtpx:TrackPointExtension></extensions>
      </trkpt>
      <trkpt lat="56.44033667" lon="12.7349">
        <ele>126.189</ele>
        <time>1970-01-01T01:00:00Z</time>
        <extensions><gpxtpx:TrackPointExtension><gpxtpx:hr>116</gpxtpx:hr></gpxtpx:TrackPointExtension></extensions>
      </trkpt>
      <trkpt lat="56.44033167" lon="12.73487333">
        <ele>126.036</ele>
        <time>1970-01-01T01:00:00Z</time>
        <extensions><gpxtpx:TrackPointExtension><gpxtpx:hr>116</gpxtpx:hr></gpxtpx:TrackPointExtension></extensions>
      </trkpt>
      <trkpt lat="56.44032833" lon="12.73484833">
        <ele>125.884</ele>
        <time>1970-01-01T01:00:00Z</time>
        <extensions><gpxtpx:TrackPointExtension><gpxtpx:hr>117</gpxtpx:hr></gpxtpx:TrackPointExtension></extensions>
      </trkpt>
      <trkpt lat="56.440325" lon="12.73482333">
        <ele>125.884</ele>
        <time>1970-01-01T01:00:00Z</time>
        <extensions><gpxtpx:TrackPointExtension><gpxtpx:hr>118</gpxtpx:hr></gpxtpx:TrackPointExtension></extensions>
      </trkpt>
      <trkpt lat="56.44032167" lon="12.7348">
        <ele>125.732</ele>
        <time>1970-01-01T01:00:00Z</time>
        <extensions><gpxtpx:TrackPointExtension><gpxtpx:hr>119</gpxtpx:hr></gpxtpx:TrackPointExtension></extensions>
      </trkpt>
      <trkpt lat="56.44031667" lon="12.73477333">
        <ele>125.732</ele>
        <time>1970-01-01T01:00:00Z</time>
        <extensions><gpxtpx:TrackPointExtension><gpxtpx:hr>119</gpxtpx:hr></gpxtpx:TrackPointExtension></extensions>
      </trkpt>
      <trkpt lat="56.44031167" lon="12.734745">
        <ele>125.579</ele>
        <time>1970-01-01T01:00:00Z</time>
        <extensions><gpxtpx:TrackPointExtension><gpxtpx:hr>119</gpxtpx:hr></gpxtpx:TrackPointExtension></extensions>
      </trkpt>
      <trkpt lat="56.44030667" lon="12.73471833">
        <ele>125.579</ele>
        <time>1970-01-01T01:00:00Z</time>
        <extensions><gpxtpx:TrackPointExtension><gpxtpx:hr>120</gpxtpx:hr></gpxtpx:TrackPointExtension></extensions>
      </trkpt>
      <trkpt lat="56.4403" lon="12.73469333">
        <ele>125.427</ele>
        <time>1970-01-01T01:00:00Z</time>
        <extensions><gpxtpx:TrackPointExtension><gpxtpx:hr>120</gpxtpx:hr></gpxtpx:TrackPointExtension></extensions>
      </trkpt>
      <trkpt lat="56.440295" lon="12.73467">
        <ele>125.427</ele>
        <time>1970-01-01T01:00:00Z</time>
        <extensions><gpxtpx:TrackPointExtension><gpxtpx:hr>119</gpxtpx:hr></gpxtpx:TrackPointExtension></extensions>
      </trkpt>
      <trkpt lat="56.44029167" lon="12.73464667">
        <ele>125.274</ele>
        <time>1970-01-01T01:00:00Z</time>
        <extensions><gpxtpx:TrackPointExtension><gpxtpx:hr>119</gpxtpx:hr></gpxtpx:TrackPointExtension></extensions>
      </trkpt>
      <trkpt lat="56.44029" lon="12.73462333">
        <ele>125.274</ele>
        <time>1970-01-01T01:00:00Z</time>
        <extensions><gpxtpx:TrackPointExtension><gpxtpx:hr>119</gpxtpx:hr></gpxtpx:TrackPointExtension></extensions>
      </trkpt>
      <trkpt lat="56.44028667" lon="12.73460167">
        <ele>125.122</ele>
        <time>1970-01-01T01:00:00Z</time>
        <extensions><gpxtpx:TrackPointExtension><gpxtpx:hr>117</gpxtpx:hr></gpxtpx:TrackPointExtension></extensions>
      </trkpt>
      <trkpt lat="56.44028167" lon="12.734575">
        <ele>125.122</ele>
        <time>1970-01-01T01:00:00Z</time>
        <extensions><gpxtpx:TrackPointExtension><gpxtpx:hr>117</gpxtpx:hr></gpxtpx:TrackPointExtension></extensions>
      </trkpt>
      <trkpt lat="56.44027833" lon="12.73455167">
        <ele>124.97</ele>
        <time>1970-01-01T01:00:00Z</time>
        <extensions><gpxtpx:TrackPointExtension><gpxtpx:hr>116</gpxtpx:hr></gpxtpx:TrackPointExtension></extensions>
      </trkpt>
      <trkpt lat="56.44027333" lon="12.73452667">
        <ele>124.97</ele>
        <time>1970-01-01T01:00:00Z</time>
        <extensions><gpxtpx:TrackPointExtension><gpxtpx:hr>116</gpxtpx:hr></gpxtpx:TrackPointExtension></extensions>
      </trkpt>
      <trkpt lat="56.44027" lon="12.73450333">
        <ele>124.817</ele>
        <time>1970-01-01T01:00:00Z</time>
        <extensions><gpxtpx:TrackPointExtension><gpxtpx:hr>115</gpxtpx:hr></gpxtpx:TrackPointExtension></extensions>
      </trkpt>
      <trkpt lat="56.440265" lon="12.73447833">
        <ele>124.817</ele>
        <time>1970-01-01T01:00:00Z</time>
        <extensions><gpxtpx:TrackPointExtension><gpxtpx:hr>115</gpxtpx:hr></gpxtpx:TrackPointExtension></extensions>
      </trkpt>
      <trkpt lat="56.44026167" lon="12.73445167">
        <ele>124.665</ele>
        <time>1970-01-01T01:00:00Z</time>
        <extensions><gpxtpx:TrackPointExtension><gpxtpx:hr>115</gpxtpx:hr></gpxtpx:TrackPointExtension></extensions>
      </trkpt>
      <trkpt lat="56.44025667" lon="12.73442833">
        <ele>124.512</ele>
        <time>1970-01-01T01:00:00Z</time>
        <extensions><gpxtpx:TrackPointExtension><gpxtpx:hr>115</gpxtpx:hr></gpxtpx:TrackPointExtension></extensions>
      </trkpt>
      <trkpt lat="56.44025" lon="12.73440167">
        <ele>124.512</ele>
        <time>1970-01-01T01:00:00Z</time>
        <extensions><gpxtpx:TrackPointExtension><gpxtpx:hr>115</gpxtpx:hr></gpxtpx:TrackPointExtension></extensions>
      </trkpt>
      <trkpt lat="56.440245" lon="12.734375">
        <ele>124.36</ele>
        <time>1970-01-01T01:00:00Z</time>
        <extensions><gpxtpx:TrackPointExtension><gpxtpx:hr>115</gpxtpx:hr></gpxtpx:TrackPointExtension></extensions>
      </trkpt>
      <trkpt lat="56.44024167" lon="12.73434667">
        <ele>124.208</ele>
        <time>1970-01-01T01:00:00Z</time>
        <extensions><gpxtpx:TrackPointExtension><gpxtpx:hr>115</gpxtpx:hr></gpxtpx:TrackPointExtension></extensions>
      </trkpt>
      <trkpt lat="56.44023667" lon="12.73431833">
        <ele>124.208</ele>
        <time>1970-01-01T01:00:00Z</time>
        <extensions><gpxtpx:TrackPointExtension><gpxtpx:hr>116</gpxtpx:hr></gpxtpx:TrackPointExtension></extensions>
      </trkpt>
      <trkpt lat="56.44023333" lon="12.73429333">
        <ele>124.055</ele>
        <time>1970-01-01T01:00:00Z</time>
        <extensions><gpxtpx:TrackPointExtension><gpxtpx:hr>117</gpxtpx:hr></gpxtpx:TrackPointExtension></extensions>
      </trkpt>
      <trkpt lat="56.44022667" lon="12.73426667">
        <ele>123.903</ele>
        <time>1970-01-01T01:00:00Z</time>
        <extensions><gpxtpx:TrackPointExtension><gpxtpx:hr>117</gpxtpx:hr></gpxtpx:TrackPointExtension></extensions>
      </trkpt>
      <trkpt lat="56.44022" lon="12.73424333">
        <ele>123.75</ele>
        <time>1970-01-01T01:00:00Z</time>
        <extensions><gpxtpx:TrackPointExtension><gpxtpx:hr>117</gpxtpx:hr></gpxtpx:TrackPointExtension></extensions>
      </trkpt>
      <trkpt lat="56.440215" lon="12.73421667">
        <ele>123.75</ele>
        <time>1970-01-01T01:00:00Z</time>
        <extensions><gpxtpx:TrackPointExtension><gpxtpx:hr>117</gpxtpx:hr></gpxtpx:TrackPointExtension></extensions>
      </trkpt>
      <trkpt lat="56.44020833" lon="12.73419">
        <ele>123.598</ele>
        <time>1970-01-01T01:00:00Z</time>
        <extensions><gpxtpx:TrackPointExtension><gpxtpx:hr>118</gpxtpx:hr></gpxtpx:TrackPointExtension></extensions>
      </trkpt>
      <trkpt lat="56.44020333" lon="12.73416333">
        <ele>123.598</ele>
        <time>1970-01-01T01:00:00Z</time>
        <extensions><gpxtpx:TrackPointExtension><gpxtpx:hr>118</gpxtpx:hr></gpxtpx:TrackPointExtension></extensions>
      </trkpt>
      <trkpt lat="56.4402" lon="12.73413667">
        <ele>123.445</ele>
        <time>1970-01-01T01:00:00Z</time>
        <extensions><gpxtpx:TrackPointExtension><gpxtpx:hr>118</gpxtpx:hr></gpxtpx:TrackPointExtension></extensions>
      </trkpt>
      <trkpt lat="56.440195" lon="12.73411">
        <ele>123.445</ele>
        <time>1970-01-01T01:00:00Z</time>
        <extensions><gpxtpx:TrackPointExtension><gpxtpx:hr>118</gpxtpx:hr></gpxtpx:TrackPointExtension></extensions>
      </trkpt>
      <trkpt lat="56.44019167" lon="12.73408667">
        <ele>123.293</ele>
        <time>1970-01-01T01:00:00Z</time>
        <extensions><gpxtpx:TrackPointExtension><gpxtpx:hr>118</gpxtpx:hr></gpxtpx:TrackPointExtension></extensions>
      </trkpt>
      <trkpt lat="56.44018833" lon="12.73406167">
        <ele>123.293</ele>
        <time>1970-01-01T01:00:00Z</time>
        <extensions><gpxtpx:TrackPointExtension><gpxtpx:hr>118</gpxtpx:hr></gpxtpx:TrackPointExtension></extensions>
      </trkpt>
      <trkpt lat="56.44018167" lon="12.734035">
        <ele>123.141</ele>
        <time>1970-01-01T01:00:00Z</time>
        <extensions><gpxtpx:TrackPointExtension><gpxtpx:hr>119</gpxtpx:hr></gpxtpx:TrackPointExtension></extensions>
      </trkpt>
      <trkpt lat="56.44017667" lon="12.73400833">
        <ele>123.141</ele>
        <time>1970-01-01T01:00:00Z</time>
        <extensions><gpxtpx:TrackPointExtension><gpxtpx:hr>119</gpxtpx:hr></gpxtpx:TrackPointExtension></extensions>
      </trkpt>
      <trkpt lat="56.44017167" lon="12.733985">
        <ele>122.988</ele>
        <time>1970-01-01T01:00:00Z</time>
        <extensions><gpxtpx:TrackPointExtension><gpxtpx:hr>119</gpxtpx:hr></gpxtpx:TrackPointExtension></extensions>
      </trkpt>
      <trkpt lat="56.44016833" lon="12.73396167">
        <ele>122.988</ele>
        <time>1970-01-01T01:00:00Z</time>
        <extensions><gpxtpx:TrackPointExtension><gpxtpx:hr>119</gpxtpx:hr></gpxtpx:TrackPointExtension></extensions>
      </trkpt>
      <trkpt lat="56.440165" lon="12.73394">
        <ele>122.836</ele>
        <time>1970-01-01T01:00:00Z</time>
        <extensions><gpxtpx:TrackPointExtension><gpxtpx:hr>118</gpxtpx:hr></gpxtpx:TrackPointExtension></extensions>
      </trkpt>
      <trkpt lat="56.44016167" lon="12.73391833">
        <ele>122.836</ele>
        <time>1970-01-01T01:00:00Z</time>
        <extensions><gpxtpx:TrackPointExtension><gpxtpx:hr>118</gpxtpx:hr></gpxtpx:TrackPointExtension></extensions>
      </trkpt>
      <trkpt lat="56.44015833" lon="12.733895">
        <ele>122.683</ele>
        <time>1970-01-01T01:00:00Z</time>
        <extensions><gpxtpx:TrackPointExtension><gpxtpx:hr>118</gpxtpx:hr></gpxtpx:TrackPointExtension></extensions>
      </trkpt>
      <trkpt lat="56.440155" lon="12.73386833">
        <ele>122.531</ele>
        <time>1970-01-01T01:00:00Z</time>
        <extensions><gpxtpx:TrackPointExtension><gpxtpx:hr>118</gpxtpx:hr></gpxtpx:TrackPointExtension></extensions>
      </trkpt>
      <trkpt lat="56.44015333" lon="12.733845">
        <ele>122.531</ele>
        <time>1970-01-01T01:00:00Z</time>
        <extensions><gpxtpx:TrackPointExtension><gpxtpx:hr>118</gpxtpx:hr></gpxtpx:TrackPointExtension></extensions>
      </trkpt>
      <trkpt lat="56.44014667" lon="12.73381167">
        <ele>122.379</ele>
        <time>1970-01-01T01:00:00Z</time>
        <extensions><gpxtpx:TrackPointExtension><gpxtpx:hr>118</gpxtpx:hr></gpxtpx:TrackPointExtension></extensions>
      </trkpt>
      <trkpt lat="56.44014" lon="12.733785">
        <ele>122.226</ele>
        <time>1970-01-01T01:00:00Z</time>
        <extensions><gpxtpx:TrackPointExtension><gpxtpx:hr>119</gpxtpx:hr></gpxtpx:TrackPointExtension></extensions>
      </trkpt>
      <trkpt lat="56.440135" lon="12.73376167">
        <ele>122.226</ele>
        <time>1970-01-01T01:00:00Z</time>
        <extensions><gpxtpx:TrackPointExtension><gpxtpx:hr>119</gpxtpx:hr></gpxtpx:TrackPointExtension></extensions>
      </trkpt>
      <trkpt lat="56.44013" lon="12.73373667">
        <ele>122.074</ele>
        <time>1970-01-01T01:00:00Z</time>
        <extensions><gpxtpx:TrackPointExtension><gpxtpx:hr>121</gpxtpx:hr></gpxtpx:TrackPointExtension></extensions>
      </trkpt>
      <trkpt lat="56.440125" lon="12.73371333">
        <ele>121.921</ele>
        <time>1970-01-01T01:00:00Z</time>
        <extensions><gpxtpx:TrackPointExtension><gpxtpx:hr>121</gpxtpx:hr></gpxtpx:TrackPointExtension></extensions>
      </trkpt>
      <trkpt lat="56.44012" lon="12.73369">
        <ele>121.769</ele>
        <time>1970-01-01T01:00:00Z</time>
        <extensions><gpxtpx:TrackPointExtension><gpxtpx:hr>122</gpxtpx:hr></gpxtpx:TrackPointExtension></extensions>
      </trkpt>
      <trkpt lat="56.44011667" lon="12.73366667">
        <ele>121.769</ele>
        <time>1970-01-01T01:00:00Z</time>
        <extensions><gpxtpx:TrackPointExtension><gpxtpx:hr>122</gpxtpx:hr></gpxtpx:TrackPointExtension></extensions>
      </trkpt>
      <trkpt lat="56.44011333" lon="12.73364333">
        <ele>121.617</ele>
        <time>1970-01-01T01:00:00Z</time>
        <extensions><gpxtpx:TrackPointExtension><gpxtpx:hr>122</gpxtpx:hr></gpxtpx:TrackPointExtension></extensions>
      </trkpt>
      <trkpt lat="56.44010833" lon="12.73361833">
        <ele>121.464</ele>
        <time>1970-01-01T01:00:00Z</time>
        <extensions><gpxtpx:TrackPointExtension><gpxtpx:hr>122</gpxtpx:hr></gpxtpx:TrackPointExtension></extensions>
      </trkpt>
      <trkpt lat="56.44010333" lon="12.73359167">
        <ele>121.464</ele>
        <time>1970-01-01T01:00:00Z</time>
        <extensions><gpxtpx:TrackPointExtension><gpxtpx:hr>122</gpxtpx:hr></gpxtpx:TrackPointExtension></extensions>
      </trkpt>
      <trkpt lat="56.44009833" lon="12.73356667">
        <ele>121.312</ele>
        <time>1970-01-01T01:00:00Z</time>
        <extensions><gpxtpx:TrackPointExtension><gpxtpx:hr>122</gpxtpx:hr></gpxtpx:TrackPointExtension></extensions>
      </trkpt>
      <trkpt lat="56.44009" lon="12.73354167">
        <ele>121.159</ele>
        <time>1970-01-01T01:00:00Z</time>
        <extensions><gpxtpx:TrackPointExtension><gpxtpx:hr>122</gpxtpx:hr></gpxtpx:TrackPointExtension></extensions>
      </trkpt>
      <trkpt lat="56.44008167" lon="12.733515">
        <ele>121.159</ele>
        <time>1970-01-01T01:00:00Z</time>
        <extensions><gpxtpx:TrackPointExtension><gpxtpx:hr>122</gpxtpx:hr></gpxtpx:TrackPointExtension></extensions>
      </trkpt>
      <trkpt lat="56.440075" lon="12.73348667">
        <ele>121.007</ele>
        <time>1970-01-01T01:00:00Z</time>
        <extensions><gpxtpx:TrackPointExtension><gpxtpx:hr>122</gpxtpx:hr></gpxtpx:TrackPointExtension></extensions>
      </trkpt>
      <trkpt lat="56.44007" lon="12.73346167">
        <ele>120.855</ele>
        <time>1970-01-01T01:00:00Z</time>
        <extensions><gpxtpx:TrackPointExtension><gpxtpx:hr>122</gpxtpx:hr></gpxtpx:TrackPointExtension></extensions>
      </trkpt>
      <trkpt lat="56.44006667" lon="12.73343667">
        <ele>120.855</ele>
        <time>1970-01-01T01:00:00Z</time>
        <extensions><gpxtpx:TrackPointExtension><gpxtpx:hr>122</gpxtpx:hr></gpxtpx:TrackPointExtension></extensions>
      </trkpt>
      <trkpt lat="56.44006333" lon="12.73341667">
        <ele>120.702</ele>
        <time>1970-01-01T01:00:00Z</time>
        <extensions><gpxtpx:TrackPointExtension><gpxtpx:hr>123</gpxtpx:hr></gpxtpx:TrackPointExtension></extensions>
      </trkpt>
      <trkpt lat="56.44005833" lon="12.733395">
        <ele>120.702</ele>
        <time>1970-01-01T01:00:00Z</time>
        <extensions><gpxtpx:TrackPointExtension><gpxtpx:hr>123</gpxtpx:hr></gpxtpx:TrackPointExtension></extensions>
      </trkpt>
      <trkpt lat="56.44005167" lon="12.73337167">
        <ele>120.55</ele>
        <time>1970-01-01T01:00:00Z</time>
        <extensions><gpxtpx:TrackPointExtension><gpxtpx:hr>122</gpxtpx:hr></gpxtpx:TrackPointExtension></extensions>
      </trkpt>
      <trkpt lat="56.440045" lon="12.73335">
        <ele>120.55</ele>
        <time>1970-01-01T01:00:00Z</time>
        <extensions><gpxtpx:TrackPointExtension><gpxtpx:hr>122</gpxtpx:hr></gpxtpx:TrackPointExtension></extensions>
      </trkpt>
      <trkpt lat="56.44004333" lon="12.73333">
        <ele>120.397</ele>
        <time>1970-01-01T01:00:00Z</time>
        <extensions><gpxtpx:TrackPointExtension><gpxtpx:hr>122</gpxtpx:hr></gpxtpx:TrackPointExtension></extensions>
      </trkpt>
      <trkpt lat="56.44003667" lon="12.73331">
        <ele>120.397</ele>
        <time>1970-01-01T01:00:00Z</time>
        <extensions><gpxtpx:TrackPointExtension><gpxtpx:hr>121</gpxtpx:hr></gpxtpx:TrackPointExtension></extensions>
      </trkpt>
      <trkpt lat="56.44003" lon="12.73329167">
        <ele>120.245</ele>
        <time>1970-01-01T01:00:00Z</time>
        <extensions><gpxtpx:TrackPointExtension><gpxtpx:hr>121</gpxtpx:hr></gpxtpx:TrackPointExtension></extensions>
      </trkpt>
      <trkpt lat="56.44002" lon="12.73327">
        <ele>120.245</ele>
        <time>1970-01-01T01:00:00Z</time>
        <extensions><gpxtpx:TrackPointExtension><gpxtpx:hr>121</gpxtpx:hr></gpxtpx:TrackPointExtension></extensions>
      </trkpt>
      <trkpt lat="56.44001167" lon="12.73325167">
        <ele>120.093</ele>
        <time>1970-01-01T01:00:00Z</time>
        <extensions><gpxtpx:TrackPointExtension><gpxtpx:hr>121</gpxtpx:hr></gpxtpx:TrackPointExtension></extensions>
      </trkpt>
      <trkpt lat="56.44000167" lon="12.73323333">
        <ele>120.093</ele>
        <time>1970-01-01T01:00:00Z</time>
        <extensions><gpxtpx:TrackPointExtension><gpxtpx:hr>121</gpxtpx:hr></gpxtpx:TrackPointExtension></extensions>
      </trkpt>
      <trkpt lat="56.43999333" lon="12.733215">
        <ele>120.093</ele>
        <time>1970-01-01T01:00:00Z</time>
        <extensions><gpxtpx:TrackPointExtension><gpxtpx:hr>121</gpxtpx:hr></gpxtpx:TrackPointExtension></extensions>
      </trkpt>
      <trkpt lat="56.439985" lon="12.73319667">
        <ele>120.093</ele>
        <time>1970-01-01T01:00:00Z</time>
        <extensions><gpxtpx:TrackPointExtension><gpxtpx:hr>121</gpxtpx:hr></gpxtpx:TrackPointExtension></extensions>
      </trkpt>
      <trkpt lat="56.439975" lon="12.73318167">
        <ele>119.94</ele>
        <time>1970-01-01T01:00:00Z</time>
        <extensions><gpxtpx:TrackPointExtension><gpxtpx:hr>120</gpxtpx:hr></gpxtpx:TrackPointExtension></extensions>
      </trkpt>
      <trkpt lat="56.439965" lon="12.73316667">
        <ele>119.94</ele>
        <time>1970-01-01T01:00:00Z</time>
        <extensions><gpxtpx:TrackPointExtension><gpxtpx:hr>120</gpxtpx:hr></gpxtpx:TrackPointExtension></extensions>
      </trkpt>
      <trkpt lat="56.439955" lon="12.73315167">
        <ele>119.94</ele>
        <time>1970-01-01T01:00:00Z</time>
        <extensions><gpxtpx:TrackPointExtension><gpxtpx:hr>120</gpxtpx:hr></gpxtpx:TrackPointExtension></extensions>
      </trkpt>
      <trkpt lat="56.43994667" lon="12.733135">
        <ele>119.788</ele>
        <time>1970-01-01T01:00:00Z</time>
        <extensions><gpxtpx:TrackPointExtension><gpxtpx:hr>120</gpxtpx:hr></gpxtpx:TrackPointExtension></extensions>
      </trkpt>
      <trkpt lat="56.439935" lon="12.73312">
        <ele>119.788</ele>
        <time>1970-01-01T01:00:00Z</time>
        <extensions><gpxtpx:TrackPointExtension><gpxtpx:hr>120</gpxtpx:hr></gpxtpx:TrackPointExtension></extensions>
      </trkpt>
      <trkpt lat="56.439925" lon="12.73311">
        <ele>119.788</ele>
        <time>1970-01-01T01:00:00Z</time>
        <extensions><gpxtpx:TrackPointExtension><gpxtpx:hr>121</gpxtpx:hr></gpxtpx:TrackPointExtension></extensions>
      </trkpt>
      <trkpt lat="56.439915" lon="12.73310333">
        <ele>119.635</ele>
        <time>1970-01-01T01:00:00Z</time>
        <extensions><gpxtpx:TrackPointExtension><gpxtpx:hr>119</gpxtpx:hr></gpxtpx:TrackPointExtension></extensions>
      </trkpt>
      <trkpt lat="56.43990333" lon="12.733095">
        <ele>119.635</ele>
        <time>1970-01-01T01:00:00Z</time>
        <extensions><gpxtpx:TrackPointExtension><gpxtpx:hr>119</gpxtpx:hr></gpxtpx:TrackPointExtension></extensions>
      </trkpt>
      <trkpt lat="56.43988833" lon="12.73308833">
        <ele>119.635</ele>
        <time>1970-01-01T01:00:00Z</time>
        <extensions><gpxtpx:TrackPointExtension><gpxtpx:hr>119</gpxtpx:hr></gpxtpx:TrackPointExtension></extensions>
      </trkpt>
      <trkpt lat="56.439875" lon="12.73308167">
        <ele>119.483</ele>
        <time>1970-01-01T01:00:00Z</time>
        <extensions><gpxtpx:TrackPointExtension><gpxtpx:hr>120</gpxtpx:hr></gpxtpx:TrackPointExtension></extensions>
      </trkpt>
      <trkpt lat="56.43986167" lon="12.733075">
        <ele>119.483</ele>
        <time>1970-01-01T01:00:00Z</time>
        <extensions><gpxtpx:TrackPointExtension><gpxtpx:hr>120</gpxtpx:hr></gpxtpx:TrackPointExtension></extensions>
      </trkpt>
      <trkpt lat="56.439845" lon="12.73307">
        <ele>119.331</ele>
        <time>1970-01-01T01:00:00Z</time>
        <extensions><gpxtpx:TrackPointExtension><gpxtpx:hr>120</gpxtpx:hr></gpxtpx:TrackPointExtension></extensions>
      </trkpt>
      <trkpt lat="56.43982833" lon="12.73307">
        <ele>119.331</ele>
        <time>1970-01-01T01:00:00Z</time>
        <extensions><gpxtpx:TrackPointExtension><gpxtpx:hr>120</gpxtpx:hr></gpxtpx:TrackPointExtension></extensions>
      </trkpt>
      <trkpt lat="56.43981167" lon="12.73307">
        <ele>119.178</ele>
        <time>1970-01-01T01:00:00Z</time>
        <extensions><gpxtpx:TrackPointExtension><gpxtpx:hr>119</gpxtpx:hr></gpxtpx:TrackPointExtension></extensions>
      </trkpt>
      <trkpt lat="56.43979333" lon="12.73307167">
        <ele>119.178</ele>
        <time>1970-01-01T01:00:00Z</time>
        <extensions><gpxtpx:TrackPointExtension><gpxtpx:hr>119</gpxtpx:hr></gpxtpx:TrackPointExtension></extensions>
      </trkpt>
      <trkpt lat="56.43977833" lon="12.73307167">
        <ele>119.026</ele>
        <time>1970-01-01T01:00:00Z</time>
        <extensions><gpxtpx:TrackPointExtension><gpxtpx:hr>118</gpxtpx:hr></gpxtpx:TrackPointExtension></extensions>
      </trkpt>
      <trkpt lat="56.43976167" lon="12.73306833">
        <ele>119.026</ele>
        <time>1970-01-01T01:00:00Z</time>
        <extensions><gpxtpx:TrackPointExtension><gpxtpx:hr>118</gpxtpx:hr></gpxtpx:TrackPointExtension></extensions>
      </trkpt>
      <trkpt lat="56.43974667" lon="12.73306833">
        <ele>118.873</ele>
        <time>1970-01-01T01:00:00Z</time>
        <extensions><gpxtpx:TrackPointExtension><gpxtpx:hr>117</gpxtpx:hr></gpxtpx:TrackPointExtension></extensions>
      </trkpt>
      <trkpt lat="56.43973" lon="12.73307">
        <ele>118.873</ele>
        <time>1970-01-01T01:00:00Z</time>
        <extensions><gpxtpx:TrackPointExtension><gpxtpx:hr>117</gpxtpx:hr></gpxtpx:TrackPointExtension></extensions>
      </trkpt>
      <trkpt lat="56.43971667" lon="12.73306833">
        <ele>118.721</ele>
        <time>1970-01-01T01:00:00Z</time>
        <extensions><gpxtpx:TrackPointExtension><gpxtpx:hr>116</gpxtpx:hr></gpxtpx:TrackPointExtension></extensions>
      </trkpt>
      <trkpt lat="56.4397" lon="12.73306667">
        <ele>118.721</ele>
        <time>1970-01-01T01:00:00Z</time>
        <extensions><gpxtpx:TrackPointExtension><gpxtpx:hr>116</gpxtpx:hr></gpxtpx:TrackPointExtension></extensions>
      </trkpt>
      <trkpt lat="56.439685" lon="12.733065">
        <ele>118.569</ele>
        <time>1970-01-01T01:00:00Z</time>
        <extensions><gpxtpx:TrackPointExtension><gpxtpx:hr>116</gpxtpx:hr></gpxtpx:TrackPointExtension></extensions>
      </trkpt>
      <trkpt lat="56.43967167" lon="12.73306333">
        <ele>118.569</ele>
        <time>1970-01-01T01:00:00Z</time>
        <extensions><gpxtpx:TrackPointExtension><gpxtpx:hr>116</gpxtpx:hr></gpxtpx:TrackPointExtension></extensions>
      </trkpt>
      <trkpt lat="56.43965667" lon="12.733065">
        <ele>118.416</ele>
        <time>1970-01-01T01:00:00Z</time>
        <extensions><gpxtpx:TrackPointExtension><gpxtpx:hr>116</gpxtpx:hr></gpxtpx:TrackPointExtension></extensions>
      </trkpt>
      <trkpt lat="56.43964167" lon="12.73306833">
        <ele>118.416</ele>
        <time>1970-01-01T01:00:00Z</time>
        <extensions><gpxtpx:TrackPointExtension><gpxtpx:hr>116</gpxtpx:hr></gpxtpx:TrackPointExtension></extensions>
      </trkpt>
      <trkpt lat="56.43963" lon="12.73307">
        <ele>118.416</ele>
        <time>1970-01-01T01:00:00Z</time>
        <extensions><gpxtpx:TrackPointExtension><gpxtpx:hr>117</gpxtpx:hr></gpxtpx:TrackPointExtension></extensions>
      </trkpt>
      <trkpt lat="56.439615" lon="12.733065">
        <ele>118.264</ele>
        <time>1970-01-01T01:00:00Z</time>
        <extensions><gpxtpx:TrackPointExtension><gpxtpx:hr>116</gpxtpx:hr></gpxtpx:TrackPointExtension></extensions>
      </trkpt>
      <trkpt lat="56.43960333" lon="12.73305667">
        <ele>118.264</ele>
        <time>1970-01-01T01:00:00Z</time>
        <extensions><gpxtpx:TrackPointExtension><gpxtpx:hr>115</gpxtpx:hr></gpxtpx:TrackPointExtension></extensions>
      </trkpt>
      <trkpt lat="56.43959167" lon="12.73304833">
        <ele>118.264</ele>
        <time>1970-01-01T01:00:00Z</time>
        <extensions><gpxtpx:TrackPointExtension><gpxtpx:hr>115</gpxtpx:hr></gpxtpx:TrackPointExtension></extensions>
      </trkpt>
      <trkpt lat="56.43957833" lon="12.73304667">
        <ele>118.111</ele>
        <time>1970-01-01T01:00:00Z</time>
        <extensions><gpxtpx:TrackPointExtension><gpxtpx:hr>114</gpxtpx:hr></gpxtpx:TrackPointExtension></extensions>
      </trkpt>
      <trkpt lat="56.439565" lon="12.73304833">
        <ele>118.111</ele>
        <time>1970-01-01T01:00:00Z</time>
        <extensions><gpxtpx:TrackPointExtension><gpxtpx:hr>113</gpxtpx:hr></gpxtpx:TrackPointExtension></extensions>
      </trkpt>
      <trkpt lat="56.43955" lon="12.73304667">
        <ele>118.111</ele>
        <time>1970-01-01T01:00:00Z</time>
        <extensions><gpxtpx:TrackPointExtension><gpxtpx:hr>111</gpxtpx:hr></gpxtpx:TrackPointExtension></extensions>
      </trkpt>
      <trkpt lat="56.43953167" lon="12.73304167">
        <ele>118.111</ele>
        <time>1970-01-01T01:00:00Z</time>
        <extensions><gpxtpx:TrackPointExtension><gpxtpx:hr>110</gpxtpx:hr></gpxtpx:TrackPointExtension></extensions>
      </trkpt>
      <trkpt lat="56.43951833" lon="12.73304">
        <ele>117.959</ele>
        <time>1970-01-01T01:00:00Z</time>
        <extensions><gpxtpx:TrackPointExtension><gpxtpx:hr>109</gpxtpx:hr></gpxtpx:TrackPointExtension></extensions>
      </trkpt>
      <trkpt lat="56.439505" lon="12.73303667">
        <ele>117.959</ele>
        <time>1970-01-01T01:00:00Z</time>
        <extensions><gpxtpx:TrackPointExtension><gpxtpx:hr>108</gpxtpx:hr></gpxtpx:TrackPointExtension></extensions>
      </trkpt>
      <trkpt lat="56.43949167" lon="12.73303667">
        <ele>117.959</ele>
        <time>1970-01-01T01:00:00Z</time>
        <extensions><gpxtpx:TrackPointExtension><gpxtpx:hr>107</gpxtpx:hr></gpxtpx:TrackPointExtension></extensions>
      </trkpt>
      <trkpt lat="56.43948" lon="12.73303167">
        <ele>117.807</ele>
        <time>1970-01-01T01:00:00Z</time>
        <extensions><gpxtpx:TrackPointExtension><gpxtpx:hr>106</gpxtpx:hr></gpxtpx:TrackPointExtension></extensions>
      </trkpt>
      <trkpt lat="56.439465" lon="12.73302667">
        <ele>117.807</ele>
        <time>1970-01-01T01:00:00Z</time>
        <extensions><gpxtpx:TrackPointExtension><gpxtpx:hr>104</gpxtpx:hr></gpxtpx:TrackPointExtension></extensions>
      </trkpt>
      <trkpt lat="56.43944833" lon="12.73302">
        <ele>117.654</ele>
        <time>1970-01-01T01:00:00Z</time>
        <extensions><gpxtpx:TrackPointExtension><gpxtpx:hr>103</gpxtpx:hr></gpxtpx:TrackPointExtension></extensions>
      </trkpt>
      <trkpt lat="56.439435" lon="12.733015">
        <ele>117.502</ele>
        <time>1970-01-01T01:00:00Z</time>
        <extensions><gpxtpx:TrackPointExtension><gpxtpx:hr>101</gpxtpx:hr></gpxtpx:TrackPointExtension></extensions>
      </trkpt>
      <trkpt lat="56.43942" lon="12.73301">
        <ele>117.502</ele>
        <time>1970-01-01T01:00:00Z</time>
        <extensions><gpxtpx:TrackPointExtension><gpxtpx:hr>100</gpxtpx:hr></gpxtpx:TrackPointExtension></extensions>
      </trkpt>
      <trkpt lat="56.43940667" lon="12.73300333">
        <ele>117.349</ele>
        <time>1970-01-01T01:00:00Z</time>
        <extensions><gpxtpx:TrackPointExtension><gpxtpx:hr>99</gpxtpx:hr></gpxtpx:TrackPointExtension></extensions>
      </trkpt>
      <trkpt lat="56.43939167" lon="12.73299833">
        <ele>117.197</ele>
        <time>1970-01-01T01:00:00Z</time>
        <extensions><gpxtpx:TrackPointExtension><gpxtpx:hr>98</gpxtpx:hr></gpxtpx:TrackPointExtension></extensions>
      </trkpt>
      <trkpt lat="56.439375" lon="12.73299167">
        <ele>117.197</ele>
        <time>1970-01-01T01:00:00Z</time>
        <extensions><gpxtpx:TrackPointExtension><gpxtpx:hr>97</gpxtpx:hr></gpxtpx:TrackPointExtension></extensions>
      </trkpt>
      <trkpt lat="56.43935667" lon="12.73297833">
        <ele>117.045</ele>
        <time>1970-01-01T01:00:00Z</time>
        <extensions><gpxtpx:TrackPointExtension><gpxtpx:hr>97</gpxtpx:hr></gpxtpx:TrackPointExtension></extensions>
      </trkpt>
      <trkpt lat="56.43934" lon="12.732965">
        <ele>116.892</ele>
        <time>1970-01-01T01:00:00Z</time>
        <extensions><gpxtpx:TrackPointExtension><gpxtpx:hr>97</gpxtpx:hr></gpxtpx:TrackPointExtension></extensions>
      </trkpt>
      <trkpt lat="56.43932333" lon="12.73295167">
        <ele>116.74</ele>
        <time>1970-01-01T01:00:00Z</time>
        <extensions><gpxtpx:TrackPointExtension><gpxtpx:hr>96</gpxtpx:hr></gpxtpx:TrackPointExtension></extensions>
      </trkpt>
      <trkpt lat="56.43930833" lon="12.73294167">
        <ele>116.74</ele>
        <time>1970-01-01T01:00:00Z</time>
        <extensions><gpxtpx:TrackPointExtension><gpxtpx:hr>96</gpxtpx:hr></gpxtpx:TrackPointExtension></extensions>
      </trkpt>
      <trkpt lat="56.43929167" lon="12.73293333">
        <ele>116.587</ele>
        <time>1970-01-01T01:00:00Z</time>
        <extensions><gpxtpx:TrackPointExtension><gpxtpx:hr>96</gpxtpx:hr></gpxtpx:TrackPointExtension></extensions>
      </trkpt>
      <trkpt lat="56.43927667" lon="12.73292333">
        <ele>116.435</ele>
        <time>1970-01-01T01:00:00Z</time>
        <extensions><gpxtpx:TrackPointExtension><gpxtpx:hr>96</gpxtpx:hr></gpxtpx:TrackPointExtension></extensions>
      </trkpt>
      <trkpt lat="56.43926167" lon="12.73291333">
        <ele>116.435</ele>
        <time>1970-01-01T01:00:00Z</time>
        <extensions><gpxtpx:TrackPointExtension><gpxtpx:hr>96</gpxtpx:hr></gpxtpx:TrackPointExtension></extensions>
      </trkpt>
      <trkpt lat="56.439245" lon="12.73290333">
        <ele>116.283</ele>
        <time>1970-01-01T01:00:00Z</time>
        <extensions><gpxtpx:TrackPointExtension><gpxtpx:hr>95</gpxtpx:hr></gpxtpx:TrackPointExtension></extensions>
      </trkpt>
      <trkpt lat="56.43922833" lon="12.73289167">
        <ele>116.13</ele>
        <time>1970-01-01T01:00:00Z</time>
        <extensions><gpxtpx:TrackPointExtension><gpxtpx:hr>96</gpxtpx:hr></gpxtpx:TrackPointExtension></extensions>
      </trkpt>
      <trkpt lat="56.439215" lon="12.73288">
        <ele>116.13</ele>
        <time>1970-01-01T01:00:00Z</time>
        <extensions><gpxtpx:TrackPointExtension><gpxtpx:hr>97</gpxtpx:hr></gpxtpx:TrackPointExtension></extensions>
      </trkpt>
      <trkpt lat="56.4392" lon="12.73286667">
        <ele>115.978</ele>
        <time>1970-01-01T01:00:00Z</time>
        <extensions><gpxtpx:TrackPointExtension><gpxtpx:hr>97</gpxtpx:hr></gpxtpx:TrackPointExtension></extensions>
      </trkpt>
      <trkpt lat="56.43918333" lon="12.73285833">
        <ele>115.825</ele>
        <time>1970-01-01T01:00:00Z</time>
        <extensions><gpxtpx:TrackPointExtension><gpxtpx:hr>98</gpxtpx:hr></gpxtpx:TrackPointExtension></extensions>
      </trkpt>
      <trkpt lat="56.43916833" lon="12.73284833">
        <ele>115.825</ele>
        <time>1970-01-01T01:00:00Z</time>
        <extensions><gpxtpx:TrackPointExtension><gpxtpx:hr>98</gpxtpx:hr></gpxtpx:TrackPointExtension></extensions>
      </trkpt>
      <trkpt lat="56.43915667" lon="12.73284">
        <ele>115.673</ele>
        <time>1970-01-01T01:00:00Z</time>
        <extensions><gpxtpx:TrackPointExtension><gpxtpx:hr>99</gpxtpx:hr></gpxtpx:TrackPointExtension></extensions>
      </trkpt>
      <trkpt lat="56.439145" lon="12.73282667">
        <ele>115.673</ele>
        <time>1970-01-01T01:00:00Z</time>
        <extensions><gpxtpx:TrackPointExtension><gpxtpx:hr>99</gpxtpx:hr></gpxtpx:TrackPointExtension></extensions>
      </trkpt>
      <trkpt lat="56.439135" lon="12.73281167">
        <ele>115.521</ele>
        <time>1970-01-01T01:00:00Z</time>
        <extensions><gpxtpx:TrackPointExtension><gpxtpx:hr>99</gpxtpx:hr></gpxtpx:TrackPointExtension></extensions>
      </trkpt>
      <trkpt lat="56.439125" lon="12.732795">
        <ele>115.521</ele>
        <time>1970-01-01T01:00:00Z</time>
        <extensions><gpxtpx:TrackPointExtension><gpxtpx:hr>99</gpxtpx:hr></gpxtpx:TrackPointExtension></extensions>
      </trkpt>
      <trkpt lat="56.43911167" lon="12.73278167">
        <ele>115.521</ele>
        <time>1970-01-01T01:00:00Z</time>
        <extensions><gpxtpx:TrackPointExtension><gpxtpx:hr>99</gpxtpx:hr></gpxtpx:TrackPointExtension></extensions>
      </trkpt>
      <trkpt lat="56.43909667" lon="12.73276833">
        <ele>115.521</ele>
        <time>1970-01-01T01:00:00Z</time>
        <extensions><gpxtpx:TrackPointExtension><gpxtpx:hr>99</gpxtpx:hr></gpxtpx:TrackPointExtension></extensions>
      </trkpt>
      <trkpt lat="56.43908333" lon="12.73275667">
        <ele>115.368</ele>
        <time>1970-01-01T01:00:00Z</time>
        <extensions><gpxtpx:TrackPointExtension><gpxtpx:hr>99</gpxtpx:hr></gpxtpx:TrackPointExtension></extensions>
      </trkpt>
      <trkpt lat="56.43906833" lon="12.73274167">
        <ele>115.368</ele>
        <time>1970-01-01T01:00:00Z</time>
        <extensions><gpxtpx:TrackPointExtension><gpxtpx:hr>99</gpxtpx:hr></gpxtpx:TrackPointExtension></extensions>
      </trkpt>
      <trkpt lat="56.43906" lon="12.73273333">
        <ele>115.368</ele>
        <time>1970-01-01T01:00:00Z</time>
        <extensions><gpxtpx:TrackPointExtension><gpxtpx:hr>99</gpxtpx:hr></gpxtpx:TrackPointExtension></extensions>
      </trkpt>
      <trkpt lat="56.43905" lon="12.73272333">
        <ele>115.368</ele>
        <time>1970-01-01T01:00:00Z</time>
        <extensions><gpxtpx:TrackPointExtension><gpxtpx:hr>98</gpxtpx:hr></gpxtpx:TrackPointExtension></extensions>
      </trkpt>
      <trkpt lat="56.43904" lon="12.73270333">
        <ele>115.368</ele>
        <time>1970-01-01T01:00:00Z</time>
        <extensions><gpxtpx:TrackPointExtension><gpxtpx:hr>98</gpxtpx:hr></gpxtpx:TrackPointExtension></extensions>
      </trkpt>
      <trkpt lat="56.43902667" lon="12.73268333">
        <ele>115.216</ele>
        <time>1970-01-01T01:00:00Z</time>
        <extensions><gpxtpx:TrackPointExtension><gpxtpx:hr>99</gpxtpx:hr></gpxtpx:TrackPointExtension></extensions>
      </trkpt>
      <trkpt lat="56.43901667" lon="12.73266667">
        <ele>115.216</ele>
        <time>1970-01-01T01:00:00Z</time>
        <extensions><gpxtpx:TrackPointExtension><gpxtpx:hr>99</gpxtpx:hr></gpxtpx:TrackPointExtension></extensions>
      </trkpt>
      <trkpt lat="56.43900333" lon="12.73265">
        <ele>115.216</ele>
        <time>1970-01-01T01:00:00Z</time>
        <extensions><gpxtpx:TrackPointExtension><gpxtpx:hr>100</gpxtpx:hr></gpxtpx:TrackPointExtension></extensions>
      </trkpt>
      <trkpt lat="56.43899" lon="12.732625">
        <ele>115.216</ele>
        <time>1970-01-01T01:00:00Z</time>
        <extensions><gpxtpx:TrackPointExtension><gpxtpx:hr>100</gpxtpx:hr></gpxtpx:TrackPointExtension></extensions>
      </trkpt>
      <trkpt lat="56.43897833" lon="12.73260833">
        <ele>115.216</ele>
        <time>1970-01-01T01:00:00Z</time>
        <extensions><gpxtpx:TrackPointExtension><gpxtpx:hr>100</gpxtpx:hr></gpxtpx:TrackPointExtension></extensions>
      </trkpt>
      <trkpt lat="56.43896667" lon="12.73259">
        <ele>115.216</ele>
        <time>1970-01-01T01:00:00Z</time>
        <extensions><gpxtpx:TrackPointExtension><gpxtpx:hr>101</gpxtpx:hr></gpxtpx:TrackPointExtension></extensions>
      </trkpt>
      <trkpt lat="56.438955" lon="12.732575">
        <ele>115.216</ele>
        <time>1970-01-01T01:00:00Z</time>
        <extensions><gpxtpx:TrackPointExtension><gpxtpx:hr>101</gpxtpx:hr></gpxtpx:TrackPointExtension></extensions>
      </trkpt>
      <trkpt lat="56.43894333" lon="12.73256167">
        <ele>115.216</ele>
        <time>1970-01-01T01:00:00Z</time>
        <extensions><gpxtpx:TrackPointExtension><gpxtpx:hr>101</gpxtpx:hr></gpxtpx:TrackPointExtension></extensions>
      </trkpt>
      <trkpt lat="56.43893167" lon="12.73254667">
        <ele>115.216</ele>
        <time>1970-01-01T01:00:00Z</time>
        <extensions><gpxtpx:TrackPointExtension><gpxtpx:hr>100</gpxtpx:hr></gpxtpx:TrackPointExtension></extensions>
      </trkpt>
      <trkpt lat="56.43892" lon="12.73253">
        <ele>115.216</ele>
        <time>1970-01-01T01:00:00Z</time>
        <extensions><gpxtpx:TrackPointExtension><gpxtpx:hr>100</gpxtpx:hr></gpxtpx:TrackPointExtension></extensions>
      </trkpt>
      <trkpt lat="56.43891" lon="12.73251167">
        <ele>115.216</ele>
        <time>1970-01-01T01:00:00Z</time>
        <extensions><gpxtpx:TrackPointExtension><gpxtpx:hr>100</gpxtpx:hr></gpxtpx:TrackPointExtension></extensions>
      </trkpt>
      <trkpt lat="56.43890167" lon="12.732495">
        <ele>115.216</ele>
        <time>1970-01-01T01:00:00Z</time>
        <extensions><gpxtpx:TrackPointExtension><gpxtpx:hr>100</gpxtpx:hr></gpxtpx:TrackPointExtension></extensions>
      </trkpt>
      <trkpt lat="56.43889333" lon="12.73248">
        <ele>115.063</ele>
        <time>1970-01-01T01:00:00Z</time>
        <extensions><gpxtpx:TrackPointExtension><gpxtpx:hr>99</gpxtpx:hr></gpxtpx:TrackPointExtension></extensions>
      </trkpt>
      <trkpt lat="56.43888333" lon="12.73246667">
        <ele>115.063</ele>
        <time>1970-01-01T01:00:00Z</time>
        <extensions><gpxtpx:TrackPointExtension><gpxtpx:hr>99</gpxtpx:hr></gpxtpx:TrackPointExtension></extensions>
      </trkpt>
      <trkpt lat="56.43887333" lon="12.732445">
        <ele>115.063</ele>
        <time>1970-01-01T01:00:00Z</time>
        <extensions><gpxtpx:TrackPointExtension><gpxtpx:hr>99</gpxtpx:hr></gpxtpx:TrackPointExtension></extensions>
      </trkpt>
      <trkpt lat="56.438865" lon="12.732425">
        <ele>114.911</ele>
        <time>1970-01-01T01:00:00Z</time>
        <extensions><gpxtpx:TrackPointExtension><gpxtpx:hr>99</gpxtpx:hr></gpxtpx:TrackPointExtension></extensions>
      </trkpt>
      <trkpt lat="56.438855" lon="12.73240667">
        <ele>114.911</ele>
        <time>1970-01-01T01:00:00Z</time>
        <extensions><gpxtpx:TrackPointExtension><gpxtpx:hr>99</gpxtpx:hr></gpxtpx:TrackPointExtension></extensions>
      </trkpt>
      <trkpt lat="56.43884667" lon="12.73239">
        <ele>114.911</ele>
        <time>1970-01-01T01:00:00Z</time>
        <extensions><gpxtpx:TrackPointExtension><gpxtpx:hr>99</gpxtpx:hr></gpxtpx:TrackPointExtension></extensions>
      </trkpt>
      <trkpt lat="56.438835" lon="12.73237167">
        <ele>114.759</ele>
        <time>1970-01-01T01:00:00Z</time>
        <extensions><gpxtpx:TrackPointExtension><gpxtpx:hr>99</gpxtpx:hr></gpxtpx:TrackPointExtension></extensions>
      </trkpt>
      <trkpt lat="56.43882333" lon="12.73235333">
        <ele>114.759</ele>
        <time>1970-01-01T01:00:00Z</time>
        <extensions><gpxtpx:TrackPointExtension><gpxtpx:hr>100</gpxtpx:hr></gpxtpx:TrackPointExtension></extensions>
      </trkpt>
      <trkpt lat="56.43881333" lon="12.732335">
        <ele>114.759</ele>
        <time>1970-01-01T01:00:00Z</time>
        <extensions><gpxtpx:TrackPointExtension><gpxtpx:hr>101</gpxtpx:hr></gpxtpx:TrackPointExtension></extensions>
      </trkpt>
      <trkpt lat="56.43880167" lon="12.73231833">
        <ele>114.759</ele>
        <time>1970-01-01T01:00:00Z</time>
        <extensions><gpxtpx:TrackPointExtension><gpxtpx:hr>101</gpxtpx:hr></gpxtpx:TrackPointExtension></extensions>
      </trkpt>
      <trkpt lat="56.43878833" lon="12.73230167">
        <ele>114.759</ele>
        <time>1970-01-01T01:00:00Z</time>
        <extensions><gpxtpx:TrackPointExtension><gpxtpx:hr>100</gpxtpx:hr></gpxtpx:TrackPointExtension></extensions>
      </trkpt>
      <trkpt lat="56.43877667" lon="12.73228667">
        <ele>114.759</ele>
        <time>1970-01-01T01:00:00Z</time>
        <extensions><gpxtpx:TrackPointExtension><gpxtpx:hr>100</gpxtpx:hr></gpxtpx:TrackPointExtension></extensions>
      </trkpt>
      <trkpt lat="56.438765" lon="12.73227167">
        <ele>114.606</ele>
        <time>1970-01-01T01:00:00Z</time>
        <extensions><gpxtpx:TrackPointExtension><gpxtpx:hr>99</gpxtpx:hr></gpxtpx:TrackPointExtension></extensions>
      </trkpt>
      <trkpt lat="56.43875333" lon="12.73225833">
        <ele>114.606</ele>
        <time>1970-01-01T01:00:00Z</time>
        <extensions><gpxtpx:TrackPointExtension><gpxtpx:hr>99</gpxtpx:hr></gpxtpx:TrackPointExtension></extensions>
      </trkpt>
      <trkpt lat="56.43874167" lon="12.73224">
        <ele>114.606</ele>
        <time>1970-01-01T01:00:00Z</time>
        <extensions><gpxtpx:TrackPointExtension><gpxtpx:hr>99</gpxtpx:hr></gpxtpx:TrackPointExtension></extensions>
      </trkpt>
      <trkpt lat="56.43873" lon="12.73222167">
        <ele>114.606</ele>
        <time>1970-01-01T01:00:00Z</time>
        <extensions><gpxtpx:TrackPointExtension><gpxtpx:hr>99</gpxtpx:hr></gpxtpx:TrackPointExtension></extensions>
      </trkpt>
      <trkpt lat="56.43871667" lon="12.73220667">
        <ele>114.759</ele>
        <time>1970-01-01T01:00:00Z</time>
        <extensions><gpxtpx:TrackPointExtension><gpxtpx:hr>99</gpxtpx:hr></gpxtpx:TrackPointExtension></extensions>
      </trkpt>
      <trkpt lat="56.43870667" lon="12.73219">
        <ele>114.606</ele>
        <time>1970-01-01T01:00:00Z</time>
        <extensions><gpxtpx:TrackPointExtension><gpxtpx:hr>99</gpxtpx:hr></gpxtpx:TrackPointExtension></extensions>
      </trkpt>
      <trkpt lat="56.438695" lon="12.73217167">
        <ele>114.606</ele>
        <time>1970-01-01T01:00:00Z</time>
        <extensions><gpxtpx:TrackPointExtension><gpxtpx:hr>99</gpxtpx:hr></gpxtpx:TrackPointExtension></extensions>
      </trkpt>
      <trkpt lat="56.43868667" lon="12.73215667">
        <ele>114.606</ele>
        <time>1970-01-01T01:00:00Z</time>
        <extensions><gpxtpx:TrackPointExtension><gpxtpx:hr>99</gpxtpx:hr></gpxtpx:TrackPointExtension></extensions>
      </trkpt>
      <trkpt lat="56.438675" lon="12.73214333">
        <ele>114.606</ele>
        <time>1970-01-01T01:00:00Z</time>
        <extensions><gpxtpx:TrackPointExtension><gpxtpx:hr>99</gpxtpx:hr></gpxtpx:TrackPointExtension></extensions>
      </trkpt>
      <trkpt lat="56.438665" lon="12.732125">
        <ele>114.606</ele>
        <time>1970-01-01T01:00:00Z</time>
        <extensions><gpxtpx:TrackPointExtension><gpxtpx:hr>99</gpxtpx:hr></gpxtpx:TrackPointExtension></extensions>
      </trkpt>
      <trkpt lat="56.438655" lon="12.73210667">
        <ele>114.606</ele>
        <time>1970-01-01T01:00:00Z</time>
        <extensions><gpxtpx:TrackPointExtension><gpxtpx:hr>99</gpxtpx:hr></gpxtpx:TrackPointExtension></extensions>
      </trkpt>
      <trkpt lat="56.438645" lon="12.73209">
        <ele>114.606</ele>
        <time>1970-01-01T01:00:00Z</time>
        <extensions><gpxtpx:TrackPointExtension><gpxtpx:hr>100</gpxtpx:hr></gpxtpx:TrackPointExtension></extensions>
      </trkpt>
      <trkpt lat="56.43863333" lon="12.732075">
        <ele>114.606</ele>
        <time>1970-01-01T01:00:00Z</time>
        <extensions><gpxtpx:TrackPointExtension><gpxtpx:hr>100</gpxtpx:hr></gpxtpx:TrackPointExtension></extensions>
      </trkpt>
      <trkpt lat="56.43862167" lon="12.73205833">
        <ele>114.606</ele>
        <time>1970-01-01T01:00:00Z</time>
        <extensions><gpxtpx:TrackPointExtension><gpxtpx:hr>100</gpxtpx:hr></gpxtpx:TrackPointExtension></extensions>
      </trkpt>
      <trkpt lat="56.43861167" lon="12.73204333">
        <ele>114.606</ele>
        <time>1970-01-01T01:00:00Z</time>
        <extensions><gpxtpx:TrackPointExtension><gpxtpx:hr>100</gpxtpx:hr></gpxtpx:TrackPointExtension></extensions>
      </trkpt>
      <trkpt lat="56.4386" lon="12.73202667">
        <ele>114.606</ele>
        <time>1970-01-01T01:00:00Z</time>
        <extensions><gpxtpx:TrackPointExtension><gpxtpx:hr>100</gpxtpx:hr></gpxtpx:TrackPointExtension></extensions>
      </trkpt>
      <trkpt lat="56.43858833" lon="12.73201">
        <ele>114.454</ele>
        <time>1970-01-01T01:00:00Z</time>
        <extensions><gpxtpx:TrackPointExtension><gpxtpx:hr>100</gpxtpx:hr></gpxtpx:TrackPointExtension></extensions>
      </trkpt>
      <trkpt lat="56.43857667" lon="12.73199167">
        <ele>114.454</ele>
        <time>1970-01-01T01:00:00Z</time>
        <extensions><gpxtpx:TrackPointExtension><gpxtpx:hr>100</gpxtpx:hr></gpxtpx:TrackPointExtension></extensions>
      </trkpt>
      <trkpt lat="56.438565" lon="12.73197333">
        <ele>114.454</ele>
        <time>1970-01-01T01:00:00Z</time>
        <extensions><gpxtpx:TrackPointExtension><gpxtpx:hr>100</gpxtpx:hr></gpxtpx:TrackPointExtension></extensions>
      </trkpt>
      <trkpt lat="56.438555" lon="12.73195667">
        <ele>114.454</ele>
        <time>1970-01-01T01:00:00Z</time>
        <extensions><gpxtpx:TrackPointExtension><gpxtpx:hr>100</gpxtpx:hr></gpxtpx:TrackPointExtension></extensions>
      </trkpt>
      <trkpt lat="56.438545" lon="12.73193833">
        <ele>114.301</ele>
        <time>1970-01-01T01:00:00Z</time>
        <extensions><gpxtpx:TrackPointExtension><gpxtpx:hr>100</gpxtpx:hr></gpxtpx:TrackPointExtension></extensions>
      </trkpt>
      <trkpt lat="56.43853333" lon="12.73192333">
        <ele>114.301</ele>
        <time>1970-01-01T01:00:00Z</time>
        <extensions><gpxtpx:TrackPointExtension><gpxtpx:hr>100</gpxtpx:hr></gpxtpx:TrackPointExtension></extensions>
      </trkpt>
      <trkpt lat="56.43852" lon="12.731905">
        <ele>114.301</ele>
        <time>1970-01-01T01:00:00Z</time>
        <extensions><gpxtpx:TrackPointExtension><gpxtpx:hr>100</gpxtpx:hr></gpxtpx:TrackPointExtension></extensions>
      </trkpt>
      <trkpt lat="56.43851" lon="12.73189167">
        <ele>114.149</ele>
        <time>1970-01-01T01:00:00Z</time>
        <extensions><gpxtpx:TrackPointExtension><gpxtpx:hr>101</gpxtpx:hr></gpxtpx:TrackPointExtension></extensions>
      </trkpt>
      <trkpt lat="56.4385" lon="12.73187833">
        <ele>114.149</ele>
        <time>1970-01-01T01:00:00Z</time>
        <extensions><gpxtpx:TrackPointExtension><gpxtpx:hr>101</gpxtpx:hr></gpxtpx:TrackPointExtension></extensions>
      </trkpt>
      <trkpt lat="56.43848833" lon="12.731865">
        <ele>114.149</ele>
        <time>1970-01-01T01:00:00Z</time>
        <extensions><gpxtpx:TrackPointExtension><gpxtpx:hr>101</gpxtpx:hr></gpxtpx:TrackPointExtension></extensions>
      </trkpt>
      <trkpt lat="56.43847833" lon="12.73185">
        <ele>113.997</ele>
        <time>1970-01-01T01:00:00Z</time>
        <extensions><gpxtpx:TrackPointExtension><gpxtpx:hr>101</gpxtpx:hr></gpxtpx:TrackPointExtension></extensions>
      </trkpt>
      <trkpt lat="56.43846667" lon="12.73183667">
        <ele>113.997</ele>
        <time>1970-01-01T01:00:00Z</time>
        <extensions><gpxtpx:TrackPointExtension><gpxtpx:hr>102</gpxtpx:hr></gpxtpx:TrackPointExtension></extensions>
      </trkpt>
      <trkpt lat="56.438455" lon="12.73182333">
        <ele>113.997</ele>
        <time>1970-01-01T01:00:00Z</time>
        <extensions><gpxtpx:TrackPointExtension><gpxtpx:hr>101</gpxtpx:hr></gpxtpx:TrackPointExtension></extensions>
      </trkpt>
      <trkpt lat="56.43844333" lon="12.73180833">
        <ele>113.844</ele>
        <time>1970-01-01T01:00:00Z</time>
        <extensions><gpxtpx:TrackPointExtension><gpxtpx:hr>102</gpxtpx:hr></gpxtpx:TrackPointExtension></extensions>
      </trkpt>
      <trkpt lat="56.43843" lon="12.731795">
        <ele>113.844</ele>
        <time>1970-01-01T01:00:00Z</time>
        <extensions><gpxtpx:TrackPointExtension><gpxtpx:hr>102</gpxtpx:hr></gpxtpx:TrackPointExtension></extensions>
      </trkpt>
      <trkpt lat="56.43841667" lon="12.73177833">
        <ele>113.844</ele>
        <time>1970-01-01T01:00:00Z</time>
        <extensions><gpxtpx:TrackPointExtension><gpxtpx:hr>102</gpxtpx:hr></gpxtpx:TrackPointExtension></extensions>
      </trkpt>
      <trkpt lat="56.43840667" lon="12.73176167">
        <ele>113.844</ele>
        <time>1970-01-01T01:00:00Z</time>
        <extensions><gpxtpx:TrackPointExtension><gpxtpx:hr>102</gpxtpx:hr></gpxtpx:TrackPointExtension></extensions>
      </trkpt>
      <trkpt lat="56.43839667" lon="12.73174667">
        <ele>113.844</ele>
        <time>1970-01-01T01:00:00Z</time>
        <extensions><gpxtpx:TrackPointExtension><gpxtpx:hr>102</gpxtpx:hr></gpxtpx:TrackPointExtension></extensions>
      </trkpt>
      <trkpt lat="56.43838833" lon="12.73172833">
        <ele>113.692</ele>
        <time>1970-01-01T01:00:00Z</time>
        <extensions><gpxtpx:TrackPointExtension><gpxtpx:hr>102</gpxtpx:hr></gpxtpx:TrackPointExtension></extensions>
      </trkpt>
      <trkpt lat="56.43837833" lon="12.73171">
        <ele>113.692</ele>
        <time>1970-01-01T01:00:00Z</time>
        <extensions><gpxtpx:TrackPointExtension><gpxtpx:hr>102</gpxtpx:hr></gpxtpx:TrackPointExtension></extensions>
      </trkpt>
      <trkpt lat="56.43836667" lon="12.73169333">
        <ele>113.692</ele>
        <time>1970-01-01T01:00:00Z</time>
        <extensions><gpxtpx:TrackPointExtension><gpxtpx:hr>103</gpxtpx:hr></gpxtpx:TrackPointExtension></extensions>
      </trkpt>
      <trkpt lat="56.43835667" lon="12.73167667">
        <ele>113.692</ele>
        <time>1970-01-01T01:00:00Z</time>
        <extensions><gpxtpx:TrackPointExtension><gpxtpx:hr>103</gpxtpx:hr></gpxtpx:TrackPointExtension></extensions>
      </trkpt>
      <trkpt lat="56.43834333" lon="12.73166167">
        <ele>113.692</ele>
        <time>1970-01-01T01:00:00Z</time>
        <extensions><gpxtpx:TrackPointExtension><gpxtpx:hr>103</gpxtpx:hr></gpxtpx:TrackPointExtension></extensions>
      </trkpt>
      <trkpt lat="56.43833333" lon="12.73164667">
        <ele>113.692</ele>
        <time>1970-01-01T01:00:00Z</time>
        <extensions><gpxtpx:TrackPointExtension><gpxtpx:hr>103</gpxtpx:hr></gpxtpx:TrackPointExtension></extensions>
      </trkpt>
      <trkpt lat="56.43832333" lon="12.73163167">
        <ele>113.692</ele>
        <time>1970-01-01T01:00:00Z</time>
        <extensions><gpxtpx:TrackPointExtension><gpxtpx:hr>104</gpxtpx:hr></gpxtpx:TrackPointExtension></extensions>
      </trkpt>
      <trkpt lat="56.438315" lon="12.73161833">
        <ele>113.539</ele>
        <time>1970-01-01T01:00:00Z</time>
        <extensions><gpxtpx:TrackPointExtension><gpxtpx:hr>104</gpxtpx:hr></gpxtpx:TrackPointExtension></extensions>
      </trkpt>
      <trkpt lat="56.438305" lon="12.731605">
        <ele>113.539</ele>
        <time>1970-01-01T01:00:00Z</time>
        <extensions><gpxtpx:TrackPointExtension><gpxtpx:hr>104</gpxtpx:hr></gpxtpx:TrackPointExtension></extensions>
      </trkpt>
      <trkpt lat="56.43829333" lon="12.73159167">
        <ele>113.539</ele>
        <time>1970-01-01T01:00:00Z</time>
        <extensions><gpxtpx:TrackPointExtension><gpxtpx:hr>104</gpxtpx:hr></gpxtpx:TrackPointExtension></extensions>
      </trkpt>
      <trkpt lat="56.43828167" lon="12.73157667">
        <ele>113.539</ele>
        <time>1970-01-01T01:00:00Z</time>
        <extensions><gpxtpx:TrackPointExtension><gpxtpx:hr>103</gpxtpx:hr></gpxtpx:TrackPointExtension></extensions>
      </trkpt>
      <trkpt lat="56.43827167" lon="12.73156">
        <ele>113.539</ele>
        <time>1970-01-01T01:00:00Z</time>
        <extensions><gpxtpx:TrackPointExtension><gpxtpx:hr>102</gpxtpx:hr></gpxtpx:TrackPointExtension></extensions>
      </trkpt>
      <trkpt lat="56.438265" lon="12.73154667">
        <ele>113.539</ele>
        <time>1970-01-01T01:00:00Z</time>
        <extensions><gpxtpx:TrackPointExtension><gpxtpx:hr>101</gpxtpx:hr></gpxtpx:TrackPointExtension></extensions>
      </trkpt>
      <trkpt lat="56.438255" lon="12.73153">
        <ele>113.387</ele>
        <time>1970-01-01T01:00:00Z</time>
        <extensions><gpxtpx:TrackPointExtension><gpxtpx:hr>100</gpxtpx:hr></gpxtpx:TrackPointExtension></extensions>
      </trkpt>
      <trkpt lat="56.43824333" lon="12.73151167">
        <ele>113.387</ele>
        <time>1970-01-01T01:00:00Z</time>
        <extensions><gpxtpx:TrackPointExtension><gpxtpx:hr>99</gpxtpx:hr></gpxtpx:TrackPointExtension></extensions>
      </trkpt>
      <trkpt lat="56.43823333" lon="12.731495">
        <ele>113.387</ele>
        <time>1970-01-01T01:00:00Z</time>
        <extensions><gpxtpx:TrackPointExtension><gpxtpx:hr>99</gpxtpx:hr></gpxtpx:TrackPointExtension></extensions>
      </trkpt>
      <trkpt lat="56.43822167" lon="12.73148">
        <ele>113.387</ele>
        <time>1970-01-01T01:00:00Z</time>
        <extensions><gpxtpx:TrackPointExtension><gpxtpx:hr>99</gpxtpx:hr></gpxtpx:TrackPointExtension></extensions>
      </trkpt>
      <trkpt lat="56.43820833" lon="12.73147">
        <ele>113.387</ele>
        <time>1970-01-01T01:00:00Z</time>
        <extensions><gpxtpx:TrackPointExtension><gpxtpx:hr>99</gpxtpx:hr></gpxtpx:TrackPointExtension></extensions>
      </trkpt>
      <trkpt lat="56.43819333" lon="12.73145833">
        <ele>113.235</ele>
        <time>1970-01-01T01:00:00Z</time>
        <extensions><gpxtpx:TrackPointExtension><gpxtpx:hr>98</gpxtpx:hr></gpxtpx:TrackPointExtension></extensions>
      </trkpt>
      <trkpt lat="56.43818167" lon="12.73145">
        <ele>113.235</ele>
        <time>1970-01-01T01:00:00Z</time>
        <extensions><gpxtpx:TrackPointExtension><gpxtpx:hr>98</gpxtpx:hr></gpxtpx:TrackPointExtension></extensions>
      </trkpt>
      <trkpt lat="56.43817" lon="12.73144167">
        <ele>113.235</ele>
        <time>1970-01-01T01:00:00Z</time>
        <extensions><gpxtpx:TrackPointExtension><gpxtpx:hr>98</gpxtpx:hr></gpxtpx:TrackPointExtension></extensions>
      </trkpt>
      <trkpt lat="56.43816" lon="12.73143333">
        <ele>113.235</ele>
        <time>1970-01-01T01:00:00Z</time>
        <extensions><gpxtpx:TrackPointExtension><gpxtpx:hr>98</gpxtpx:hr></gpxtpx:TrackPointExtension></extensions>
      </trkpt>
      <trkpt lat="56.43814833" lon="12.73142667">
        <ele>113.235</ele>
        <time>1970-01-01T01:00:00Z</time>
        <extensions><gpxtpx:TrackPointExtension><gpxtpx:hr>97</gpxtpx:hr></gpxtpx:TrackPointExtension></extensions>
      </trkpt>
      <trkpt lat="56.43813667" lon="12.731415">
        <ele>113.235</ele>
        <time>1970-01-01T01:00:00Z</time>
        <extensions><gpxtpx:TrackPointExtension><gpxtpx:hr>97</gpxtpx:hr></gpxtpx:TrackPointExtension></extensions>
      </trkpt>
      <trkpt lat="56.43812333" lon="12.73141">
        <ele>113.235</ele>
        <time>1970-01-01T01:00:00Z</time>
        <extensions><gpxtpx:TrackPointExtension><gpxtpx:hr>97</gpxtpx:hr></gpxtpx:TrackPointExtension></extensions>
      </trkpt>
      <trkpt lat="56.43810833" lon="12.73140833">
        <ele>113.235</ele>
        <time>1970-01-01T01:00:00Z</time>
        <extensions><gpxtpx:TrackPointExtension><gpxtpx:hr>96</gpxtpx:hr></gpxtpx:TrackPointExtension></extensions>
      </trkpt>
      <trkpt lat="56.43809167" lon="12.73141">
        <ele>113.235</ele>
        <time>1970-01-01T01:00:00Z</time>
        <extensions><gpxtpx:TrackPointExtension><gpxtpx:hr>96</gpxtpx:hr></gpxtpx:TrackPointExtension></extensions>
      </trkpt>
      <trkpt lat="56.43807667" lon="12.73141333">
        <ele>113.235</ele>
        <time>1970-01-01T01:00:00Z</time>
        <extensions><gpxtpx:TrackPointExtension><gpxtpx:hr>96</gpxtpx:hr></gpxtpx:TrackPointExtension></extensions>
      </trkpt>
      <trkpt lat="56.43806167" lon="12.73141833">
        <ele>113.387</ele>
        <time>1970-01-01T01:00:00Z</time>
        <extensions><gpxtpx:TrackPointExtension><gpxtpx:hr>96</gpxtpx:hr></gpxtpx:TrackPointExtension></extensions>
      </trkpt>
      <trkpt lat="56.43804667" lon="12.73141667">
        <ele>113.387</ele>
        <time>1970-01-01T01:00:00Z</time>
        <extensions><gpxtpx:TrackPointExtension><gpxtpx:hr>96</gpxtpx:hr></gpxtpx:TrackPointExtension></extensions>
      </trkpt>
      <trkpt lat="56.43803333" lon="12.73141833">
        <ele>113.539</ele>
        <time>1970-01-01T01:00:00Z</time>
        <extensions><gpxtpx:TrackPointExtension><gpxtpx:hr>95</gpxtpx:hr></gpxtpx:TrackPointExtension></extensions>
      </trkpt>
      <trkpt lat="56.43801667" lon="12.73142167">
        <ele>113.539</ele>
        <time>1970-01-01T01:00:00Z</time>
        <extensions><gpxtpx:TrackPointExtension><gpxtpx:hr>94</gpxtpx:hr></gpxtpx:TrackPointExtension></extensions>
      </trkpt>
      <trkpt lat="56.43800167" lon="12.73142333">
        <ele>113.692</ele>
        <time>1970-01-01T01:00:00Z</time>
        <extensions><gpxtpx:TrackPointExtension><gpxtpx:hr>94</gpxtpx:hr></gpxtpx:TrackPointExtension></extensions>
      </trkpt>
      <trkpt lat="56.43798667" lon="12.73142333">
        <ele>113.844</ele>
        <time>1970-01-01T01:00:00Z</time>
        <extensions><gpxtpx:TrackPointExtension><gpxtpx:hr>94</gpxtpx:hr></gpxtpx:TrackPointExtension></extensions>
      </trkpt>
      <trkpt lat="56.43796833" lon="12.731425">
        <ele>113.844</ele>
        <time>1970-01-01T01:00:00Z</time>
        <extensions><gpxtpx:TrackPointExtension><gpxtpx:hr>94</gpxtpx:hr></gpxtpx:TrackPointExtension></extensions>
      </trkpt>
      <trkpt lat="56.43795167" lon="12.731425">
        <ele>113.997</ele>
        <time>1970-01-01T01:00:00Z</time>
        <extensions><gpxtpx:TrackPointExtension><gpxtpx:hr>94</gpxtpx:hr></gpxtpx:TrackPointExtension></extensions>
      </trkpt>
      <trkpt lat="56.43793667" lon="12.73142667">
        <ele>114.149</ele>
        <time>1970-01-01T01:00:00Z</time>
        <extensions><gpxtpx:TrackPointExtension><gpxtpx:hr>94</gpxtpx:hr></gpxtpx:TrackPointExtension></extensions>
      </trkpt>
      <trkpt lat="56.43792167" lon="12.73143">
        <ele>114.301</ele>
        <time>1970-01-01T01:00:00Z</time>
        <extensions><gpxtpx:TrackPointExtension><gpxtpx:hr>93</gpxtpx:hr></gpxtpx:TrackPointExtension></extensions>
      </trkpt>
      <trkpt lat="56.43790667" lon="12.73143">
        <ele>114.454</ele>
        <time>1970-01-01T01:00:00Z</time>
        <extensions><gpxtpx:TrackPointExtension><gpxtpx:hr>93</gpxtpx:hr></gpxtpx:TrackPointExtension></extensions>
      </trkpt>
      <trkpt lat="56.43789333" lon="12.73142833">
        <ele>114.606</ele>
        <time>1970-01-01T01:00:00Z</time>
        <extensions><gpxtpx:TrackPointExtension><gpxtpx:hr>94</gpxtpx:hr></gpxtpx:TrackPointExtension></extensions>
      </trkpt>
      <trkpt lat="56.43787833" lon="12.73142833">
        <ele>114.606</ele>
        <time>1970-01-01T01:00:00Z</time>
        <extensions><gpxtpx:TrackPointExtension><gpxtpx:hr>93</gpxtpx:hr></gpxtpx:TrackPointExtension></extensions>
      </trkpt>
      <trkpt lat="56.437865" lon="12.731425">
        <ele>114.759</ele>
        <time>1970-01-01T01:00:00Z</time>
        <extensions><gpxtpx:TrackPointExtension><gpxtpx:hr>93</gpxtpx:hr></gpxtpx:TrackPointExtension></extensions>
      </trkpt>
      <trkpt lat="56.437855" lon="12.73142167">
        <ele>114.911</ele>
        <time>1970-01-01T01:00:00Z</time>
        <extensions><gpxtpx:TrackPointExtension><gpxtpx:hr>93</gpxtpx:hr></gpxtpx:TrackPointExtension></extensions>
      </trkpt>
      <trkpt lat="56.43784167" lon="12.73141833">
        <ele>114.911</ele>
        <time>1970-01-01T01:00:00Z</time>
        <extensions><gpxtpx:TrackPointExtension><gpxtpx:hr>92</gpxtpx:hr></gpxtpx:TrackPointExtension></extensions>
      </trkpt>
      <trkpt lat="56.43783167" lon="12.73141667">
        <ele>115.063</ele>
        <time>1970-01-01T01:00:00Z</time>
        <extensions><gpxtpx:TrackPointExtension><gpxtpx:hr>92</gpxtpx:hr></gpxtpx:TrackPointExtension></extensions>
      </trkpt>
      <trkpt lat="56.43782" lon="12.731415">
        <ele>115.063</ele>
        <time>1970-01-01T01:00:00Z</time>
        <extensions><gpxtpx:TrackPointExtension><gpxtpx:hr>92</gpxtpx:hr></gpxtpx:TrackPointExtension></extensions>
      </trkpt>
      <trkpt lat="56.437805" lon="12.73141333">
        <ele>115.063</ele>
        <time>1970-01-01T01:00:00Z</time>
        <extensions><gpxtpx:TrackPointExtension><gpxtpx:hr>92</gpxtpx:hr></gpxtpx:TrackPointExtension></extensions>
      </trkpt>
      <trkpt lat="56.43779" lon="12.73141167">
        <ele>115.063</ele>
        <time>1970-01-01T01:00:00Z</time>
        <extensions><gpxtpx:TrackPointExtension><gpxtpx:hr>92</gpxtpx:hr></gpxtpx:TrackPointExtension></extensions>
      </trkpt>
      <trkpt lat="56.43777333" lon="12.73141167">
        <ele>115.063</ele>
        <time>1970-01-01T01:00:00Z</time>
        <extensions><gpxtpx:TrackPointExtension><gpxtpx:hr>92</gpxtpx:hr></gpxtpx:TrackPointExtension></extensions>
      </trkpt>
      <trkpt lat="56.43775833" lon="12.73141333">
        <ele>115.063</ele>
        <time>1970-01-01T01:00:00Z</time>
        <extensions><gpxtpx:TrackPointExtension><gpxtpx:hr>92</gpxtpx:hr></gpxtpx:TrackPointExtension></extensions>
      </trkpt>
      <trkpt lat="56.43774167" lon="12.731415">
        <ele>115.063</ele>
        <time>1970-01-01T01:00:00Z</time>
        <extensions><gpxtpx:TrackPointExtension><gpxtpx:hr>93</gpxtpx:hr></gpxtpx:TrackPointExtension></extensions>
      </trkpt>
      <trkpt lat="56.43773" lon="12.731415">
        <ele>114.911</ele>
        <time>1970-01-01T01:00:00Z</time>
        <extensions><gpxtpx:TrackPointExtension><gpxtpx:hr>93</gpxtpx:hr></gpxtpx:TrackPointExtension></extensions>
      </trkpt>
      <trkpt lat="56.43771667" lon="12.73141333">
        <ele>114.911</ele>
        <time>1970-01-01T01:00:00Z</time>
        <extensions><gpxtpx:TrackPointExtension><gpxtpx:hr>93</gpxtpx:hr></gpxtpx:TrackPointExtension></extensions>
      </trkpt>
      <trkpt lat="56.437705" lon="12.73141">
        <ele>114.759</ele>
        <time>1970-01-01T01:00:00Z</time>
        <extensions><gpxtpx:TrackPointExtension><gpxtpx:hr>94</gpxtpx:hr></gpxtpx:TrackPointExtension></extensions>
      </trkpt>
      <trkpt lat="56.43769167" lon="12.73141">
        <ele>114.759</ele>
        <time>1970-01-01T01:00:00Z</time>
        <extensions><gpxtpx:TrackPointExtension><gpxtpx:hr>94</gpxtpx:hr></gpxtpx:TrackPointExtension></extensions>
      </trkpt>
      <trkpt lat="56.43767833" lon="12.73140667">
        <ele>114.606</ele>
        <time>1970-01-01T01:00:00Z</time>
        <extensions><gpxtpx:TrackPointExtension><gpxtpx:hr>94</gpxtpx:hr></gpxtpx:TrackPointExtension></extensions>
      </trkpt>
      <trkpt lat="56.437665" lon="12.73140667">
        <ele>114.606</ele>
        <time>1970-01-01T01:00:00Z</time>
        <extensions><gpxtpx:TrackPointExtension><gpxtpx:hr>94</gpxtpx:hr></gpxtpx:TrackPointExtension></extensions>
      </trkpt>
      <trkpt lat="56.43765" lon="12.731405">
        <ele>114.454</ele>
        <time>1970-01-01T01:00:00Z</time>
        <extensions><gpxtpx:TrackPointExtension><gpxtpx:hr>94</gpxtpx:hr></gpxtpx:TrackPointExtension></extensions>
      </trkpt>
      <trkpt lat="56.43763667" lon="12.73140667">
        <ele>114.301</ele>
        <time>1970-01-01T01:00:00Z</time>
        <extensions><gpxtpx:TrackPointExtension><gpxtpx:hr>94</gpxtpx:hr></gpxtpx:TrackPointExtension></extensions>
      </trkpt>
      <trkpt lat="56.43762" lon="12.73140333">
        <ele>114.149</ele>
        <time>1970-01-01T01:00:00Z</time>
        <extensions><gpxtpx:TrackPointExtension><gpxtpx:hr>94</gpxtpx:hr></gpxtpx:TrackPointExtension></extensions>
      </trkpt>
      <trkpt lat="56.43760333" lon="12.73140167">
        <ele>113.997</ele>
        <time>1970-01-01T01:00:00Z</time>
        <extensions><gpxtpx:TrackPointExtension><gpxtpx:hr>94</gpxtpx:hr></gpxtpx:TrackPointExtension></extensions>
      </trkpt>
      <trkpt lat="56.43758833" lon="12.73139833">
        <ele>113.997</ele>
        <time>1970-01-01T01:00:00Z</time>
        <extensions><gpxtpx:TrackPointExtension><gpxtpx:hr>95</gpxtpx:hr></gpxtpx:TrackPointExtension></extensions>
      </trkpt>
      <trkpt lat="56.43757167" lon="12.73139333">
        <ele>113.844</ele>
        <time>1970-01-01T01:00:00Z</time>
        <extensions><gpxtpx:TrackPointExtension><gpxtpx:hr>95</gpxtpx:hr></gpxtpx:TrackPointExtension></extensions>
      </trkpt>
      <trkpt lat="56.43755667" lon="12.73138667">
        <ele>113.692</ele>
        <time>1970-01-01T01:00:00Z</time>
        <extensions><gpxtpx:TrackPointExtension><gpxtpx:hr>95</gpxtpx:hr></gpxtpx:TrackPointExtension></extensions>
      </trkpt>
      <trkpt lat="56.43754167" lon="12.73138333">
        <ele>113.539</ele>
        <time>1970-01-01T01:00:00Z</time>
        <extensions><gpxtpx:TrackPointExtension><gpxtpx:hr>95</gpxtpx:hr></gpxtpx:TrackPointExtension></extensions>
      </trkpt>
      <trkpt lat="56.43752833" lon="12.73138">
        <ele>113.387</ele>
        <time>1970-01-01T01:00:00Z</time>
        <extensions><gpxtpx:TrackPointExtension><gpxtpx:hr>95</gpxtpx:hr></gpxtpx:TrackPointExtension></extensions>
      </trkpt>
      <trkpt lat="56.43751667" lon="12.73138">
        <ele>113.235</ele>
        <time>1970-01-01T01:00:00Z</time>
        <extensions><gpxtpx:TrackPointExtension><gpxtpx:hr>95</gpxtpx:hr></gpxtpx:TrackPointExtension></extensions>
      </trkpt>
      <trkpt lat="56.43750167" lon="12.73137833">
        <ele>113.082</ele>
        <time>1970-01-01T01:00:00Z</time>
        <extensions><gpxtpx:TrackPointExtension><gpxtpx:hr>95</gpxtpx:hr></gpxtpx:TrackPointExtension></extensions>
      </trkpt>
      <trkpt lat="56.43748833" lon="12.73137167">
        <ele>112.93</ele>
        <time>1970-01-01T01:00:00Z</time>
        <extensions><gpxtpx:TrackPointExtension><gpxtpx:hr>96</gpxtpx:hr></gpxtpx:TrackPointExtension></extensions>
      </trkpt>
      <trkpt lat="56.43748167" lon="12.731365">
        <ele>112.777</ele>
        <time>1970-01-01T01:00:00Z</time>
        <extensions><gpxtpx:TrackPointExtension><gpxtpx:hr>96</gpxtpx:hr></gpxtpx:TrackPointExtension></extensions>
      </trkpt>
      <trkpt lat="56.437475" lon="12.73135667">
        <ele>112.777</ele>
        <time>1970-01-01T01:00:00Z</time>
        <extensions><gpxtpx:TrackPointExtension><gpxtpx:hr>96</gpxtpx:hr></gpxtpx:TrackPointExtension></extensions>
      </trkpt>
      <trkpt lat="56.43747" lon="12.731345">
        <ele>112.625</ele>
        <time>1970-01-01T01:00:00Z</time>
        <extensions><gpxtpx:TrackPointExtension><gpxtpx:hr>96</gpxtpx:hr></gpxtpx:TrackPointExtension></extensions>
      </trkpt>
      <trkpt lat="56.437465" lon="12.73133">
        <ele>112.473</ele>
        <time>1970-01-01T01:00:00Z</time>
        <extensions><gpxtpx:TrackPointExtension><gpxtpx:hr>96</gpxtpx:hr></gpxtpx:TrackPointExtension></extensions>
      </trkpt>
      <trkpt lat="56.43746167" lon="12.73131">
        <ele>112.32</ele>
        <time>1970-01-01T01:00:00Z</time>
        <extensions><gpxtpx:TrackPointExtension><gpxtpx:hr>97</gpxtpx:hr></gpxtpx:TrackPointExtension></extensions>
      </trkpt>
      <trkpt lat="56.43745667" lon="12.73128833">
        <ele>112.168</ele>
        <time>1970-01-01T01:00:00Z</time>
        <extensions><gpxtpx:TrackPointExtension><gpxtpx:hr>97</gpxtpx:hr></gpxtpx:TrackPointExtension></extensions>
      </trkpt>
      <trkpt lat="56.43745333" lon="12.73126667">
        <ele>112.168</ele>
        <time>1970-01-01T01:00:00Z</time>
        <extensions><gpxtpx:TrackPointExtension><gpxtpx:hr>97</gpxtpx:hr></gpxtpx:TrackPointExtension></extensions>
      </trkpt>
      <trkpt lat="56.43744667" lon="12.73123833">
        <ele>112.015</ele>
        <time>1970-01-01T01:00:00Z</time>
        <extensions><gpxtpx:TrackPointExtension><gpxtpx:hr>97</gpxtpx:hr></gpxtpx:TrackPointExtension></extensions>
      </trkpt>
      <trkpt lat="56.43744333" lon="12.73121333">
        <ele>111.863</ele>
        <time>1970-01-01T01:00:00Z</time>
        <extensions><gpxtpx:TrackPointExtension><gpxtpx:hr>98</gpxtpx:hr></gpxtpx:TrackPointExtension></extensions>
      </trkpt>
      <trkpt lat="56.43744167" lon="12.73118833">
        <ele>111.863</ele>
        <time>1970-01-01T01:00:00Z</time>
        <extensions><gpxtpx:TrackPointExtension><gpxtpx:hr>98</gpxtpx:hr></gpxtpx:TrackPointExtension></extensions>
      </trkpt>
      <trkpt lat="56.43744167" lon="12.73116333">
        <ele>111.711</ele>
        <time>1970-01-01T01:00:00Z</time>
        <extensions><gpxtpx:TrackPointExtension><gpxtpx:hr>98</gpxtpx:hr></gpxtpx:TrackPointExtension></extensions>
      </trkpt>
      <trkpt lat="56.43744167" lon="12.73113667">
        <ele>111.711</ele>
        <time>1970-01-01T01:00:00Z</time>
        <extensions><gpxtpx:TrackPointExtension><gpxtpx:hr>98</gpxtpx:hr></gpxtpx:TrackPointExtension></extensions>
      </trkpt>
      <trkpt lat="56.43744" lon="12.73111">
        <ele>111.711</ele>
        <time>1970-01-01T01:00:00Z</time>
        <extensions><gpxtpx:TrackPointExtension><gpxtpx:hr>99</gpxtpx:hr></gpxtpx:TrackPointExtension></extensions>
      </trkpt>
      <trkpt lat="56.43744" lon="12.73108333">
        <ele>111.558</ele>
        <time>1970-01-01T01:00:00Z</time>
        <extensions><gpxtpx:TrackPointExtension><gpxtpx:hr>99</gpxtpx:hr></gpxtpx:TrackPointExtension></extensions>
      </trkpt>
      <trkpt lat="56.43744" lon="12.73106167">
        <ele>111.558</ele>
        <time>1970-01-01T01:00:00Z</time>
        <extensions><gpxtpx:TrackPointExtension><gpxtpx:hr>99</gpxtpx:hr></gpxtpx:TrackPointExtension></extensions>
      </trkpt>
      <trkpt lat="56.43744" lon="12.73103833">
        <ele>111.558</ele>
        <time>1970-01-01T01:00:00Z</time>
        <extensions><gpxtpx:TrackPointExtension><gpxtpx:hr>100</gpxtpx:hr></gpxtpx:TrackPointExtension></extensions>
      </trkpt>
      <trkpt lat="56.43743667" lon="12.73101333">
        <ele>111.406</ele>
        <time>1970-01-01T01:00:00Z</time>
        <extensions><gpxtpx:TrackPointExtension><gpxtpx:hr>100</gpxtpx:hr></gpxtpx:TrackPointExtension></extensions>
      </trkpt>
      <trkpt lat="56.43743333" lon="12.73098833">
        <ele>111.406</ele>
        <time>1970-01-01T01:00:00Z</time>
        <extensions><gpxtpx:TrackPointExtension><gpxtpx:hr>101</gpxtpx:hr></gpxtpx:TrackPointExtension></extensions>
      </trkpt>
      <trkpt lat="56.43743" lon="12.73096167">
        <ele>111.406</ele>
        <time>1970-01-01T01:00:00Z</time>
        <extensions><gpxtpx:TrackPointExtension><gpxtpx:hr>101</gpxtpx:hr></gpxtpx:TrackPointExtension></extensions>
      </trkpt>
      <trkpt lat="56.43742833" lon="12.73093667">
        <ele>111.406</ele>
        <time>1970-01-01T01:00:00Z</time>
        <extensions><gpxtpx:TrackPointExtension><gpxtpx:hr>101</gpxtpx:hr></gpxtpx:TrackPointExtension></extensions>
      </trkpt>
      <trkpt lat="56.43742833" lon="12.73091167">
        <ele>111.253</ele>
        <time>1970-01-01T01:00:00Z</time>
        <extensions><gpxtpx:TrackPointExtension><gpxtpx:hr>102</gpxtpx:hr></gpxtpx:TrackPointExtension></extensions>
      </trkpt>
      <trkpt lat="56.43742667" lon="12.73088333">
        <ele>111.253</ele>
        <time>1970-01-01T01:00:00Z</time>
        <extensions><gpxtpx:TrackPointExtension><gpxtpx:hr>102</gpxtpx:hr></gpxtpx:TrackPointExtension></extensions>
      </trkpt>
      <trkpt lat="56.43742333" lon="12.73085333">
        <ele>111.253</ele>
        <time>1970-01-01T01:00:00Z</time>
        <extensions><gpxtpx:TrackPointExtension><gpxtpx:hr>102</gpxtpx:hr></gpxtpx:TrackPointExtension></extensions>
      </trkpt>
      <trkpt lat="56.43742333" lon="12.73082667">
        <ele>111.253</ele>
        <time>1970-01-01T01:00:00Z</time>
        <extensions><gpxtpx:TrackPointExtension><gpxtpx:hr>103</gpxtpx:hr></gpxtpx:TrackPointExtension></extensions>
      </trkpt>
      <trkpt lat="56.43742333" lon="12.7308">
        <ele>111.253</ele>
        <time>1970-01-01T01:00:00Z</time>
        <extensions><gpxtpx:TrackPointExtension><gpxtpx:hr>103</gpxtpx:hr></gpxtpx:TrackPointExtension></extensions>
      </trkpt>
      <trkpt lat="56.437425" lon="12.73077333">
        <ele>111.101</ele>
        <time>1970-01-01T01:00:00Z</time>
        <extensions><gpxtpx:TrackPointExtension><gpxtpx:hr>103</gpxtpx:hr></gpxtpx:TrackPointExtension></extensions>
      </trkpt>
      <trkpt lat="56.43742667" lon="12.73075">
        <ele>111.101</ele>
        <time>1970-01-01T01:00:00Z</time>
        <extensions><gpxtpx:TrackPointExtension><gpxtpx:hr>103</gpxtpx:hr></gpxtpx:TrackPointExtension></extensions>
      </trkpt>
      <trkpt lat="56.43743" lon="12.73072667">
        <ele>111.101</ele>
        <time>1970-01-01T01:00:00Z</time>
        <extensions><gpxtpx:TrackPointExtension><gpxtpx:hr>104</gpxtpx:hr></gpxtpx:TrackPointExtension></extensions>
      </trkpt>
      <trkpt lat="56.43743167" lon="12.73070167">
        <ele>110.949</ele>
        <time>1970-01-01T01:00:00Z</time>
        <extensions><gpxtpx:TrackPointExtension><gpxtpx:hr>104</gpxtpx:hr></gpxtpx:TrackPointExtension></extensions>
      </trkpt>
      <trkpt lat="56.43743333" lon="12.73067667">
        <ele>110.949</ele>
        <time>1970-01-01T01:00:00Z</time>
        <extensions><gpxtpx:TrackPointExtension><gpxtpx:hr>104</gpxtpx:hr></gpxtpx:TrackPointExtension></extensions>
      </trkpt>
      <trkpt lat="56.43743167" lon="12.73065167">
        <ele>110.949</ele>
        <time>1970-01-01T01:00:00Z</time>
        <extensions><gpxtpx:TrackPointExtension><gpxtpx:hr>104</gpxtpx:hr></gpxtpx:TrackPointExtension></extensions>
      </trkpt>
      <trkpt lat="56.43742667" lon="12.73062667">
        <ele>110.796</ele>
        <time>1970-01-01T01:00:00Z</time>
        <extensions><gpxtpx:TrackPointExtension><gpxtpx:hr>105</gpxtpx:hr></gpxtpx:TrackPointExtension></extensions>
      </trkpt>
      <trkpt lat="56.43742167" lon="12.73060167">
        <ele>110.796</ele>
        <time>1970-01-01T01:00:00Z</time>
        <extensions><gpxtpx:TrackPointExtension><gpxtpx:hr>105</gpxtpx:hr></gpxtpx:TrackPointExtension></extensions>
      </trkpt>
      <trkpt lat="56.43741833" lon="12.73058">
        <ele>110.796</ele>
        <time>1970-01-01T01:00:00Z</time>
        <extensions><gpxtpx:TrackPointExtension><gpxtpx:hr>105</gpxtpx:hr></gpxtpx:TrackPointExtension></extensions>
      </trkpt>
      <trkpt lat="56.43741167" lon="12.73055">
        <ele>110.644</ele>
        <time>1970-01-01T01:00:00Z</time>
        <extensions><gpxtpx:TrackPointExtension><gpxtpx:hr>105</gpxtpx:hr></gpxtpx:TrackPointExtension></extensions>
      </trkpt>
      <trkpt lat="56.43740333" lon="12.73052333">
        <ele>110.644</ele>
        <time>1970-01-01T01:00:00Z</time>
        <extensions><gpxtpx:TrackPointExtension><gpxtpx:hr>105</gpxtpx:hr></gpxtpx:TrackPointExtension></extensions>
      </trkpt>
      <trkpt lat="56.43739833" lon="12.7305">
        <ele>110.644</ele>
        <time>1970-01-01T01:00:00Z</time>
        <extensions><gpxtpx:TrackPointExtension><gpxtpx:hr>105</gpxtpx:hr></gpxtpx:TrackPointExtension></extensions>
      </trkpt>
      <trkpt lat="56.4374" lon="12.730475">
        <ele>110.644</ele>
        <time>1970-01-01T01:00:00Z</time>
        <extensions><gpxtpx:TrackPointExtension><gpxtpx:hr>105</gpxtpx:hr></gpxtpx:TrackPointExtension></extensions>
      </trkpt>
      <trkpt lat="56.437395" lon="12.73045167">
        <ele>110.644</ele>
        <time>1970-01-01T01:00:00Z</time>
        <extensions><gpxtpx:TrackPointExtension><gpxtpx:hr>105</gpxtpx:hr></gpxtpx:TrackPointExtension></extensions>
      </trkpt>
      <trkpt lat="56.43739333" lon="12.73043">
        <ele>110.644</ele>
        <time>1970-01-01T01:00:00Z</time>
        <extensions><gpxtpx:TrackPointExtension><gpxtpx:hr>105</gpxtpx:hr></gpxtpx:TrackPointExtension></extensions>
      </trkpt>
      <trkpt lat="56.43739" lon="12.73040167">
        <ele>110.491</ele>
        <time>1970-01-01T01:00:00Z</time>
        <extensions><gpxtpx:TrackPointExtension><gpxtpx:hr>105</gpxtpx:hr></gpxtpx:TrackPointExtension></extensions>
      </trkpt>
      <trkpt lat="56.43738333" lon="12.73037333">
        <ele>110.491</ele>
        <time>1970-01-01T01:00:00Z</time>
        <extensions><gpxtpx:TrackPointExtension><gpxtpx:hr>105</gpxtpx:hr></gpxtpx:TrackPointExtension></extensions>
      </trkpt>
      <trkpt lat="56.43737667" lon="12.73034333">
        <ele>110.491</ele>
        <time>1970-01-01T01:00:00Z</time>
        <extensions><gpxtpx:TrackPointExtension><gpxtpx:hr>105</gpxtpx:hr></gpxtpx:TrackPointExtension></extensions>
      </trkpt>
      <trkpt lat="56.43737" lon="12.73032">
        <ele>110.491</ele>
        <time>1970-01-01T01:00:00Z</time>
        <extensions><gpxtpx:TrackPointExtension><gpxtpx:hr>105</gpxtpx:hr></gpxtpx:TrackPointExtension></extensions>
      </trkpt>
      <trkpt lat="56.43736667" lon="12.73029667">
        <ele>110.491</ele>
        <time>1970-01-01T01:00:00Z</time>
        <extensions><gpxtpx:TrackPointExtension><gpxtpx:hr>106</gpxtpx:hr></gpxtpx:TrackPointExtension></extensions>
      </trkpt>
      <trkpt lat="56.43736167" lon="12.73027833">
        <ele>110.491</ele>
        <time>1970-01-01T01:00:00Z</time>
        <extensions><gpxtpx:TrackPointExtension><gpxtpx:hr>106</gpxtpx:hr></gpxtpx:TrackPointExtension></extensions>
      </trkpt>
      <trkpt lat="56.43735833" lon="12.73025333">
        <ele>110.491</ele>
        <time>1970-01-01T01:00:00Z</time>
        <extensions><gpxtpx:TrackPointExtension><gpxtpx:hr>106</gpxtpx:hr></gpxtpx:TrackPointExtension></extensions>
      </trkpt>
      <trkpt lat="56.437355" lon="12.73023">
        <ele>110.491</ele>
        <time>1970-01-01T01:00:00Z</time>
        <extensions><gpxtpx:TrackPointExtension><gpxtpx:hr>105</gpxtpx:hr></gpxtpx:TrackPointExtension></extensions>
      </trkpt>
      <trkpt lat="56.437355" lon="12.73021">
        <ele>110.339</ele>
        <time>1970-01-01T01:00:00Z</time>
        <extensions><gpxtpx:TrackPointExtension><gpxtpx:hr>105</gpxtpx:hr></gpxtpx:TrackPointExtension></extensions>
      </trkpt>
      <trkpt lat="56.43735333" lon="12.73018833">
        <ele>110.339</ele>
        <time>1970-01-01T01:00:00Z</time>
        <extensions><gpxtpx:TrackPointExtension><gpxtpx:hr>104</gpxtpx:hr></gpxtpx:TrackPointExtension></extensions>
      </trkpt>
      <trkpt lat="56.43735333" lon="12.730165">
        <ele>110.187</ele>
        <time>1970-01-01T01:00:00Z</time>
        <extensions><gpxtpx:TrackPointExtension><gpxtpx:hr>103</gpxtpx:hr></gpxtpx:TrackPointExtension></extensions>
      </trkpt>
      <trkpt lat="56.43735167" lon="12.73014333">
        <ele>110.187</ele>
        <time>1970-01-01T01:00:00Z</time>
        <extensions><gpxtpx:TrackPointExtension><gpxtpx:hr>102</gpxtpx:hr></gpxtpx:TrackPointExtension></extensions>
      </trkpt>
      <trkpt lat="56.43735333" lon="12.73012">
        <ele>110.034</ele>
        <time>1970-01-01T01:00:00Z</time>
        <extensions><gpxtpx:TrackPointExtension><gpxtpx:hr>102</gpxtpx:hr></gpxtpx:TrackPointExtension></extensions>
      </trkpt>
      <trkpt lat="56.437355" lon="12.73009833">
        <ele>110.034</ele>
        <time>1970-01-01T01:00:00Z</time>
        <extensions><gpxtpx:TrackPointExtension><gpxtpx:hr>101</gpxtpx:hr></gpxtpx:TrackPointExtension></extensions>
      </trkpt>
      <trkpt lat="56.43735833" lon="12.730075">
        <ele>109.882</ele>
        <time>1970-01-01T01:00:00Z</time>
        <extensions><gpxtpx:TrackPointExtension><gpxtpx:hr>101</gpxtpx:hr></gpxtpx:TrackPointExtension></extensions>
      </trkpt>
      <trkpt lat="56.43736" lon="12.73005167">
        <ele>109.882</ele>
        <time>1970-01-01T01:00:00Z</time>
        <extensions><gpxtpx:TrackPointExtension><gpxtpx:hr>100</gpxtpx:hr></gpxtpx:TrackPointExtension></extensions>
      </trkpt>
      <trkpt lat="56.43736" lon="12.730025">
        <ele>109.729</ele>
        <time>1970-01-01T01:00:00Z</time>
        <extensions><gpxtpx:TrackPointExtension><gpxtpx:hr>100</gpxtpx:hr></gpxtpx:TrackPointExtension></extensions>
      </trkpt>
      <trkpt lat="56.43736" lon="12.73">
        <ele>109.729</ele>
        <time>1970-01-01T01:00:00Z</time>
        <extensions><gpxtpx:TrackPointExtension><gpxtpx:hr>101</gpxtpx:hr></gpxtpx:TrackPointExtension></extensions>
      </trkpt>
      <trkpt lat="56.43735833" lon="12.729975">
        <ele>109.577</ele>
        <time>1970-01-01T01:00:00Z</time>
        <extensions><gpxtpx:TrackPointExtension><gpxtpx:hr>101</gpxtpx:hr></gpxtpx:TrackPointExtension></extensions>
      </trkpt>
      <trkpt lat="56.43735833" lon="12.72994667">
        <ele>109.577</ele>
        <time>1970-01-01T01:00:00Z</time>
        <extensions><gpxtpx:TrackPointExtension><gpxtpx:hr>101</gpxtpx:hr></gpxtpx:TrackPointExtension></extensions>
      </trkpt>
      <trkpt lat="56.43735667" lon="12.72991667">
        <ele>109.577</ele>
        <time>1970-01-01T01:00:00Z</time>
        <extensions><gpxtpx:TrackPointExtension><gpxtpx:hr>101</gpxtpx:hr></gpxtpx:TrackPointExtension></extensions>
      </trkpt>
      <trkpt lat="56.43736" lon="12.72988833">
        <ele>109.425</ele>
        <time>1970-01-01T01:00:00Z</time>
        <extensions><gpxtpx:TrackPointExtension><gpxtpx:hr>102</gpxtpx:hr></gpxtpx:TrackPointExtension></extensions>
      </trkpt>
      <trkpt lat="56.43736333" lon="12.72986167">
        <ele>109.425</ele>
        <time>1970-01-01T01:00:00Z</time>
        <extensions><gpxtpx:TrackPointExtension><gpxtpx:hr>102</gpxtpx:hr></gpxtpx:TrackPointExtension></extensions>
      </trkpt>
      <trkpt lat="56.43736833" lon="12.72983667">
        <ele>109.425</ele>
        <time>1970-01-01T01:00:00Z</time>
        <extensions><gpxtpx:TrackPointExtension><gpxtpx:hr>103</gpxtpx:hr></gpxtpx:TrackPointExtension></extensions>
      </trkpt>
      <trkpt lat="56.437375" lon="12.72982">
        <ele>109.272</ele>
        <time>1970-01-01T01:00:00Z</time>
        <extensions><gpxtpx:TrackPointExtension><gpxtpx:hr>103</gpxtpx:hr></gpxtpx:TrackPointExtension></extensions>
      </trkpt>
      <trkpt lat="56.43738333" lon="12.729805">
        <ele>109.272</ele>
        <time>1970-01-01T01:00:00Z</time>
        <extensions><gpxtpx:TrackPointExtension><gpxtpx:hr>104</gpxtpx:hr></gpxtpx:TrackPointExtension></extensions>
      </trkpt>
      <trkpt lat="56.43739167" lon="12.72978667">
        <ele>109.272</ele>
        <time>1970-01-01T01:00:00Z</time>
        <extensions><gpxtpx:TrackPointExtension><gpxtpx:hr>104</gpxtpx:hr></gpxtpx:TrackPointExtension></extensions>
      </trkpt>
      <trkpt lat="56.43740167" lon="12.72976833">
        <ele>109.272</ele>
        <time>1970-01-01T01:00:00Z</time>
        <extensions><gpxtpx:TrackPointExtension><gpxtpx:hr>105</gpxtpx:hr></gpxtpx:TrackPointExtension></extensions>
      </trkpt>
      <trkpt lat="56.43740667" lon="12.72975167">
        <ele>109.272</ele>
        <time>1970-01-01T01:00:00Z</time>
        <extensions><gpxtpx:TrackPointExtension><gpxtpx:hr>105</gpxtpx:hr></gpxtpx:TrackPointExtension></extensions>
      </trkpt>
      <trkpt lat="56.43741" lon="12.72973167">
        <ele>109.272</ele>
        <time>1970-01-01T01:00:00Z</time>
        <extensions><gpxtpx:TrackPointExtension><gpxtpx:hr>106</gpxtpx:hr></gpxtpx:TrackPointExtension></extensions>
      </trkpt>
      <trkpt lat="56.43741" lon="12.72970833">
        <ele>109.272</ele>
        <time>1970-01-01T01:00:00Z</time>
        <extensions><gpxtpx:TrackPointExtension><gpxtpx:hr>106</gpxtpx:hr></gpxtpx:TrackPointExtension></extensions>
      </trkpt>
      <trkpt lat="56.43740833" lon="12.72968333">
        <ele>109.272</ele>
        <time>1970-01-01T01:00:00Z</time>
        <extensions><gpxtpx:TrackPointExtension><gpxtpx:hr>106</gpxtpx:hr></gpxtpx:TrackPointExtension></extensions>
      </trkpt>
      <trkpt lat="56.437405" lon="12.72965333">
        <ele>109.272</ele>
        <time>1970-01-01T01:00:00Z</time>
        <extensions><gpxtpx:TrackPointExtension><gpxtpx:hr>106</gpxtpx:hr></gpxtpx:TrackPointExtension></extensions>
      </trkpt>
      <trkpt lat="56.4374" lon="12.72963167">
        <ele>109.272</ele>
        <time>1970-01-01T01:00:00Z</time>
        <extensions><gpxtpx:TrackPointExtension><gpxtpx:hr>107</gpxtpx:hr></gpxtpx:TrackPointExtension></extensions>
      </trkpt>
      <trkpt lat="56.43739667" lon="12.72960667">
        <ele>109.272</ele>
        <time>1970-01-01T01:00:00Z</time>
        <extensions><gpxtpx:TrackPointExtension><gpxtpx:hr>107</gpxtpx:hr></gpxtpx:TrackPointExtension></extensions>
      </trkpt>
      <trkpt lat="56.43739333" lon="12.72958333">
        <ele>109.272</ele>
        <time>1970-01-01T01:00:00Z</time>
        <extensions><gpxtpx:TrackPointExtension><gpxtpx:hr>107</gpxtpx:hr></gpxtpx:TrackPointExtension></extensions>
      </trkpt>
      <trkpt lat="56.43739" lon="12.72956">
        <ele>109.12</ele>
        <time>1970-01-01T01:00:00Z</time>
        <extensions><gpxtpx:TrackPointExtension><gpxtpx:hr>106</gpxtpx:hr></gpxtpx:TrackPointExtension></extensions>
      </trkpt>
      <trkpt lat="56.43738667" lon="12.729535">
        <ele>109.12</ele>
        <time>1970-01-01T01:00:00Z</time>
        <extensions><gpxtpx:TrackPointExtension><gpxtpx:hr>106</gpxtpx:hr></gpxtpx:TrackPointExtension></extensions>
      </trkpt>
      <trkpt lat="56.437385" lon="12.72951">
        <ele>109.12</ele>
        <time>1970-01-01T01:00:00Z</time>
        <extensions><gpxtpx:TrackPointExtension><gpxtpx:hr>106</gpxtpx:hr></gpxtpx:TrackPointExtension></extensions>
      </trkpt>
      <trkpt lat="56.43738167" lon="12.72948833">
        <ele>109.12</ele>
        <time>1970-01-01T01:00:00Z</time>
        <extensions><gpxtpx:TrackPointExtension><gpxtpx:hr>106</gpxtpx:hr></gpxtpx:TrackPointExtension></extensions>
      </trkpt>
      <trkpt lat="56.43737833" lon="12.729465">
        <ele>109.12</ele>
        <time>1970-01-01T01:00:00Z</time>
        <extensions><gpxtpx:TrackPointExtension><gpxtpx:hr>104</gpxtpx:hr></gpxtpx:TrackPointExtension></extensions>
      </trkpt>
      <trkpt lat="56.43737667" lon="12.72944">
        <ele>109.12</ele>
        <time>1970-01-01T01:00:00Z</time>
        <extensions><gpxtpx:TrackPointExtension><gpxtpx:hr>104</gpxtpx:hr></gpxtpx:TrackPointExtension></extensions>
      </trkpt>
      <trkpt lat="56.437375" lon="12.729415">
        <ele>109.12</ele>
        <time>1970-01-01T01:00:00Z</time>
        <extensions><gpxtpx:TrackPointExtension><gpxtpx:hr>104</gpxtpx:hr></gpxtpx:TrackPointExtension></extensions>
      </trkpt>
      <trkpt lat="56.43737333" lon="12.72939333">
        <ele>109.12</ele>
        <time>1970-01-01T01:00:00Z</time>
        <extensions><gpxtpx:TrackPointExtension><gpxtpx:hr>103</gpxtpx:hr></gpxtpx:TrackPointExtension></extensions>
      </trkpt>
      <trkpt lat="56.43737" lon="12.72937167">
        <ele>109.12</ele>
        <time>1970-01-01T01:00:00Z</time>
        <extensions><gpxtpx:TrackPointExtension><gpxtpx:hr>103</gpxtpx:hr></gpxtpx:TrackPointExtension></extensions>
      </trkpt>
      <trkpt lat="56.43736833" lon="12.72934833">
        <ele>109.12</ele>
        <time>1970-01-01T01:00:00Z</time>
        <extensions><gpxtpx:TrackPointExtension><gpxtpx:hr>103</gpxtpx:hr></gpxtpx:TrackPointExtension></extensions>
      </trkpt>
      <trkpt lat="56.43736833" lon="12.72933">
        <ele>109.12</ele>
        <time>1970-01-01T01:00:00Z</time>
        <extensions><gpxtpx:TrackPointExtension><gpxtpx:hr>103</gpxtpx:hr></gpxtpx:TrackPointExtension></extensions>
      </trkpt>
      <trkpt lat="56.43736667" lon="12.72931">
        <ele>109.12</ele>
        <time>1970-01-01T01:00:00Z</time>
        <extensions><gpxtpx:TrackPointExtension><gpxtpx:hr>103</gpxtpx:hr></gpxtpx:TrackPointExtension></extensions>
      </trkpt>
      <trkpt lat="56.437365" lon="12.72929">
        <ele>109.12</ele>
        <time>1970-01-01T01:00:00Z</time>
        <extensions><gpxtpx:TrackPointExtension><gpxtpx:hr>103</gpxtpx:hr></gpxtpx:TrackPointExtension></extensions>
      </trkpt>
      <trkpt lat="56.43736" lon="12.729265">
        <ele>109.12</ele>
        <time>1970-01-01T01:00:00Z</time>
        <extensions><gpxtpx:TrackPointExtension><gpxtpx:hr>103</gpxtpx:hr></gpxtpx:TrackPointExtension></extensions>
      </trkpt>
      <trkpt lat="56.43735333" lon="12.72924333">
        <ele>109.12</ele>
        <time>1970-01-01T01:00:00Z</time>
        <extensions><gpxtpx:TrackPointExtension><gpxtpx:hr>103</gpxtpx:hr></gpxtpx:TrackPointExtension></extensions>
      </trkpt>
      <trkpt lat="56.43734833" lon="12.72922">
        <ele>109.12</ele>
        <time>1970-01-01T01:00:00Z</time>
        <extensions><gpxtpx:TrackPointExtension><gpxtpx:hr>103</gpxtpx:hr></gpxtpx:TrackPointExtension></extensions>
      </trkpt>
      <trkpt lat="56.437345" lon="12.72919667">
        <ele>109.12</ele>
        <time>1970-01-01T01:00:00Z</time>
        <extensions><gpxtpx:TrackPointExtension><gpxtpx:hr>103</gpxtpx:hr></gpxtpx:TrackPointExtension></extensions>
      </trkpt>
      <trkpt lat="56.43734167" lon="12.729175">
        <ele>109.12</ele>
        <time>1970-01-01T01:00:00Z</time>
        <extensions><gpxtpx:TrackPointExtension><gpxtpx:hr>103</gpxtpx:hr></gpxtpx:TrackPointExtension></extensions>
      </trkpt>
      <trkpt lat="56.43733833" lon="12.72915">
        <ele>109.12</ele>
        <time>1970-01-01T01:00:00Z</time>
        <extensions><gpxtpx:TrackPointExtension><gpxtpx:hr>103</gpxtpx:hr></gpxtpx:TrackPointExtension></extensions>
      </trkpt>
      <trkpt lat="56.43733333" lon="12.72912667">
        <ele>109.12</ele>
        <time>1970-01-01T01:00:00Z</time>
        <extensions><gpxtpx:TrackPointExtension><gpxtpx:hr>103</gpxtpx:hr></gpxtpx:TrackPointExtension></extensions>
      </trkpt>
      <trkpt lat="56.43733" lon="12.72910333">
        <ele>109.12</ele>
        <time>1970-01-01T01:00:00Z</time>
        <extensions><gpxtpx:TrackPointExtension><gpxtpx:hr>104</gpxtpx:hr></gpxtpx:TrackPointExtension></extensions>
      </trkpt>
      <trkpt lat="56.43732667" lon="12.72907833">
        <ele>109.12</ele>
        <time>1970-01-01T01:00:00Z</time>
        <extensions><gpxtpx:TrackPointExtension><gpxtpx:hr>104</gpxtpx:hr></gpxtpx:TrackPointExtension></extensions>
      </trkpt>
      <trkpt lat="56.437325" lon="12.72905333">
        <ele>109.272</ele>
        <time>1970-01-01T01:00:00Z</time>
        <extensions><gpxtpx:TrackPointExtension><gpxtpx:hr>104</gpxtpx:hr></gpxtpx:TrackPointExtension></extensions>
      </trkpt>
      <trkpt lat="56.43732" lon="12.72902833">
        <ele>109.272</ele>
        <time>1970-01-01T01:00:00Z</time>
        <extensions><gpxtpx:TrackPointExtension><gpxtpx:hr>104</gpxtpx:hr></gpxtpx:TrackPointExtension></extensions>
      </trkpt>
      <trkpt lat="56.43731667" lon="12.729005">
        <ele>109.272</ele>
        <time>1970-01-01T01:00:00Z</time>
        <extensions><gpxtpx:TrackPointExtension><gpxtpx:hr>103</gpxtpx:hr></gpxtpx:TrackPointExtension></extensions>
      </trkpt>
      <trkpt lat="56.43731333" lon="12.72898167">
        <ele>109.272</ele>
        <time>1970-01-01T01:00:00Z</time>
        <extensions><gpxtpx:TrackPointExtension><gpxtpx:hr>103</gpxtpx:hr></gpxtpx:TrackPointExtension></extensions>
      </trkpt>
      <trkpt lat="56.43730833" lon="12.72896">
        <ele>109.272</ele>
        <time>1970-01-01T01:00:00Z</time>
        <extensions><gpxtpx:TrackPointExtension><gpxtpx:hr>103</gpxtpx:hr></gpxtpx:TrackPointExtension></extensions>
      </trkpt>
      <trkpt lat="56.43730333" lon="12.72894">
        <ele>109.272</ele>
        <time>1970-01-01T01:00:00Z</time>
        <extensions><gpxtpx:TrackPointExtension><gpxtpx:hr>102</gpxtpx:hr></gpxtpx:TrackPointExtension></extensions>
      </trkpt>
      <trkpt lat="56.43729667" lon="12.72892167">
        <ele>109.272</ele>
        <time>1970-01-01T01:00:00Z</time>
        <extensions><gpxtpx:TrackPointExtension><gpxtpx:hr>101</gpxtpx:hr></gpxtpx:TrackPointExtension></extensions>
      </trkpt>
      <trkpt lat="56.43729" lon="12.72890167">
        <ele>109.272</ele>
        <time>1970-01-01T01:00:00Z</time>
        <extensions><gpxtpx:TrackPointExtension><gpxtpx:hr>101</gpxtpx:hr></gpxtpx:TrackPointExtension></extensions>
      </trkpt>
      <trkpt lat="56.43728" lon="12.72888333">
        <ele>109.425</ele>
        <time>1970-01-01T01:00:00Z</time>
        <extensions><gpxtpx:TrackPointExtension><gpxtpx:hr>100</gpxtpx:hr></gpxtpx:TrackPointExtension></extensions>
      </trkpt>
      <trkpt lat="56.43726833" lon="12.72886667">
        <ele>109.425</ele>
        <time>1970-01-01T01:00:00Z</time>
        <extensions><gpxtpx:TrackPointExtension><gpxtpx:hr>100</gpxtpx:hr></gpxtpx:TrackPointExtension></extensions>
      </trkpt>
      <trkpt lat="56.43725833" lon="12.72884833">
        <ele>109.272</ele>
        <time>1970-01-01T01:00:00Z</time>
        <extensions><gpxtpx:TrackPointExtension><gpxtpx:hr>100</gpxtpx:hr></gpxtpx:TrackPointExtension></extensions>
      </trkpt>
      <trkpt lat="56.43724833" lon="12.72883">
        <ele>109.272</ele>
        <time>1970-01-01T01:00:00Z</time>
        <extensions><gpxtpx:TrackPointExtension><gpxtpx:hr>99</gpxtpx:hr></gpxtpx:TrackPointExtension></extensions>
      </trkpt>
      <trkpt lat="56.43723833" lon="12.72881">
        <ele>109.272</ele>
        <time>1970-01-01T01:00:00Z</time>
        <extensions><gpxtpx:TrackPointExtension><gpxtpx:hr>99</gpxtpx:hr></gpxtpx:TrackPointExtension></extensions>
      </trkpt>
      <trkpt lat="56.43722833" lon="12.728785">
        <ele>109.272</ele>
        <time>1970-01-01T01:00:00Z</time>
        <extensions><gpxtpx:TrackPointExtension><gpxtpx:hr>99</gpxtpx:hr></gpxtpx:TrackPointExtension></extensions>
      </trkpt>
      <trkpt lat="56.43722167" lon="12.72876333">
        <ele>109.272</ele>
        <time>1970-01-01T01:00:00Z</time>
        <extensions><gpxtpx:TrackPointExtension><gpxtpx:hr>99</gpxtpx:hr></gpxtpx:TrackPointExtension></extensions>
      </trkpt>
      <trkpt lat="56.43721833" lon="12.72874167">
        <ele>109.272</ele>
        <time>1970-01-01T01:00:00Z</time>
        <extensions><gpxtpx:TrackPointExtension><gpxtpx:hr>99</gpxtpx:hr></gpxtpx:TrackPointExtension></extensions>
      </trkpt>
      <trkpt lat="56.43721833" lon="12.72871833">
        <ele>109.12</ele>
        <time>1970-01-01T01:00:00Z</time>
        <extensions><gpxtpx:TrackPointExtension><gpxtpx:hr>99</gpxtpx:hr></gpxtpx:TrackPointExtension></extensions>
      </trkpt>
      <trkpt lat="56.43722167" lon="12.728695">
        <ele>109.12</ele>
        <time>1970-01-01T01:00:00Z</time>
        <extensions><gpxtpx:TrackPointExtension><gpxtpx:hr>100</gpxtpx:hr></gpxtpx:TrackPointExtension></extensions>
      </trkpt>
      <trkpt lat="56.43722833" lon="12.72867333">
        <ele>108.967</ele>
        <time>1970-01-01T01:00:00Z</time>
        <extensions><gpxtpx:TrackPointExtension><gpxtpx:hr>99</gpxtpx:hr></gpxtpx:TrackPointExtension></extensions>
      </trkpt>
      <trkpt lat="56.437235" lon="12.72865333">
        <ele>108.967</ele>
        <time>1970-01-01T01:00:00Z</time>
        <extensions><gpxtpx:TrackPointExtension><gpxtpx:hr>100</gpxtpx:hr></gpxtpx:TrackPointExtension></extensions>
      </trkpt>
      <trkpt lat="56.43724667" lon="12.72863667">
        <ele>108.815</ele>
        <time>1970-01-01T01:00:00Z</time>
        <extensions><gpxtpx:TrackPointExtension><gpxtpx:hr>101</gpxtpx:hr></gpxtpx:TrackPointExtension></extensions>
      </trkpt>
      <trkpt lat="56.43725833" lon="12.72862167">
        <ele>108.663</ele>
        <time>1970-01-01T01:00:00Z</time>
        <extensions><gpxtpx:TrackPointExtension><gpxtpx:hr>100</gpxtpx:hr></gpxtpx:TrackPointExtension></extensions>
      </trkpt>
      <trkpt lat="56.43727333" lon="12.72861333">
        <ele>108.663</ele>
        <time>1970-01-01T01:00:00Z</time>
        <extensions><gpxtpx:TrackPointExtension><gpxtpx:hr>100</gpxtpx:hr></gpxtpx:TrackPointExtension></extensions>
      </trkpt>
      <trkpt lat="56.43728833" lon="12.72861">
        <ele>108.51</ele>
        <time>1970-01-01T01:00:00Z</time>
        <extensions><gpxtpx:TrackPointExtension><gpxtpx:hr>100</gpxtpx:hr></gpxtpx:TrackPointExtension></extensions>
      </trkpt>
      <trkpt lat="56.437305" lon="12.728605">
        <ele>108.358</ele>
        <time>1970-01-01T01:00:00Z</time>
        <extensions><gpxtpx:TrackPointExtension><gpxtpx:hr>100</gpxtpx:hr></gpxtpx:TrackPointExtension></extensions>
      </trkpt>
      <trkpt lat="56.43732" lon="12.7286">
        <ele>108.358</ele>
        <time>1970-01-01T01:00:00Z</time>
        <extensions><gpxtpx:TrackPointExtension><gpxtpx:hr>100</gpxtpx:hr></gpxtpx:TrackPointExtension></extensions>
      </trkpt>
      <trkpt lat="56.437335" lon="12.72859833">
        <ele>108.205</ele>
        <time>1970-01-01T01:00:00Z</time>
        <extensions><gpxtpx:TrackPointExtension><gpxtpx:hr>100</gpxtpx:hr></gpxtpx:TrackPointExtension></extensions>
      </trkpt>
      <trkpt lat="56.43735" lon="12.72859333">
        <ele>108.053</ele>
        <time>1970-01-01T01:00:00Z</time>
        <extensions><gpxtpx:TrackPointExtension><gpxtpx:hr>100</gpxtpx:hr></gpxtpx:TrackPointExtension></extensions>
      </trkpt>
      <trkpt lat="56.43736667" lon="12.72858667">
        <ele>108.053</ele>
        <time>1970-01-01T01:00:00Z</time>
        <extensions><gpxtpx:TrackPointExtension><gpxtpx:hr>101</gpxtpx:hr></gpxtpx:TrackPointExtension></extensions>
      </trkpt>
      <trkpt lat="56.43738333" lon="12.72858">
        <ele>107.901</ele>
        <time>1970-01-01T01:00:00Z</time>
        <extensions><gpxtpx:TrackPointExtension><gpxtpx:hr>101</gpxtpx:hr></gpxtpx:TrackPointExtension></extensions>
      </trkpt>
      <trkpt lat="56.43739833" lon="12.72857167">
        <ele>107.748</ele>
        <time>1970-01-01T01:00:00Z</time>
        <extensions><gpxtpx:TrackPointExtension><gpxtpx:hr>102</gpxtpx:hr></gpxtpx:TrackPointExtension></extensions>
      </trkpt>
      <trkpt lat="56.437415" lon="12.72857">
        <ele>107.748</ele>
        <time>1970-01-01T01:00:00Z</time>
        <extensions><gpxtpx:TrackPointExtension><gpxtpx:hr>102</gpxtpx:hr></gpxtpx:TrackPointExtension></extensions>
      </trkpt>
      <trkpt lat="56.43743167" lon="12.72856833">
        <ele>107.596</ele>
        <time>1970-01-01T01:00:00Z</time>
        <extensions><gpxtpx:TrackPointExtension><gpxtpx:hr>103</gpxtpx:hr></gpxtpx:TrackPointExtension></extensions>
      </trkpt>
      <trkpt lat="56.437445" lon="12.72856833">
        <ele>107.596</ele>
        <time>1970-01-01T01:00:00Z</time>
        <extensions><gpxtpx:TrackPointExtension><gpxtpx:hr>103</gpxtpx:hr></gpxtpx:TrackPointExtension></extensions>
      </trkpt>
      <trkpt lat="56.43746" lon="12.72856667">
        <ele>107.443</ele>
        <time>1970-01-01T01:00:00Z</time>
        <extensions><gpxtpx:TrackPointExtension><gpxtpx:hr>103</gpxtpx:hr></gpxtpx:TrackPointExtension></extensions>
      </trkpt>
      <trkpt lat="56.43747333" lon="12.72856333">
        <ele>107.443</ele>
        <time>1970-01-01T01:00:00Z</time>
        <extensions><gpxtpx:TrackPointExtension><gpxtpx:hr>104</gpxtpx:hr></gpxtpx:TrackPointExtension></extensions>
      </trkpt>
      <trkpt lat="56.43748667" lon="12.72855833">
        <ele>107.291</ele>
        <time>1970-01-01T01:00:00Z</time>
        <extensions><gpxtpx:TrackPointExtension><gpxtpx:hr>104</gpxtpx:hr></gpxtpx:TrackPointExtension></extensions>
      </trkpt>
      <trkpt lat="56.4375" lon="12.728555">
        <ele>107.291</ele>
        <time>1970-01-01T01:00:00Z</time>
        <extensions><gpxtpx:TrackPointExtension><gpxtpx:hr>104</gpxtpx:hr></gpxtpx:TrackPointExtension></extensions>
      </trkpt>
      <trkpt lat="56.437515" lon="12.72855333">
        <ele>107.138</ele>
        <time>1970-01-01T01:00:00Z</time>
        <extensions><gpxtpx:TrackPointExtension><gpxtpx:hr>104</gpxtpx:hr></gpxtpx:TrackPointExtension></extensions>
      </trkpt>
      <trkpt lat="56.43753" lon="12.72855">
        <ele>106.986</ele>
        <time>1970-01-01T01:00:00Z</time>
        <extensions><gpxtpx:TrackPointExtension><gpxtpx:hr>104</gpxtpx:hr></gpxtpx:TrackPointExtension></extensions>
      </trkpt>
      <trkpt lat="56.437545" lon="12.72855">
        <ele>106.986</ele>
        <time>1970-01-01T01:00:00Z</time>
        <extensions><gpxtpx:TrackPointExtension><gpxtpx:hr>104</gpxtpx:hr></gpxtpx:TrackPointExtension></extensions>
      </trkpt>
      <trkpt lat="56.43756333" lon="12.728555">
        <ele>106.834</ele>
        <time>1970-01-01T01:00:00Z</time>
        <extensions><gpxtpx:TrackPointExtension><gpxtpx:hr>104</gpxtpx:hr></gpxtpx:TrackPointExtension></extensions>
      </trkpt>
      <trkpt lat="56.43758167" lon="12.72855833">
        <ele>106.834</ele>
        <time>1970-01-01T01:00:00Z</time>
        <extensions><gpxtpx:TrackPointExtension><gpxtpx:hr>104</gpxtpx:hr></gpxtpx:TrackPointExtension></extensions>
      </trkpt>
      <trkpt lat="56.437595" lon="12.72855833">
        <ele>106.681</ele>
        <time>1970-01-01T01:00:00Z</time>
        <extensions><gpxtpx:TrackPointExtension><gpxtpx:hr>103</gpxtpx:hr></gpxtpx:TrackPointExtension></extensions>
      </trkpt>
      <trkpt lat="56.43761" lon="12.728555">
        <ele>106.681</ele>
        <time>1970-01-01T01:00:00Z</time>
        <extensions><gpxtpx:TrackPointExtension><gpxtpx:hr>101</gpxtpx:hr></gpxtpx:TrackPointExtension></extensions>
      </trkpt>
      <trkpt lat="56.43762333" lon="12.72855333">
        <ele>106.529</ele>
        <time>1970-01-01T01:00:00Z</time>
        <extensions><gpxtpx:TrackPointExtension><gpxtpx:hr>100</gpxtpx:hr></gpxtpx:TrackPointExtension></extensions>
      </trkpt>
      <trkpt lat="56.43763667" lon="12.72854833">
        <ele>106.529</ele>
        <time>1970-01-01T01:00:00Z</time>
        <extensions><gpxtpx:TrackPointExtension><gpxtpx:hr>100</gpxtpx:hr></gpxtpx:TrackPointExtension></extensions>
      </trkpt>
      <trkpt lat="56.43764833" lon="12.728545">
        <ele>106.376</ele>
        <time>1970-01-01T01:00:00Z</time>
        <extensions><gpxtpx:TrackPointExtension><gpxtpx:hr>100</gpxtpx:hr></gpxtpx:TrackPointExtension></extensions>
      </trkpt>
      <trkpt lat="56.43766333" lon="12.72854167">
        <ele>106.376</ele>
        <time>1970-01-01T01:00:00Z</time>
        <extensions><gpxtpx:TrackPointExtension><gpxtpx:hr>99</gpxtpx:hr></gpxtpx:TrackPointExtension></extensions>
      </trkpt>
      <trkpt lat="56.43767833" lon="12.72854">
        <ele>106.224</ele>
        <time>1970-01-01T01:00:00Z</time>
        <extensions><gpxtpx:TrackPointExtension><gpxtpx:hr>98</gpxtpx:hr></gpxtpx:TrackPointExtension></extensions>
      </trkpt>
      <trkpt lat="56.43769333" lon="12.72853833">
        <ele>106.224</ele>
        <time>1970-01-01T01:00:00Z</time>
        <extensions><gpxtpx:TrackPointExtension><gpxtpx:hr>98</gpxtpx:hr></gpxtpx:TrackPointExtension></extensions>
      </trkpt>
      <trkpt lat="56.43770833" lon="12.72853833">
        <ele>106.072</ele>
        <time>1970-01-01T01:00:00Z</time>
        <extensions><gpxtpx:TrackPointExtension><gpxtpx:hr>98</gpxtpx:hr></gpxtpx:TrackPointExtension></extensions>
      </trkpt>
      <trkpt lat="56.43772" lon="12.72853833">
        <ele>106.072</ele>
        <time>1970-01-01T01:00:00Z</time>
        <extensions><gpxtpx:TrackPointExtension><gpxtpx:hr>98</gpxtpx:hr></gpxtpx:TrackPointExtension></extensions>
      </trkpt>
      <trkpt lat="56.43773" lon="12.728535">
        <ele>106.072</ele>
        <time>1970-01-01T01:00:00Z</time>
        <extensions><gpxtpx:TrackPointExtension><gpxtpx:hr>98</gpxtpx:hr></gpxtpx:TrackPointExtension></extensions>
      </trkpt>
      <trkpt lat="56.43774167" lon="12.728535">
        <ele>105.919</ele>
        <time>1970-01-01T01:00:00Z</time>
        <extensions><gpxtpx:TrackPointExtension><gpxtpx:hr>98</gpxtpx:hr></gpxtpx:TrackPointExtension></extensions>
      </trkpt>
      <trkpt lat="56.43775333" lon="12.728535">
        <ele>105.919</ele>
        <time>1970-01-01T01:00:00Z</time>
        <extensions><gpxtpx:TrackPointExtension><gpxtpx:hr>98</gpxtpx:hr></gpxtpx:TrackPointExtension></extensions>
      </trkpt>
      <trkpt lat="56.43776667" lon="12.72853167">
        <ele>105.767</ele>
        <time>1970-01-01T01:00:00Z</time>
        <extensions><gpxtpx:TrackPointExtension><gpxtpx:hr>98</gpxtpx:hr></gpxtpx:TrackPointExtension></extensions>
      </trkpt>
      <trkpt lat="56.43778" lon="12.728525">
        <ele>105.767</ele>
        <time>1970-01-01T01:00:00Z</time>
        <extensions><gpxtpx:TrackPointExtension><gpxtpx:hr>98</gpxtpx:hr></gpxtpx:TrackPointExtension></extensions>
      </trkpt>
      <trkpt lat="56.437795" lon="12.72851667">
        <ele>105.614</ele>
        <time>1970-01-01T01:00:00Z</time>
        <extensions><gpxtpx:TrackPointExtension><gpxtpx:hr>99</gpxtpx:hr></gpxtpx:TrackPointExtension></extensions>
      </trkpt>
      <trkpt lat="56.43781167" lon="12.72851167">
        <ele>105.614</ele>
        <time>1970-01-01T01:00:00Z</time>
        <extensions><gpxtpx:TrackPointExtension><gpxtpx:hr>99</gpxtpx:hr></gpxtpx:TrackPointExtension></extensions>
      </trkpt>
      <trkpt lat="56.437825" lon="12.728505">
        <ele>105.462</ele>
        <time>1970-01-01T01:00:00Z</time>
        <extensions><gpxtpx:TrackPointExtension><gpxtpx:hr>99</gpxtpx:hr></gpxtpx:TrackPointExtension></extensions>
      </trkpt>
      <trkpt lat="56.43783833" lon="12.72849667">
        <ele>105.31</ele>
        <time>1970-01-01T01:00:00Z</time>
        <extensions><gpxtpx:TrackPointExtension><gpxtpx:hr>99</gpxtpx:hr></gpxtpx:TrackPointExtension></extensions>
      </trkpt>
      <trkpt lat="56.43785333" lon="12.72849167">
        <ele>105.31</ele>
        <time>1970-01-01T01:00:00Z</time>
        <extensions><gpxtpx:TrackPointExtension><gpxtpx:hr>99</gpxtpx:hr></gpxtpx:TrackPointExtension></extensions>
      </trkpt>
      <trkpt lat="56.437865" lon="12.728485">
        <ele>105.157</ele>
        <time>1970-01-01T01:00:00Z</time>
        <extensions><gpxtpx:TrackPointExtension><gpxtpx:hr>100</gpxtpx:hr></gpxtpx:TrackPointExtension></extensions>
      </trkpt>
      <trkpt lat="56.43787667" lon="12.72847833">
        <ele>105.157</ele>
        <time>1970-01-01T01:00:00Z</time>
        <extensions><gpxtpx:TrackPointExtension><gpxtpx:hr>101</gpxtpx:hr></gpxtpx:TrackPointExtension></extensions>
      </trkpt>
      <trkpt lat="56.43788667" lon="12.72847">
        <ele>105.005</ele>
        <time>1970-01-01T01:00:00Z</time>
        <extensions><gpxtpx:TrackPointExtension><gpxtpx:hr>101</gpxtpx:hr></gpxtpx:TrackPointExtension></extensions>
      </trkpt>
      <trkpt lat="56.43789667" lon="12.72846">
        <ele>105.005</ele>
        <time>1970-01-01T01:00:00Z</time>
        <extensions><gpxtpx:TrackPointExtension><gpxtpx:hr>101</gpxtpx:hr></gpxtpx:TrackPointExtension></extensions>
      </trkpt>
      <trkpt lat="56.43791" lon="12.728455">
        <ele>104.852</ele>
        <time>1970-01-01T01:00:00Z</time>
        <extensions><gpxtpx:TrackPointExtension><gpxtpx:hr>101</gpxtpx:hr></gpxtpx:TrackPointExtension></extensions>
      </trkpt>
      <trkpt lat="56.43792167" lon="12.72845167">
        <ele>104.852</ele>
        <time>1970-01-01T01:00:00Z</time>
        <extensions><gpxtpx:TrackPointExtension><gpxtpx:hr>102</gpxtpx:hr></gpxtpx:TrackPointExtension></extensions>
      </trkpt>
      <trkpt lat="56.43793167" lon="12.72844667">
        <ele>104.7</ele>
        <time>1970-01-01T01:00:00Z</time>
        <extensions><gpxtpx:TrackPointExtension><gpxtpx:hr>105</gpxtpx:hr></gpxtpx:TrackPointExtension></extensions>
      </trkpt>
      <trkpt lat="56.43794333" lon="12.72843667">
        <ele>104.7</ele>
        <time>1970-01-01T01:00:00Z</time>
        <extensions><gpxtpx:TrackPointExtension><gpxtpx:hr>105</gpxtpx:hr></gpxtpx:TrackPointExtension></extensions>
      </trkpt>
      <trkpt lat="56.43795667" lon="12.72842833">
        <ele>104.7</ele>
        <time>1970-01-01T01:00:00Z</time>
        <extensions><gpxtpx:TrackPointExtension><gpxtpx:hr>105</gpxtpx:hr></gpxtpx:TrackPointExtension></extensions>
      </trkpt>
      <trkpt lat="56.43797" lon="12.72842167">
        <ele>104.7</ele>
        <time>1970-01-01T01:00:00Z</time>
        <extensions><gpxtpx:TrackPointExtension><gpxtpx:hr>106</gpxtpx:hr></gpxtpx:TrackPointExtension></extensions>
      </trkpt>
      <trkpt lat="56.43798167" lon="12.72841333">
        <ele>104.7</ele>
        <time>1970-01-01T01:00:00Z</time>
        <extensions><gpxtpx:TrackPointExtension><gpxtpx:hr>106</gpxtpx:hr></gpxtpx:TrackPointExtension></extensions>
      </trkpt>
      <trkpt lat="56.43799333" lon="12.72840667">
        <ele>104.7</ele>
        <time>1970-01-01T01:00:00Z</time>
        <extensions><gpxtpx:TrackPointExtension><gpxtpx:hr>107</gpxtpx:hr></gpxtpx:TrackPointExtension></extensions>
      </trkpt>
      <trkpt lat="56.438005" lon="12.72839667">
        <ele>104.7</ele>
        <time>1970-01-01T01:00:00Z</time>
        <extensions><gpxtpx:TrackPointExtension><gpxtpx:hr>107</gpxtpx:hr></gpxtpx:TrackPointExtension></extensions>
      </trkpt>
      <trkpt lat="56.438015" lon="12.72838667">
        <ele>104.7</ele>
        <time>1970-01-01T01:00:00Z</time>
        <extensions><gpxtpx:TrackPointExtension><gpxtpx:hr>107</gpxtpx:hr></gpxtpx:TrackPointExtension></extensions>
      </trkpt>
      <trkpt lat="56.43802833" lon="12.72837167">
        <ele>104.7</ele>
        <time>1970-01-01T01:00:00Z</time>
        <extensions><gpxtpx:TrackPointExtension><gpxtpx:hr>107</gpxtpx:hr></gpxtpx:TrackPointExtension></extensions>
      </trkpt>
      <trkpt lat="56.438035" lon="12.72836167">
        <ele>104.7</ele>
        <time>1970-01-01T01:00:00Z</time>
        <extensions><gpxtpx:TrackPointExtension><gpxtpx:hr>107</gpxtpx:hr></gpxtpx:TrackPointExtension></extensions>
      </trkpt>
      <trkpt lat="56.43804833" lon="12.72834667">
        <ele>104.852</ele>
        <time>1970-01-01T01:00:00Z</time>
        <extensions><gpxtpx:TrackPointExtension><gpxtpx:hr>107</gpxtpx:hr></gpxtpx:TrackPointExtension></extensions>
      </trkpt>
      <trkpt lat="56.43806" lon="12.72833667">
        <ele>104.852</ele>
        <time>1970-01-01T01:00:00Z</time>
        <extensions><gpxtpx:TrackPointExtension><gpxtpx:hr>107</gpxtpx:hr></gpxtpx:TrackPointExtension></extensions>
      </trkpt>
      <trkpt lat="56.43807" lon="12.72832333">
        <ele>104.852</ele>
        <time>1970-01-01T01:00:00Z</time>
        <extensions><gpxtpx:TrackPointExtension><gpxtpx:hr>107</gpxtpx:hr></gpxtpx:TrackPointExtension></extensions>
      </trkpt>
      <trkpt lat="56.43808167" lon="12.72831167">
        <ele>104.852</ele>
        <time>1970-01-01T01:00:00Z</time>
        <extensions><gpxtpx:TrackPointExtension><gpxtpx:hr>107</gpxtpx:hr></gpxtpx:TrackPointExtension></extensions>
      </trkpt>
      <trkpt lat="56.43809" lon="12.7283">
        <ele>105.005</ele>
        <time>1970-01-01T01:00:00Z</time>
        <extensions><gpxtpx:TrackPointExtension><gpxtpx:hr>108</gpxtpx:hr></gpxtpx:TrackPointExtension></extensions>
      </trkpt>
      <trkpt lat="56.43810167" lon="12.72828833">
        <ele>105.005</ele>
        <time>1970-01-01T01:00:00Z</time>
        <extensions><gpxtpx:TrackPointExtension><gpxtpx:hr>109</gpxtpx:hr></gpxtpx:TrackPointExtension></extensions>
      </trkpt>
      <trkpt lat="56.43811167" lon="12.728275">
        <ele>105.005</ele>
        <time>1970-01-01T01:00:00Z</time>
        <extensions><gpxtpx:TrackPointExtension><gpxtpx:hr>109</gpxtpx:hr></gpxtpx:TrackPointExtension></extensions>
      </trkpt>
      <trkpt lat="56.43812" lon="12.72826">
        <ele>105.005</ele>
        <time>1970-01-01T01:00:00Z</time>
        <extensions><gpxtpx:TrackPointExtension><gpxtpx:hr>109</gpxtpx:hr></gpxtpx:TrackPointExtension></extensions>
      </trkpt>
      <trkpt lat="56.43812667" lon="12.72824">
        <ele>105.005</ele>
        <time>1970-01-01T01:00:00Z</time>
        <extensions><gpxtpx:TrackPointExtension><gpxtpx:hr>110</gpxtpx:hr></gpxtpx:TrackPointExtension></extensions>
      </trkpt>
      <trkpt lat="56.43813" lon="12.728225">
        <ele>105.005</ele>
        <time>1970-01-01T01:00:00Z</time>
        <extensions><gpxtpx:TrackPointExtension><gpxtpx:hr>110</gpxtpx:hr></gpxtpx:TrackPointExtension></extensions>
      </trkpt>
      <trkpt lat="56.43813333" lon="12.728205">
        <ele>105.005</ele>
        <time>1970-01-01T01:00:00Z</time>
        <extensions><gpxtpx:TrackPointExtension><gpxtpx:hr>112</gpxtpx:hr></gpxtpx:TrackPointExtension></extensions>
      </trkpt>
      <trkpt lat="56.43814" lon="12.728185">
        <ele>105.005</ele>
        <time>1970-01-01T01:00:00Z</time>
        <extensions><gpxtpx:TrackPointExtension><gpxtpx:hr>113</gpxtpx:hr></gpxtpx:TrackPointExtension></extensions>
      </trkpt>
      <trkpt lat="56.438145" lon="12.72816667">
        <ele>105.005</ele>
        <time>1970-01-01T01:00:00Z</time>
        <extensions><gpxtpx:TrackPointExtension><gpxtpx:hr>113</gpxtpx:hr></gpxtpx:TrackPointExtension></extensions>
      </trkpt>
      <trkpt lat="56.43815167" lon="12.72814833">
        <ele>105.005</ele>
        <time>1970-01-01T01:00:00Z</time>
        <extensions><gpxtpx:TrackPointExtension><gpxtpx:hr>114</gpxtpx:hr></gpxtpx:TrackPointExtension></extensions>
      </trkpt>
      <trkpt lat="56.43815833" lon="12.72813167">
        <ele>105.005</ele>
        <time>1970-01-01T01:00:00Z</time>
        <extensions><gpxtpx:TrackPointExtension><gpxtpx:hr>114</gpxtpx:hr></gpxtpx:TrackPointExtension></extensions>
      </trkpt>
      <trkpt lat="56.438165" lon="12.72811167">
        <ele>105.005</ele>
        <time>1970-01-01T01:00:00Z</time>
        <extensions><gpxtpx:TrackPointExtension><gpxtpx:hr>114</gpxtpx:hr></gpxtpx:TrackPointExtension></extensions>
      </trkpt>
      <trkpt lat="56.438165" lon="12.72808667">
        <ele>105.005</ele>
        <time>1970-01-01T01:00:00Z</time>
        <extensions><gpxtpx:TrackPointExtension><gpxtpx:hr>114</gpxtpx:hr></gpxtpx:TrackPointExtension></extensions>
      </trkpt>
      <trkpt lat="56.43816333" lon="12.72806">
        <ele>105.005</ele>
        <time>1970-01-01T01:00:00Z</time>
        <extensions><gpxtpx:TrackPointExtension><gpxtpx:hr>114</gpxtpx:hr></gpxtpx:TrackPointExtension></extensions>
      </trkpt>
      <trkpt lat="56.438165" lon="12.72803667">
        <ele>105.005</ele>
        <time>1970-01-01T01:00:00Z</time>
        <extensions><gpxtpx:TrackPointExtension><gpxtpx:hr>114</gpxtpx:hr></gpxtpx:TrackPointExtension></extensions>
      </trkpt>
      <trkpt lat="56.43816667" lon="12.72801">
        <ele>105.005</ele>
        <time>1970-01-01T01:00:00Z</time>
        <extensions><gpxtpx:TrackPointExtension><gpxtpx:hr>113</gpxtpx:hr></gpxtpx:TrackPointExtension></extensions>
      </trkpt>
      <trkpt lat="56.438165" lon="12.72798167">
        <ele>105.005</ele>
        <time>1970-01-01T01:00:00Z</time>
        <extensions><gpxtpx:TrackPointExtension><gpxtpx:hr>115</gpxtpx:hr></gpxtpx:TrackPointExtension></extensions>
      </trkpt>
      <trkpt lat="56.43816333" lon="12.72795">
        <ele>105.005</ele>
        <time>1970-01-01T01:00:00Z</time>
        <extensions><gpxtpx:TrackPointExtension><gpxtpx:hr>115</gpxtpx:hr></gpxtpx:TrackPointExtension></extensions>
      </trkpt>
      <trkpt lat="56.43816333" lon="12.727925">
        <ele>105.005</ele>
        <time>1970-01-01T01:00:00Z</time>
        <extensions><gpxtpx:TrackPointExtension><gpxtpx:hr>115</gpxtpx:hr></gpxtpx:TrackPointExtension></extensions>
      </trkpt>
      <trkpt lat="56.438165" lon="12.72790167">
        <ele>105.005</ele>
        <time>1970-01-01T01:00:00Z</time>
        <extensions><gpxtpx:TrackPointExtension><gpxtpx:hr>116</gpxtpx:hr></gpxtpx:TrackPointExtension></extensions>
      </trkpt>
      <trkpt lat="56.43816333" lon="12.72788667">
        <ele>105.005</ele>
        <time>1970-01-01T01:00:00Z</time>
        <extensions><gpxtpx:TrackPointExtension><gpxtpx:hr>117</gpxtpx:hr></gpxtpx:TrackPointExtension></extensions>
      </trkpt>
      <trkpt lat="56.43815833" lon="12.72786167">
        <ele>104.852</ele>
        <time>1970-01-01T01:00:00Z</time>
        <extensions><gpxtpx:TrackPointExtension><gpxtpx:hr>118</gpxtpx:hr></gpxtpx:TrackPointExtension></extensions>
      </trkpt>
      <trkpt lat="56.43815333" lon="12.72783833">
        <ele>104.852</ele>
        <time>1970-01-01T01:00:00Z</time>
        <extensions><gpxtpx:TrackPointExtension><gpxtpx:hr>118</gpxtpx:hr></gpxtpx:TrackPointExtension></extensions>
      </trkpt>
      <trkpt lat="56.43814667" lon="12.72781833">
        <ele>104.852</ele>
        <time>1970-01-01T01:00:00Z</time>
        <extensions><gpxtpx:TrackPointExtension><gpxtpx:hr>118</gpxtpx:hr></gpxtpx:TrackPointExtension></extensions>
      </trkpt>
      <trkpt lat="56.43814167" lon="12.72779833">
        <ele>104.852</ele>
        <time>1970-01-01T01:00:00Z</time>
        <extensions><gpxtpx:TrackPointExtension><gpxtpx:hr>118</gpxtpx:hr></gpxtpx:TrackPointExtension></extensions>
      </trkpt>
      <trkpt lat="56.438135" lon="12.727775">
        <ele>104.852</ele>
        <time>1970-01-01T01:00:00Z</time>
        <extensions><gpxtpx:TrackPointExtension><gpxtpx:hr>119</gpxtpx:hr></gpxtpx:TrackPointExtension></extensions>
      </trkpt>
      <trkpt lat="56.438135" lon="12.72776167">
        <ele>104.852</ele>
        <time>1970-01-01T01:00:00Z</time>
        <extensions><gpxtpx:TrackPointExtension><gpxtpx:hr>119</gpxtpx:hr></gpxtpx:TrackPointExtension></extensions>
      </trkpt>
    </trkseg>
  </trk>
</gpx>